<?xml version="1.0" encoding="UTF-8" standalone="no" ?>
<gpx xmlns="http://www.topografix.com/GPX/1/1" xmlns:xsi="http://www.w3.org/2001/XMLSchema-instance" xsi:schemaLocation="http://www.topografix.com/GPX/1/1 http://www.topografix.com/GPX/1/1/gpx.xsd" version="1.1" creator="VisuGPX - https://www.visugpx.com">
  <metadata>
    <name>Plainoiseau,L'Etoile,Le Pin,</name>
  </metadata>
  <trk>
    <name><![CDATA[Plainoiseau,L'Etoile,Le Pin,_1]]></name>
    <trkseg>
      <trkpt lat="46.73091" lon="5.55489">
        <ele>272.8</ele>
        <time>2020-03-13T08:07:55Z</time>
      </trkpt>
      <trkpt lat="46.73089" lon="5.55495">
        <ele>272.3</ele>
        <time>2020-03-13T08:08:01Z</time>
      </trkpt>
      <trkpt lat="46.73094" lon="5.55498">
        <ele>286.8</ele>
        <time>2020-03-13T08:08:42Z</time>
      </trkpt>
      <trkpt lat="46.73089" lon="5.55497">
        <ele>292.2</ele>
        <time>2020-03-13T08:12:45Z</time>
      </trkpt>
      <trkpt lat="46.73084" lon="5.55497">
        <ele>292.3</ele>
        <time>2020-03-13T08:12:48Z</time>
      </trkpt>
      <trkpt lat="46.7308" lon="5.55494">
        <ele>292.7</ele>
        <time>2020-03-13T08:12:55Z</time>
      </trkpt>
      <trkpt lat="46.73076" lon="5.55489">
        <ele>292.7</ele>
        <time>2020-03-13T08:13:02Z</time>
      </trkpt>
      <trkpt lat="46.73077" lon="5.55496">
        <ele>292.7</ele>
        <time>2020-03-13T08:13:34Z</time>
      </trkpt>
      <trkpt lat="46.73075" lon="5.55503">
        <ele>293.2</ele>
        <time>2020-03-13T08:13:40Z</time>
      </trkpt>
      <trkpt lat="46.73073" lon="5.55509">
        <ele>293.4</ele>
        <time>2020-03-13T08:13:44Z</time>
      </trkpt>
      <trkpt lat="46.73068" lon="5.55512">
        <ele>293.7</ele>
        <time>2020-03-13T08:13:49Z</time>
      </trkpt>
      <trkpt lat="46.73064" lon="5.5551">
        <ele>293.8</ele>
        <time>2020-03-13T08:13:53Z</time>
      </trkpt>
      <trkpt lat="46.73058" lon="5.5551">
        <ele>293.8</ele>
        <time>2020-03-13T08:13:56Z</time>
      </trkpt>
      <trkpt lat="46.73053" lon="5.55509">
        <ele>293.9</ele>
        <time>2020-03-13T08:14:00Z</time>
      </trkpt>
      <trkpt lat="46.73044" lon="5.55509">
        <ele>294.2</ele>
        <time>2020-03-13T08:14:11Z</time>
      </trkpt>
      <trkpt lat="46.73039" lon="5.55507">
        <ele>293.9</ele>
        <time>2020-03-13T08:14:15Z</time>
      </trkpt>
      <trkpt lat="46.73034" lon="5.55505">
        <ele>293.5</ele>
        <time>2020-03-13T08:14:19Z</time>
      </trkpt>
      <trkpt lat="46.73029" lon="5.55503">
        <ele>293.2</ele>
        <time>2020-03-13T08:14:23Z</time>
      </trkpt>
      <trkpt lat="46.73024" lon="5.55505">
        <ele>292.9</ele>
        <time>2020-03-13T08:14:28Z</time>
      </trkpt>
      <trkpt lat="46.73019" lon="5.55503">
        <ele>292.6</ele>
        <time>2020-03-13T08:14:34Z</time>
      </trkpt>
      <trkpt lat="46.73014" lon="5.55502">
        <ele>292.1</ele>
        <time>2020-03-13T08:14:40Z</time>
      </trkpt>
      <trkpt lat="46.73012" lon="5.55495">
        <ele>291.6</ele>
        <time>2020-03-13T08:14:46Z</time>
      </trkpt>
      <trkpt lat="46.73008" lon="5.55492">
        <ele>291.5</ele>
        <time>2020-03-13T08:14:51Z</time>
      </trkpt>
      <trkpt lat="46.73005" lon="5.55486">
        <ele>291.5</ele>
        <time>2020-03-13T08:14:58Z</time>
      </trkpt>
      <trkpt lat="46.73002" lon="5.55479">
        <ele>291.3</ele>
        <time>2020-03-13T08:15:05Z</time>
      </trkpt>
      <trkpt lat="46.73003" lon="5.55471">
        <ele>291.1</ele>
        <time>2020-03-13T08:15:10Z</time>
      </trkpt>
      <trkpt lat="46.73005" lon="5.55465">
        <ele>290.9</ele>
        <time>2020-03-13T08:15:15Z</time>
      </trkpt>
      <trkpt lat="46.73006" lon="5.55458">
        <ele>290.9</ele>
        <time>2020-03-13T08:15:20Z</time>
      </trkpt>
      <trkpt lat="46.73007" lon="5.55451">
        <ele>291.1</ele>
        <time>2020-03-13T08:15:26Z</time>
      </trkpt>
      <trkpt lat="46.73009" lon="5.55444">
        <ele>291.3</ele>
        <time>2020-03-13T08:15:30Z</time>
      </trkpt>
      <trkpt lat="46.73011" lon="5.55437">
        <ele>291.5</ele>
        <time>2020-03-13T08:15:35Z</time>
      </trkpt>
      <trkpt lat="46.73011" lon="5.55431">
        <ele>291.8</ele>
        <time>2020-03-13T08:15:40Z</time>
      </trkpt>
      <trkpt lat="46.73011" lon="5.55424">
        <ele>292.3</ele>
        <time>2020-03-13T08:15:46Z</time>
      </trkpt>
      <trkpt lat="46.73012" lon="5.55416">
        <ele>292.6</ele>
        <time>2020-03-13T08:15:50Z</time>
      </trkpt>
      <trkpt lat="46.73012" lon="5.5541">
        <ele>292.7</ele>
        <time>2020-03-13T08:15:54Z</time>
      </trkpt>
      <trkpt lat="46.73012" lon="5.55403">
        <ele>292.6</ele>
        <time>2020-03-13T08:15:58Z</time>
      </trkpt>
      <trkpt lat="46.73014" lon="5.55395">
        <ele>292.5</ele>
        <time>2020-03-13T08:16:04Z</time>
      </trkpt>
      <trkpt lat="46.73015" lon="5.55389">
        <ele>292.4</ele>
        <time>2020-03-13T08:16:09Z</time>
      </trkpt>
      <trkpt lat="46.73017" lon="5.55382">
        <ele>292.2</ele>
        <time>2020-03-13T08:16:13Z</time>
      </trkpt>
      <trkpt lat="46.73018" lon="5.55375">
        <ele>291.8</ele>
        <time>2020-03-13T08:16:19Z</time>
      </trkpt>
      <trkpt lat="46.7302" lon="5.55368">
        <ele>291.8</ele>
        <time>2020-03-13T08:16:24Z</time>
      </trkpt>
      <trkpt lat="46.73023" lon="5.55351">
        <ele>291.5</ele>
        <time>2020-03-13T08:16:39Z</time>
      </trkpt>
      <trkpt lat="46.73025" lon="5.55345">
        <ele>291.4</ele>
        <time>2020-03-13T08:16:43Z</time>
      </trkpt>
      <trkpt lat="46.7303" lon="5.5534">
        <ele>291.1</ele>
        <time>2020-03-13T08:16:48Z</time>
      </trkpt>
      <trkpt lat="46.73033" lon="5.55335">
        <ele>291</ele>
        <time>2020-03-13T08:16:53Z</time>
      </trkpt>
      <trkpt lat="46.73038" lon="5.55332">
        <ele>290.9</ele>
        <time>2020-03-13T08:16:58Z</time>
      </trkpt>
      <trkpt lat="46.73043" lon="5.5533">
        <ele>290.9</ele>
        <time>2020-03-13T08:17:03Z</time>
      </trkpt>
      <trkpt lat="46.73047" lon="5.55327">
        <ele>291</ele>
        <time>2020-03-13T08:17:07Z</time>
      </trkpt>
      <trkpt lat="46.73051" lon="5.55322">
        <ele>291.4</ele>
        <time>2020-03-13T08:17:12Z</time>
      </trkpt>
      <trkpt lat="46.73056" lon="5.5532">
        <ele>292.1</ele>
        <time>2020-03-13T08:17:18Z</time>
      </trkpt>
      <trkpt lat="46.7306" lon="5.55317">
        <ele>292.4</ele>
        <time>2020-03-13T08:17:22Z</time>
      </trkpt>
      <trkpt lat="46.73066" lon="5.55316">
        <ele>292.9</ele>
        <time>2020-03-13T08:17:27Z</time>
      </trkpt>
      <trkpt lat="46.73071" lon="5.55314">
        <ele>293.3</ele>
        <time>2020-03-13T08:17:32Z</time>
      </trkpt>
      <trkpt lat="46.73075" lon="5.55312">
        <ele>293.5</ele>
        <time>2020-03-13T08:17:35Z</time>
      </trkpt>
      <trkpt lat="46.73081" lon="5.55312">
        <ele>293.7</ele>
        <time>2020-03-13T08:17:40Z</time>
      </trkpt>
      <trkpt lat="46.73086" lon="5.55313">
        <ele>294.2</ele>
        <time>2020-03-13T08:17:45Z</time>
      </trkpt>
      <trkpt lat="46.73091" lon="5.55312">
        <ele>294.7</ele>
        <time>2020-03-13T08:17:50Z</time>
      </trkpt>
      <trkpt lat="46.73097" lon="5.55311">
        <ele>295.2</ele>
        <time>2020-03-13T08:17:54Z</time>
      </trkpt>
      <trkpt lat="46.73102" lon="5.55311">
        <ele>295.7</ele>
        <time>2020-03-13T08:17:59Z</time>
      </trkpt>
      <trkpt lat="46.73106" lon="5.55308">
        <ele>296.3</ele>
        <time>2020-03-13T08:18:05Z</time>
      </trkpt>
      <trkpt lat="46.7311" lon="5.55307">
        <ele>296.5</ele>
        <time>2020-03-13T08:18:09Z</time>
      </trkpt>
      <trkpt lat="46.73116" lon="5.55307">
        <ele>296.6</ele>
        <time>2020-03-13T08:18:13Z</time>
      </trkpt>
      <trkpt lat="46.73121" lon="5.55306">
        <ele>296.4</ele>
        <time>2020-03-13T08:18:18Z</time>
      </trkpt>
      <trkpt lat="46.73126" lon="5.55304">
        <ele>296.2</ele>
        <time>2020-03-13T08:18:23Z</time>
      </trkpt>
      <trkpt lat="46.7313" lon="5.55303">
        <ele>295.9</ele>
        <time>2020-03-13T08:18:27Z</time>
      </trkpt>
      <trkpt lat="46.73134" lon="5.553">
        <ele>295.3</ele>
        <time>2020-03-13T08:18:32Z</time>
      </trkpt>
      <trkpt lat="46.73136" lon="5.55294">
        <ele>292.7</ele>
        <time>2020-03-13T08:18:42Z</time>
      </trkpt>
      <trkpt lat="46.73138" lon="5.55287">
        <ele>291</ele>
        <time>2020-03-13T08:18:47Z</time>
      </trkpt>
      <trkpt lat="46.73139" lon="5.5528">
        <ele>288.5</ele>
        <time>2020-03-13T08:19:03Z</time>
      </trkpt>
      <trkpt lat="46.73139" lon="5.55273">
        <ele>288.2</ele>
        <time>2020-03-13T08:19:09Z</time>
      </trkpt>
      <trkpt lat="46.73139" lon="5.55265">
        <ele>288.1</ele>
        <time>2020-03-13T08:19:12Z</time>
      </trkpt>
      <trkpt lat="46.73139" lon="5.55258">
        <ele>287.9</ele>
        <time>2020-03-13T08:19:17Z</time>
      </trkpt>
      <trkpt lat="46.73139" lon="5.55251">
        <ele>287.9</ele>
        <time>2020-03-13T08:19:24Z</time>
      </trkpt>
      <trkpt lat="46.73138" lon="5.55243">
        <ele>288.1</ele>
        <time>2020-03-13T08:19:29Z</time>
      </trkpt>
      <trkpt lat="46.73136" lon="5.55236">
        <ele>288.3</ele>
        <time>2020-03-13T08:19:32Z</time>
      </trkpt>
      <trkpt lat="46.73134" lon="5.55229">
        <ele>288.4</ele>
        <time>2020-03-13T08:19:35Z</time>
      </trkpt>
      <trkpt lat="46.73132" lon="5.55216">
        <ele>288.9</ele>
        <time>2020-03-13T08:19:44Z</time>
      </trkpt>
      <trkpt lat="46.73132" lon="5.55209">
        <ele>288.9</ele>
        <time>2020-03-13T08:19:49Z</time>
      </trkpt>
      <trkpt lat="46.73135" lon="5.55203">
        <ele>289.2</ele>
        <time>2020-03-13T08:19:54Z</time>
      </trkpt>
      <trkpt lat="46.73139" lon="5.55199">
        <ele>289.6</ele>
        <time>2020-03-13T08:19:58Z</time>
      </trkpt>
      <trkpt lat="46.73143" lon="5.55194">
        <ele>289.9</ele>
        <time>2020-03-13T08:20:03Z</time>
      </trkpt>
      <trkpt lat="46.73146" lon="5.55189">
        <ele>290.2</ele>
        <time>2020-03-13T08:20:09Z</time>
      </trkpt>
      <trkpt lat="46.73149" lon="5.55182">
        <ele>290.2</ele>
        <time>2020-03-13T08:20:14Z</time>
      </trkpt>
      <trkpt lat="46.73151" lon="5.55176">
        <ele>290.1</ele>
        <time>2020-03-13T08:20:18Z</time>
      </trkpt>
      <trkpt lat="46.73154" lon="5.55169">
        <ele>289.7</ele>
        <time>2020-03-13T08:20:23Z</time>
      </trkpt>
      <trkpt lat="46.73157" lon="5.55165">
        <ele>289.3</ele>
        <time>2020-03-13T08:20:27Z</time>
      </trkpt>
      <trkpt lat="46.73159" lon="5.55158">
        <ele>288.8</ele>
        <time>2020-03-13T08:20:32Z</time>
      </trkpt>
      <trkpt lat="46.73162" lon="5.55153">
        <ele>288.2</ele>
        <time>2020-03-13T08:20:36Z</time>
      </trkpt>
      <trkpt lat="46.73165" lon="5.55146">
        <ele>287.5</ele>
        <time>2020-03-13T08:20:40Z</time>
      </trkpt>
      <trkpt lat="46.73167" lon="5.5514">
        <ele>286.5</ele>
        <time>2020-03-13T08:20:45Z</time>
      </trkpt>
      <trkpt lat="46.7317" lon="5.55133">
        <ele>285.7</ele>
        <time>2020-03-13T08:20:49Z</time>
      </trkpt>
      <trkpt lat="46.73172" lon="5.55128">
        <ele>285</ele>
        <time>2020-03-13T08:20:53Z</time>
      </trkpt>
      <trkpt lat="46.73174" lon="5.55119">
        <ele>283.7</ele>
        <time>2020-03-13T08:20:58Z</time>
      </trkpt>
      <trkpt lat="46.73176" lon="5.55111">
        <ele>283</ele>
        <time>2020-03-13T08:21:02Z</time>
      </trkpt>
      <trkpt lat="46.73177" lon="5.55103">
        <ele>282.8</ele>
        <time>2020-03-13T08:21:07Z</time>
      </trkpt>
      <trkpt lat="46.73177" lon="5.55095">
        <ele>282.8</ele>
        <time>2020-03-13T08:21:11Z</time>
      </trkpt>
      <trkpt lat="46.73179" lon="5.55088">
        <ele>282.9</ele>
        <time>2020-03-13T08:21:15Z</time>
      </trkpt>
      <trkpt lat="46.73181" lon="5.55081">
        <ele>283</ele>
        <time>2020-03-13T08:21:19Z</time>
      </trkpt>
      <trkpt lat="46.73184" lon="5.55075">
        <ele>283</ele>
        <time>2020-03-13T08:21:23Z</time>
      </trkpt>
      <trkpt lat="46.73187" lon="5.55068">
        <ele>283.1</ele>
        <time>2020-03-13T08:21:28Z</time>
      </trkpt>
      <trkpt lat="46.7319" lon="5.55063">
        <ele>282.9</ele>
        <time>2020-03-13T08:21:33Z</time>
      </trkpt>
      <trkpt lat="46.73192" lon="5.55057">
        <ele>282.5</ele>
        <time>2020-03-13T08:21:38Z</time>
      </trkpt>
      <trkpt lat="46.73196" lon="5.55051">
        <ele>282</ele>
        <time>2020-03-13T08:21:43Z</time>
      </trkpt>
      <trkpt lat="46.73198" lon="5.55044">
        <ele>281.6</ele>
        <time>2020-03-13T08:21:48Z</time>
      </trkpt>
      <trkpt lat="46.73201" lon="5.55039">
        <ele>281.3</ele>
        <time>2020-03-13T08:21:52Z</time>
      </trkpt>
      <trkpt lat="46.73205" lon="5.55033">
        <ele>281</ele>
        <time>2020-03-13T08:21:56Z</time>
      </trkpt>
      <trkpt lat="46.73208" lon="5.55027">
        <ele>280.7</ele>
        <time>2020-03-13T08:22:01Z</time>
      </trkpt>
      <trkpt lat="46.73211" lon="5.5502">
        <ele>280.6</ele>
        <time>2020-03-13T08:22:05Z</time>
      </trkpt>
      <trkpt lat="46.73213" lon="5.55013">
        <ele>280.4</ele>
        <time>2020-03-13T08:22:10Z</time>
      </trkpt>
      <trkpt lat="46.73216" lon="5.55007">
        <ele>280</ele>
        <time>2020-03-13T08:22:15Z</time>
      </trkpt>
      <trkpt lat="46.73218" lon="5.55">
        <ele>279.5</ele>
        <time>2020-03-13T08:22:21Z</time>
      </trkpt>
      <trkpt lat="46.7322" lon="5.54994">
        <ele>279.1</ele>
        <time>2020-03-13T08:22:26Z</time>
      </trkpt>
      <trkpt lat="46.73222" lon="5.54988">
        <ele>279</ele>
        <time>2020-03-13T08:22:30Z</time>
      </trkpt>
      <trkpt lat="46.73225" lon="5.54983">
        <ele>279.1</ele>
        <time>2020-03-13T08:22:34Z</time>
      </trkpt>
      <trkpt lat="46.73229" lon="5.54977">
        <ele>279.3</ele>
        <time>2020-03-13T08:22:39Z</time>
      </trkpt>
      <trkpt lat="46.73233" lon="5.54974">
        <ele>279.8</ele>
        <time>2020-03-13T08:22:45Z</time>
      </trkpt>
      <trkpt lat="46.73237" lon="5.54969">
        <ele>280.5</ele>
        <time>2020-03-13T08:22:54Z</time>
      </trkpt>
      <trkpt lat="46.7324" lon="5.54963">
        <ele>280.8</ele>
        <time>2020-03-13T08:22:59Z</time>
      </trkpt>
      <trkpt lat="46.73243" lon="5.54958">
        <ele>281.2</ele>
        <time>2020-03-13T08:23:04Z</time>
      </trkpt>
      <trkpt lat="46.73246" lon="5.54952">
        <ele>281.4</ele>
        <time>2020-03-13T08:23:08Z</time>
      </trkpt>
      <trkpt lat="46.73249" lon="5.54945">
        <ele>281.2</ele>
        <time>2020-03-13T08:23:14Z</time>
      </trkpt>
      <trkpt lat="46.73252" lon="5.54939">
        <ele>280.7</ele>
        <time>2020-03-13T08:23:18Z</time>
      </trkpt>
      <trkpt lat="46.73255" lon="5.54931">
        <ele>280.4</ele>
        <time>2020-03-13T08:23:22Z</time>
      </trkpt>
      <trkpt lat="46.73257" lon="5.54924">
        <ele>280.2</ele>
        <time>2020-03-13T08:23:25Z</time>
      </trkpt>
      <trkpt lat="46.73259" lon="5.54918">
        <ele>280.1</ele>
        <time>2020-03-13T08:23:29Z</time>
      </trkpt>
      <trkpt lat="46.73264" lon="5.54913">
        <ele>280.2</ele>
        <time>2020-03-13T08:23:34Z</time>
      </trkpt>
      <trkpt lat="46.73267" lon="5.54907">
        <ele>280.7</ele>
        <time>2020-03-13T08:23:39Z</time>
      </trkpt>
      <trkpt lat="46.73269" lon="5.54901">
        <ele>281.3</ele>
        <time>2020-03-13T08:23:44Z</time>
      </trkpt>
      <trkpt lat="46.7327" lon="5.54894">
        <ele>281.8</ele>
        <time>2020-03-13T08:23:49Z</time>
      </trkpt>
      <trkpt lat="46.7327" lon="5.54886">
        <ele>281.8</ele>
        <time>2020-03-13T08:23:54Z</time>
      </trkpt>
      <trkpt lat="46.73271" lon="5.54879">
        <ele>281.7</ele>
        <time>2020-03-13T08:24:00Z</time>
      </trkpt>
      <trkpt lat="46.73271" lon="5.54871">
        <ele>281.7</ele>
        <time>2020-03-13T08:24:06Z</time>
      </trkpt>
      <trkpt lat="46.73273" lon="5.54864">
        <ele>281.6</ele>
        <time>2020-03-13T08:24:11Z</time>
      </trkpt>
      <trkpt lat="46.73275" lon="5.54857">
        <ele>281.7</ele>
        <time>2020-03-13T08:24:15Z</time>
      </trkpt>
      <trkpt lat="46.73278" lon="5.54851">
        <ele>282</ele>
        <time>2020-03-13T08:24:19Z</time>
      </trkpt>
      <trkpt lat="46.73281" lon="5.54844">
        <ele>282.6</ele>
        <time>2020-03-13T08:24:24Z</time>
      </trkpt>
      <trkpt lat="46.73284" lon="5.54837">
        <ele>283.1</ele>
        <time>2020-03-13T08:24:29Z</time>
      </trkpt>
      <trkpt lat="46.73288" lon="5.54831">
        <ele>283.4</ele>
        <time>2020-03-13T08:24:33Z</time>
      </trkpt>
      <trkpt lat="46.73291" lon="5.54826">
        <ele>283.7</ele>
        <time>2020-03-13T08:24:38Z</time>
      </trkpt>
      <trkpt lat="46.73293" lon="5.5482">
        <ele>283.6</ele>
        <time>2020-03-13T08:24:44Z</time>
      </trkpt>
      <trkpt lat="46.73297" lon="5.54814">
        <ele>283.3</ele>
        <time>2020-03-13T08:24:49Z</time>
      </trkpt>
      <trkpt lat="46.73299" lon="5.54808">
        <ele>283.1</ele>
        <time>2020-03-13T08:24:55Z</time>
      </trkpt>
      <trkpt lat="46.73301" lon="5.54801">
        <ele>282</ele>
        <time>2020-03-13T08:25:09Z</time>
      </trkpt>
      <trkpt lat="46.733" lon="5.54795">
        <ele>278.9</ele>
        <time>2020-03-13T08:25:26Z</time>
      </trkpt>
      <trkpt lat="46.73298" lon="5.54787">
        <ele>278.1</ele>
        <time>2020-03-13T08:25:32Z</time>
      </trkpt>
      <trkpt lat="46.73297" lon="5.5478">
        <ele>277.8</ele>
        <time>2020-03-13T08:25:37Z</time>
      </trkpt>
      <trkpt lat="46.73296" lon="5.54773">
        <ele>278.2</ele>
        <time>2020-03-13T08:25:42Z</time>
      </trkpt>
      <trkpt lat="46.73292" lon="5.54767">
        <ele>279.1</ele>
        <time>2020-03-13T08:25:49Z</time>
      </trkpt>
      <trkpt lat="46.73289" lon="5.54763">
        <ele>279.8</ele>
        <time>2020-03-13T08:25:57Z</time>
      </trkpt>
      <trkpt lat="46.73285" lon="5.54759">
        <ele>279.6</ele>
        <time>2020-03-13T08:26:07Z</time>
      </trkpt>
      <trkpt lat="46.73283" lon="5.54753">
        <ele>279.3</ele>
        <time>2020-03-13T08:26:12Z</time>
      </trkpt>
      <trkpt lat="46.73276" lon="5.54737">
        <ele>279.1</ele>
        <time>2020-03-13T08:26:25Z</time>
      </trkpt>
      <trkpt lat="46.73273" lon="5.54731">
        <ele>279.1</ele>
        <time>2020-03-13T08:26:30Z</time>
      </trkpt>
      <trkpt lat="46.7327" lon="5.54726">
        <ele>279.5</ele>
        <time>2020-03-13T08:26:38Z</time>
      </trkpt>
      <trkpt lat="46.73265" lon="5.54722">
        <ele>279.9</ele>
        <time>2020-03-13T08:26:43Z</time>
      </trkpt>
      <trkpt lat="46.7326" lon="5.54721">
        <ele>280.3</ele>
        <time>2020-03-13T08:26:48Z</time>
      </trkpt>
      <trkpt lat="46.73255" lon="5.54719">
        <ele>280.5</ele>
        <time>2020-03-13T08:26:53Z</time>
      </trkpt>
      <trkpt lat="46.73251" lon="5.54715">
        <ele>280.6</ele>
        <time>2020-03-13T08:27:00Z</time>
      </trkpt>
      <trkpt lat="46.73246" lon="5.54714">
        <ele>280.4</ele>
        <time>2020-03-13T08:27:08Z</time>
      </trkpt>
      <trkpt lat="46.73241" lon="5.54712">
        <ele>280.5</ele>
        <time>2020-03-13T08:27:14Z</time>
      </trkpt>
      <trkpt lat="46.73236" lon="5.5471">
        <ele>280.6</ele>
        <time>2020-03-13T08:27:21Z</time>
      </trkpt>
      <trkpt lat="46.73232" lon="5.54708">
        <ele>280.6</ele>
        <time>2020-03-13T08:27:28Z</time>
      </trkpt>
      <trkpt lat="46.73227" lon="5.54705">
        <ele>280.7</ele>
        <time>2020-03-13T08:27:33Z</time>
      </trkpt>
      <trkpt lat="46.73222" lon="5.54702">
        <ele>281.1</ele>
        <time>2020-03-13T08:27:39Z</time>
      </trkpt>
      <trkpt lat="46.73218" lon="5.54699">
        <ele>281.3</ele>
        <time>2020-03-13T08:27:45Z</time>
      </trkpt>
      <trkpt lat="46.73213" lon="5.54697">
        <ele>281.6</ele>
        <time>2020-03-13T08:27:54Z</time>
      </trkpt>
      <trkpt lat="46.73208" lon="5.54696">
        <ele>281.8</ele>
        <time>2020-03-13T08:27:57Z</time>
      </trkpt>
      <trkpt lat="46.73203" lon="5.54695">
        <ele>282.3</ele>
        <time>2020-03-13T08:28:01Z</time>
      </trkpt>
      <trkpt lat="46.73198" lon="5.54691">
        <ele>284</ele>
        <time>2020-03-13T08:28:10Z</time>
      </trkpt>
      <trkpt lat="46.73194" lon="5.54688">
        <ele>285.7</ele>
        <time>2020-03-13T08:28:19Z</time>
      </trkpt>
      <trkpt lat="46.73188" lon="5.54687">
        <ele>286.7</ele>
        <time>2020-03-13T08:28:27Z</time>
      </trkpt>
      <trkpt lat="46.73183" lon="5.54687">
        <ele>287</ele>
        <time>2020-03-13T08:28:32Z</time>
      </trkpt>
      <trkpt lat="46.73178" lon="5.54687">
        <ele>287</ele>
        <time>2020-03-13T08:28:40Z</time>
      </trkpt>
      <trkpt lat="46.73173" lon="5.54685">
        <ele>286.4</ele>
        <time>2020-03-13T08:28:48Z</time>
      </trkpt>
      <trkpt lat="46.73168" lon="5.54686">
        <ele>286.1</ele>
        <time>2020-03-13T08:28:52Z</time>
      </trkpt>
      <trkpt lat="46.73164" lon="5.54686">
        <ele>286.1</ele>
        <time>2020-03-13T08:28:58Z</time>
      </trkpt>
      <trkpt lat="46.73159" lon="5.54682">
        <ele>286.8</ele>
        <time>2020-03-13T08:29:05Z</time>
      </trkpt>
      <trkpt lat="46.73154" lon="5.5468">
        <ele>287.7</ele>
        <time>2020-03-13T08:29:10Z</time>
      </trkpt>
      <trkpt lat="46.73149" lon="5.54677">
        <ele>288.8</ele>
        <time>2020-03-13T08:29:16Z</time>
      </trkpt>
      <trkpt lat="46.73145" lon="5.54675">
        <ele>289.5</ele>
        <time>2020-03-13T08:29:22Z</time>
      </trkpt>
      <trkpt lat="46.73141" lon="5.54673">
        <ele>289.9</ele>
        <time>2020-03-13T08:29:28Z</time>
      </trkpt>
      <trkpt lat="46.73137" lon="5.54668">
        <ele>290.1</ele>
        <time>2020-03-13T08:29:35Z</time>
      </trkpt>
      <trkpt lat="46.73132" lon="5.54664">
        <ele>290.5</ele>
        <time>2020-03-13T08:29:40Z</time>
      </trkpt>
      <trkpt lat="46.73127" lon="5.5466">
        <ele>291.4</ele>
        <time>2020-03-13T08:29:46Z</time>
      </trkpt>
      <trkpt lat="46.73123" lon="5.54657">
        <ele>292.2</ele>
        <time>2020-03-13T08:29:51Z</time>
      </trkpt>
      <trkpt lat="46.73119" lon="5.54654">
        <ele>293.6</ele>
        <time>2020-03-13T08:29:59Z</time>
      </trkpt>
      <trkpt lat="46.73115" lon="5.54651">
        <ele>294.6</ele>
        <time>2020-03-13T08:30:06Z</time>
      </trkpt>
      <trkpt lat="46.73111" lon="5.54646">
        <ele>295.9</ele>
        <time>2020-03-13T08:30:13Z</time>
      </trkpt>
      <trkpt lat="46.73107" lon="5.54643">
        <ele>297.1</ele>
        <time>2020-03-13T08:30:22Z</time>
      </trkpt>
      <trkpt lat="46.73104" lon="5.54639">
        <ele>297.7</ele>
        <time>2020-03-13T08:30:28Z</time>
      </trkpt>
      <trkpt lat="46.73101" lon="5.54633">
        <ele>298.2</ele>
        <time>2020-03-13T08:30:34Z</time>
      </trkpt>
      <trkpt lat="46.73096" lon="5.54629">
        <ele>298.7</ele>
        <time>2020-03-13T08:30:42Z</time>
      </trkpt>
      <trkpt lat="46.73092" lon="5.54624">
        <ele>299.2</ele>
        <time>2020-03-13T08:30:51Z</time>
      </trkpt>
      <trkpt lat="46.73089" lon="5.54619">
        <ele>299.9</ele>
        <time>2020-03-13T08:30:57Z</time>
      </trkpt>
      <trkpt lat="46.73084" lon="5.54617">
        <ele>300.4</ele>
        <time>2020-03-13T08:31:01Z</time>
      </trkpt>
      <trkpt lat="46.73079" lon="5.54614">
        <ele>301.2</ele>
        <time>2020-03-13T08:31:07Z</time>
      </trkpt>
      <trkpt lat="46.73075" lon="5.54611">
        <ele>302.2</ele>
        <time>2020-03-13T08:31:14Z</time>
      </trkpt>
      <trkpt lat="46.73071" lon="5.54606">
        <ele>302.8</ele>
        <time>2020-03-13T08:31:17Z</time>
      </trkpt>
      <trkpt lat="46.73067" lon="5.54602">
        <ele>304.2</ele>
        <time>2020-03-13T08:31:25Z</time>
      </trkpt>
      <trkpt lat="46.73063" lon="5.54598">
        <ele>305.2</ele>
        <time>2020-03-13T08:31:30Z</time>
      </trkpt>
      <trkpt lat="46.73059" lon="5.54592">
        <ele>306.9</ele>
        <time>2020-03-13T08:31:39Z</time>
      </trkpt>
      <trkpt lat="46.73056" lon="5.54587">
        <ele>308.3</ele>
        <time>2020-03-13T08:31:47Z</time>
      </trkpt>
      <trkpt lat="46.7305" lon="5.54583">
        <ele>311.6</ele>
        <time>2020-03-13T08:31:59Z</time>
      </trkpt>
      <trkpt lat="46.73045" lon="5.54579">
        <ele>312.4</ele>
        <time>2020-03-13T08:32:02Z</time>
      </trkpt>
      <trkpt lat="46.73041" lon="5.54575">
        <ele>313.6</ele>
        <time>2020-03-13T08:32:07Z</time>
      </trkpt>
      <trkpt lat="46.73036" lon="5.54571">
        <ele>315.4</ele>
        <time>2020-03-13T08:32:16Z</time>
      </trkpt>
      <trkpt lat="46.73032" lon="5.54567">
        <ele>317.4</ele>
        <time>2020-03-13T08:32:30Z</time>
      </trkpt>
      <trkpt lat="46.73028" lon="5.54564">
        <ele>318.7</ele>
        <time>2020-03-13T08:32:36Z</time>
      </trkpt>
      <trkpt lat="46.73023" lon="5.5456">
        <ele>319.7</ele>
        <time>2020-03-13T08:32:41Z</time>
      </trkpt>
      <trkpt lat="46.73019" lon="5.54557">
        <ele>320.7</ele>
        <time>2020-03-13T08:32:47Z</time>
      </trkpt>
      <trkpt lat="46.73015" lon="5.54552">
        <ele>320.6</ele>
        <time>2020-03-13T08:32:56Z</time>
      </trkpt>
      <trkpt lat="46.73011" lon="5.54549">
        <ele>320.2</ele>
        <time>2020-03-13T08:33:01Z</time>
      </trkpt>
      <trkpt lat="46.72999" lon="5.54537">
        <ele>320.3</ele>
        <time>2020-03-13T08:33:15Z</time>
      </trkpt>
      <trkpt lat="46.72996" lon="5.54531">
        <ele>321.3</ele>
        <time>2020-03-13T08:33:24Z</time>
      </trkpt>
      <trkpt lat="46.72993" lon="5.54526">
        <ele>322</ele>
        <time>2020-03-13T08:33:30Z</time>
      </trkpt>
      <trkpt lat="46.72989" lon="5.54523">
        <ele>322.3</ele>
        <time>2020-03-13T08:33:34Z</time>
      </trkpt>
      <trkpt lat="46.72985" lon="5.5452">
        <ele>322.5</ele>
        <time>2020-03-13T08:33:37Z</time>
      </trkpt>
      <trkpt lat="46.72981" lon="5.54514">
        <ele>322.8</ele>
        <time>2020-03-13T08:33:41Z</time>
      </trkpt>
      <trkpt lat="46.72979" lon="5.54507">
        <ele>323</ele>
        <time>2020-03-13T08:33:45Z</time>
      </trkpt>
      <trkpt lat="46.72977" lon="5.54501">
        <ele>323.4</ele>
        <time>2020-03-13T08:33:50Z</time>
      </trkpt>
      <trkpt lat="46.72974" lon="5.54495">
        <ele>323.7</ele>
        <time>2020-03-13T08:33:56Z</time>
      </trkpt>
      <trkpt lat="46.72971" lon="5.54489">
        <ele>324.3</ele>
        <time>2020-03-13T08:34:02Z</time>
      </trkpt>
      <trkpt lat="46.72969" lon="5.54483">
        <ele>325.2</ele>
        <time>2020-03-13T08:34:08Z</time>
      </trkpt>
      <trkpt lat="46.72966" lon="5.54477">
        <ele>326</ele>
        <time>2020-03-13T08:34:14Z</time>
      </trkpt>
      <trkpt lat="46.72964" lon="5.5447">
        <ele>326.6</ele>
        <time>2020-03-13T08:34:20Z</time>
      </trkpt>
      <trkpt lat="46.7296" lon="5.54464">
        <ele>326.9</ele>
        <time>2020-03-13T08:34:25Z</time>
      </trkpt>
      <trkpt lat="46.72957" lon="5.54459">
        <ele>327.1</ele>
        <time>2020-03-13T08:34:29Z</time>
      </trkpt>
      <trkpt lat="46.72954" lon="5.54453">
        <ele>327.3</ele>
        <time>2020-03-13T08:34:34Z</time>
      </trkpt>
      <trkpt lat="46.72951" lon="5.54449">
        <ele>327.4</ele>
        <time>2020-03-13T08:34:40Z</time>
      </trkpt>
      <trkpt lat="46.72948" lon="5.54443">
        <ele>327.6</ele>
        <time>2020-03-13T08:34:48Z</time>
      </trkpt>
      <trkpt lat="46.72945" lon="5.54438">
        <ele>327.7</ele>
        <time>2020-03-13T08:34:53Z</time>
      </trkpt>
      <trkpt lat="46.72941" lon="5.54432">
        <ele>327.9</ele>
        <time>2020-03-13T08:34:58Z</time>
      </trkpt>
      <trkpt lat="46.72938" lon="5.54426">
        <ele>328.1</ele>
        <time>2020-03-13T08:35:04Z</time>
      </trkpt>
      <trkpt lat="46.72933" lon="5.54422">
        <ele>328.5</ele>
        <time>2020-03-13T08:35:10Z</time>
      </trkpt>
      <trkpt lat="46.7293" lon="5.54418">
        <ele>328.7</ele>
        <time>2020-03-13T08:35:13Z</time>
      </trkpt>
      <trkpt lat="46.72925" lon="5.54414">
        <ele>328.9</ele>
        <time>2020-03-13T08:35:17Z</time>
      </trkpt>
      <trkpt lat="46.72921" lon="5.54409">
        <ele>328.9</ele>
        <time>2020-03-13T08:35:23Z</time>
      </trkpt>
      <trkpt lat="46.7292" lon="5.54402">
        <ele>328.7</ele>
        <time>2020-03-13T08:35:28Z</time>
      </trkpt>
      <trkpt lat="46.7292" lon="5.54405">
        <ele>327.5</ele>
        <time>2020-03-13T08:36:30Z</time>
      </trkpt>
      <trkpt lat="46.72916" lon="5.54401">
        <ele>328.1</ele>
        <time>2020-03-13T08:39:27Z</time>
      </trkpt>
      <trkpt lat="46.72912" lon="5.54397">
        <ele>328.1</ele>
        <time>2020-03-13T08:39:32Z</time>
      </trkpt>
      <trkpt lat="46.72908" lon="5.54393">
        <ele>327.9</ele>
        <time>2020-03-13T08:39:37Z</time>
      </trkpt>
      <trkpt lat="46.72904" lon="5.5439">
        <ele>327.7</ele>
        <time>2020-03-13T08:39:43Z</time>
      </trkpt>
      <trkpt lat="46.72899" lon="5.54386">
        <ele>327.5</ele>
        <time>2020-03-13T08:39:48Z</time>
      </trkpt>
      <trkpt lat="46.72895" lon="5.54384">
        <ele>327.3</ele>
        <time>2020-03-13T08:39:52Z</time>
      </trkpt>
      <trkpt lat="46.7289" lon="5.54381">
        <ele>327</ele>
        <time>2020-03-13T08:39:57Z</time>
      </trkpt>
      <trkpt lat="46.72885" lon="5.54376">
        <ele>326.8</ele>
        <time>2020-03-13T08:40:02Z</time>
      </trkpt>
      <trkpt lat="46.72882" lon="5.54372">
        <ele>326.8</ele>
        <time>2020-03-13T08:40:06Z</time>
      </trkpt>
      <trkpt lat="46.72878" lon="5.54367">
        <ele>326.8</ele>
        <time>2020-03-13T08:40:11Z</time>
      </trkpt>
      <trkpt lat="46.72873" lon="5.54364">
        <ele>326.7</ele>
        <time>2020-03-13T08:40:16Z</time>
      </trkpt>
      <trkpt lat="46.72869" lon="5.5436">
        <ele>326.7</ele>
        <time>2020-03-13T08:40:20Z</time>
      </trkpt>
      <trkpt lat="46.72865" lon="5.54356">
        <ele>326.5</ele>
        <time>2020-03-13T08:40:25Z</time>
      </trkpt>
      <trkpt lat="46.7286" lon="5.54353">
        <ele>326.1</ele>
        <time>2020-03-13T08:40:30Z</time>
      </trkpt>
      <trkpt lat="46.72856" lon="5.5435">
        <ele>325.5</ele>
        <time>2020-03-13T08:40:36Z</time>
      </trkpt>
      <trkpt lat="46.72851" lon="5.54346">
        <ele>324.9</ele>
        <time>2020-03-13T08:40:42Z</time>
      </trkpt>
      <trkpt lat="46.72847" lon="5.54343">
        <ele>324.6</ele>
        <time>2020-03-13T08:40:46Z</time>
      </trkpt>
      <trkpt lat="46.72843" lon="5.54339">
        <ele>324.2</ele>
        <time>2020-03-13T08:40:51Z</time>
      </trkpt>
      <trkpt lat="46.72838" lon="5.54335">
        <ele>323.5</ele>
        <time>2020-03-13T08:40:56Z</time>
      </trkpt>
      <trkpt lat="46.72834" lon="5.54331">
        <ele>322.6</ele>
        <time>2020-03-13T08:41:01Z</time>
      </trkpt>
      <trkpt lat="46.72829" lon="5.54329">
        <ele>321.8</ele>
        <time>2020-03-13T08:41:05Z</time>
      </trkpt>
      <trkpt lat="46.72824" lon="5.54326">
        <ele>321</ele>
        <time>2020-03-13T08:41:10Z</time>
      </trkpt>
      <trkpt lat="46.7282" lon="5.54321">
        <ele>320.6</ele>
        <time>2020-03-13T08:41:15Z</time>
      </trkpt>
      <trkpt lat="46.72815" lon="5.54318">
        <ele>320.4</ele>
        <time>2020-03-13T08:41:19Z</time>
      </trkpt>
      <trkpt lat="46.72811" lon="5.54315">
        <ele>320.3</ele>
        <time>2020-03-13T08:41:23Z</time>
      </trkpt>
      <trkpt lat="46.72806" lon="5.54313">
        <ele>320.4</ele>
        <time>2020-03-13T08:41:29Z</time>
      </trkpt>
      <trkpt lat="46.72802" lon="5.54311">
        <ele>320.4</ele>
        <time>2020-03-13T08:41:34Z</time>
      </trkpt>
      <trkpt lat="46.72798" lon="5.54309">
        <ele>320.3</ele>
        <time>2020-03-13T08:41:41Z</time>
      </trkpt>
      <trkpt lat="46.72793" lon="5.54307">
        <ele>320.3</ele>
        <time>2020-03-13T08:41:47Z</time>
      </trkpt>
      <trkpt lat="46.72789" lon="5.54304">
        <ele>320.3</ele>
        <time>2020-03-13T08:41:51Z</time>
      </trkpt>
      <trkpt lat="46.72779" lon="5.54298">
        <ele>319.6</ele>
        <time>2020-03-13T08:42:02Z</time>
      </trkpt>
      <trkpt lat="46.72775" lon="5.54296">
        <ele>319</ele>
        <time>2020-03-13T08:42:07Z</time>
      </trkpt>
      <trkpt lat="46.7277" lon="5.54293">
        <ele>318.4</ele>
        <time>2020-03-13T08:42:10Z</time>
      </trkpt>
      <trkpt lat="46.72766" lon="5.54291">
        <ele>317.6</ele>
        <time>2020-03-13T08:42:14Z</time>
      </trkpt>
      <trkpt lat="46.72761" lon="5.54289">
        <ele>316.4</ele>
        <time>2020-03-13T08:42:20Z</time>
      </trkpt>
      <trkpt lat="46.72756" lon="5.54287">
        <ele>315.7</ele>
        <time>2020-03-13T08:42:24Z</time>
      </trkpt>
      <trkpt lat="46.7275" lon="5.54285">
        <ele>315.1</ele>
        <time>2020-03-13T08:42:29Z</time>
      </trkpt>
      <trkpt lat="46.72745" lon="5.54284">
        <ele>314.6</ele>
        <time>2020-03-13T08:42:34Z</time>
      </trkpt>
      <trkpt lat="46.7274" lon="5.54282">
        <ele>314</ele>
        <time>2020-03-13T08:42:39Z</time>
      </trkpt>
      <trkpt lat="46.72736" lon="5.54278">
        <ele>313.4</ele>
        <time>2020-03-13T08:42:43Z</time>
      </trkpt>
      <trkpt lat="46.72732" lon="5.54273">
        <ele>313</ele>
        <time>2020-03-13T08:42:48Z</time>
      </trkpt>
      <trkpt lat="46.72728" lon="5.54269">
        <ele>312.8</ele>
        <time>2020-03-13T08:42:54Z</time>
      </trkpt>
      <trkpt lat="46.72723" lon="5.54266">
        <ele>312.6</ele>
        <time>2020-03-13T08:42:58Z</time>
      </trkpt>
      <trkpt lat="46.72718" lon="5.54264">
        <ele>312.3</ele>
        <time>2020-03-13T08:43:03Z</time>
      </trkpt>
      <trkpt lat="46.72713" lon="5.54261">
        <ele>312</ele>
        <time>2020-03-13T08:43:09Z</time>
      </trkpt>
      <trkpt lat="46.72709" lon="5.54258">
        <ele>311.9</ele>
        <time>2020-03-13T08:43:12Z</time>
      </trkpt>
      <trkpt lat="46.72704" lon="5.54256">
        <ele>312</ele>
        <time>2020-03-13T08:43:16Z</time>
      </trkpt>
      <trkpt lat="46.727" lon="5.54252">
        <ele>312.2</ele>
        <time>2020-03-13T08:43:21Z</time>
      </trkpt>
      <trkpt lat="46.72695" lon="5.5425">
        <ele>312.6</ele>
        <time>2020-03-13T08:43:26Z</time>
      </trkpt>
      <trkpt lat="46.7269" lon="5.54248">
        <ele>312.6</ele>
        <time>2020-03-13T08:43:31Z</time>
      </trkpt>
      <trkpt lat="46.72686" lon="5.54245">
        <ele>312.5</ele>
        <time>2020-03-13T08:43:37Z</time>
      </trkpt>
      <trkpt lat="46.72681" lon="5.54242">
        <ele>311.9</ele>
        <time>2020-03-13T08:43:43Z</time>
      </trkpt>
      <trkpt lat="46.72676" lon="5.5424">
        <ele>311.4</ele>
        <time>2020-03-13T08:43:48Z</time>
      </trkpt>
      <trkpt lat="46.72672" lon="5.54238">
        <ele>310.9</ele>
        <time>2020-03-13T08:43:52Z</time>
      </trkpt>
      <trkpt lat="46.72668" lon="5.54234">
        <ele>310.5</ele>
        <time>2020-03-13T08:43:56Z</time>
      </trkpt>
      <trkpt lat="46.72663" lon="5.54232">
        <ele>310</ele>
        <time>2020-03-13T08:44:01Z</time>
      </trkpt>
      <trkpt lat="46.72659" lon="5.54228">
        <ele>309.5</ele>
        <time>2020-03-13T08:44:06Z</time>
      </trkpt>
      <trkpt lat="46.72655" lon="5.54225">
        <ele>309.1</ele>
        <time>2020-03-13T08:44:10Z</time>
      </trkpt>
      <trkpt lat="46.72651" lon="5.54221">
        <ele>308.5</ele>
        <time>2020-03-13T08:44:15Z</time>
      </trkpt>
      <trkpt lat="46.72646" lon="5.54217">
        <ele>308.1</ele>
        <time>2020-03-13T08:44:20Z</time>
      </trkpt>
      <trkpt lat="46.72641" lon="5.54213">
        <ele>307.8</ele>
        <time>2020-03-13T08:44:25Z</time>
      </trkpt>
      <trkpt lat="46.72636" lon="5.54211">
        <ele>307.7</ele>
        <time>2020-03-13T08:44:31Z</time>
      </trkpt>
      <trkpt lat="46.72632" lon="5.54209">
        <ele>307.7</ele>
        <time>2020-03-13T08:44:35Z</time>
      </trkpt>
      <trkpt lat="46.72627" lon="5.54207">
        <ele>307.9</ele>
        <time>2020-03-13T08:44:39Z</time>
      </trkpt>
      <trkpt lat="46.72623" lon="5.54205">
        <ele>307.9</ele>
        <time>2020-03-13T08:44:43Z</time>
      </trkpt>
      <trkpt lat="46.72618" lon="5.54202">
        <ele>307.8</ele>
        <time>2020-03-13T08:44:47Z</time>
      </trkpt>
      <trkpt lat="46.72614" lon="5.54199">
        <ele>307.5</ele>
        <time>2020-03-13T08:44:51Z</time>
      </trkpt>
      <trkpt lat="46.72609" lon="5.54198">
        <ele>307.1</ele>
        <time>2020-03-13T08:44:55Z</time>
      </trkpt>
      <trkpt lat="46.72604" lon="5.54197">
        <ele>306.6</ele>
        <time>2020-03-13T08:45:01Z</time>
      </trkpt>
      <trkpt lat="46.72599" lon="5.54195">
        <ele>306.3</ele>
        <time>2020-03-13T08:45:06Z</time>
      </trkpt>
      <trkpt lat="46.72594" lon="5.54192">
        <ele>306.2</ele>
        <time>2020-03-13T08:45:10Z</time>
      </trkpt>
      <trkpt lat="46.7259" lon="5.54188">
        <ele>305.8</ele>
        <time>2020-03-13T08:45:14Z</time>
      </trkpt>
      <trkpt lat="46.72585" lon="5.54185">
        <ele>305.1</ele>
        <time>2020-03-13T08:45:20Z</time>
      </trkpt>
      <trkpt lat="46.7258" lon="5.54183">
        <ele>304.5</ele>
        <time>2020-03-13T08:45:26Z</time>
      </trkpt>
      <trkpt lat="46.72575" lon="5.5418">
        <ele>303.9</ele>
        <time>2020-03-13T08:45:31Z</time>
      </trkpt>
      <trkpt lat="46.7257" lon="5.54178">
        <ele>303.5</ele>
        <time>2020-03-13T08:45:35Z</time>
      </trkpt>
      <trkpt lat="46.72565" lon="5.54176">
        <ele>303.4</ele>
        <time>2020-03-13T08:45:38Z</time>
      </trkpt>
      <trkpt lat="46.7256" lon="5.54174">
        <ele>303.4</ele>
        <time>2020-03-13T08:45:42Z</time>
      </trkpt>
      <trkpt lat="46.72555" lon="5.54172">
        <ele>303.5</ele>
        <time>2020-03-13T08:45:48Z</time>
      </trkpt>
      <trkpt lat="46.72551" lon="5.5417">
        <ele>303.6</ele>
        <time>2020-03-13T08:45:54Z</time>
      </trkpt>
      <trkpt lat="46.72545" lon="5.54167">
        <ele>303.4</ele>
        <time>2020-03-13T08:45:59Z</time>
      </trkpt>
      <trkpt lat="46.7254" lon="5.54164">
        <ele>303.3</ele>
        <time>2020-03-13T08:46:04Z</time>
      </trkpt>
      <trkpt lat="46.72536" lon="5.54162">
        <ele>303.3</ele>
        <time>2020-03-13T08:46:09Z</time>
      </trkpt>
      <trkpt lat="46.72532" lon="5.54159">
        <ele>303.5</ele>
        <time>2020-03-13T08:46:14Z</time>
      </trkpt>
      <trkpt lat="46.72528" lon="5.54156">
        <ele>303.9</ele>
        <time>2020-03-13T08:46:18Z</time>
      </trkpt>
      <trkpt lat="46.72523" lon="5.54153">
        <ele>304.2</ele>
        <time>2020-03-13T08:46:23Z</time>
      </trkpt>
      <trkpt lat="46.72518" lon="5.54151">
        <ele>304.5</ele>
        <time>2020-03-13T08:46:27Z</time>
      </trkpt>
      <trkpt lat="46.72513" lon="5.54148">
        <ele>304.7</ele>
        <time>2020-03-13T08:46:31Z</time>
      </trkpt>
      <trkpt lat="46.72509" lon="5.54145">
        <ele>304.9</ele>
        <time>2020-03-13T08:46:35Z</time>
      </trkpt>
      <trkpt lat="46.72505" lon="5.54142">
        <ele>305.1</ele>
        <time>2020-03-13T08:46:39Z</time>
      </trkpt>
      <trkpt lat="46.725" lon="5.54139">
        <ele>305.4</ele>
        <time>2020-03-13T08:46:44Z</time>
      </trkpt>
      <trkpt lat="46.72495" lon="5.54137">
        <ele>305.6</ele>
        <time>2020-03-13T08:46:49Z</time>
      </trkpt>
      <trkpt lat="46.72491" lon="5.54134">
        <ele>305.7</ele>
        <time>2020-03-13T08:46:54Z</time>
      </trkpt>
      <trkpt lat="46.72487" lon="5.54131">
        <ele>305.9</ele>
        <time>2020-03-13T08:46:59Z</time>
      </trkpt>
      <trkpt lat="46.72482" lon="5.54129">
        <ele>306.2</ele>
        <time>2020-03-13T08:47:03Z</time>
      </trkpt>
      <trkpt lat="46.72477" lon="5.54127">
        <ele>306.4</ele>
        <time>2020-03-13T08:47:07Z</time>
      </trkpt>
      <trkpt lat="46.72472" lon="5.54125">
        <ele>306.4</ele>
        <time>2020-03-13T08:47:12Z</time>
      </trkpt>
      <trkpt lat="46.72468" lon="5.54122">
        <ele>306.5</ele>
        <time>2020-03-13T08:47:17Z</time>
      </trkpt>
      <trkpt lat="46.72463" lon="5.5412">
        <ele>306.3</ele>
        <time>2020-03-13T08:47:22Z</time>
      </trkpt>
      <trkpt lat="46.72459" lon="5.54116">
        <ele>305.9</ele>
        <time>2020-03-13T08:47:28Z</time>
      </trkpt>
      <trkpt lat="46.72454" lon="5.54112">
        <ele>305.4</ele>
        <time>2020-03-13T08:47:34Z</time>
      </trkpt>
      <trkpt lat="46.7245" lon="5.54109">
        <ele>305</ele>
        <time>2020-03-13T08:47:38Z</time>
      </trkpt>
      <trkpt lat="46.72444" lon="5.54107">
        <ele>304.6</ele>
        <time>2020-03-13T08:47:42Z</time>
      </trkpt>
      <trkpt lat="46.7244" lon="5.54105">
        <ele>304.4</ele>
        <time>2020-03-13T08:47:47Z</time>
      </trkpt>
      <trkpt lat="46.72436" lon="5.54102">
        <ele>304.5</ele>
        <time>2020-03-13T08:47:51Z</time>
      </trkpt>
      <trkpt lat="46.72431" lon="5.54099">
        <ele>304.7</ele>
        <time>2020-03-13T08:47:56Z</time>
      </trkpt>
      <trkpt lat="46.72426" lon="5.54095">
        <ele>305</ele>
        <time>2020-03-13T08:48:01Z</time>
      </trkpt>
      <trkpt lat="46.72422" lon="5.54091">
        <ele>304.8</ele>
        <time>2020-03-13T08:48:07Z</time>
      </trkpt>
      <trkpt lat="46.72417" lon="5.54089">
        <ele>304.3</ele>
        <time>2020-03-13T08:48:13Z</time>
      </trkpt>
      <trkpt lat="46.72412" lon="5.54087">
        <ele>303.2</ele>
        <time>2020-03-13T08:48:20Z</time>
      </trkpt>
      <trkpt lat="46.72408" lon="5.54087">
        <ele>302.7</ele>
        <time>2020-03-13T08:48:23Z</time>
      </trkpt>
      <trkpt lat="46.72402" lon="5.54084">
        <ele>302.4</ele>
        <time>2020-03-13T08:48:25Z</time>
      </trkpt>
      <trkpt lat="46.72398" lon="5.54081">
        <ele>302</ele>
        <time>2020-03-13T08:48:28Z</time>
      </trkpt>
      <trkpt lat="46.72394" lon="5.54078">
        <ele>301.8</ele>
        <time>2020-03-13T08:48:32Z</time>
      </trkpt>
      <trkpt lat="46.7239" lon="5.54074">
        <ele>301.8</ele>
        <time>2020-03-13T08:48:37Z</time>
      </trkpt>
      <trkpt lat="46.72386" lon="5.54071">
        <ele>302</ele>
        <time>2020-03-13T08:48:41Z</time>
      </trkpt>
      <trkpt lat="46.72381" lon="5.54068">
        <ele>302.3</ele>
        <time>2020-03-13T08:48:44Z</time>
      </trkpt>
      <trkpt lat="46.72377" lon="5.54064">
        <ele>302.8</ele>
        <time>2020-03-13T08:48:49Z</time>
      </trkpt>
      <trkpt lat="46.72372" lon="5.5406">
        <ele>303.3</ele>
        <time>2020-03-13T08:48:55Z</time>
      </trkpt>
      <trkpt lat="46.72368" lon="5.54056">
        <ele>303.4</ele>
        <time>2020-03-13T08:49:00Z</time>
      </trkpt>
      <trkpt lat="46.72364" lon="5.54052">
        <ele>303.4</ele>
        <time>2020-03-13T08:49:06Z</time>
      </trkpt>
      <trkpt lat="46.7236" lon="5.54049">
        <ele>303.4</ele>
        <time>2020-03-13T08:49:10Z</time>
      </trkpt>
      <trkpt lat="46.72356" lon="5.54045">
        <ele>303.2</ele>
        <time>2020-03-13T08:49:14Z</time>
      </trkpt>
      <trkpt lat="46.72352" lon="5.54041">
        <ele>303.1</ele>
        <time>2020-03-13T08:49:18Z</time>
      </trkpt>
      <trkpt lat="46.72348" lon="5.54037">
        <ele>303.1</ele>
        <time>2020-03-13T08:49:22Z</time>
      </trkpt>
      <trkpt lat="46.72344" lon="5.54033">
        <ele>303.2</ele>
        <time>2020-03-13T08:49:27Z</time>
      </trkpt>
      <trkpt lat="46.72339" lon="5.54032">
        <ele>303.1</ele>
        <time>2020-03-13T08:49:32Z</time>
      </trkpt>
      <trkpt lat="46.72334" lon="5.54029">
        <ele>302.5</ele>
        <time>2020-03-13T08:49:39Z</time>
      </trkpt>
      <trkpt lat="46.72323" lon="5.54025">
        <ele>300.4</ele>
        <time>2020-03-13T08:49:52Z</time>
      </trkpt>
      <trkpt lat="46.72319" lon="5.54022">
        <ele>299.5</ele>
        <time>2020-03-13T08:49:58Z</time>
      </trkpt>
      <trkpt lat="46.72314" lon="5.54019">
        <ele>298.8</ele>
        <time>2020-03-13T08:50:02Z</time>
      </trkpt>
      <trkpt lat="46.7231" lon="5.54018">
        <ele>298</ele>
        <time>2020-03-13T08:50:07Z</time>
      </trkpt>
      <trkpt lat="46.72306" lon="5.54015">
        <ele>297.6</ele>
        <time>2020-03-13T08:50:12Z</time>
      </trkpt>
      <trkpt lat="46.72301" lon="5.54011">
        <ele>297.1</ele>
        <time>2020-03-13T08:50:18Z</time>
      </trkpt>
      <trkpt lat="46.72297" lon="5.54006">
        <ele>296.7</ele>
        <time>2020-03-13T08:50:22Z</time>
      </trkpt>
      <trkpt lat="46.72293" lon="5.54002">
        <ele>296.2</ele>
        <time>2020-03-13T08:50:27Z</time>
      </trkpt>
      <trkpt lat="46.72288" lon="5.53999">
        <ele>295.6</ele>
        <time>2020-03-13T08:50:33Z</time>
      </trkpt>
      <trkpt lat="46.72283" lon="5.53995">
        <ele>295.1</ele>
        <time>2020-03-13T08:50:38Z</time>
      </trkpt>
      <trkpt lat="46.72279" lon="5.53992">
        <ele>294.9</ele>
        <time>2020-03-13T08:50:42Z</time>
      </trkpt>
      <trkpt lat="46.72275" lon="5.53988">
        <ele>294.7</ele>
        <time>2020-03-13T08:50:49Z</time>
      </trkpt>
      <trkpt lat="46.7227" lon="5.53986">
        <ele>294.6</ele>
        <time>2020-03-13T08:50:54Z</time>
      </trkpt>
      <trkpt lat="46.72266" lon="5.53981">
        <ele>294.4</ele>
        <time>2020-03-13T08:51:00Z</time>
      </trkpt>
      <trkpt lat="46.72262" lon="5.53977">
        <ele>294.1</ele>
        <time>2020-03-13T08:51:04Z</time>
      </trkpt>
      <trkpt lat="46.72258" lon="5.53973">
        <ele>293.9</ele>
        <time>2020-03-13T08:51:08Z</time>
      </trkpt>
      <trkpt lat="46.72253" lon="5.53971">
        <ele>293.8</ele>
        <time>2020-03-13T08:51:13Z</time>
      </trkpt>
      <trkpt lat="46.72248" lon="5.53968">
        <ele>293.7</ele>
        <time>2020-03-13T08:51:17Z</time>
      </trkpt>
      <trkpt lat="46.72244" lon="5.53964">
        <ele>293.7</ele>
        <time>2020-03-13T08:51:21Z</time>
      </trkpt>
      <trkpt lat="46.7224" lon="5.53961">
        <ele>293.5</ele>
        <time>2020-03-13T08:51:27Z</time>
      </trkpt>
      <trkpt lat="46.72235" lon="5.53959">
        <ele>293.5</ele>
        <time>2020-03-13T08:51:32Z</time>
      </trkpt>
      <trkpt lat="46.7223" lon="5.53958">
        <ele>293.5</ele>
        <time>2020-03-13T08:51:36Z</time>
      </trkpt>
      <trkpt lat="46.72226" lon="5.53956">
        <ele>293.5</ele>
        <time>2020-03-13T08:51:40Z</time>
      </trkpt>
      <trkpt lat="46.72222" lon="5.53953">
        <ele>293.3</ele>
        <time>2020-03-13T08:51:45Z</time>
      </trkpt>
      <trkpt lat="46.72218" lon="5.53949">
        <ele>293.1</ele>
        <time>2020-03-13T08:51:49Z</time>
      </trkpt>
      <trkpt lat="46.72213" lon="5.53946">
        <ele>292.7</ele>
        <time>2020-03-13T08:51:54Z</time>
      </trkpt>
      <trkpt lat="46.72208" lon="5.53944">
        <ele>292.1</ele>
        <time>2020-03-13T08:52:00Z</time>
      </trkpt>
      <trkpt lat="46.72203" lon="5.53942">
        <ele>291.7</ele>
        <time>2020-03-13T08:52:05Z</time>
      </trkpt>
      <trkpt lat="46.72198" lon="5.5394">
        <ele>291.3</ele>
        <time>2020-03-13T08:52:10Z</time>
      </trkpt>
      <trkpt lat="46.72193" lon="5.53939">
        <ele>291</ele>
        <time>2020-03-13T08:52:14Z</time>
      </trkpt>
      <trkpt lat="46.72188" lon="5.53936">
        <ele>290.8</ele>
        <time>2020-03-13T08:52:19Z</time>
      </trkpt>
      <trkpt lat="46.72184" lon="5.53932">
        <ele>290.7</ele>
        <time>2020-03-13T08:52:27Z</time>
      </trkpt>
      <trkpt lat="46.7218" lon="5.53929">
        <ele>290.8</ele>
        <time>2020-03-13T08:52:31Z</time>
      </trkpt>
      <trkpt lat="46.72176" lon="5.53925">
        <ele>290.7</ele>
        <time>2020-03-13T08:52:35Z</time>
      </trkpt>
      <trkpt lat="46.72172" lon="5.53922">
        <ele>290.4</ele>
        <time>2020-03-13T08:52:39Z</time>
      </trkpt>
      <trkpt lat="46.72167" lon="5.53919">
        <ele>289.9</ele>
        <time>2020-03-13T08:52:45Z</time>
      </trkpt>
      <trkpt lat="46.72162" lon="5.53915">
        <ele>289.6</ele>
        <time>2020-03-13T08:52:49Z</time>
      </trkpt>
      <trkpt lat="46.72157" lon="5.53912">
        <ele>289.2</ele>
        <time>2020-03-13T08:52:54Z</time>
      </trkpt>
      <trkpt lat="46.72153" lon="5.53909">
        <ele>288.7</ele>
        <time>2020-03-13T08:52:58Z</time>
      </trkpt>
      <trkpt lat="46.72148" lon="5.53906">
        <ele>287.7</ele>
        <time>2020-03-13T08:53:04Z</time>
      </trkpt>
      <trkpt lat="46.72139" lon="5.539">
        <ele>285.5</ele>
        <time>2020-03-13T08:53:15Z</time>
      </trkpt>
      <trkpt lat="46.72135" lon="5.53897">
        <ele>285.3</ele>
        <time>2020-03-13T08:53:19Z</time>
      </trkpt>
      <trkpt lat="46.72131" lon="5.53894">
        <ele>285.1</ele>
        <time>2020-03-13T08:53:23Z</time>
      </trkpt>
      <trkpt lat="46.72126" lon="5.53891">
        <ele>284.9</ele>
        <time>2020-03-13T08:53:27Z</time>
      </trkpt>
      <trkpt lat="46.72121" lon="5.53889">
        <ele>284.6</ele>
        <time>2020-03-13T08:53:31Z</time>
      </trkpt>
      <trkpt lat="46.72117" lon="5.53886">
        <ele>284.4</ele>
        <time>2020-03-13T08:53:35Z</time>
      </trkpt>
      <trkpt lat="46.72113" lon="5.53883">
        <ele>284.3</ele>
        <time>2020-03-13T08:53:40Z</time>
      </trkpt>
      <trkpt lat="46.72109" lon="5.5388">
        <ele>284.3</ele>
        <time>2020-03-13T08:53:44Z</time>
      </trkpt>
      <trkpt lat="46.72104" lon="5.53876">
        <ele>284.2</ele>
        <time>2020-03-13T08:53:48Z</time>
      </trkpt>
      <trkpt lat="46.721" lon="5.53873">
        <ele>284.1</ele>
        <time>2020-03-13T08:53:53Z</time>
      </trkpt>
      <trkpt lat="46.72095" lon="5.53871">
        <ele>283.7</ele>
        <time>2020-03-13T08:54:00Z</time>
      </trkpt>
      <trkpt lat="46.7209" lon="5.53869">
        <ele>283.3</ele>
        <time>2020-03-13T08:54:04Z</time>
      </trkpt>
      <trkpt lat="46.72085" lon="5.53867">
        <ele>283.2</ele>
        <time>2020-03-13T08:54:08Z</time>
      </trkpt>
      <trkpt lat="46.72081" lon="5.53864">
        <ele>283.2</ele>
        <time>2020-03-13T08:54:12Z</time>
      </trkpt>
      <trkpt lat="46.72077" lon="5.53861">
        <ele>283.4</ele>
        <time>2020-03-13T08:54:17Z</time>
      </trkpt>
      <trkpt lat="46.72068" lon="5.53853">
        <ele>283.7</ele>
        <time>2020-03-13T08:54:26Z</time>
      </trkpt>
      <trkpt lat="46.72064" lon="5.5385">
        <ele>284.2</ele>
        <time>2020-03-13T08:54:31Z</time>
      </trkpt>
      <trkpt lat="46.7206" lon="5.53846">
        <ele>284.6</ele>
        <time>2020-03-13T08:54:36Z</time>
      </trkpt>
      <trkpt lat="46.72056" lon="5.53841">
        <ele>285</ele>
        <time>2020-03-13T08:54:40Z</time>
      </trkpt>
      <trkpt lat="46.72053" lon="5.53836">
        <ele>285.3</ele>
        <time>2020-03-13T08:54:46Z</time>
      </trkpt>
      <trkpt lat="46.7205" lon="5.53831">
        <ele>285.5</ele>
        <time>2020-03-13T08:54:51Z</time>
      </trkpt>
      <trkpt lat="46.72045" lon="5.53828">
        <ele>285.7</ele>
        <time>2020-03-13T08:54:56Z</time>
      </trkpt>
      <trkpt lat="46.72041" lon="5.53825">
        <ele>285.9</ele>
        <time>2020-03-13T08:55:01Z</time>
      </trkpt>
      <trkpt lat="46.72037" lon="5.53824">
        <ele>286</ele>
        <time>2020-03-13T08:55:06Z</time>
      </trkpt>
      <trkpt lat="46.72032" lon="5.53823">
        <ele>285.9</ele>
        <time>2020-03-13T08:55:12Z</time>
      </trkpt>
      <trkpt lat="46.72027" lon="5.5382">
        <ele>285.8</ele>
        <time>2020-03-13T08:55:16Z</time>
      </trkpt>
      <trkpt lat="46.72022" lon="5.53817">
        <ele>285.5</ele>
        <time>2020-03-13T08:55:21Z</time>
      </trkpt>
      <trkpt lat="46.72018" lon="5.53818">
        <ele>285.1</ele>
        <time>2020-03-13T08:55:26Z</time>
      </trkpt>
      <trkpt lat="46.72013" lon="5.53819">
        <ele>284.6</ele>
        <time>2020-03-13T08:55:30Z</time>
      </trkpt>
      <trkpt lat="46.72009" lon="5.53822">
        <ele>284.2</ele>
        <time>2020-03-13T08:55:33Z</time>
      </trkpt>
      <trkpt lat="46.72005" lon="5.53825">
        <ele>283.4</ele>
        <time>2020-03-13T08:55:38Z</time>
      </trkpt>
      <trkpt lat="46.71999" lon="5.53824">
        <ele>282.6</ele>
        <time>2020-03-13T08:55:44Z</time>
      </trkpt>
      <trkpt lat="46.71994" lon="5.53823">
        <ele>282.2</ele>
        <time>2020-03-13T08:55:49Z</time>
      </trkpt>
      <trkpt lat="46.71989" lon="5.53822">
        <ele>282.1</ele>
        <time>2020-03-13T08:55:54Z</time>
      </trkpt>
      <trkpt lat="46.71984" lon="5.53822">
        <ele>281.8</ele>
        <time>2020-03-13T08:56:01Z</time>
      </trkpt>
      <trkpt lat="46.71979" lon="5.53823">
        <ele>281.6</ele>
        <time>2020-03-13T08:56:08Z</time>
      </trkpt>
      <trkpt lat="46.71974" lon="5.53822">
        <ele>281.7</ele>
        <time>2020-03-13T08:56:20Z</time>
      </trkpt>
      <trkpt lat="46.7197" lon="5.53824">
        <ele>282.2</ele>
        <time>2020-03-13T08:56:29Z</time>
      </trkpt>
      <trkpt lat="46.71965" lon="5.53824">
        <ele>282.5</ele>
        <time>2020-03-13T08:56:35Z</time>
      </trkpt>
      <trkpt lat="46.7196" lon="5.53823">
        <ele>282.8</ele>
        <time>2020-03-13T08:56:41Z</time>
      </trkpt>
      <trkpt lat="46.71955" lon="5.53824">
        <ele>282.7</ele>
        <time>2020-03-13T08:56:48Z</time>
      </trkpt>
      <trkpt lat="46.71951" lon="5.53823">
        <ele>282.5</ele>
        <time>2020-03-13T08:56:55Z</time>
      </trkpt>
      <trkpt lat="46.71947" lon="5.53818">
        <ele>282.4</ele>
        <time>2020-03-13T08:57:03Z</time>
      </trkpt>
      <trkpt lat="46.71942" lon="5.53817">
        <ele>282.5</ele>
        <time>2020-03-13T08:57:08Z</time>
      </trkpt>
      <trkpt lat="46.71937" lon="5.53818">
        <ele>282.4</ele>
        <time>2020-03-13T08:57:12Z</time>
      </trkpt>
      <trkpt lat="46.71932" lon="5.53819">
        <ele>282.4</ele>
        <time>2020-03-13T08:57:17Z</time>
      </trkpt>
      <trkpt lat="46.71927" lon="5.5382">
        <ele>281.8</ele>
        <time>2020-03-13T08:57:27Z</time>
      </trkpt>
      <trkpt lat="46.71931" lon="5.53822">
        <ele>280.7</ele>
        <time>2020-03-13T08:58:11Z</time>
      </trkpt>
      <trkpt lat="46.7191" lon="5.53816">
        <ele>280.4</ele>
        <time>2020-03-13T09:04:21Z</time>
      </trkpt>
      <trkpt lat="46.71905" lon="5.53814">
        <ele>279</ele>
        <time>2020-03-13T09:04:29Z</time>
      </trkpt>
      <trkpt lat="46.719" lon="5.53814">
        <ele>277.7</ele>
        <time>2020-03-13T09:04:36Z</time>
      </trkpt>
      <trkpt lat="46.71895" lon="5.53814">
        <ele>277.3</ele>
        <time>2020-03-13T09:04:40Z</time>
      </trkpt>
      <trkpt lat="46.7189" lon="5.53813">
        <ele>277.1</ele>
        <time>2020-03-13T09:04:44Z</time>
      </trkpt>
      <trkpt lat="46.71886" lon="5.53812">
        <ele>277</ele>
        <time>2020-03-13T09:04:48Z</time>
      </trkpt>
      <trkpt lat="46.7188" lon="5.5381">
        <ele>276.9</ele>
        <time>2020-03-13T09:04:53Z</time>
      </trkpt>
      <trkpt lat="46.71876" lon="5.53807">
        <ele>277.1</ele>
        <time>2020-03-13T09:04:58Z</time>
      </trkpt>
      <trkpt lat="46.71871" lon="5.53804">
        <ele>277.4</ele>
        <time>2020-03-13T09:05:04Z</time>
      </trkpt>
      <trkpt lat="46.71866" lon="5.53805">
        <ele>278.1</ele>
        <time>2020-03-13T09:05:11Z</time>
      </trkpt>
      <trkpt lat="46.71861" lon="5.53805">
        <ele>278.5</ele>
        <time>2020-03-13T09:05:16Z</time>
      </trkpt>
      <trkpt lat="46.71856" lon="5.53803">
        <ele>278.8</ele>
        <time>2020-03-13T09:05:21Z</time>
      </trkpt>
      <trkpt lat="46.71851" lon="5.538">
        <ele>279.2</ele>
        <time>2020-03-13T09:05:26Z</time>
      </trkpt>
      <trkpt lat="46.71847" lon="5.53795">
        <ele>279.8</ele>
        <time>2020-03-13T09:05:31Z</time>
      </trkpt>
      <trkpt lat="46.71842" lon="5.5379">
        <ele>280.3</ele>
        <time>2020-03-13T09:05:37Z</time>
      </trkpt>
      <trkpt lat="46.71837" lon="5.5379">
        <ele>280.4</ele>
        <time>2020-03-13T09:05:43Z</time>
      </trkpt>
      <trkpt lat="46.71833" lon="5.53787">
        <ele>281</ele>
        <time>2020-03-13T09:05:51Z</time>
      </trkpt>
      <trkpt lat="46.71829" lon="5.53783">
        <ele>283.1</ele>
        <time>2020-03-13T09:06:02Z</time>
      </trkpt>
      <trkpt lat="46.71825" lon="5.5378">
        <ele>284</ele>
        <time>2020-03-13T09:06:08Z</time>
      </trkpt>
      <trkpt lat="46.71821" lon="5.53776">
        <ele>285.1</ele>
        <time>2020-03-13T09:06:15Z</time>
      </trkpt>
      <trkpt lat="46.71816" lon="5.53773">
        <ele>285.7</ele>
        <time>2020-03-13T09:06:23Z</time>
      </trkpt>
      <trkpt lat="46.71811" lon="5.53773">
        <ele>285.8</ele>
        <time>2020-03-13T09:06:29Z</time>
      </trkpt>
      <trkpt lat="46.71806" lon="5.53772">
        <ele>285.9</ele>
        <time>2020-03-13T09:06:35Z</time>
      </trkpt>
      <trkpt lat="46.718" lon="5.53772">
        <ele>286</ele>
        <time>2020-03-13T09:06:39Z</time>
      </trkpt>
      <trkpt lat="46.71795" lon="5.5377">
        <ele>286.2</ele>
        <time>2020-03-13T09:06:43Z</time>
      </trkpt>
      <trkpt lat="46.71791" lon="5.53766">
        <ele>286.7</ele>
        <time>2020-03-13T09:06:50Z</time>
      </trkpt>
      <trkpt lat="46.71788" lon="5.53761">
        <ele>287.6</ele>
        <time>2020-03-13T09:06:56Z</time>
      </trkpt>
      <trkpt lat="46.71785" lon="5.53755">
        <ele>288.4</ele>
        <time>2020-03-13T09:07:01Z</time>
      </trkpt>
      <trkpt lat="46.71783" lon="5.53749">
        <ele>289.2</ele>
        <time>2020-03-13T09:07:08Z</time>
      </trkpt>
      <trkpt lat="46.7178" lon="5.53743">
        <ele>289.8</ele>
        <time>2020-03-13T09:07:14Z</time>
      </trkpt>
      <trkpt lat="46.71776" lon="5.53739">
        <ele>290.2</ele>
        <time>2020-03-13T09:07:22Z</time>
      </trkpt>
      <trkpt lat="46.71773" lon="5.53734">
        <ele>290.1</ele>
        <time>2020-03-13T09:07:27Z</time>
      </trkpt>
      <trkpt lat="46.7177" lon="5.53728">
        <ele>290</ele>
        <time>2020-03-13T09:07:33Z</time>
      </trkpt>
      <trkpt lat="46.71767" lon="5.53721">
        <ele>290</ele>
        <time>2020-03-13T09:07:37Z</time>
      </trkpt>
      <trkpt lat="46.71765" lon="5.53716">
        <ele>289.9</ele>
        <time>2020-03-13T09:07:41Z</time>
      </trkpt>
      <trkpt lat="46.71762" lon="5.5371">
        <ele>289.7</ele>
        <time>2020-03-13T09:07:46Z</time>
      </trkpt>
      <trkpt lat="46.71759" lon="5.53704">
        <ele>289.4</ele>
        <time>2020-03-13T09:07:53Z</time>
      </trkpt>
      <trkpt lat="46.71757" lon="5.53698">
        <ele>288.9</ele>
        <time>2020-03-13T09:07:59Z</time>
      </trkpt>
      <trkpt lat="46.71753" lon="5.53693">
        <ele>288.3</ele>
        <time>2020-03-13T09:08:05Z</time>
      </trkpt>
      <trkpt lat="46.7175" lon="5.53686">
        <ele>288</ele>
        <time>2020-03-13T09:08:08Z</time>
      </trkpt>
      <trkpt lat="46.71747" lon="5.53681">
        <ele>287.7</ele>
        <time>2020-03-13T09:08:11Z</time>
      </trkpt>
      <trkpt lat="46.71743" lon="5.53676">
        <ele>287.2</ele>
        <time>2020-03-13T09:08:16Z</time>
      </trkpt>
      <trkpt lat="46.71738" lon="5.53668">
        <ele>286.4</ele>
        <time>2020-03-13T09:08:36Z</time>
      </trkpt>
      <trkpt lat="46.71735" lon="5.53662">
        <ele>286.1</ele>
        <time>2020-03-13T09:08:43Z</time>
      </trkpt>
      <trkpt lat="46.71733" lon="5.53654">
        <ele>285.9</ele>
        <time>2020-03-13T09:08:48Z</time>
      </trkpt>
      <trkpt lat="46.71732" lon="5.53647">
        <ele>285.7</ele>
        <time>2020-03-13T09:08:57Z</time>
      </trkpt>
      <trkpt lat="46.71732" lon="5.53639">
        <ele>285.9</ele>
        <time>2020-03-13T09:09:06Z</time>
      </trkpt>
      <trkpt lat="46.71727" lon="5.53625">
        <ele>284.6</ele>
        <time>2020-03-13T09:09:22Z</time>
      </trkpt>
      <trkpt lat="46.71726" lon="5.53618">
        <ele>284.3</ele>
        <time>2020-03-13T09:09:24Z</time>
      </trkpt>
      <trkpt lat="46.71724" lon="5.5361">
        <ele>283.9</ele>
        <time>2020-03-13T09:09:28Z</time>
      </trkpt>
      <trkpt lat="46.71722" lon="5.53603">
        <ele>283.7</ele>
        <time>2020-03-13T09:09:33Z</time>
      </trkpt>
      <trkpt lat="46.71721" lon="5.53595">
        <ele>284</ele>
        <time>2020-03-13T09:09:39Z</time>
      </trkpt>
      <trkpt lat="46.71718" lon="5.53589">
        <ele>284.1</ele>
        <time>2020-03-13T09:09:41Z</time>
      </trkpt>
      <trkpt lat="46.71715" lon="5.53583">
        <ele>284.2</ele>
        <time>2020-03-13T09:09:45Z</time>
      </trkpt>
      <trkpt lat="46.71708" lon="5.53572">
        <ele>284.8</ele>
        <time>2020-03-13T09:09:58Z</time>
      </trkpt>
      <trkpt lat="46.71702" lon="5.5356">
        <ele>283.6</ele>
        <time>2020-03-13T09:10:10Z</time>
      </trkpt>
      <trkpt lat="46.717" lon="5.53554">
        <ele>283.3</ele>
        <time>2020-03-13T09:10:15Z</time>
      </trkpt>
      <trkpt lat="46.71697" lon="5.53548">
        <ele>282.9</ele>
        <time>2020-03-13T09:10:21Z</time>
      </trkpt>
      <trkpt lat="46.71694" lon="5.53542">
        <ele>282.4</ele>
        <time>2020-03-13T09:10:28Z</time>
      </trkpt>
      <trkpt lat="46.71691" lon="5.53536">
        <ele>282.2</ele>
        <time>2020-03-13T09:10:34Z</time>
      </trkpt>
      <trkpt lat="46.71687" lon="5.5353">
        <ele>282.3</ele>
        <time>2020-03-13T09:10:38Z</time>
      </trkpt>
      <trkpt lat="46.71684" lon="5.53525">
        <ele>282.1</ele>
        <time>2020-03-13T09:10:43Z</time>
      </trkpt>
      <trkpt lat="46.71684" lon="5.53518">
        <ele>281.7</ele>
        <time>2020-03-13T09:10:50Z</time>
      </trkpt>
      <trkpt lat="46.71681" lon="5.53511">
        <ele>281.5</ele>
        <time>2020-03-13T09:10:54Z</time>
      </trkpt>
      <trkpt lat="46.71681" lon="5.53504">
        <ele>280.6</ele>
        <time>2020-03-13T09:11:01Z</time>
      </trkpt>
      <trkpt lat="46.71679" lon="5.53497">
        <ele>279.8</ele>
        <time>2020-03-13T09:11:06Z</time>
      </trkpt>
      <trkpt lat="46.71678" lon="5.5349">
        <ele>278.7</ele>
        <time>2020-03-13T09:11:13Z</time>
      </trkpt>
      <trkpt lat="46.71676" lon="5.53483">
        <ele>277.7</ele>
        <time>2020-03-13T09:11:19Z</time>
      </trkpt>
      <trkpt lat="46.71674" lon="5.53476">
        <ele>276.8</ele>
        <time>2020-03-13T09:11:26Z</time>
      </trkpt>
      <trkpt lat="46.71672" lon="5.53469">
        <ele>276.1</ele>
        <time>2020-03-13T09:11:32Z</time>
      </trkpt>
      <trkpt lat="46.71671" lon="5.53463">
        <ele>275.5</ele>
        <time>2020-03-13T09:11:38Z</time>
      </trkpt>
      <trkpt lat="46.71671" lon="5.53456">
        <ele>274.9</ele>
        <time>2020-03-13T09:11:43Z</time>
      </trkpt>
      <trkpt lat="46.71669" lon="5.53448">
        <ele>274.2</ele>
        <time>2020-03-13T09:11:50Z</time>
      </trkpt>
      <trkpt lat="46.71667" lon="5.53442">
        <ele>273.9</ele>
        <time>2020-03-13T09:11:55Z</time>
      </trkpt>
      <trkpt lat="46.71664" lon="5.53436">
        <ele>273.6</ele>
        <time>2020-03-13T09:12:01Z</time>
      </trkpt>
      <trkpt lat="46.71662" lon="5.5343">
        <ele>272.9</ele>
        <time>2020-03-13T09:12:09Z</time>
      </trkpt>
      <trkpt lat="46.71659" lon="5.53424">
        <ele>272.4</ele>
        <time>2020-03-13T09:12:14Z</time>
      </trkpt>
      <trkpt lat="46.71657" lon="5.53418">
        <ele>272.1</ele>
        <time>2020-03-13T09:12:18Z</time>
      </trkpt>
      <trkpt lat="46.71654" lon="5.53411">
        <ele>271.9</ele>
        <time>2020-03-13T09:12:26Z</time>
      </trkpt>
      <trkpt lat="46.71652" lon="5.53404">
        <ele>271.8</ele>
        <time>2020-03-13T09:12:32Z</time>
      </trkpt>
      <trkpt lat="46.71651" lon="5.53397">
        <ele>271.6</ele>
        <time>2020-03-13T09:12:37Z</time>
      </trkpt>
      <trkpt lat="46.71651" lon="5.5339">
        <ele>271.5</ele>
        <time>2020-03-13T09:12:43Z</time>
      </trkpt>
      <trkpt lat="46.71653" lon="5.53383">
        <ele>271.4</ele>
        <time>2020-03-13T09:12:49Z</time>
      </trkpt>
      <trkpt lat="46.7165" lon="5.53374">
        <ele>271.5</ele>
        <time>2020-03-13T09:12:53Z</time>
      </trkpt>
      <trkpt lat="46.71649" lon="5.53368">
        <ele>271.7</ele>
        <time>2020-03-13T09:12:56Z</time>
      </trkpt>
      <trkpt lat="46.71647" lon="5.53361">
        <ele>272.2</ele>
        <time>2020-03-13T09:13:02Z</time>
      </trkpt>
      <trkpt lat="46.71645" lon="5.53355">
        <ele>272.5</ele>
        <time>2020-03-13T09:13:07Z</time>
      </trkpt>
      <trkpt lat="46.71644" lon="5.53348">
        <ele>272.8</ele>
        <time>2020-03-13T09:13:14Z</time>
      </trkpt>
      <trkpt lat="46.71644" lon="5.53341">
        <ele>273.3</ele>
        <time>2020-03-13T09:13:22Z</time>
      </trkpt>
      <trkpt lat="46.71642" lon="5.53335">
        <ele>273.3</ele>
        <time>2020-03-13T09:13:31Z</time>
      </trkpt>
      <trkpt lat="46.71638" lon="5.53323">
        <ele>273.3</ele>
        <time>2020-03-13T09:13:46Z</time>
      </trkpt>
      <trkpt lat="46.71635" lon="5.53311">
        <ele>273.5</ele>
        <time>2020-03-13T09:13:57Z</time>
      </trkpt>
      <trkpt lat="46.71633" lon="5.53305">
        <ele>273.8</ele>
        <time>2020-03-13T09:14:03Z</time>
      </trkpt>
      <trkpt lat="46.7163" lon="5.53299">
        <ele>274.5</ele>
        <time>2020-03-13T09:14:12Z</time>
      </trkpt>
      <trkpt lat="46.71624" lon="5.53294">
        <ele>276.4</ele>
        <time>2020-03-13T09:14:25Z</time>
      </trkpt>
      <trkpt lat="46.71621" lon="5.53289">
        <ele>276.7</ele>
        <time>2020-03-13T09:14:27Z</time>
      </trkpt>
      <trkpt lat="46.71617" lon="5.53284">
        <ele>277.9</ele>
        <time>2020-03-13T09:14:33Z</time>
      </trkpt>
      <trkpt lat="46.71614" lon="5.53279">
        <ele>279.2</ele>
        <time>2020-03-13T09:14:39Z</time>
      </trkpt>
      <trkpt lat="46.7161" lon="5.53275">
        <ele>280.7</ele>
        <time>2020-03-13T09:14:51Z</time>
      </trkpt>
      <trkpt lat="46.71604" lon="5.53257">
        <ele>282.6</ele>
        <time>2020-03-13T09:15:08Z</time>
      </trkpt>
      <trkpt lat="46.71595" lon="5.5324">
        <ele>283.9</ele>
        <time>2020-03-13T09:15:45Z</time>
      </trkpt>
      <trkpt lat="46.71592" lon="5.53235">
        <ele>283.8</ele>
        <time>2020-03-13T09:15:50Z</time>
      </trkpt>
      <trkpt lat="46.71588" lon="5.53228">
        <ele>284.2</ele>
        <time>2020-03-13T09:15:58Z</time>
      </trkpt>
      <trkpt lat="46.71585" lon="5.53223">
        <ele>285.1</ele>
        <time>2020-03-13T09:16:04Z</time>
      </trkpt>
      <trkpt lat="46.71582" lon="5.53216">
        <ele>285.9</ele>
        <time>2020-03-13T09:16:09Z</time>
      </trkpt>
      <trkpt lat="46.71579" lon="5.53211">
        <ele>287</ele>
        <time>2020-03-13T09:16:16Z</time>
      </trkpt>
      <trkpt lat="46.71575" lon="5.53205">
        <ele>287.6</ele>
        <time>2020-03-13T09:16:20Z</time>
      </trkpt>
      <trkpt lat="46.71564" lon="5.53188">
        <ele>291.5</ele>
        <time>2020-03-13T09:16:37Z</time>
      </trkpt>
      <trkpt lat="46.71564" lon="5.53181">
        <ele>292.7</ele>
        <time>2020-03-13T09:16:47Z</time>
      </trkpt>
      <trkpt lat="46.71569" lon="5.53174">
        <ele>296.3</ele>
        <time>2020-03-13T09:18:24Z</time>
      </trkpt>
      <trkpt lat="46.7157" lon="5.53158">
        <ele>296</ele>
        <time>2020-03-13T09:18:39Z</time>
      </trkpt>
      <trkpt lat="46.71571" lon="5.53151">
        <ele>295.9</ele>
        <time>2020-03-13T09:18:44Z</time>
      </trkpt>
      <trkpt lat="46.71571" lon="5.53144">
        <ele>296</ele>
        <time>2020-03-13T09:18:48Z</time>
      </trkpt>
      <trkpt lat="46.7157" lon="5.53137">
        <ele>296.3</ele>
        <time>2020-03-13T09:18:54Z</time>
      </trkpt>
      <trkpt lat="46.71571" lon="5.5313">
        <ele>296.7</ele>
        <time>2020-03-13T09:18:59Z</time>
      </trkpt>
      <trkpt lat="46.71571" lon="5.53123">
        <ele>297.4</ele>
        <time>2020-03-13T09:19:05Z</time>
      </trkpt>
      <trkpt lat="46.71569" lon="5.53116">
        <ele>297.8</ele>
        <time>2020-03-13T09:19:11Z</time>
      </trkpt>
      <trkpt lat="46.71567" lon="5.5311">
        <ele>298.4</ele>
        <time>2020-03-13T09:19:18Z</time>
      </trkpt>
      <trkpt lat="46.71562" lon="5.531">
        <ele>299.3</ele>
        <time>2020-03-13T09:19:29Z</time>
      </trkpt>
      <trkpt lat="46.71559" lon="5.53093">
        <ele>299.6</ele>
        <time>2020-03-13T09:19:35Z</time>
      </trkpt>
      <trkpt lat="46.71555" lon="5.53089">
        <ele>300</ele>
        <time>2020-03-13T09:19:41Z</time>
      </trkpt>
      <trkpt lat="46.71551" lon="5.53085">
        <ele>300.8</ele>
        <time>2020-03-13T09:19:48Z</time>
      </trkpt>
      <trkpt lat="46.71547" lon="5.53081">
        <ele>301.6</ele>
        <time>2020-03-13T09:19:55Z</time>
      </trkpt>
      <trkpt lat="46.71537" lon="5.53074">
        <ele>302.4</ele>
        <time>2020-03-13T09:20:08Z</time>
      </trkpt>
      <trkpt lat="46.71533" lon="5.53071">
        <ele>302.8</ele>
        <time>2020-03-13T09:20:16Z</time>
      </trkpt>
      <trkpt lat="46.71529" lon="5.53067">
        <ele>303.6</ele>
        <time>2020-03-13T09:20:25Z</time>
      </trkpt>
      <trkpt lat="46.71519" lon="5.53057">
        <ele>305.4</ele>
        <time>2020-03-13T09:21:35Z</time>
      </trkpt>
      <trkpt lat="46.71514" lon="5.53053">
        <ele>305.6</ele>
        <time>2020-03-13T09:21:38Z</time>
      </trkpt>
      <trkpt lat="46.71509" lon="5.53049">
        <ele>305.7</ele>
        <time>2020-03-13T09:21:41Z</time>
      </trkpt>
      <trkpt lat="46.71504" lon="5.53047">
        <ele>305.8</ele>
        <time>2020-03-13T09:21:44Z</time>
      </trkpt>
      <trkpt lat="46.715" lon="5.53045">
        <ele>305.6</ele>
        <time>2020-03-13T09:21:54Z</time>
      </trkpt>
      <trkpt lat="46.71497" lon="5.5304">
        <ele>305.1</ele>
        <time>2020-03-13T09:22:02Z</time>
      </trkpt>
      <trkpt lat="46.71493" lon="5.53034">
        <ele>305.4</ele>
        <time>2020-03-13T09:22:08Z</time>
      </trkpt>
      <trkpt lat="46.71489" lon="5.53029">
        <ele>305.7</ele>
        <time>2020-03-13T09:22:12Z</time>
      </trkpt>
      <trkpt lat="46.71486" lon="5.53023">
        <ele>306.3</ele>
        <time>2020-03-13T09:22:17Z</time>
      </trkpt>
      <trkpt lat="46.71484" lon="5.53018">
        <ele>307</ele>
        <time>2020-03-13T09:22:23Z</time>
      </trkpt>
      <trkpt lat="46.71482" lon="5.53012">
        <ele>307.9</ele>
        <time>2020-03-13T09:22:32Z</time>
      </trkpt>
      <trkpt lat="46.71479" lon="5.53007">
        <ele>308.6</ele>
        <time>2020-03-13T09:22:39Z</time>
      </trkpt>
      <trkpt lat="46.71475" lon="5.53001">
        <ele>308.7</ele>
        <time>2020-03-13T09:22:46Z</time>
      </trkpt>
      <trkpt lat="46.71467" lon="5.52991">
        <ele>309</ele>
        <time>2020-03-13T09:23:01Z</time>
      </trkpt>
      <trkpt lat="46.71463" lon="5.52978">
        <ele>309.9</ele>
        <time>2020-03-13T09:23:18Z</time>
      </trkpt>
      <trkpt lat="46.71459" lon="5.52973">
        <ele>310</ele>
        <time>2020-03-13T09:23:23Z</time>
      </trkpt>
      <trkpt lat="46.71456" lon="5.52968">
        <ele>310.1</ele>
        <time>2020-03-13T09:23:28Z</time>
      </trkpt>
      <trkpt lat="46.7145" lon="5.52955">
        <ele>311.1</ele>
        <time>2020-03-13T09:23:43Z</time>
      </trkpt>
      <trkpt lat="46.71446" lon="5.52951">
        <ele>311.7</ele>
        <time>2020-03-13T09:23:52Z</time>
      </trkpt>
      <trkpt lat="46.71442" lon="5.52947">
        <ele>312</ele>
        <time>2020-03-13T09:23:59Z</time>
      </trkpt>
      <trkpt lat="46.71439" lon="5.52942">
        <ele>312.4</ele>
        <time>2020-03-13T09:24:04Z</time>
      </trkpt>
      <trkpt lat="46.71435" lon="5.52937">
        <ele>312.7</ele>
        <time>2020-03-13T09:24:14Z</time>
      </trkpt>
      <trkpt lat="46.7143" lon="5.52935">
        <ele>312.7</ele>
        <time>2020-03-13T09:24:20Z</time>
      </trkpt>
      <trkpt lat="46.71425" lon="5.52932">
        <ele>312.6</ele>
        <time>2020-03-13T09:24:26Z</time>
      </trkpt>
      <trkpt lat="46.71417" lon="5.52926">
        <ele>312</ele>
        <time>2020-03-13T09:24:49Z</time>
      </trkpt>
      <trkpt lat="46.71412" lon="5.52922">
        <ele>311.8</ele>
        <time>2020-03-13T09:24:53Z</time>
      </trkpt>
      <trkpt lat="46.71408" lon="5.52919">
        <ele>311.8</ele>
        <time>2020-03-13T09:24:57Z</time>
      </trkpt>
      <trkpt lat="46.71404" lon="5.52914">
        <ele>311.7</ele>
        <time>2020-03-13T09:25:00Z</time>
      </trkpt>
      <trkpt lat="46.714" lon="5.52911">
        <ele>311.8</ele>
        <time>2020-03-13T09:25:03Z</time>
      </trkpt>
      <trkpt lat="46.71395" lon="5.5291">
        <ele>311.8</ele>
        <time>2020-03-13T09:25:07Z</time>
      </trkpt>
      <trkpt lat="46.71391" lon="5.52909">
        <ele>312</ele>
        <time>2020-03-13T09:25:12Z</time>
      </trkpt>
      <trkpt lat="46.71386" lon="5.52905">
        <ele>312.1</ele>
        <time>2020-03-13T09:25:17Z</time>
      </trkpt>
      <trkpt lat="46.71382" lon="5.52902">
        <ele>312.2</ele>
        <time>2020-03-13T09:25:24Z</time>
      </trkpt>
      <trkpt lat="46.71378" lon="5.52898">
        <ele>312.3</ele>
        <time>2020-03-13T09:25:29Z</time>
      </trkpt>
      <trkpt lat="46.71374" lon="5.52895">
        <ele>312.5</ele>
        <time>2020-03-13T09:25:33Z</time>
      </trkpt>
      <trkpt lat="46.71369" lon="5.52891">
        <ele>312.9</ele>
        <time>2020-03-13T09:25:38Z</time>
      </trkpt>
      <trkpt lat="46.71365" lon="5.52888">
        <ele>313.6</ele>
        <time>2020-03-13T09:25:45Z</time>
      </trkpt>
      <trkpt lat="46.7136" lon="5.52891">
        <ele>314.8</ele>
        <time>2020-03-13T09:25:55Z</time>
      </trkpt>
      <trkpt lat="46.71357" lon="5.52886">
        <ele>316.6</ele>
        <time>2020-03-13T09:26:08Z</time>
      </trkpt>
      <trkpt lat="46.71353" lon="5.52882">
        <ele>317.6</ele>
        <time>2020-03-13T09:26:17Z</time>
      </trkpt>
      <trkpt lat="46.71348" lon="5.52881">
        <ele>318.8</ele>
        <time>2020-03-13T09:26:26Z</time>
      </trkpt>
      <trkpt lat="46.71344" lon="5.52877">
        <ele>319.4</ele>
        <time>2020-03-13T09:26:33Z</time>
      </trkpt>
      <trkpt lat="46.71341" lon="5.52873">
        <ele>319.9</ele>
        <time>2020-03-13T09:26:40Z</time>
      </trkpt>
      <trkpt lat="46.71336" lon="5.5287">
        <ele>321</ele>
        <time>2020-03-13T09:26:56Z</time>
      </trkpt>
      <trkpt lat="46.71332" lon="5.52867">
        <ele>321.3</ele>
        <time>2020-03-13T09:27:01Z</time>
      </trkpt>
      <trkpt lat="46.71328" lon="5.52863">
        <ele>321.4</ele>
        <time>2020-03-13T09:27:05Z</time>
      </trkpt>
      <trkpt lat="46.71323" lon="5.52861">
        <ele>321.6</ele>
        <time>2020-03-13T09:27:12Z</time>
      </trkpt>
      <trkpt lat="46.71318" lon="5.52859">
        <ele>321.6</ele>
        <time>2020-03-13T09:27:17Z</time>
      </trkpt>
      <trkpt lat="46.71314" lon="5.52858">
        <ele>321.5</ele>
        <time>2020-03-13T09:27:22Z</time>
      </trkpt>
      <trkpt lat="46.71309" lon="5.52856">
        <ele>321.4</ele>
        <time>2020-03-13T09:27:29Z</time>
      </trkpt>
      <trkpt lat="46.71305" lon="5.52854">
        <ele>321.1</ele>
        <time>2020-03-13T09:27:35Z</time>
      </trkpt>
      <trkpt lat="46.713" lon="5.52851">
        <ele>320.9</ele>
        <time>2020-03-13T09:27:40Z</time>
      </trkpt>
      <trkpt lat="46.71296" lon="5.5285">
        <ele>320.7</ele>
        <time>2020-03-13T09:27:45Z</time>
      </trkpt>
      <trkpt lat="46.71294" lon="5.52856">
        <ele>320.2</ele>
        <time>2020-03-13T09:27:55Z</time>
      </trkpt>
      <trkpt lat="46.71294" lon="5.52863">
        <ele>319.8</ele>
        <time>2020-03-13T09:28:05Z</time>
      </trkpt>
      <trkpt lat="46.71294" lon="5.52869">
        <ele>319.6</ele>
        <time>2020-03-13T09:28:13Z</time>
      </trkpt>
      <trkpt lat="46.71292" lon="5.52876">
        <ele>319.6</ele>
        <time>2020-03-13T09:28:19Z</time>
      </trkpt>
      <trkpt lat="46.71291" lon="5.52884">
        <ele>319.9</ele>
        <time>2020-03-13T09:28:26Z</time>
      </trkpt>
      <trkpt lat="46.71289" lon="5.5289">
        <ele>320.2</ele>
        <time>2020-03-13T09:28:32Z</time>
      </trkpt>
      <trkpt lat="46.71288" lon="5.52898">
        <ele>320.5</ele>
        <time>2020-03-13T09:28:37Z</time>
      </trkpt>
      <trkpt lat="46.71287" lon="5.52904">
        <ele>320.9</ele>
        <time>2020-03-13T09:28:43Z</time>
      </trkpt>
      <trkpt lat="46.71284" lon="5.5291">
        <ele>321.3</ele>
        <time>2020-03-13T09:28:49Z</time>
      </trkpt>
      <trkpt lat="46.71281" lon="5.52915">
        <ele>321.8</ele>
        <time>2020-03-13T09:28:57Z</time>
      </trkpt>
      <trkpt lat="46.71278" lon="5.52921">
        <ele>322</ele>
        <time>2020-03-13T09:29:04Z</time>
      </trkpt>
      <trkpt lat="46.7128" lon="5.52928">
        <ele>322.4</ele>
        <time>2020-03-13T09:29:11Z</time>
      </trkpt>
      <trkpt lat="46.71282" lon="5.52935">
        <ele>322.9</ele>
        <time>2020-03-13T09:29:17Z</time>
      </trkpt>
      <trkpt lat="46.71283" lon="5.52942">
        <ele>323.8</ele>
        <time>2020-03-13T09:29:24Z</time>
      </trkpt>
      <trkpt lat="46.71285" lon="5.52949">
        <ele>324.8</ele>
        <time>2020-03-13T09:29:30Z</time>
      </trkpt>
      <trkpt lat="46.71286" lon="5.52956">
        <ele>325.8</ele>
        <time>2020-03-13T09:29:36Z</time>
      </trkpt>
      <trkpt lat="46.71288" lon="5.52963">
        <ele>326.7</ele>
        <time>2020-03-13T09:29:41Z</time>
      </trkpt>
      <trkpt lat="46.71289" lon="5.52969">
        <ele>327.7</ele>
        <time>2020-03-13T09:29:46Z</time>
      </trkpt>
      <trkpt lat="46.71289" lon="5.52977">
        <ele>329.2</ele>
        <time>2020-03-13T09:29:54Z</time>
      </trkpt>
      <trkpt lat="46.71291" lon="5.52984">
        <ele>331.7</ele>
        <time>2020-03-13T09:30:09Z</time>
      </trkpt>
      <trkpt lat="46.71289" lon="5.5299">
        <ele>333.4</ele>
        <time>2020-03-13T09:30:46Z</time>
      </trkpt>
      <trkpt lat="46.71293" lon="5.52995">
        <ele>332.9</ele>
        <time>2020-03-13T09:31:02Z</time>
      </trkpt>
      <trkpt lat="46.71291" lon="5.52989">
        <ele>331.3</ele>
        <time>2020-03-13T09:31:36Z</time>
      </trkpt>
      <trkpt lat="46.7129" lon="5.52982">
        <ele>331.3</ele>
        <time>2020-03-13T09:32:09Z</time>
      </trkpt>
      <trkpt lat="46.71285" lon="5.52981">
        <ele>331.5</ele>
        <time>2020-03-13T09:32:16Z</time>
      </trkpt>
      <trkpt lat="46.7128" lon="5.5298">
        <ele>331.8</ele>
        <time>2020-03-13T09:32:27Z</time>
      </trkpt>
      <trkpt lat="46.71284" lon="5.52983">
        <ele>331.3</ele>
        <time>2020-03-13T09:32:37Z</time>
      </trkpt>
      <trkpt lat="46.71289" lon="5.52986">
        <ele>331</ele>
        <time>2020-03-13T09:32:45Z</time>
      </trkpt>
      <trkpt lat="46.71293" lon="5.5299">
        <ele>331.2</ele>
        <time>2020-03-13T09:32:50Z</time>
      </trkpt>
      <trkpt lat="46.71298" lon="5.52993">
        <ele>331.7</ele>
        <time>2020-03-13T09:32:55Z</time>
      </trkpt>
      <trkpt lat="46.71303" lon="5.52995">
        <ele>332.5</ele>
        <time>2020-03-13T09:33:00Z</time>
      </trkpt>
      <trkpt lat="46.71308" lon="5.52997">
        <ele>333.4</ele>
        <time>2020-03-13T09:33:05Z</time>
      </trkpt>
      <trkpt lat="46.71312" lon="5.53">
        <ele>334.5</ele>
        <time>2020-03-13T09:33:10Z</time>
      </trkpt>
      <trkpt lat="46.71316" lon="5.53004">
        <ele>335.9</ele>
        <time>2020-03-13T09:33:17Z</time>
      </trkpt>
      <trkpt lat="46.7132" lon="5.53008">
        <ele>336.8</ele>
        <time>2020-03-13T09:33:23Z</time>
      </trkpt>
      <trkpt lat="46.71323" lon="5.53014">
        <ele>337</ele>
        <time>2020-03-13T09:33:29Z</time>
      </trkpt>
      <trkpt lat="46.71327" lon="5.53018">
        <ele>336.5</ele>
        <time>2020-03-13T09:33:37Z</time>
      </trkpt>
      <trkpt lat="46.71325" lon="5.53024">
        <ele>335.5</ele>
        <time>2020-03-13T09:33:54Z</time>
      </trkpt>
      <trkpt lat="46.7132" lon="5.53024">
        <ele>336.1</ele>
        <time>2020-03-13T09:34:04Z</time>
      </trkpt>
      <trkpt lat="46.7131" lon="5.53029">
        <ele>338.5</ele>
        <time>2020-03-13T09:34:56Z</time>
      </trkpt>
      <trkpt lat="46.71307" lon="5.53034">
        <ele>338.6</ele>
        <time>2020-03-13T09:35:02Z</time>
      </trkpt>
      <trkpt lat="46.71303" lon="5.53039">
        <ele>339.2</ele>
        <time>2020-03-13T09:35:09Z</time>
      </trkpt>
      <trkpt lat="46.713" lon="5.53045">
        <ele>339.8</ele>
        <time>2020-03-13T09:35:15Z</time>
      </trkpt>
      <trkpt lat="46.71297" lon="5.53051">
        <ele>340.8</ele>
        <time>2020-03-13T09:35:20Z</time>
      </trkpt>
      <trkpt lat="46.71293" lon="5.53055">
        <ele>341.8</ele>
        <time>2020-03-13T09:35:25Z</time>
      </trkpt>
      <trkpt lat="46.7129" lon="5.53061">
        <ele>342.6</ele>
        <time>2020-03-13T09:35:34Z</time>
      </trkpt>
      <trkpt lat="46.71288" lon="5.53067">
        <ele>343.2</ele>
        <time>2020-03-13T09:35:41Z</time>
      </trkpt>
      <trkpt lat="46.71288" lon="5.53074">
        <ele>344</ele>
        <time>2020-03-13T09:35:47Z</time>
      </trkpt>
      <trkpt lat="46.71288" lon="5.53081">
        <ele>344.9</ele>
        <time>2020-03-13T09:35:53Z</time>
      </trkpt>
      <trkpt lat="46.71284" lon="5.53082">
        <ele>345.7</ele>
        <time>2020-03-13T09:36:11Z</time>
      </trkpt>
      <trkpt lat="46.71281" lon="5.53089">
        <ele>349.1</ele>
        <time>2020-03-13T09:36:39Z</time>
      </trkpt>
      <trkpt lat="46.71276" lon="5.5309">
        <ele>349.6</ele>
        <time>2020-03-13T09:36:46Z</time>
      </trkpt>
      <trkpt lat="46.71271" lon="5.53091">
        <ele>350</ele>
        <time>2020-03-13T09:36:58Z</time>
      </trkpt>
      <trkpt lat="46.71266" lon="5.53093">
        <ele>350.1</ele>
        <time>2020-03-13T09:37:04Z</time>
      </trkpt>
      <trkpt lat="46.71261" lon="5.53092">
        <ele>350.1</ele>
        <time>2020-03-13T09:37:08Z</time>
      </trkpt>
      <trkpt lat="46.71255" lon="5.53094">
        <ele>350</ele>
        <time>2020-03-13T09:37:12Z</time>
      </trkpt>
      <trkpt lat="46.7125" lon="5.53095">
        <ele>349.9</ele>
        <time>2020-03-13T09:37:15Z</time>
      </trkpt>
      <trkpt lat="46.71246" lon="5.53097">
        <ele>349.6</ele>
        <time>2020-03-13T09:37:19Z</time>
      </trkpt>
      <trkpt lat="46.71241" lon="5.53098">
        <ele>349</ele>
        <time>2020-03-13T09:37:25Z</time>
      </trkpt>
      <trkpt lat="46.71236" lon="5.53099">
        <ele>348.4</ele>
        <time>2020-03-13T09:37:31Z</time>
      </trkpt>
      <trkpt lat="46.71231" lon="5.53099">
        <ele>348</ele>
        <time>2020-03-13T09:37:37Z</time>
      </trkpt>
      <trkpt lat="46.71226" lon="5.531">
        <ele>347.6</ele>
        <time>2020-03-13T09:37:44Z</time>
      </trkpt>
      <trkpt lat="46.71222" lon="5.53104">
        <ele>347.2</ele>
        <time>2020-03-13T09:37:51Z</time>
      </trkpt>
      <trkpt lat="46.71217" lon="5.53107">
        <ele>346.8</ele>
        <time>2020-03-13T09:37:59Z</time>
      </trkpt>
      <trkpt lat="46.71213" lon="5.5311">
        <ele>346.6</ele>
        <time>2020-03-13T09:38:05Z</time>
      </trkpt>
      <trkpt lat="46.71209" lon="5.53113">
        <ele>346.2</ele>
        <time>2020-03-13T09:38:13Z</time>
      </trkpt>
      <trkpt lat="46.71205" lon="5.53118">
        <ele>345.7</ele>
        <time>2020-03-13T09:38:20Z</time>
      </trkpt>
      <trkpt lat="46.71202" lon="5.53123">
        <ele>345.3</ele>
        <time>2020-03-13T09:38:27Z</time>
      </trkpt>
      <trkpt lat="46.71199" lon="5.53128">
        <ele>345</ele>
        <time>2020-03-13T09:38:33Z</time>
      </trkpt>
      <trkpt lat="46.71196" lon="5.53134">
        <ele>345</ele>
        <time>2020-03-13T09:38:40Z</time>
      </trkpt>
      <trkpt lat="46.71192" lon="5.53138">
        <ele>345.1</ele>
        <time>2020-03-13T09:38:48Z</time>
      </trkpt>
      <trkpt lat="46.7119" lon="5.53145">
        <ele>345.2</ele>
        <time>2020-03-13T09:38:54Z</time>
      </trkpt>
      <trkpt lat="46.71188" lon="5.53152">
        <ele>345.2</ele>
        <time>2020-03-13T09:39:00Z</time>
      </trkpt>
      <trkpt lat="46.71187" lon="5.5316">
        <ele>345.2</ele>
        <time>2020-03-13T09:39:05Z</time>
      </trkpt>
      <trkpt lat="46.71187" lon="5.53166">
        <ele>345.3</ele>
        <time>2020-03-13T09:39:11Z</time>
      </trkpt>
      <trkpt lat="46.71185" lon="5.53172">
        <ele>345.5</ele>
        <time>2020-03-13T09:39:20Z</time>
      </trkpt>
      <trkpt lat="46.71181" lon="5.53177">
        <ele>345.3</ele>
        <time>2020-03-13T09:39:29Z</time>
      </trkpt>
      <trkpt lat="46.71178" lon="5.53183">
        <ele>345.3</ele>
        <time>2020-03-13T09:39:39Z</time>
      </trkpt>
      <trkpt lat="46.71176" lon="5.53189">
        <ele>344.8</ele>
        <time>2020-03-13T09:39:46Z</time>
      </trkpt>
      <trkpt lat="46.71176" lon="5.53203">
        <ele>339.8</ele>
        <time>2020-03-13T09:40:40Z</time>
      </trkpt>
      <trkpt lat="46.71173" lon="5.53215">
        <ele>337.6</ele>
        <time>2020-03-13T09:41:00Z</time>
      </trkpt>
      <trkpt lat="46.71175" lon="5.53221">
        <ele>337.3</ele>
        <time>2020-03-13T09:41:13Z</time>
      </trkpt>
      <trkpt lat="46.71179" lon="5.53225">
        <ele>337.3</ele>
        <time>2020-03-13T09:41:19Z</time>
      </trkpt>
      <trkpt lat="46.71183" lon="5.5323">
        <ele>337.2</ele>
        <time>2020-03-13T09:41:23Z</time>
      </trkpt>
      <trkpt lat="46.71186" lon="5.53235">
        <ele>337.1</ele>
        <time>2020-03-13T09:41:34Z</time>
      </trkpt>
      <trkpt lat="46.71189" lon="5.53241">
        <ele>337.3</ele>
        <time>2020-03-13T09:41:43Z</time>
      </trkpt>
      <trkpt lat="46.71192" lon="5.53246">
        <ele>337.6</ele>
        <time>2020-03-13T09:41:50Z</time>
      </trkpt>
      <trkpt lat="46.71192" lon="5.53253">
        <ele>338.1</ele>
        <time>2020-03-13T09:41:57Z</time>
      </trkpt>
      <trkpt lat="46.71191" lon="5.5326">
        <ele>338.6</ele>
        <time>2020-03-13T09:42:03Z</time>
      </trkpt>
      <trkpt lat="46.71195" lon="5.53273">
        <ele>338.8</ele>
        <time>2020-03-13T09:42:16Z</time>
      </trkpt>
      <trkpt lat="46.71198" lon="5.53279">
        <ele>338.6</ele>
        <time>2020-03-13T09:42:23Z</time>
      </trkpt>
      <trkpt lat="46.71201" lon="5.53283">
        <ele>338.6</ele>
        <time>2020-03-13T09:42:30Z</time>
      </trkpt>
      <trkpt lat="46.71205" lon="5.53289">
        <ele>338.4</ele>
        <time>2020-03-13T09:42:37Z</time>
      </trkpt>
      <trkpt lat="46.71208" lon="5.53293">
        <ele>338.3</ele>
        <time>2020-03-13T09:42:42Z</time>
      </trkpt>
      <trkpt lat="46.71212" lon="5.53299">
        <ele>338.1</ele>
        <time>2020-03-13T09:42:46Z</time>
      </trkpt>
      <trkpt lat="46.71216" lon="5.53303">
        <ele>338</ele>
        <time>2020-03-13T09:42:50Z</time>
      </trkpt>
      <trkpt lat="46.7122" lon="5.53306">
        <ele>337.6</ele>
        <time>2020-03-13T09:42:55Z</time>
      </trkpt>
      <trkpt lat="46.71223" lon="5.53311">
        <ele>337.4</ele>
        <time>2020-03-13T09:43:04Z</time>
      </trkpt>
      <trkpt lat="46.71226" lon="5.53317">
        <ele>337</ele>
        <time>2020-03-13T09:43:08Z</time>
      </trkpt>
      <trkpt lat="46.7123" lon="5.53321">
        <ele>336.6</ele>
        <time>2020-03-13T09:43:14Z</time>
      </trkpt>
      <trkpt lat="46.71235" lon="5.53325">
        <ele>336.3</ele>
        <time>2020-03-13T09:43:20Z</time>
      </trkpt>
      <trkpt lat="46.71238" lon="5.53329">
        <ele>336.1</ele>
        <time>2020-03-13T09:43:26Z</time>
      </trkpt>
      <trkpt lat="46.71241" lon="5.53334">
        <ele>336</ele>
        <time>2020-03-13T09:43:31Z</time>
      </trkpt>
      <trkpt lat="46.71245" lon="5.53338">
        <ele>336</ele>
        <time>2020-03-13T09:43:34Z</time>
      </trkpt>
      <trkpt lat="46.71249" lon="5.53342">
        <ele>336.2</ele>
        <time>2020-03-13T09:43:38Z</time>
      </trkpt>
      <trkpt lat="46.71254" lon="5.53344">
        <ele>336.3</ele>
        <time>2020-03-13T09:43:43Z</time>
      </trkpt>
      <trkpt lat="46.71258" lon="5.53346">
        <ele>336.2</ele>
        <time>2020-03-13T09:43:46Z</time>
      </trkpt>
      <trkpt lat="46.71263" lon="5.53348">
        <ele>336.2</ele>
        <time>2020-03-13T09:43:49Z</time>
      </trkpt>
      <trkpt lat="46.71268" lon="5.53349">
        <ele>335.8</ele>
        <time>2020-03-13T09:43:55Z</time>
      </trkpt>
      <trkpt lat="46.71272" lon="5.53351">
        <ele>335.2</ele>
        <time>2020-03-13T09:44:01Z</time>
      </trkpt>
      <trkpt lat="46.71277" lon="5.53352">
        <ele>334.6</ele>
        <time>2020-03-13T09:44:07Z</time>
      </trkpt>
      <trkpt lat="46.71287" lon="5.53356">
        <ele>332.8</ele>
        <time>2020-03-13T09:44:21Z</time>
      </trkpt>
      <trkpt lat="46.71291" lon="5.53357">
        <ele>331.8</ele>
        <time>2020-03-13T09:44:28Z</time>
      </trkpt>
      <trkpt lat="46.71296" lon="5.5336">
        <ele>331.3</ele>
        <time>2020-03-13T09:44:34Z</time>
      </trkpt>
      <trkpt lat="46.71301" lon="5.53363">
        <ele>331.1</ele>
        <time>2020-03-13T09:44:38Z</time>
      </trkpt>
      <trkpt lat="46.71306" lon="5.53363">
        <ele>331.2</ele>
        <time>2020-03-13T09:44:42Z</time>
      </trkpt>
      <trkpt lat="46.71311" lon="5.53364">
        <ele>331.2</ele>
        <time>2020-03-13T09:44:48Z</time>
      </trkpt>
      <trkpt lat="46.71316" lon="5.53365">
        <ele>331.3</ele>
        <time>2020-03-13T09:44:52Z</time>
      </trkpt>
      <trkpt lat="46.71321" lon="5.53366">
        <ele>331.8</ele>
        <time>2020-03-13T09:44:58Z</time>
      </trkpt>
      <trkpt lat="46.71326" lon="5.53366">
        <ele>332.5</ele>
        <time>2020-03-13T09:45:04Z</time>
      </trkpt>
      <trkpt lat="46.71331" lon="5.53367">
        <ele>332.7</ele>
        <time>2020-03-13T09:45:10Z</time>
      </trkpt>
      <trkpt lat="46.71336" lon="5.5337">
        <ele>332.9</ele>
        <time>2020-03-13T09:45:15Z</time>
      </trkpt>
      <trkpt lat="46.7134" lon="5.53374">
        <ele>332.9</ele>
        <time>2020-03-13T09:45:20Z</time>
      </trkpt>
      <trkpt lat="46.71344" lon="5.53376">
        <ele>332.7</ele>
        <time>2020-03-13T09:45:26Z</time>
      </trkpt>
      <trkpt lat="46.71349" lon="5.53378">
        <ele>332.4</ele>
        <time>2020-03-13T09:45:34Z</time>
      </trkpt>
      <trkpt lat="46.71354" lon="5.53376">
        <ele>332.1</ele>
        <time>2020-03-13T09:45:41Z</time>
      </trkpt>
      <trkpt lat="46.71358" lon="5.53373">
        <ele>331.6</ele>
        <time>2020-03-13T09:45:48Z</time>
      </trkpt>
      <trkpt lat="46.71362" lon="5.53373">
        <ele>329.9</ele>
        <time>2020-03-13T09:45:57Z</time>
      </trkpt>
      <trkpt lat="46.71367" lon="5.5337">
        <ele>326.4</ele>
        <time>2020-03-13T09:46:08Z</time>
      </trkpt>
      <trkpt lat="46.71372" lon="5.53369">
        <ele>324.6</ele>
        <time>2020-03-13T09:46:13Z</time>
      </trkpt>
      <trkpt lat="46.71377" lon="5.53366">
        <ele>323</ele>
        <time>2020-03-13T09:46:18Z</time>
      </trkpt>
      <trkpt lat="46.71381" lon="5.53363">
        <ele>321.8</ele>
        <time>2020-03-13T09:46:22Z</time>
      </trkpt>
      <trkpt lat="46.71386" lon="5.5336">
        <ele>320.2</ele>
        <time>2020-03-13T09:46:27Z</time>
      </trkpt>
      <trkpt lat="46.7139" lon="5.53356">
        <ele>318.6</ele>
        <time>2020-03-13T09:46:32Z</time>
      </trkpt>
      <trkpt lat="46.71393" lon="5.53351">
        <ele>316.6</ele>
        <time>2020-03-13T09:46:38Z</time>
      </trkpt>
      <trkpt lat="46.71398" lon="5.53348">
        <ele>314.7</ele>
        <time>2020-03-13T09:46:44Z</time>
      </trkpt>
      <trkpt lat="46.71402" lon="5.53345">
        <ele>313.4</ele>
        <time>2020-03-13T09:46:49Z</time>
      </trkpt>
      <trkpt lat="46.71407" lon="5.53343">
        <ele>310</ele>
        <time>2020-03-13T09:47:02Z</time>
      </trkpt>
      <trkpt lat="46.71412" lon="5.53341">
        <ele>308.8</ele>
        <time>2020-03-13T09:47:07Z</time>
      </trkpt>
      <trkpt lat="46.71416" lon="5.53337">
        <ele>307.2</ele>
        <time>2020-03-13T09:47:15Z</time>
      </trkpt>
      <trkpt lat="46.7142" lon="5.53333">
        <ele>306.6</ele>
        <time>2020-03-13T09:47:19Z</time>
      </trkpt>
      <trkpt lat="46.71424" lon="5.53329">
        <ele>306.2</ele>
        <time>2020-03-13T09:47:23Z</time>
      </trkpt>
      <trkpt lat="46.71428" lon="5.53326">
        <ele>305.5</ele>
        <time>2020-03-13T09:47:29Z</time>
      </trkpt>
      <trkpt lat="46.71433" lon="5.53324">
        <ele>304.7</ele>
        <time>2020-03-13T09:47:38Z</time>
      </trkpt>
      <trkpt lat="46.71437" lon="5.53323">
        <ele>304.8</ele>
        <time>2020-03-13T09:47:46Z</time>
      </trkpt>
      <trkpt lat="46.71446" lon="5.5332">
        <ele>310.6</ele>
        <time>2020-03-13T09:48:36Z</time>
      </trkpt>
      <trkpt lat="46.7145" lon="5.53324">
        <ele>311.4</ele>
        <time>2020-03-13T09:48:44Z</time>
      </trkpt>
      <trkpt lat="46.71452" lon="5.53331">
        <ele>311.9</ele>
        <time>2020-03-13T09:48:54Z</time>
      </trkpt>
      <trkpt lat="46.71452" lon="5.53339">
        <ele>312.2</ele>
        <time>2020-03-13T09:49:00Z</time>
      </trkpt>
      <trkpt lat="46.71455" lon="5.53343">
        <ele>312.9</ele>
        <time>2020-03-13T09:49:20Z</time>
      </trkpt>
      <trkpt lat="46.71452" lon="5.53346">
        <ele>312.7</ele>
        <time>2020-03-13T09:49:40Z</time>
      </trkpt>
      <trkpt lat="46.7145" lon="5.53352">
        <ele>312.9</ele>
        <time>2020-03-13T09:50:04Z</time>
      </trkpt>
      <trkpt lat="46.71445" lon="5.53356">
        <ele>311.5</ele>
        <time>2020-03-13T09:50:56Z</time>
      </trkpt>
      <trkpt lat="46.71442" lon="5.5336">
        <ele>312</ele>
        <time>2020-03-13T09:51:04Z</time>
      </trkpt>
      <trkpt lat="46.71436" lon="5.53364">
        <ele>312.4</ele>
        <time>2020-03-13T09:51:11Z</time>
      </trkpt>
      <trkpt lat="46.71432" lon="5.5337">
        <ele>312.7</ele>
        <time>2020-03-13T09:51:15Z</time>
      </trkpt>
      <trkpt lat="46.71428" lon="5.53375">
        <ele>313.2</ele>
        <time>2020-03-13T09:51:20Z</time>
      </trkpt>
      <trkpt lat="46.71424" lon="5.5338">
        <ele>313.8</ele>
        <time>2020-03-13T09:51:25Z</time>
      </trkpt>
      <trkpt lat="46.7142" lon="5.53383">
        <ele>314.4</ele>
        <time>2020-03-13T09:51:30Z</time>
      </trkpt>
      <trkpt lat="46.71414" lon="5.53385">
        <ele>314.8</ele>
        <time>2020-03-13T09:51:34Z</time>
      </trkpt>
      <trkpt lat="46.71409" lon="5.53387">
        <ele>315.3</ele>
        <time>2020-03-13T09:51:39Z</time>
      </trkpt>
      <trkpt lat="46.71405" lon="5.53389">
        <ele>315.6</ele>
        <time>2020-03-13T09:51:44Z</time>
      </trkpt>
      <trkpt lat="46.71401" lon="5.53393">
        <ele>315.6</ele>
        <time>2020-03-13T09:51:48Z</time>
      </trkpt>
      <trkpt lat="46.71397" lon="5.53397">
        <ele>315.5</ele>
        <time>2020-03-13T09:51:52Z</time>
      </trkpt>
      <trkpt lat="46.71394" lon="5.53402">
        <ele>315.1</ele>
        <time>2020-03-13T09:51:56Z</time>
      </trkpt>
      <trkpt lat="46.71391" lon="5.53408">
        <ele>314.6</ele>
        <time>2020-03-13T09:52:01Z</time>
      </trkpt>
      <trkpt lat="46.71387" lon="5.53414">
        <ele>313.8</ele>
        <time>2020-03-13T09:52:06Z</time>
      </trkpt>
      <trkpt lat="46.71383" lon="5.53419">
        <ele>313</ele>
        <time>2020-03-13T09:52:10Z</time>
      </trkpt>
      <trkpt lat="46.71379" lon="5.53422">
        <ele>311.8</ele>
        <time>2020-03-13T09:52:16Z</time>
      </trkpt>
      <trkpt lat="46.71376" lon="5.53428">
        <ele>310.8</ele>
        <time>2020-03-13T09:52:23Z</time>
      </trkpt>
      <trkpt lat="46.71377" lon="5.53435">
        <ele>310.4</ele>
        <time>2020-03-13T09:52:28Z</time>
      </trkpt>
      <trkpt lat="46.71378" lon="5.53442">
        <ele>310.1</ele>
        <time>2020-03-13T09:52:32Z</time>
      </trkpt>
      <trkpt lat="46.7138" lon="5.53449">
        <ele>309.8</ele>
        <time>2020-03-13T09:52:38Z</time>
      </trkpt>
      <trkpt lat="46.7138" lon="5.53456">
        <ele>309.5</ele>
        <time>2020-03-13T09:52:43Z</time>
      </trkpt>
      <trkpt lat="46.71379" lon="5.53463">
        <ele>309.4</ele>
        <time>2020-03-13T09:52:48Z</time>
      </trkpt>
      <trkpt lat="46.71377" lon="5.53469">
        <ele>308.2</ele>
        <time>2020-03-13T09:53:04Z</time>
      </trkpt>
      <trkpt lat="46.71377" lon="5.53476">
        <ele>307.2</ele>
        <time>2020-03-13T09:53:10Z</time>
      </trkpt>
      <trkpt lat="46.71378" lon="5.53483">
        <ele>306.3</ele>
        <time>2020-03-13T09:53:15Z</time>
      </trkpt>
      <trkpt lat="46.71379" lon="5.5349">
        <ele>305.5</ele>
        <time>2020-03-13T09:53:20Z</time>
      </trkpt>
      <trkpt lat="46.71381" lon="5.53496">
        <ele>304.9</ele>
        <time>2020-03-13T09:53:26Z</time>
      </trkpt>
      <trkpt lat="46.71381" lon="5.53503">
        <ele>304.8</ele>
        <time>2020-03-13T09:53:32Z</time>
      </trkpt>
      <trkpt lat="46.71378" lon="5.53509">
        <ele>304.7</ele>
        <time>2020-03-13T09:53:37Z</time>
      </trkpt>
      <trkpt lat="46.71376" lon="5.53515">
        <ele>304.6</ele>
        <time>2020-03-13T09:53:42Z</time>
      </trkpt>
      <trkpt lat="46.71372" lon="5.5352">
        <ele>303.9</ele>
        <time>2020-03-13T09:53:51Z</time>
      </trkpt>
      <trkpt lat="46.71374" lon="5.53527">
        <ele>303.3</ele>
        <time>2020-03-13T09:54:11Z</time>
      </trkpt>
      <trkpt lat="46.71378" lon="5.53531">
        <ele>302.7</ele>
        <time>2020-03-13T09:54:16Z</time>
      </trkpt>
      <trkpt lat="46.71382" lon="5.53535">
        <ele>302</ele>
        <time>2020-03-13T09:54:23Z</time>
      </trkpt>
      <trkpt lat="46.71386" lon="5.5354">
        <ele>301.7</ele>
        <time>2020-03-13T09:54:30Z</time>
      </trkpt>
      <trkpt lat="46.7139" lon="5.53544">
        <ele>301.4</ele>
        <time>2020-03-13T09:54:45Z</time>
      </trkpt>
      <trkpt lat="46.71387" lon="5.53538">
        <ele>300.7</ele>
        <time>2020-03-13T09:55:12Z</time>
      </trkpt>
      <trkpt lat="46.71382" lon="5.53534">
        <ele>300.9</ele>
        <time>2020-03-13T09:55:17Z</time>
      </trkpt>
      <trkpt lat="46.71378" lon="5.53536">
        <ele>301.3</ele>
        <time>2020-03-13T09:55:23Z</time>
      </trkpt>
      <trkpt lat="46.71379" lon="5.53543">
        <ele>301.1</ele>
        <time>2020-03-13T09:55:31Z</time>
      </trkpt>
      <trkpt lat="46.71383" lon="5.53549">
        <ele>300.6</ele>
        <time>2020-03-13T09:55:37Z</time>
      </trkpt>
      <trkpt lat="46.71386" lon="5.53554">
        <ele>300.4</ele>
        <time>2020-03-13T09:55:41Z</time>
      </trkpt>
      <trkpt lat="46.7139" lon="5.53559">
        <ele>300.1</ele>
        <time>2020-03-13T09:55:45Z</time>
      </trkpt>
      <trkpt lat="46.71393" lon="5.53564">
        <ele>300</ele>
        <time>2020-03-13T09:55:50Z</time>
      </trkpt>
      <trkpt lat="46.71395" lon="5.5357">
        <ele>300.3</ele>
        <time>2020-03-13T09:55:55Z</time>
      </trkpt>
      <trkpt lat="46.71399" lon="5.53577">
        <ele>300.9</ele>
        <time>2020-03-13T09:56:02Z</time>
      </trkpt>
      <trkpt lat="46.71401" lon="5.53583">
        <ele>301.5</ele>
        <time>2020-03-13T09:56:09Z</time>
      </trkpt>
      <trkpt lat="46.71405" lon="5.53588">
        <ele>301.6</ele>
        <time>2020-03-13T09:56:15Z</time>
      </trkpt>
      <trkpt lat="46.71409" lon="5.53593">
        <ele>301.8</ele>
        <time>2020-03-13T09:56:20Z</time>
      </trkpt>
      <trkpt lat="46.71411" lon="5.536">
        <ele>302.1</ele>
        <time>2020-03-13T09:56:25Z</time>
      </trkpt>
      <trkpt lat="46.71414" lon="5.53606">
        <ele>302.2</ele>
        <time>2020-03-13T09:56:29Z</time>
      </trkpt>
      <trkpt lat="46.71415" lon="5.53612">
        <ele>302.4</ele>
        <time>2020-03-13T09:56:40Z</time>
      </trkpt>
      <trkpt lat="46.71418" lon="5.53618">
        <ele>302.1</ele>
        <time>2020-03-13T09:56:46Z</time>
      </trkpt>
      <trkpt lat="46.71421" lon="5.53624">
        <ele>301.7</ele>
        <time>2020-03-13T09:56:53Z</time>
      </trkpt>
      <trkpt lat="46.71423" lon="5.5363">
        <ele>301.4</ele>
        <time>2020-03-13T09:56:59Z</time>
      </trkpt>
      <trkpt lat="46.71426" lon="5.53637">
        <ele>300.9</ele>
        <time>2020-03-13T09:57:04Z</time>
      </trkpt>
      <trkpt lat="46.7143" lon="5.53641">
        <ele>300</ele>
        <time>2020-03-13T09:57:10Z</time>
      </trkpt>
      <trkpt lat="46.71435" lon="5.53641">
        <ele>298.7</ele>
        <time>2020-03-13T09:57:18Z</time>
      </trkpt>
      <trkpt lat="46.71437" lon="5.53647">
        <ele>296.4</ele>
        <time>2020-03-13T09:57:27Z</time>
      </trkpt>
      <trkpt lat="46.71439" lon="5.53653">
        <ele>295</ele>
        <time>2020-03-13T09:57:34Z</time>
      </trkpt>
      <trkpt lat="46.7144" lon="5.5366">
        <ele>294</ele>
        <time>2020-03-13T09:57:41Z</time>
      </trkpt>
      <trkpt lat="46.71438" lon="5.53666">
        <ele>293.7</ele>
        <time>2020-03-13T09:58:04Z</time>
      </trkpt>
      <trkpt lat="46.7144" lon="5.53672">
        <ele>292.1</ele>
        <time>2020-03-13T09:58:28Z</time>
      </trkpt>
      <trkpt lat="46.71444" lon="5.53677">
        <ele>291.2</ele>
        <time>2020-03-13T09:58:35Z</time>
      </trkpt>
      <trkpt lat="46.71448" lon="5.53679">
        <ele>290.4</ele>
        <time>2020-03-13T09:58:44Z</time>
      </trkpt>
      <trkpt lat="46.71444" lon="5.53678">
        <ele>288.9</ele>
        <time>2020-03-13T09:59:18Z</time>
      </trkpt>
      <trkpt lat="46.71439" lon="5.53675">
        <ele>288.5</ele>
        <time>2020-03-13T09:59:28Z</time>
      </trkpt>
      <trkpt lat="46.71432" lon="5.53672">
        <ele>282.9</ele>
        <time>2020-03-13T09:59:59Z</time>
      </trkpt>
      <trkpt lat="46.71427" lon="5.53674">
        <ele>281.2</ele>
        <time>2020-03-13T10:00:05Z</time>
      </trkpt>
      <trkpt lat="46.71423" lon="5.53678">
        <ele>279.9</ele>
        <time>2020-03-13T10:00:16Z</time>
      </trkpt>
      <trkpt lat="46.7142" lon="5.53683">
        <ele>279.9</ele>
        <time>2020-03-13T10:00:23Z</time>
      </trkpt>
      <trkpt lat="46.71417" lon="5.53688">
        <ele>281.4</ele>
        <time>2020-03-13T10:00:37Z</time>
      </trkpt>
      <trkpt lat="46.71412" lon="5.53695">
        <ele>277.5</ele>
        <time>2020-03-13T10:01:10Z</time>
      </trkpt>
      <trkpt lat="46.71407" lon="5.53697">
        <ele>276.4</ele>
        <time>2020-03-13T10:01:16Z</time>
      </trkpt>
      <trkpt lat="46.71401" lon="5.537">
        <ele>275.7</ele>
        <time>2020-03-13T10:01:21Z</time>
      </trkpt>
      <trkpt lat="46.71385" lon="5.53699">
        <ele>274.1</ele>
        <time>2020-03-13T10:01:37Z</time>
      </trkpt>
      <trkpt lat="46.7138" lon="5.537">
        <ele>274</ele>
        <time>2020-03-13T10:01:41Z</time>
      </trkpt>
      <trkpt lat="46.71375" lon="5.53701">
        <ele>273.8</ele>
        <time>2020-03-13T10:01:46Z</time>
      </trkpt>
      <trkpt lat="46.7137" lon="5.537">
        <ele>274</ele>
        <time>2020-03-13T10:01:51Z</time>
      </trkpt>
      <trkpt lat="46.71365" lon="5.53701">
        <ele>274.5</ele>
        <time>2020-03-13T10:01:56Z</time>
      </trkpt>
      <trkpt lat="46.71361" lon="5.53703">
        <ele>275.8</ele>
        <time>2020-03-13T10:02:01Z</time>
      </trkpt>
      <trkpt lat="46.71355" lon="5.53703">
        <ele>277.6</ele>
        <time>2020-03-13T10:02:07Z</time>
      </trkpt>
      <trkpt lat="46.71351" lon="5.53702">
        <ele>278.8</ele>
        <time>2020-03-13T10:02:11Z</time>
      </trkpt>
      <trkpt lat="46.71346" lon="5.53702">
        <ele>280.4</ele>
        <time>2020-03-13T10:02:17Z</time>
      </trkpt>
      <trkpt lat="46.71339" lon="5.53703">
        <ele>281</ele>
        <time>2020-03-13T10:02:21Z</time>
      </trkpt>
      <trkpt lat="46.71335" lon="5.53703">
        <ele>281.3</ele>
        <time>2020-03-13T10:02:24Z</time>
      </trkpt>
      <trkpt lat="46.7133" lon="5.53705">
        <ele>281.5</ele>
        <time>2020-03-13T10:02:28Z</time>
      </trkpt>
      <trkpt lat="46.71325" lon="5.53706">
        <ele>282.5</ele>
        <time>2020-03-13T10:02:36Z</time>
      </trkpt>
      <trkpt lat="46.7132" lon="5.53706">
        <ele>283.7</ele>
        <time>2020-03-13T10:02:43Z</time>
      </trkpt>
      <trkpt lat="46.71316" lon="5.53705">
        <ele>284.7</ele>
        <time>2020-03-13T10:02:50Z</time>
      </trkpt>
      <trkpt lat="46.71312" lon="5.53708">
        <ele>285.5</ele>
        <time>2020-03-13T10:03:01Z</time>
      </trkpt>
      <trkpt lat="46.71307" lon="5.53711">
        <ele>285.7</ele>
        <time>2020-03-13T10:03:08Z</time>
      </trkpt>
      <trkpt lat="46.71303" lon="5.53711">
        <ele>285.6</ele>
        <time>2020-03-13T10:03:14Z</time>
      </trkpt>
      <trkpt lat="46.71298" lon="5.53711">
        <ele>285.4</ele>
        <time>2020-03-13T10:03:20Z</time>
      </trkpt>
      <trkpt lat="46.71293" lon="5.53712">
        <ele>285.4</ele>
        <time>2020-03-13T10:03:24Z</time>
      </trkpt>
      <trkpt lat="46.71288" lon="5.53713">
        <ele>285.7</ele>
        <time>2020-03-13T10:03:28Z</time>
      </trkpt>
      <trkpt lat="46.71283" lon="5.53714">
        <ele>287</ele>
        <time>2020-03-13T10:03:36Z</time>
      </trkpt>
      <trkpt lat="46.71279" lon="5.53715">
        <ele>288</ele>
        <time>2020-03-13T10:03:43Z</time>
      </trkpt>
      <trkpt lat="46.71274" lon="5.53711">
        <ele>288.4</ele>
        <time>2020-03-13T10:03:50Z</time>
      </trkpt>
      <trkpt lat="46.7127" lon="5.53707">
        <ele>288.5</ele>
        <time>2020-03-13T10:03:55Z</time>
      </trkpt>
      <trkpt lat="46.71265" lon="5.53704">
        <ele>289.1</ele>
        <time>2020-03-13T10:04:01Z</time>
      </trkpt>
      <trkpt lat="46.7126" lon="5.53705">
        <ele>289.7</ele>
        <time>2020-03-13T10:04:06Z</time>
      </trkpt>
      <trkpt lat="46.71255" lon="5.53706">
        <ele>290.4</ele>
        <time>2020-03-13T10:04:12Z</time>
      </trkpt>
      <trkpt lat="46.71251" lon="5.53709">
        <ele>291.2</ele>
        <time>2020-03-13T10:04:17Z</time>
      </trkpt>
      <trkpt lat="46.7125" lon="5.53716">
        <ele>292.5</ele>
        <time>2020-03-13T10:04:25Z</time>
      </trkpt>
      <trkpt lat="46.71247" lon="5.53722">
        <ele>298.2</ele>
        <time>2020-03-13T10:05:00Z</time>
      </trkpt>
      <trkpt lat="46.71241" lon="5.53725">
        <ele>298.4</ele>
        <time>2020-03-13T10:05:29Z</time>
      </trkpt>
      <trkpt lat="46.71235" lon="5.5373">
        <ele>299.2</ele>
        <time>2020-03-13T10:06:08Z</time>
      </trkpt>
      <trkpt lat="46.71233" lon="5.53737">
        <ele>299.3</ele>
        <time>2020-03-13T10:06:15Z</time>
      </trkpt>
      <trkpt lat="46.7123" lon="5.53746">
        <ele>300.4</ele>
        <time>2020-03-13T10:08:20Z</time>
      </trkpt>
      <trkpt lat="46.71226" lon="5.53748">
        <ele>300.3</ele>
        <time>2020-03-13T10:08:25Z</time>
      </trkpt>
      <trkpt lat="46.71221" lon="5.53753">
        <ele>300.1</ele>
        <time>2020-03-13T10:08:30Z</time>
      </trkpt>
      <trkpt lat="46.71217" lon="5.53758">
        <ele>300.2</ele>
        <time>2020-03-13T10:08:35Z</time>
      </trkpt>
      <trkpt lat="46.71214" lon="5.53763">
        <ele>300.4</ele>
        <time>2020-03-13T10:08:39Z</time>
      </trkpt>
      <trkpt lat="46.7121" lon="5.53769">
        <ele>300.7</ele>
        <time>2020-03-13T10:08:43Z</time>
      </trkpt>
      <trkpt lat="46.71206" lon="5.53773">
        <ele>301.1</ele>
        <time>2020-03-13T10:08:47Z</time>
      </trkpt>
      <trkpt lat="46.71203" lon="5.53778">
        <ele>301.8</ele>
        <time>2020-03-13T10:08:51Z</time>
      </trkpt>
      <trkpt lat="46.71199" lon="5.53782">
        <ele>302.5</ele>
        <time>2020-03-13T10:08:55Z</time>
      </trkpt>
      <trkpt lat="46.71194" lon="5.53785">
        <ele>303.2</ele>
        <time>2020-03-13T10:08:59Z</time>
      </trkpt>
      <trkpt lat="46.71189" lon="5.53788">
        <ele>303.8</ele>
        <time>2020-03-13T10:09:06Z</time>
      </trkpt>
      <trkpt lat="46.71184" lon="5.5379">
        <ele>304.1</ele>
        <time>2020-03-13T10:09:11Z</time>
      </trkpt>
      <trkpt lat="46.7118" lon="5.53792">
        <ele>304.3</ele>
        <time>2020-03-13T10:09:15Z</time>
      </trkpt>
      <trkpt lat="46.71176" lon="5.53794">
        <ele>304.5</ele>
        <time>2020-03-13T10:09:19Z</time>
      </trkpt>
      <trkpt lat="46.71171" lon="5.53797">
        <ele>304.9</ele>
        <time>2020-03-13T10:09:24Z</time>
      </trkpt>
      <trkpt lat="46.71166" lon="5.53801">
        <ele>305.5</ele>
        <time>2020-03-13T10:09:30Z</time>
      </trkpt>
      <trkpt lat="46.71162" lon="5.53804">
        <ele>306.2</ele>
        <time>2020-03-13T10:09:36Z</time>
      </trkpt>
      <trkpt lat="46.71157" lon="5.53807">
        <ele>306.4</ele>
        <time>2020-03-13T10:09:41Z</time>
      </trkpt>
      <trkpt lat="46.71153" lon="5.53811">
        <ele>306.6</ele>
        <time>2020-03-13T10:09:48Z</time>
      </trkpt>
      <trkpt lat="46.71148" lon="5.53815">
        <ele>306.7</ele>
        <time>2020-03-13T10:09:52Z</time>
      </trkpt>
      <trkpt lat="46.71143" lon="5.53818">
        <ele>306.6</ele>
        <time>2020-03-13T10:09:56Z</time>
      </trkpt>
      <trkpt lat="46.71139" lon="5.53821">
        <ele>306.4</ele>
        <time>2020-03-13T10:10:03Z</time>
      </trkpt>
      <trkpt lat="46.71135" lon="5.53824">
        <ele>306.4</ele>
        <time>2020-03-13T10:10:08Z</time>
      </trkpt>
      <trkpt lat="46.7113" lon="5.53827">
        <ele>306.4</ele>
        <time>2020-03-13T10:10:12Z</time>
      </trkpt>
      <trkpt lat="46.71126" lon="5.53829">
        <ele>306.4</ele>
        <time>2020-03-13T10:10:16Z</time>
      </trkpt>
      <trkpt lat="46.71121" lon="5.53833">
        <ele>306.4</ele>
        <time>2020-03-13T10:10:21Z</time>
      </trkpt>
      <trkpt lat="46.71117" lon="5.53836">
        <ele>306.5</ele>
        <time>2020-03-13T10:10:27Z</time>
      </trkpt>
      <trkpt lat="46.71112" lon="5.53836">
        <ele>306.6</ele>
        <time>2020-03-13T10:10:32Z</time>
      </trkpt>
      <trkpt lat="46.71107" lon="5.53837">
        <ele>306.7</ele>
        <time>2020-03-13T10:10:39Z</time>
      </trkpt>
      <trkpt lat="46.71102" lon="5.53838">
        <ele>306.4</ele>
        <time>2020-03-13T10:10:45Z</time>
      </trkpt>
      <trkpt lat="46.71098" lon="5.53844">
        <ele>306.1</ele>
        <time>2020-03-13T10:10:51Z</time>
      </trkpt>
      <trkpt lat="46.71094" lon="5.53847">
        <ele>306</ele>
        <time>2020-03-13T10:10:55Z</time>
      </trkpt>
      <trkpt lat="46.71089" lon="5.53851">
        <ele>305.8</ele>
        <time>2020-03-13T10:11:00Z</time>
      </trkpt>
      <trkpt lat="46.71084" lon="5.53853">
        <ele>305.6</ele>
        <time>2020-03-13T10:11:05Z</time>
      </trkpt>
      <trkpt lat="46.7108" lon="5.53855">
        <ele>305.4</ele>
        <time>2020-03-13T10:11:10Z</time>
      </trkpt>
      <trkpt lat="46.71075" lon="5.53857">
        <ele>305.1</ele>
        <time>2020-03-13T10:11:15Z</time>
      </trkpt>
      <trkpt lat="46.71071" lon="5.53859">
        <ele>304.9</ele>
        <time>2020-03-13T10:11:19Z</time>
      </trkpt>
      <trkpt lat="46.71066" lon="5.5386">
        <ele>304.9</ele>
        <time>2020-03-13T10:11:23Z</time>
      </trkpt>
      <trkpt lat="46.71061" lon="5.53862">
        <ele>304.9</ele>
        <time>2020-03-13T10:11:28Z</time>
      </trkpt>
      <trkpt lat="46.71057" lon="5.53865">
        <ele>304.9</ele>
        <time>2020-03-13T10:11:32Z</time>
      </trkpt>
      <trkpt lat="46.71052" lon="5.53869">
        <ele>305</ele>
        <time>2020-03-13T10:11:37Z</time>
      </trkpt>
      <trkpt lat="46.71048" lon="5.53871">
        <ele>305</ele>
        <time>2020-03-13T10:11:42Z</time>
      </trkpt>
      <trkpt lat="46.71043" lon="5.53874">
        <ele>305.2</ele>
        <time>2020-03-13T10:11:48Z</time>
      </trkpt>
      <trkpt lat="46.71038" lon="5.53877">
        <ele>305.5</ele>
        <time>2020-03-13T10:11:55Z</time>
      </trkpt>
      <trkpt lat="46.71033" lon="5.5388">
        <ele>305.7</ele>
        <time>2020-03-13T10:12:00Z</time>
      </trkpt>
      <trkpt lat="46.71029" lon="5.53882">
        <ele>305.9</ele>
        <time>2020-03-13T10:12:04Z</time>
      </trkpt>
      <trkpt lat="46.71024" lon="5.53884">
        <ele>305.8</ele>
        <time>2020-03-13T10:12:09Z</time>
      </trkpt>
      <trkpt lat="46.71019" lon="5.53885">
        <ele>305.5</ele>
        <time>2020-03-13T10:12:15Z</time>
      </trkpt>
      <trkpt lat="46.71014" lon="5.53887">
        <ele>305</ele>
        <time>2020-03-13T10:12:21Z</time>
      </trkpt>
      <trkpt lat="46.71009" lon="5.53887">
        <ele>304.6</ele>
        <time>2020-03-13T10:12:25Z</time>
      </trkpt>
      <trkpt lat="46.71004" lon="5.53888">
        <ele>304.2</ele>
        <time>2020-03-13T10:12:29Z</time>
      </trkpt>
      <trkpt lat="46.70999" lon="5.5389">
        <ele>303.9</ele>
        <time>2020-03-13T10:12:35Z</time>
      </trkpt>
      <trkpt lat="46.70994" lon="5.53894">
        <ele>303.9</ele>
        <time>2020-03-13T10:12:38Z</time>
      </trkpt>
      <trkpt lat="46.7099" lon="5.53898">
        <ele>304</ele>
        <time>2020-03-13T10:12:42Z</time>
      </trkpt>
      <trkpt lat="46.70986" lon="5.53901">
        <ele>304.2</ele>
        <time>2020-03-13T10:12:49Z</time>
      </trkpt>
      <trkpt lat="46.70981" lon="5.53903">
        <ele>304.2</ele>
        <time>2020-03-13T10:12:53Z</time>
      </trkpt>
      <trkpt lat="46.70976" lon="5.53905">
        <ele>304.2</ele>
        <time>2020-03-13T10:12:57Z</time>
      </trkpt>
      <trkpt lat="46.70971" lon="5.53907">
        <ele>304.4</ele>
        <time>2020-03-13T10:13:02Z</time>
      </trkpt>
      <trkpt lat="46.70967" lon="5.53907">
        <ele>304.3</ele>
        <time>2020-03-13T10:13:07Z</time>
      </trkpt>
      <trkpt lat="46.70962" lon="5.53908">
        <ele>304.2</ele>
        <time>2020-03-13T10:13:13Z</time>
      </trkpt>
      <trkpt lat="46.70957" lon="5.53908">
        <ele>304</ele>
        <time>2020-03-13T10:13:20Z</time>
      </trkpt>
      <trkpt lat="46.70952" lon="5.53909">
        <ele>304.2</ele>
        <time>2020-03-13T10:13:27Z</time>
      </trkpt>
      <trkpt lat="46.70947" lon="5.5391">
        <ele>304.6</ele>
        <time>2020-03-13T10:13:33Z</time>
      </trkpt>
      <trkpt lat="46.70941" lon="5.5391">
        <ele>304.9</ele>
        <time>2020-03-13T10:13:37Z</time>
      </trkpt>
      <trkpt lat="46.70936" lon="5.53911">
        <ele>304.9</ele>
        <time>2020-03-13T10:13:42Z</time>
      </trkpt>
      <trkpt lat="46.70931" lon="5.53912">
        <ele>304.8</ele>
        <time>2020-03-13T10:13:46Z</time>
      </trkpt>
      <trkpt lat="46.70926" lon="5.53913">
        <ele>304.4</ele>
        <time>2020-03-13T10:13:51Z</time>
      </trkpt>
      <trkpt lat="46.70921" lon="5.53913">
        <ele>303.9</ele>
        <time>2020-03-13T10:13:55Z</time>
      </trkpt>
      <trkpt lat="46.70916" lon="5.53913">
        <ele>303.3</ele>
        <time>2020-03-13T10:13:59Z</time>
      </trkpt>
      <trkpt lat="46.70911" lon="5.53912">
        <ele>302.5</ele>
        <time>2020-03-13T10:14:04Z</time>
      </trkpt>
      <trkpt lat="46.70906" lon="5.53911">
        <ele>301.4</ele>
        <time>2020-03-13T10:14:10Z</time>
      </trkpt>
      <trkpt lat="46.70901" lon="5.53912">
        <ele>300.5</ele>
        <time>2020-03-13T10:14:16Z</time>
      </trkpt>
      <trkpt lat="46.70896" lon="5.53909">
        <ele>299.9</ele>
        <time>2020-03-13T10:14:21Z</time>
      </trkpt>
      <trkpt lat="46.70899" lon="5.53904">
        <ele>298.8</ele>
        <time>2020-03-13T10:14:45Z</time>
      </trkpt>
      <trkpt lat="46.70903" lon="5.53907">
        <ele>299.1</ele>
        <time>2020-03-13T10:14:53Z</time>
      </trkpt>
      <trkpt lat="46.70905" lon="5.53913">
        <ele>301.4</ele>
        <time>2020-03-13T10:15:45Z</time>
      </trkpt>
      <trkpt lat="46.70901" lon="5.53911">
        <ele>303.9</ele>
        <time>2020-03-13T10:16:01Z</time>
      </trkpt>
      <trkpt lat="46.70896" lon="5.5391">
        <ele>305.5</ele>
        <time>2020-03-13T10:16:08Z</time>
      </trkpt>
      <trkpt lat="46.70892" lon="5.53907">
        <ele>306.5</ele>
        <time>2020-03-13T10:16:12Z</time>
      </trkpt>
      <trkpt lat="46.70887" lon="5.53905">
        <ele>307.2</ele>
        <time>2020-03-13T10:16:16Z</time>
      </trkpt>
      <trkpt lat="46.70882" lon="5.53901">
        <ele>308</ele>
        <time>2020-03-13T10:16:20Z</time>
      </trkpt>
      <trkpt lat="46.70878" lon="5.53898">
        <ele>308.3</ele>
        <time>2020-03-13T10:16:24Z</time>
      </trkpt>
      <trkpt lat="46.70873" lon="5.53896">
        <ele>308.3</ele>
        <time>2020-03-13T10:16:29Z</time>
      </trkpt>
      <trkpt lat="46.70868" lon="5.53893">
        <ele>308.2</ele>
        <time>2020-03-13T10:16:35Z</time>
      </trkpt>
      <trkpt lat="46.70863" lon="5.53892">
        <ele>307.9</ele>
        <time>2020-03-13T10:16:42Z</time>
      </trkpt>
      <trkpt lat="46.70858" lon="5.53891">
        <ele>307.7</ele>
        <time>2020-03-13T10:16:46Z</time>
      </trkpt>
      <trkpt lat="46.70853" lon="5.53893">
        <ele>307.4</ele>
        <time>2020-03-13T10:16:50Z</time>
      </trkpt>
      <trkpt lat="46.70848" lon="5.53895">
        <ele>307</ele>
        <time>2020-03-13T10:16:54Z</time>
      </trkpt>
      <trkpt lat="46.70843" lon="5.53896">
        <ele>306.6</ele>
        <time>2020-03-13T10:16:59Z</time>
      </trkpt>
      <trkpt lat="46.70838" lon="5.53897">
        <ele>306.7</ele>
        <time>2020-03-13T10:17:05Z</time>
      </trkpt>
      <trkpt lat="46.70833" lon="5.53896">
        <ele>307.1</ele>
        <time>2020-03-13T10:17:11Z</time>
      </trkpt>
      <trkpt lat="46.70828" lon="5.53895">
        <ele>307.4</ele>
        <time>2020-03-13T10:17:16Z</time>
      </trkpt>
      <trkpt lat="46.70823" lon="5.53894">
        <ele>307.7</ele>
        <time>2020-03-13T10:17:20Z</time>
      </trkpt>
      <trkpt lat="46.70818" lon="5.53892">
        <ele>307.9</ele>
        <time>2020-03-13T10:17:24Z</time>
      </trkpt>
      <trkpt lat="46.70813" lon="5.53891">
        <ele>308.5</ele>
        <time>2020-03-13T10:17:31Z</time>
      </trkpt>
      <trkpt lat="46.70808" lon="5.53889">
        <ele>308.9</ele>
        <time>2020-03-13T10:17:35Z</time>
      </trkpt>
      <trkpt lat="46.70803" lon="5.53888">
        <ele>309</ele>
        <time>2020-03-13T10:17:39Z</time>
      </trkpt>
      <trkpt lat="46.70798" lon="5.53887">
        <ele>308.7</ele>
        <time>2020-03-13T10:17:43Z</time>
      </trkpt>
      <trkpt lat="46.70792" lon="5.53885">
        <ele>308.1</ele>
        <time>2020-03-13T10:17:47Z</time>
      </trkpt>
      <trkpt lat="46.70787" lon="5.53883">
        <ele>307.6</ele>
        <time>2020-03-13T10:17:52Z</time>
      </trkpt>
      <trkpt lat="46.70782" lon="5.53882">
        <ele>307.2</ele>
        <time>2020-03-13T10:17:57Z</time>
      </trkpt>
      <trkpt lat="46.70777" lon="5.53881">
        <ele>306.9</ele>
        <time>2020-03-13T10:18:02Z</time>
      </trkpt>
      <trkpt lat="46.70773" lon="5.53878">
        <ele>306.9</ele>
        <time>2020-03-13T10:18:07Z</time>
      </trkpt>
      <trkpt lat="46.70769" lon="5.53874">
        <ele>307.2</ele>
        <time>2020-03-13T10:18:12Z</time>
      </trkpt>
      <trkpt lat="46.70764" lon="5.53871">
        <ele>307.3</ele>
        <time>2020-03-13T10:18:17Z</time>
      </trkpt>
      <trkpt lat="46.7076" lon="5.53868">
        <ele>307.3</ele>
        <time>2020-03-13T10:18:21Z</time>
      </trkpt>
      <trkpt lat="46.70756" lon="5.53865">
        <ele>307.2</ele>
        <time>2020-03-13T10:18:26Z</time>
      </trkpt>
      <trkpt lat="46.70751" lon="5.53862">
        <ele>307.3</ele>
        <time>2020-03-13T10:18:30Z</time>
      </trkpt>
      <trkpt lat="46.70746" lon="5.5386">
        <ele>307.5</ele>
        <time>2020-03-13T10:18:35Z</time>
      </trkpt>
      <trkpt lat="46.70742" lon="5.53858">
        <ele>307.2</ele>
        <time>2020-03-13T10:18:39Z</time>
      </trkpt>
      <trkpt lat="46.70736" lon="5.53857">
        <ele>306.7</ele>
        <time>2020-03-13T10:18:43Z</time>
      </trkpt>
      <trkpt lat="46.70732" lon="5.53855">
        <ele>306</ele>
        <time>2020-03-13T10:18:47Z</time>
      </trkpt>
      <trkpt lat="46.70727" lon="5.53855">
        <ele>304.9</ele>
        <time>2020-03-13T10:18:52Z</time>
      </trkpt>
      <trkpt lat="46.70722" lon="5.53855">
        <ele>304</ele>
        <time>2020-03-13T10:18:56Z</time>
      </trkpt>
      <trkpt lat="46.70717" lon="5.53855">
        <ele>303.1</ele>
        <time>2020-03-13T10:19:02Z</time>
      </trkpt>
      <trkpt lat="46.70712" lon="5.53853">
        <ele>302.8</ele>
        <time>2020-03-13T10:19:07Z</time>
      </trkpt>
      <trkpt lat="46.70707" lon="5.53852">
        <ele>302.5</ele>
        <time>2020-03-13T10:19:11Z</time>
      </trkpt>
      <trkpt lat="46.70703" lon="5.53849">
        <ele>302.4</ele>
        <time>2020-03-13T10:19:15Z</time>
      </trkpt>
      <trkpt lat="46.70699" lon="5.53846">
        <ele>302.5</ele>
        <time>2020-03-13T10:19:19Z</time>
      </trkpt>
      <trkpt lat="46.70695" lon="5.53843">
        <ele>302.7</ele>
        <time>2020-03-13T10:19:23Z</time>
      </trkpt>
      <trkpt lat="46.7069" lon="5.5384">
        <ele>302.7</ele>
        <time>2020-03-13T10:19:27Z</time>
      </trkpt>
      <trkpt lat="46.70685" lon="5.53838">
        <ele>302.1</ele>
        <time>2020-03-13T10:19:33Z</time>
      </trkpt>
      <trkpt lat="46.70681" lon="5.53835">
        <ele>301.6</ele>
        <time>2020-03-13T10:19:37Z</time>
      </trkpt>
      <trkpt lat="46.70677" lon="5.53832">
        <ele>301</ele>
        <time>2020-03-13T10:19:42Z</time>
      </trkpt>
      <trkpt lat="46.70672" lon="5.53829">
        <ele>300.6</ele>
        <time>2020-03-13T10:19:47Z</time>
      </trkpt>
      <trkpt lat="46.70668" lon="5.53827">
        <ele>300.3</ele>
        <time>2020-03-13T10:19:52Z</time>
      </trkpt>
      <trkpt lat="46.70663" lon="5.53826">
        <ele>299.4</ele>
        <time>2020-03-13T10:19:58Z</time>
      </trkpt>
      <trkpt lat="46.70658" lon="5.53825">
        <ele>298.2</ele>
        <time>2020-03-13T10:20:03Z</time>
      </trkpt>
      <trkpt lat="46.70653" lon="5.53825">
        <ele>297.2</ele>
        <time>2020-03-13T10:20:07Z</time>
      </trkpt>
      <trkpt lat="46.70647" lon="5.53823">
        <ele>296.2</ele>
        <time>2020-03-13T10:20:11Z</time>
      </trkpt>
      <trkpt lat="46.70642" lon="5.53821">
        <ele>295</ele>
        <time>2020-03-13T10:20:16Z</time>
      </trkpt>
      <trkpt lat="46.70637" lon="5.5382">
        <ele>294</ele>
        <time>2020-03-13T10:20:21Z</time>
      </trkpt>
      <trkpt lat="46.70632" lon="5.5382">
        <ele>293.4</ele>
        <time>2020-03-13T10:20:25Z</time>
      </trkpt>
      <trkpt lat="46.70627" lon="5.53822">
        <ele>293.4</ele>
        <time>2020-03-13T10:20:30Z</time>
      </trkpt>
      <trkpt lat="46.70622" lon="5.53821">
        <ele>294.1</ele>
        <time>2020-03-13T10:20:35Z</time>
      </trkpt>
      <trkpt lat="46.70617" lon="5.53819">
        <ele>297</ele>
        <time>2020-03-13T10:20:46Z</time>
      </trkpt>
      <trkpt lat="46.70613" lon="5.53815">
        <ele>299.1</ele>
        <time>2020-03-13T10:20:51Z</time>
      </trkpt>
      <trkpt lat="46.70609" lon="5.53811">
        <ele>302.4</ele>
        <time>2020-03-13T10:20:57Z</time>
      </trkpt>
      <trkpt lat="46.70604" lon="5.53809">
        <ele>305.6</ele>
        <time>2020-03-13T10:21:03Z</time>
      </trkpt>
      <trkpt lat="46.70599" lon="5.53807">
        <ele>307.2</ele>
        <time>2020-03-13T10:21:07Z</time>
      </trkpt>
      <trkpt lat="46.70593" lon="5.53805">
        <ele>308.4</ele>
        <time>2020-03-13T10:21:12Z</time>
      </trkpt>
      <trkpt lat="46.70588" lon="5.53804">
        <ele>309</ele>
        <time>2020-03-13T10:21:17Z</time>
      </trkpt>
      <trkpt lat="46.70583" lon="5.53803">
        <ele>309.7</ele>
        <time>2020-03-13T10:21:23Z</time>
      </trkpt>
      <trkpt lat="46.70578" lon="5.53802">
        <ele>309.8</ele>
        <time>2020-03-13T10:21:28Z</time>
      </trkpt>
      <trkpt lat="46.70573" lon="5.53802">
        <ele>309.8</ele>
        <time>2020-03-13T10:21:32Z</time>
      </trkpt>
      <trkpt lat="46.70568" lon="5.53803">
        <ele>309.8</ele>
        <time>2020-03-13T10:21:37Z</time>
      </trkpt>
      <trkpt lat="46.70563" lon="5.53804">
        <ele>309.9</ele>
        <time>2020-03-13T10:21:41Z</time>
      </trkpt>
      <trkpt lat="46.70558" lon="5.53805">
        <ele>309.8</ele>
        <time>2020-03-13T10:21:44Z</time>
      </trkpt>
      <trkpt lat="46.70553" lon="5.53807">
        <ele>309.8</ele>
        <time>2020-03-13T10:21:49Z</time>
      </trkpt>
      <trkpt lat="46.70548" lon="5.53809">
        <ele>309.6</ele>
        <time>2020-03-13T10:21:54Z</time>
      </trkpt>
      <trkpt lat="46.70543" lon="5.53811">
        <ele>308.7</ele>
        <time>2020-03-13T10:22:00Z</time>
      </trkpt>
      <trkpt lat="46.70538" lon="5.53812">
        <ele>308.2</ele>
        <time>2020-03-13T10:22:11Z</time>
      </trkpt>
      <trkpt lat="46.70534" lon="5.53812">
        <ele>308.2</ele>
        <time>2020-03-13T10:22:16Z</time>
      </trkpt>
      <trkpt lat="46.70529" lon="5.53815">
        <ele>307.8</ele>
        <time>2020-03-13T10:22:21Z</time>
      </trkpt>
      <trkpt lat="46.70524" lon="5.53817">
        <ele>307.2</ele>
        <time>2020-03-13T10:22:25Z</time>
      </trkpt>
      <trkpt lat="46.70519" lon="5.53819">
        <ele>306.4</ele>
        <time>2020-03-13T10:22:29Z</time>
      </trkpt>
      <trkpt lat="46.70514" lon="5.53821">
        <ele>305.2</ele>
        <time>2020-03-13T10:22:35Z</time>
      </trkpt>
      <trkpt lat="46.70509" lon="5.53822">
        <ele>304.9</ele>
        <time>2020-03-13T10:22:44Z</time>
      </trkpt>
      <trkpt lat="46.70505" lon="5.53825">
        <ele>305.2</ele>
        <time>2020-03-13T10:22:49Z</time>
      </trkpt>
      <trkpt lat="46.705" lon="5.53828">
        <ele>305.5</ele>
        <time>2020-03-13T10:22:55Z</time>
      </trkpt>
      <trkpt lat="46.70494" lon="5.5383">
        <ele>305.3</ele>
        <time>2020-03-13T10:23:02Z</time>
      </trkpt>
      <trkpt lat="46.7049" lon="5.53832">
        <ele>305.1</ele>
        <time>2020-03-13T10:23:08Z</time>
      </trkpt>
      <trkpt lat="46.70485" lon="5.53835">
        <ele>305</ele>
        <time>2020-03-13T10:23:14Z</time>
      </trkpt>
      <trkpt lat="46.70474" lon="5.5384">
        <ele>304.7</ele>
        <time>2020-03-13T10:23:29Z</time>
      </trkpt>
      <trkpt lat="46.7047" lon="5.53844">
        <ele>304.5</ele>
        <time>2020-03-13T10:23:34Z</time>
      </trkpt>
      <trkpt lat="46.70467" lon="5.53848">
        <ele>304.2</ele>
        <time>2020-03-13T10:23:38Z</time>
      </trkpt>
      <trkpt lat="46.70464" lon="5.53853">
        <ele>303.9</ele>
        <time>2020-03-13T10:23:41Z</time>
      </trkpt>
      <trkpt lat="46.70462" lon="5.53859">
        <ele>303.1</ele>
        <time>2020-03-13T10:23:45Z</time>
      </trkpt>
      <trkpt lat="46.7046" lon="5.53865">
        <ele>302.6</ele>
        <time>2020-03-13T10:23:48Z</time>
      </trkpt>
      <trkpt lat="46.70458" lon="5.53872">
        <ele>302</ele>
        <time>2020-03-13T10:23:51Z</time>
      </trkpt>
      <trkpt lat="46.70456" lon="5.53878">
        <ele>301.4</ele>
        <time>2020-03-13T10:23:54Z</time>
      </trkpt>
      <trkpt lat="46.70455" lon="5.53886">
        <ele>300.4</ele>
        <time>2020-03-13T10:23:58Z</time>
      </trkpt>
      <trkpt lat="46.70453" lon="5.53894">
        <ele>299.6</ele>
        <time>2020-03-13T10:24:02Z</time>
      </trkpt>
      <trkpt lat="46.70453" lon="5.53902">
        <ele>298.8</ele>
        <time>2020-03-13T10:24:06Z</time>
      </trkpt>
      <trkpt lat="46.70452" lon="5.53909">
        <ele>298.4</ele>
        <time>2020-03-13T10:24:10Z</time>
      </trkpt>
      <trkpt lat="46.70451" lon="5.53916">
        <ele>298.5</ele>
        <time>2020-03-13T10:24:16Z</time>
      </trkpt>
      <trkpt lat="46.70449" lon="5.53922">
        <ele>299.3</ele>
        <time>2020-03-13T10:24:23Z</time>
      </trkpt>
      <trkpt lat="46.70445" lon="5.53928">
        <ele>299.9</ele>
        <time>2020-03-13T10:24:29Z</time>
      </trkpt>
      <trkpt lat="46.70441" lon="5.53932">
        <ele>300.5</ele>
        <time>2020-03-13T10:24:36Z</time>
      </trkpt>
      <trkpt lat="46.70437" lon="5.53935">
        <ele>300.8</ele>
        <time>2020-03-13T10:24:42Z</time>
      </trkpt>
      <trkpt lat="46.70432" lon="5.53935">
        <ele>300.3</ele>
        <time>2020-03-13T10:24:48Z</time>
      </trkpt>
      <trkpt lat="46.70407" lon="5.53954">
        <ele>296.9</ele>
        <time>2020-03-13T10:25:06Z</time>
      </trkpt>
      <trkpt lat="46.70403" lon="5.53958">
        <ele>296.3</ele>
        <time>2020-03-13T10:25:11Z</time>
      </trkpt>
      <trkpt lat="46.70399" lon="5.53961">
        <ele>293.9</ele>
        <time>2020-03-13T10:25:20Z</time>
      </trkpt>
      <trkpt lat="46.70394" lon="5.53963">
        <ele>292</ele>
        <time>2020-03-13T10:25:25Z</time>
      </trkpt>
      <trkpt lat="46.70388" lon="5.53961">
        <ele>290</ele>
        <time>2020-03-13T10:25:30Z</time>
      </trkpt>
      <trkpt lat="46.70383" lon="5.53959">
        <ele>288.5</ele>
        <time>2020-03-13T10:25:34Z</time>
      </trkpt>
      <trkpt lat="46.70378" lon="5.53958">
        <ele>286.3</ele>
        <time>2020-03-13T10:25:39Z</time>
      </trkpt>
      <trkpt lat="46.70373" lon="5.5396">
        <ele>284.6</ele>
        <time>2020-03-13T10:25:43Z</time>
      </trkpt>
      <trkpt lat="46.70367" lon="5.53963">
        <ele>283</ele>
        <time>2020-03-13T10:25:47Z</time>
      </trkpt>
      <trkpt lat="46.70363" lon="5.53965">
        <ele>281.9</ele>
        <time>2020-03-13T10:25:50Z</time>
      </trkpt>
      <trkpt lat="46.70357" lon="5.53965">
        <ele>280.7</ele>
        <time>2020-03-13T10:25:54Z</time>
      </trkpt>
      <trkpt lat="46.70352" lon="5.53964">
        <ele>279.8</ele>
        <time>2020-03-13T10:25:57Z</time>
      </trkpt>
      <trkpt lat="46.70347" lon="5.53961">
        <ele>278.8</ele>
        <time>2020-03-13T10:26:01Z</time>
      </trkpt>
      <trkpt lat="46.70342" lon="5.5396">
        <ele>276.9</ele>
        <time>2020-03-13T10:26:10Z</time>
      </trkpt>
      <trkpt lat="46.70338" lon="5.53956">
        <ele>275.9</ele>
        <time>2020-03-13T10:26:16Z</time>
      </trkpt>
      <trkpt lat="46.70333" lon="5.53954">
        <ele>275.6</ele>
        <time>2020-03-13T10:26:22Z</time>
      </trkpt>
      <trkpt lat="46.70327" lon="5.53953">
        <ele>275.8</ele>
        <time>2020-03-13T10:26:27Z</time>
      </trkpt>
      <trkpt lat="46.70323" lon="5.53954">
        <ele>276.1</ele>
        <time>2020-03-13T10:26:31Z</time>
      </trkpt>
      <trkpt lat="46.70318" lon="5.53956">
        <ele>276.4</ele>
        <time>2020-03-13T10:26:36Z</time>
      </trkpt>
      <trkpt lat="46.70314" lon="5.5396">
        <ele>276</ele>
        <time>2020-03-13T10:26:42Z</time>
      </trkpt>
      <trkpt lat="46.70309" lon="5.53962">
        <ele>275.5</ele>
        <time>2020-03-13T10:26:47Z</time>
      </trkpt>
      <trkpt lat="46.70304" lon="5.53964">
        <ele>274.7</ele>
        <time>2020-03-13T10:26:53Z</time>
      </trkpt>
      <trkpt lat="46.703" lon="5.53965">
        <ele>273.6</ele>
        <time>2020-03-13T10:26:58Z</time>
      </trkpt>
      <trkpt lat="46.70295" lon="5.53968">
        <ele>272.4</ele>
        <time>2020-03-13T10:27:03Z</time>
      </trkpt>
      <trkpt lat="46.7029" lon="5.53969">
        <ele>269.9</ele>
        <time>2020-03-13T10:27:11Z</time>
      </trkpt>
      <trkpt lat="46.70286" lon="5.53972">
        <ele>267.8</ele>
        <time>2020-03-13T10:27:18Z</time>
      </trkpt>
      <trkpt lat="46.70281" lon="5.53975">
        <ele>266.2</ele>
        <time>2020-03-13T10:27:24Z</time>
      </trkpt>
      <trkpt lat="46.70271" lon="5.53978">
        <ele>262.4</ele>
        <time>2020-03-13T10:27:38Z</time>
      </trkpt>
      <trkpt lat="46.70266" lon="5.53982">
        <ele>261.2</ele>
        <time>2020-03-13T10:27:44Z</time>
      </trkpt>
      <trkpt lat="46.70262" lon="5.53987">
        <ele>260.3</ele>
        <time>2020-03-13T10:27:48Z</time>
      </trkpt>
      <trkpt lat="46.70258" lon="5.53992">
        <ele>259.8</ele>
        <time>2020-03-13T10:27:51Z</time>
      </trkpt>
      <trkpt lat="46.70254" lon="5.53996">
        <ele>259.2</ele>
        <time>2020-03-13T10:27:55Z</time>
      </trkpt>
      <trkpt lat="46.70249" lon="5.54001">
        <ele>259.1</ele>
        <time>2020-03-13T10:27:59Z</time>
      </trkpt>
      <trkpt lat="46.70245" lon="5.54004">
        <ele>259</ele>
        <time>2020-03-13T10:28:03Z</time>
      </trkpt>
      <trkpt lat="46.70241" lon="5.54007">
        <ele>259.1</ele>
        <time>2020-03-13T10:28:07Z</time>
      </trkpt>
      <trkpt lat="46.70237" lon="5.54011">
        <ele>259.3</ele>
        <time>2020-03-13T10:28:11Z</time>
      </trkpt>
      <trkpt lat="46.70233" lon="5.54015">
        <ele>259.3</ele>
        <time>2020-03-13T10:28:15Z</time>
      </trkpt>
      <trkpt lat="46.70229" lon="5.54018">
        <ele>259.4</ele>
        <time>2020-03-13T10:28:18Z</time>
      </trkpt>
      <trkpt lat="46.70225" lon="5.54021">
        <ele>259.5</ele>
        <time>2020-03-13T10:28:21Z</time>
      </trkpt>
      <trkpt lat="46.70221" lon="5.54025">
        <ele>259.7</ele>
        <time>2020-03-13T10:28:24Z</time>
      </trkpt>
      <trkpt lat="46.70218" lon="5.54031">
        <ele>260</ele>
        <time>2020-03-13T10:28:29Z</time>
      </trkpt>
      <trkpt lat="46.70213" lon="5.54036">
        <ele>260.6</ele>
        <time>2020-03-13T10:28:35Z</time>
      </trkpt>
      <trkpt lat="46.70209" lon="5.5404">
        <ele>261</ele>
        <time>2020-03-13T10:28:39Z</time>
      </trkpt>
      <trkpt lat="46.70205" lon="5.54044">
        <ele>261.6</ele>
        <time>2020-03-13T10:28:45Z</time>
      </trkpt>
      <trkpt lat="46.70201" lon="5.54048">
        <ele>262</ele>
        <time>2020-03-13T10:28:53Z</time>
      </trkpt>
      <trkpt lat="46.70197" lon="5.54052">
        <ele>262</ele>
        <time>2020-03-13T10:28:59Z</time>
      </trkpt>
      <trkpt lat="46.70192" lon="5.54054">
        <ele>261.9</ele>
        <time>2020-03-13T10:29:06Z</time>
      </trkpt>
      <trkpt lat="46.70189" lon="5.54059">
        <ele>262.5</ele>
        <time>2020-03-13T10:29:16Z</time>
      </trkpt>
      <trkpt lat="46.70185" lon="5.54064">
        <ele>263</ele>
        <time>2020-03-13T10:29:22Z</time>
      </trkpt>
      <trkpt lat="46.70183" lon="5.54071">
        <ele>263.1</ele>
        <time>2020-03-13T10:29:28Z</time>
      </trkpt>
      <trkpt lat="46.70179" lon="5.54075">
        <ele>263</ele>
        <time>2020-03-13T10:29:33Z</time>
      </trkpt>
      <trkpt lat="46.70174" lon="5.54076">
        <ele>262.5</ele>
        <time>2020-03-13T10:29:42Z</time>
      </trkpt>
      <trkpt lat="46.7017" lon="5.54078">
        <ele>261.4</ele>
        <time>2020-03-13T10:29:52Z</time>
      </trkpt>
      <trkpt lat="46.70166" lon="5.54082">
        <ele>260.4</ele>
        <time>2020-03-13T10:29:59Z</time>
      </trkpt>
      <trkpt lat="46.70163" lon="5.54087">
        <ele>259.4</ele>
        <time>2020-03-13T10:30:05Z</time>
      </trkpt>
      <trkpt lat="46.70159" lon="5.54092">
        <ele>258.6</ele>
        <time>2020-03-13T10:30:10Z</time>
      </trkpt>
      <trkpt lat="46.70156" lon="5.54097">
        <ele>258.4</ele>
        <time>2020-03-13T10:30:13Z</time>
      </trkpt>
      <trkpt lat="46.70152" lon="5.54102">
        <ele>258.4</ele>
        <time>2020-03-13T10:30:17Z</time>
      </trkpt>
      <trkpt lat="46.70149" lon="5.54108">
        <ele>258.8</ele>
        <time>2020-03-13T10:30:23Z</time>
      </trkpt>
      <trkpt lat="46.70146" lon="5.54114">
        <ele>259.2</ele>
        <time>2020-03-13T10:30:26Z</time>
      </trkpt>
      <trkpt lat="46.70142" lon="5.54119">
        <ele>259.6</ele>
        <time>2020-03-13T10:30:29Z</time>
      </trkpt>
      <trkpt lat="46.70138" lon="5.54124">
        <ele>260.1</ele>
        <time>2020-03-13T10:30:33Z</time>
      </trkpt>
      <trkpt lat="46.70135" lon="5.54129">
        <ele>261.3</ele>
        <time>2020-03-13T10:30:40Z</time>
      </trkpt>
      <trkpt lat="46.70132" lon="5.54134">
        <ele>262.1</ele>
        <time>2020-03-13T10:30:46Z</time>
      </trkpt>
      <trkpt lat="46.70128" lon="5.54139">
        <ele>262.7</ele>
        <time>2020-03-13T10:30:51Z</time>
      </trkpt>
      <trkpt lat="46.70125" lon="5.54145">
        <ele>263.4</ele>
        <time>2020-03-13T10:30:56Z</time>
      </trkpt>
      <trkpt lat="46.70122" lon="5.5415">
        <ele>264.3</ele>
        <time>2020-03-13T10:31:01Z</time>
      </trkpt>
      <trkpt lat="46.70119" lon="5.54155">
        <ele>265.3</ele>
        <time>2020-03-13T10:31:07Z</time>
      </trkpt>
      <trkpt lat="46.70115" lon="5.5416">
        <ele>266.1</ele>
        <time>2020-03-13T10:31:12Z</time>
      </trkpt>
      <trkpt lat="46.70112" lon="5.54165">
        <ele>267.3</ele>
        <time>2020-03-13T10:31:19Z</time>
      </trkpt>
      <trkpt lat="46.70108" lon="5.5417">
        <ele>269.4</ele>
        <time>2020-03-13T10:31:28Z</time>
      </trkpt>
      <trkpt lat="46.70105" lon="5.54176">
        <ele>271.9</ele>
        <time>2020-03-13T10:31:38Z</time>
      </trkpt>
      <trkpt lat="46.70101" lon="5.54179">
        <ele>273.8</ele>
        <time>2020-03-13T10:31:47Z</time>
      </trkpt>
      <trkpt lat="46.70098" lon="5.54184">
        <ele>274.6</ele>
        <time>2020-03-13T10:31:56Z</time>
      </trkpt>
      <trkpt lat="46.70093" lon="5.54187">
        <ele>274.6</ele>
        <time>2020-03-13T10:32:06Z</time>
      </trkpt>
      <trkpt lat="46.70089" lon="5.5419">
        <ele>273.9</ele>
        <time>2020-03-13T10:32:16Z</time>
      </trkpt>
      <trkpt lat="46.70084" lon="5.54193">
        <ele>273.5</ele>
        <time>2020-03-13T10:32:21Z</time>
      </trkpt>
      <trkpt lat="46.70079" lon="5.54195">
        <ele>272.7</ele>
        <time>2020-03-13T10:32:26Z</time>
      </trkpt>
      <trkpt lat="46.70074" lon="5.54195">
        <ele>271.7</ele>
        <time>2020-03-13T10:32:33Z</time>
      </trkpt>
      <trkpt lat="46.70066" lon="5.54194">
        <ele>270</ele>
        <time>2020-03-13T10:32:44Z</time>
      </trkpt>
      <trkpt lat="46.70061" lon="5.54197">
        <ele>268.9</ele>
        <time>2020-03-13T10:32:49Z</time>
      </trkpt>
      <trkpt lat="46.70057" lon="5.542">
        <ele>267.9</ele>
        <time>2020-03-13T10:32:53Z</time>
      </trkpt>
      <trkpt lat="46.70053" lon="5.54204">
        <ele>267.3</ele>
        <time>2020-03-13T10:32:56Z</time>
      </trkpt>
      <trkpt lat="46.70049" lon="5.5421">
        <ele>266.7</ele>
        <time>2020-03-13T10:32:59Z</time>
      </trkpt>
      <trkpt lat="46.70045" lon="5.54216">
        <ele>266.2</ele>
        <time>2020-03-13T10:33:02Z</time>
      </trkpt>
      <trkpt lat="46.70041" lon="5.54221">
        <ele>265.8</ele>
        <time>2020-03-13T10:33:06Z</time>
      </trkpt>
      <trkpt lat="46.70037" lon="5.54225">
        <ele>265.6</ele>
        <time>2020-03-13T10:33:10Z</time>
      </trkpt>
      <trkpt lat="46.70033" lon="5.54228">
        <ele>265.7</ele>
        <time>2020-03-13T10:33:15Z</time>
      </trkpt>
      <trkpt lat="46.70028" lon="5.5423">
        <ele>266</ele>
        <time>2020-03-13T10:33:20Z</time>
      </trkpt>
      <trkpt lat="46.70023" lon="5.5423">
        <ele>266.1</ele>
        <time>2020-03-13T10:33:24Z</time>
      </trkpt>
      <trkpt lat="46.70018" lon="5.5423">
        <ele>265.8</ele>
        <time>2020-03-13T10:33:30Z</time>
      </trkpt>
      <trkpt lat="46.70013" lon="5.54231">
        <ele>265.2</ele>
        <time>2020-03-13T10:33:36Z</time>
      </trkpt>
      <trkpt lat="46.70008" lon="5.54231">
        <ele>264.4</ele>
        <time>2020-03-13T10:33:45Z</time>
      </trkpt>
      <trkpt lat="46.70003" lon="5.54231">
        <ele>264</ele>
        <time>2020-03-13T10:33:51Z</time>
      </trkpt>
      <trkpt lat="46.69998" lon="5.5423">
        <ele>263.3</ele>
        <time>2020-03-13T10:33:56Z</time>
      </trkpt>
      <trkpt lat="46.69993" lon="5.54233">
        <ele>262.4</ele>
        <time>2020-03-13T10:34:02Z</time>
      </trkpt>
      <trkpt lat="46.69988" lon="5.54235">
        <ele>261.3</ele>
        <time>2020-03-13T10:34:08Z</time>
      </trkpt>
      <trkpt lat="46.69983" lon="5.54235">
        <ele>260</ele>
        <time>2020-03-13T10:34:14Z</time>
      </trkpt>
      <trkpt lat="46.69978" lon="5.54237">
        <ele>259.3</ele>
        <time>2020-03-13T10:34:19Z</time>
      </trkpt>
      <trkpt lat="46.69974" lon="5.54242">
        <ele>258.9</ele>
        <time>2020-03-13T10:34:24Z</time>
      </trkpt>
      <trkpt lat="46.6997" lon="5.54248">
        <ele>258.9</ele>
        <time>2020-03-13T10:34:27Z</time>
      </trkpt>
      <trkpt lat="46.69966" lon="5.54253">
        <ele>259.2</ele>
        <time>2020-03-13T10:34:30Z</time>
      </trkpt>
      <trkpt lat="46.69963" lon="5.54258">
        <ele>259.6</ele>
        <time>2020-03-13T10:34:33Z</time>
      </trkpt>
      <trkpt lat="46.69959" lon="5.54263">
        <ele>260.2</ele>
        <time>2020-03-13T10:34:36Z</time>
      </trkpt>
      <trkpt lat="46.69956" lon="5.54268">
        <ele>261</ele>
        <time>2020-03-13T10:34:39Z</time>
      </trkpt>
      <trkpt lat="46.69952" lon="5.54273">
        <ele>263.3</ele>
        <time>2020-03-13T10:34:45Z</time>
      </trkpt>
      <trkpt lat="46.69948" lon="5.54275">
        <ele>269</ele>
        <time>2020-03-13T10:34:57Z</time>
      </trkpt>
      <trkpt lat="46.69944" lon="5.54278">
        <ele>271.2</ele>
        <time>2020-03-13T10:35:02Z</time>
      </trkpt>
      <trkpt lat="46.69939" lon="5.54279">
        <ele>273</ele>
        <time>2020-03-13T10:35:07Z</time>
      </trkpt>
      <trkpt lat="46.69934" lon="5.54277">
        <ele>273.7</ele>
        <time>2020-03-13T10:35:13Z</time>
      </trkpt>
      <trkpt lat="46.69925" lon="5.54271">
        <ele>272.3</ele>
        <time>2020-03-13T10:35:24Z</time>
      </trkpt>
      <trkpt lat="46.6992" lon="5.54268">
        <ele>271.3</ele>
        <time>2020-03-13T10:35:29Z</time>
      </trkpt>
      <trkpt lat="46.69916" lon="5.54268">
        <ele>270.5</ele>
        <time>2020-03-13T10:35:32Z</time>
      </trkpt>
      <trkpt lat="46.6991" lon="5.54267">
        <ele>269.4</ele>
        <time>2020-03-13T10:35:36Z</time>
      </trkpt>
      <trkpt lat="46.69906" lon="5.54269">
        <ele>268.2</ele>
        <time>2020-03-13T10:35:40Z</time>
      </trkpt>
      <trkpt lat="46.69902" lon="5.54274">
        <ele>267.5</ele>
        <time>2020-03-13T10:35:44Z</time>
      </trkpt>
      <trkpt lat="46.69897" lon="5.54278">
        <ele>267.3</ele>
        <time>2020-03-13T10:35:49Z</time>
      </trkpt>
      <trkpt lat="46.69893" lon="5.5428">
        <ele>267.5</ele>
        <time>2020-03-13T10:35:52Z</time>
      </trkpt>
      <trkpt lat="46.69888" lon="5.54282">
        <ele>267.8</ele>
        <time>2020-03-13T10:35:54Z</time>
      </trkpt>
      <trkpt lat="46.69883" lon="5.54283">
        <ele>268</ele>
        <time>2020-03-13T10:35:56Z</time>
      </trkpt>
      <trkpt lat="46.69878" lon="5.54284">
        <ele>268.4</ele>
        <time>2020-03-13T10:36:00Z</time>
      </trkpt>
      <trkpt lat="46.69873" lon="5.54282">
        <ele>269.4</ele>
        <time>2020-03-13T10:36:08Z</time>
      </trkpt>
      <trkpt lat="46.69869" lon="5.5428">
        <ele>270.3</ele>
        <time>2020-03-13T10:36:16Z</time>
      </trkpt>
      <trkpt lat="46.69864" lon="5.54277">
        <ele>271.1</ele>
        <time>2020-03-13T10:36:23Z</time>
      </trkpt>
      <trkpt lat="46.6986" lon="5.54275">
        <ele>271.5</ele>
        <time>2020-03-13T10:36:29Z</time>
      </trkpt>
      <trkpt lat="46.69855" lon="5.54271">
        <ele>271.5</ele>
        <time>2020-03-13T10:36:34Z</time>
      </trkpt>
      <trkpt lat="46.69851" lon="5.54267">
        <ele>271.3</ele>
        <time>2020-03-13T10:36:40Z</time>
      </trkpt>
      <trkpt lat="46.69847" lon="5.54264">
        <ele>271.3</ele>
        <time>2020-03-13T10:36:47Z</time>
      </trkpt>
      <trkpt lat="46.69842" lon="5.54262">
        <ele>271.3</ele>
        <time>2020-03-13T10:36:53Z</time>
      </trkpt>
      <trkpt lat="46.69837" lon="5.54261">
        <ele>271.1</ele>
        <time>2020-03-13T10:36:58Z</time>
      </trkpt>
      <trkpt lat="46.69832" lon="5.54259">
        <ele>270.6</ele>
        <time>2020-03-13T10:37:04Z</time>
      </trkpt>
      <trkpt lat="46.69827" lon="5.54257">
        <ele>270.1</ele>
        <time>2020-03-13T10:37:09Z</time>
      </trkpt>
      <trkpt lat="46.69822" lon="5.54255">
        <ele>269.6</ele>
        <time>2020-03-13T10:37:14Z</time>
      </trkpt>
      <trkpt lat="46.69818" lon="5.54253">
        <ele>268.8</ele>
        <time>2020-03-13T10:37:19Z</time>
      </trkpt>
      <trkpt lat="46.69813" lon="5.54251">
        <ele>268</ele>
        <time>2020-03-13T10:37:24Z</time>
      </trkpt>
      <trkpt lat="46.69808" lon="5.54248">
        <ele>267.4</ele>
        <time>2020-03-13T10:37:30Z</time>
      </trkpt>
      <trkpt lat="46.69803" lon="5.54245">
        <ele>266.9</ele>
        <time>2020-03-13T10:37:37Z</time>
      </trkpt>
      <trkpt lat="46.69799" lon="5.54243">
        <ele>266.7</ele>
        <time>2020-03-13T10:37:40Z</time>
      </trkpt>
      <trkpt lat="46.69794" lon="5.54242">
        <ele>266.4</ele>
        <time>2020-03-13T10:37:44Z</time>
      </trkpt>
      <trkpt lat="46.69789" lon="5.54245">
        <ele>266.4</ele>
        <time>2020-03-13T10:37:50Z</time>
      </trkpt>
      <trkpt lat="46.69784" lon="5.54246">
        <ele>267.1</ele>
        <time>2020-03-13T10:37:55Z</time>
      </trkpt>
      <trkpt lat="46.69779" lon="5.54245">
        <ele>267.9</ele>
        <time>2020-03-13T10:38:00Z</time>
      </trkpt>
      <trkpt lat="46.69774" lon="5.54244">
        <ele>269.1</ele>
        <time>2020-03-13T10:38:06Z</time>
      </trkpt>
      <trkpt lat="46.6977" lon="5.54242">
        <ele>270.3</ele>
        <time>2020-03-13T10:38:13Z</time>
      </trkpt>
      <trkpt lat="46.69766" lon="5.5424">
        <ele>271.1</ele>
        <time>2020-03-13T10:38:19Z</time>
      </trkpt>
      <trkpt lat="46.69761" lon="5.54239">
        <ele>271.6</ele>
        <time>2020-03-13T10:38:24Z</time>
      </trkpt>
      <trkpt lat="46.69756" lon="5.54238">
        <ele>272</ele>
        <time>2020-03-13T10:38:30Z</time>
      </trkpt>
      <trkpt lat="46.69752" lon="5.54235">
        <ele>272.5</ele>
        <time>2020-03-13T10:38:37Z</time>
      </trkpt>
      <trkpt lat="46.69747" lon="5.54233">
        <ele>273</ele>
        <time>2020-03-13T10:38:43Z</time>
      </trkpt>
      <trkpt lat="46.69743" lon="5.54229">
        <ele>273.1</ele>
        <time>2020-03-13T10:38:48Z</time>
      </trkpt>
      <trkpt lat="46.69738" lon="5.54227">
        <ele>272.7</ele>
        <time>2020-03-13T10:38:53Z</time>
      </trkpt>
      <trkpt lat="46.69732" lon="5.54224">
        <ele>272.1</ele>
        <time>2020-03-13T10:38:58Z</time>
      </trkpt>
      <trkpt lat="46.69727" lon="5.54221">
        <ele>271.4</ele>
        <time>2020-03-13T10:39:02Z</time>
      </trkpt>
      <trkpt lat="46.69722" lon="5.54219">
        <ele>270.4</ele>
        <time>2020-03-13T10:39:06Z</time>
      </trkpt>
      <trkpt lat="46.69718" lon="5.54216">
        <ele>268.1</ele>
        <time>2020-03-13T10:39:13Z</time>
      </trkpt>
      <trkpt lat="46.69713" lon="5.54218">
        <ele>265.4</ele>
        <time>2020-03-13T10:39:23Z</time>
      </trkpt>
      <trkpt lat="46.69708" lon="5.54223">
        <ele>265.3</ele>
        <time>2020-03-13T10:39:27Z</time>
      </trkpt>
      <trkpt lat="46.69704" lon="5.54225">
        <ele>265.9</ele>
        <time>2020-03-13T10:39:33Z</time>
      </trkpt>
      <trkpt lat="46.69699" lon="5.54225">
        <ele>266.3</ele>
        <time>2020-03-13T10:39:36Z</time>
      </trkpt>
      <trkpt lat="46.69693" lon="5.54226">
        <ele>267.1</ele>
        <time>2020-03-13T10:39:40Z</time>
      </trkpt>
      <trkpt lat="46.69688" lon="5.54227">
        <ele>268</ele>
        <time>2020-03-13T10:39:44Z</time>
      </trkpt>
      <trkpt lat="46.69683" lon="5.54226">
        <ele>269.3</ele>
        <time>2020-03-13T10:39:50Z</time>
      </trkpt>
      <trkpt lat="46.69678" lon="5.54227">
        <ele>270.2</ele>
        <time>2020-03-13T10:39:55Z</time>
      </trkpt>
      <trkpt lat="46.69674" lon="5.54226">
        <ele>271.2</ele>
        <time>2020-03-13T10:40:01Z</time>
      </trkpt>
      <trkpt lat="46.69669" lon="5.54225">
        <ele>271.6</ele>
        <time>2020-03-13T10:40:05Z</time>
      </trkpt>
      <trkpt lat="46.69664" lon="5.54224">
        <ele>272.7</ele>
        <time>2020-03-13T10:40:14Z</time>
      </trkpt>
      <trkpt lat="46.69659" lon="5.54225">
        <ele>273.7</ele>
        <time>2020-03-13T10:40:18Z</time>
      </trkpt>
      <trkpt lat="46.69654" lon="5.54227">
        <ele>275.2</ele>
        <time>2020-03-13T10:40:23Z</time>
      </trkpt>
      <trkpt lat="46.69649" lon="5.54227">
        <ele>277.2</ele>
        <time>2020-03-13T10:40:30Z</time>
      </trkpt>
      <trkpt lat="46.69644" lon="5.54228">
        <ele>278</ele>
        <time>2020-03-13T10:40:36Z</time>
      </trkpt>
      <trkpt lat="46.69639" lon="5.54225">
        <ele>278.3</ele>
        <time>2020-03-13T10:40:40Z</time>
      </trkpt>
      <trkpt lat="46.69635" lon="5.54221">
        <ele>278.6</ele>
        <time>2020-03-13T10:40:45Z</time>
      </trkpt>
      <trkpt lat="46.6963" lon="5.54219">
        <ele>278.8</ele>
        <time>2020-03-13T10:40:49Z</time>
      </trkpt>
      <trkpt lat="46.69625" lon="5.54218">
        <ele>278.8</ele>
        <time>2020-03-13T10:40:53Z</time>
      </trkpt>
      <trkpt lat="46.69621" lon="5.54216">
        <ele>278.4</ele>
        <time>2020-03-13T10:40:57Z</time>
      </trkpt>
      <trkpt lat="46.69616" lon="5.54213">
        <ele>277.7</ele>
        <time>2020-03-13T10:41:02Z</time>
      </trkpt>
      <trkpt lat="46.69611" lon="5.5421">
        <ele>276.4</ele>
        <time>2020-03-13T10:41:08Z</time>
      </trkpt>
      <trkpt lat="46.69606" lon="5.54207">
        <ele>274.1</ele>
        <time>2020-03-13T10:41:16Z</time>
      </trkpt>
      <trkpt lat="46.69601" lon="5.54209">
        <ele>272.4</ele>
        <time>2020-03-13T10:41:21Z</time>
      </trkpt>
      <trkpt lat="46.69596" lon="5.5421">
        <ele>270.1</ele>
        <time>2020-03-13T10:41:27Z</time>
      </trkpt>
      <trkpt lat="46.69592" lon="5.54211">
        <ele>268</ele>
        <time>2020-03-13T10:41:33Z</time>
      </trkpt>
      <trkpt lat="46.69587" lon="5.54212">
        <ele>265.4</ele>
        <time>2020-03-13T10:41:40Z</time>
      </trkpt>
      <trkpt lat="46.69583" lon="5.54214">
        <ele>263.5</ele>
        <time>2020-03-13T10:41:45Z</time>
      </trkpt>
      <trkpt lat="46.69579" lon="5.54218">
        <ele>262.2</ele>
        <time>2020-03-13T10:41:49Z</time>
      </trkpt>
      <trkpt lat="46.69574" lon="5.54223">
        <ele>260.9</ele>
        <time>2020-03-13T10:41:54Z</time>
      </trkpt>
      <trkpt lat="46.69572" lon="5.54231">
        <ele>260.8</ele>
        <time>2020-03-13T10:41:57Z</time>
      </trkpt>
      <trkpt lat="46.69568" lon="5.54239">
        <ele>261.1</ele>
        <time>2020-03-13T10:42:00Z</time>
      </trkpt>
      <trkpt lat="46.69566" lon="5.54244">
        <ele>261.5</ele>
        <time>2020-03-13T10:42:03Z</time>
      </trkpt>
      <trkpt lat="46.69561" lon="5.5425">
        <ele>262.7</ele>
        <time>2020-03-13T10:42:08Z</time>
      </trkpt>
      <trkpt lat="46.69557" lon="5.54255">
        <ele>263.9</ele>
        <time>2020-03-13T10:42:12Z</time>
      </trkpt>
      <trkpt lat="46.69552" lon="5.5426">
        <ele>265.2</ele>
        <time>2020-03-13T10:42:16Z</time>
      </trkpt>
      <trkpt lat="46.69547" lon="5.54264">
        <ele>266.2</ele>
        <time>2020-03-13T10:42:19Z</time>
      </trkpt>
      <trkpt lat="46.69543" lon="5.54267">
        <ele>267.5</ele>
        <time>2020-03-13T10:42:23Z</time>
      </trkpt>
      <trkpt lat="46.69538" lon="5.5427">
        <ele>269</ele>
        <time>2020-03-13T10:42:28Z</time>
      </trkpt>
      <trkpt lat="46.69533" lon="5.54272">
        <ele>270.2</ele>
        <time>2020-03-13T10:42:33Z</time>
      </trkpt>
      <trkpt lat="46.69528" lon="5.54275">
        <ele>271.1</ele>
        <time>2020-03-13T10:42:38Z</time>
      </trkpt>
      <trkpt lat="46.69524" lon="5.54277">
        <ele>272.2</ele>
        <time>2020-03-13T10:42:44Z</time>
      </trkpt>
      <trkpt lat="46.69519" lon="5.5428">
        <ele>272.8</ele>
        <time>2020-03-13T10:42:49Z</time>
      </trkpt>
      <trkpt lat="46.69515" lon="5.54283">
        <ele>273.6</ele>
        <time>2020-03-13T10:42:55Z</time>
      </trkpt>
      <trkpt lat="46.69511" lon="5.54286">
        <ele>274.1</ele>
        <time>2020-03-13T10:43:02Z</time>
      </trkpt>
      <trkpt lat="46.69506" lon="5.54288">
        <ele>274.3</ele>
        <time>2020-03-13T10:43:11Z</time>
      </trkpt>
      <trkpt lat="46.69502" lon="5.54291">
        <ele>272.8</ele>
        <time>2020-03-13T10:43:19Z</time>
      </trkpt>
      <trkpt lat="46.69497" lon="5.54291">
        <ele>270.2</ele>
        <time>2020-03-13T10:43:26Z</time>
      </trkpt>
      <trkpt lat="46.69494" lon="5.54296">
        <ele>267.1</ele>
        <time>2020-03-13T10:43:34Z</time>
      </trkpt>
      <trkpt lat="46.6949" lon="5.54302">
        <ele>265.7</ele>
        <time>2020-03-13T10:43:39Z</time>
      </trkpt>
      <trkpt lat="46.69487" lon="5.54309">
        <ele>264.9</ele>
        <time>2020-03-13T10:43:43Z</time>
      </trkpt>
      <trkpt lat="46.69485" lon="5.54316">
        <ele>264.8</ele>
        <time>2020-03-13T10:43:46Z</time>
      </trkpt>
      <trkpt lat="46.69482" lon="5.54323">
        <ele>265</ele>
        <time>2020-03-13T10:43:49Z</time>
      </trkpt>
      <trkpt lat="46.69478" lon="5.5433">
        <ele>265.5</ele>
        <time>2020-03-13T10:43:52Z</time>
      </trkpt>
      <trkpt lat="46.69474" lon="5.54337">
        <ele>266.1</ele>
        <time>2020-03-13T10:43:55Z</time>
      </trkpt>
      <trkpt lat="46.69469" lon="5.54344">
        <ele>266.8</ele>
        <time>2020-03-13T10:43:58Z</time>
      </trkpt>
      <trkpt lat="46.69465" lon="5.5435">
        <ele>267.4</ele>
        <time>2020-03-13T10:44:01Z</time>
      </trkpt>
      <trkpt lat="46.69461" lon="5.54354">
        <ele>267.9</ele>
        <time>2020-03-13T10:44:04Z</time>
      </trkpt>
      <trkpt lat="46.69456" lon="5.54358">
        <ele>268.6</ele>
        <time>2020-03-13T10:44:08Z</time>
      </trkpt>
      <trkpt lat="46.69452" lon="5.54363">
        <ele>269.4</ele>
        <time>2020-03-13T10:44:13Z</time>
      </trkpt>
      <trkpt lat="46.69449" lon="5.54368">
        <ele>270.3</ele>
        <time>2020-03-13T10:44:20Z</time>
      </trkpt>
      <trkpt lat="46.69445" lon="5.54373">
        <ele>271.1</ele>
        <time>2020-03-13T10:44:26Z</time>
      </trkpt>
      <trkpt lat="46.69441" lon="5.54376">
        <ele>271.8</ele>
        <time>2020-03-13T10:44:31Z</time>
      </trkpt>
      <trkpt lat="46.69436" lon="5.54377">
        <ele>272.4</ele>
        <time>2020-03-13T10:44:36Z</time>
      </trkpt>
      <trkpt lat="46.69431" lon="5.5438">
        <ele>273.5</ele>
        <time>2020-03-13T10:44:41Z</time>
      </trkpt>
      <trkpt lat="46.69427" lon="5.54385">
        <ele>274.5</ele>
        <time>2020-03-13T10:44:45Z</time>
      </trkpt>
      <trkpt lat="46.69423" lon="5.54389">
        <ele>275.2</ele>
        <time>2020-03-13T10:44:49Z</time>
      </trkpt>
      <trkpt lat="46.69418" lon="5.54394">
        <ele>275.4</ele>
        <time>2020-03-13T10:44:53Z</time>
      </trkpt>
      <trkpt lat="46.69414" lon="5.54396">
        <ele>275.2</ele>
        <time>2020-03-13T10:44:59Z</time>
      </trkpt>
      <trkpt lat="46.69409" lon="5.54399">
        <ele>275.4</ele>
        <time>2020-03-13T10:45:08Z</time>
      </trkpt>
      <trkpt lat="46.69404" lon="5.54401">
        <ele>276.3</ele>
        <time>2020-03-13T10:45:13Z</time>
      </trkpt>
      <trkpt lat="46.69399" lon="5.54402">
        <ele>276.9</ele>
        <time>2020-03-13T10:45:17Z</time>
      </trkpt>
      <trkpt lat="46.69394" lon="5.54404">
        <ele>277.5</ele>
        <time>2020-03-13T10:45:21Z</time>
      </trkpt>
      <trkpt lat="46.69389" lon="5.54408">
        <ele>277.9</ele>
        <time>2020-03-13T10:45:25Z</time>
      </trkpt>
      <trkpt lat="46.69385" lon="5.54411">
        <ele>278.2</ele>
        <time>2020-03-13T10:45:28Z</time>
      </trkpt>
      <trkpt lat="46.69381" lon="5.54415">
        <ele>278.5</ele>
        <time>2020-03-13T10:45:31Z</time>
      </trkpt>
      <trkpt lat="46.69378" lon="5.5442">
        <ele>278.7</ele>
        <time>2020-03-13T10:45:35Z</time>
      </trkpt>
      <trkpt lat="46.69374" lon="5.54424">
        <ele>278.8</ele>
        <time>2020-03-13T10:45:40Z</time>
      </trkpt>
      <trkpt lat="46.69369" lon="5.54424">
        <ele>278.5</ele>
        <time>2020-03-13T10:45:46Z</time>
      </trkpt>
      <trkpt lat="46.69365" lon="5.54427">
        <ele>277.7</ele>
        <time>2020-03-13T10:45:52Z</time>
      </trkpt>
      <trkpt lat="46.6936" lon="5.5443">
        <ele>277</ele>
        <time>2020-03-13T10:45:58Z</time>
      </trkpt>
      <trkpt lat="46.69354" lon="5.54431">
        <ele>276.2</ele>
        <time>2020-03-13T10:46:03Z</time>
      </trkpt>
      <trkpt lat="46.69338" lon="5.54442">
        <ele>250.5</ele>
        <time>2020-03-13T10:46:48Z</time>
      </trkpt>
      <trkpt lat="46.69336" lon="5.54449">
        <ele>248.7</ele>
        <time>2020-03-13T10:46:53Z</time>
      </trkpt>
      <trkpt lat="46.69332" lon="5.54458">
        <ele>248.4</ele>
        <time>2020-03-13T10:46:55Z</time>
      </trkpt>
      <trkpt lat="46.6933" lon="5.54468">
        <ele>248.3</ele>
        <time>2020-03-13T10:46:57Z</time>
      </trkpt>
      <trkpt lat="46.69327" lon="5.54479">
        <ele>248.4</ele>
        <time>2020-03-13T10:46:59Z</time>
      </trkpt>
      <trkpt lat="46.69326" lon="5.54487">
        <ele>248.7</ele>
        <time>2020-03-13T10:47:01Z</time>
      </trkpt>
      <trkpt lat="46.69324" lon="5.54495">
        <ele>249</ele>
        <time>2020-03-13T10:47:03Z</time>
      </trkpt>
      <trkpt lat="46.69323" lon="5.54503">
        <ele>249.9</ele>
        <time>2020-03-13T10:47:06Z</time>
      </trkpt>
      <trkpt lat="46.69321" lon="5.54509">
        <ele>251.8</ele>
        <time>2020-03-13T10:47:11Z</time>
      </trkpt>
      <trkpt lat="46.6932" lon="5.54516">
        <ele>255.6</ele>
        <time>2020-03-13T10:47:21Z</time>
      </trkpt>
      <trkpt lat="46.6932" lon="5.54523">
        <ele>257.1</ele>
        <time>2020-03-13T10:47:26Z</time>
      </trkpt>
      <trkpt lat="46.69316" lon="5.54529">
        <ele>257.5</ele>
        <time>2020-03-13T10:47:38Z</time>
      </trkpt>
      <trkpt lat="46.69312" lon="5.54533">
        <ele>257.2</ele>
        <time>2020-03-13T10:47:47Z</time>
      </trkpt>
      <trkpt lat="46.69318" lon="5.54542">
        <ele>257.5</ele>
        <time>2020-03-13T11:32:50Z</time>
      </trkpt>
      <trkpt lat="46.69321" lon="5.54548">
        <ele>257</ele>
        <time>2020-03-13T11:32:54Z</time>
      </trkpt>
      <trkpt lat="46.69322" lon="5.54555">
        <ele>256.3</ele>
        <time>2020-03-13T11:32:58Z</time>
      </trkpt>
      <trkpt lat="46.69321" lon="5.54563">
        <ele>255.4</ele>
        <time>2020-03-13T11:33:04Z</time>
      </trkpt>
      <trkpt lat="46.69319" lon="5.54569">
        <ele>254.6</ele>
        <time>2020-03-13T11:33:09Z</time>
      </trkpt>
      <trkpt lat="46.69317" lon="5.54576">
        <ele>253.9</ele>
        <time>2020-03-13T11:33:15Z</time>
      </trkpt>
      <trkpt lat="46.69316" lon="5.54583">
        <ele>253.3</ele>
        <time>2020-03-13T11:33:19Z</time>
      </trkpt>
      <trkpt lat="46.69316" lon="5.5459">
        <ele>252.9</ele>
        <time>2020-03-13T11:33:24Z</time>
      </trkpt>
      <trkpt lat="46.69317" lon="5.54598">
        <ele>252.5</ele>
        <time>2020-03-13T11:33:33Z</time>
      </trkpt>
      <trkpt lat="46.69318" lon="5.54604">
        <ele>252.5</ele>
        <time>2020-03-13T11:33:38Z</time>
      </trkpt>
      <trkpt lat="46.6932" lon="5.54611">
        <ele>253</ele>
        <time>2020-03-13T11:33:43Z</time>
      </trkpt>
      <trkpt lat="46.69317" lon="5.54616">
        <ele>253.5</ele>
        <time>2020-03-13T11:33:51Z</time>
      </trkpt>
      <trkpt lat="46.69315" lon="5.54621">
        <ele>253.6</ele>
        <time>2020-03-13T11:33:57Z</time>
      </trkpt>
      <trkpt lat="46.69313" lon="5.54627">
        <ele>253.6</ele>
        <time>2020-03-13T11:34:06Z</time>
      </trkpt>
      <trkpt lat="46.69311" lon="5.54633">
        <ele>254.4</ele>
        <time>2020-03-13T11:34:16Z</time>
      </trkpt>
      <trkpt lat="46.69309" lon="5.5464">
        <ele>254.9</ele>
        <time>2020-03-13T11:34:23Z</time>
      </trkpt>
      <trkpt lat="46.69307" lon="5.54646">
        <ele>255.3</ele>
        <time>2020-03-13T11:34:29Z</time>
      </trkpt>
      <trkpt lat="46.69305" lon="5.54652">
        <ele>255.6</ele>
        <time>2020-03-13T11:34:35Z</time>
      </trkpt>
      <trkpt lat="46.69305" lon="5.5466">
        <ele>255.9</ele>
        <time>2020-03-13T11:34:41Z</time>
      </trkpt>
      <trkpt lat="46.69304" lon="5.54666">
        <ele>256.1</ele>
        <time>2020-03-13T11:34:47Z</time>
      </trkpt>
      <trkpt lat="46.69303" lon="5.54673">
        <ele>256</ele>
        <time>2020-03-13T11:34:53Z</time>
      </trkpt>
      <trkpt lat="46.69302" lon="5.5468">
        <ele>255.8</ele>
        <time>2020-03-13T11:34:57Z</time>
      </trkpt>
      <trkpt lat="46.69301" lon="5.54687">
        <ele>255.5</ele>
        <time>2020-03-13T11:35:01Z</time>
      </trkpt>
      <trkpt lat="46.69301" lon="5.54694">
        <ele>255.2</ele>
        <time>2020-03-13T11:35:06Z</time>
      </trkpt>
      <trkpt lat="46.693" lon="5.547">
        <ele>254.8</ele>
        <time>2020-03-13T11:35:12Z</time>
      </trkpt>
      <trkpt lat="46.69298" lon="5.54707">
        <ele>254.5</ele>
        <time>2020-03-13T11:35:18Z</time>
      </trkpt>
      <trkpt lat="46.69298" lon="5.54714">
        <ele>254.3</ele>
        <time>2020-03-13T11:35:24Z</time>
      </trkpt>
      <trkpt lat="46.69298" lon="5.54721">
        <ele>254.4</ele>
        <time>2020-03-13T11:35:30Z</time>
      </trkpt>
      <trkpt lat="46.69298" lon="5.54728">
        <ele>254.9</ele>
        <time>2020-03-13T11:35:36Z</time>
      </trkpt>
      <trkpt lat="46.69297" lon="5.54736">
        <ele>255.5</ele>
        <time>2020-03-13T11:35:42Z</time>
      </trkpt>
      <trkpt lat="46.69296" lon="5.54743">
        <ele>256.2</ele>
        <time>2020-03-13T11:35:49Z</time>
      </trkpt>
      <trkpt lat="46.69294" lon="5.54749">
        <ele>256.5</ele>
        <time>2020-03-13T11:35:54Z</time>
      </trkpt>
      <trkpt lat="46.69291" lon="5.54754">
        <ele>256.6</ele>
        <time>2020-03-13T11:36:00Z</time>
      </trkpt>
      <trkpt lat="46.69288" lon="5.5476">
        <ele>256.4</ele>
        <time>2020-03-13T11:36:08Z</time>
      </trkpt>
      <trkpt lat="46.69287" lon="5.54766">
        <ele>255.1</ele>
        <time>2020-03-13T11:36:17Z</time>
      </trkpt>
      <trkpt lat="46.69286" lon="5.54773">
        <ele>253.7</ele>
        <time>2020-03-13T11:36:25Z</time>
      </trkpt>
      <trkpt lat="46.69284" lon="5.5478">
        <ele>252.8</ele>
        <time>2020-03-13T11:36:31Z</time>
      </trkpt>
      <trkpt lat="46.69282" lon="5.54788">
        <ele>252.1</ele>
        <time>2020-03-13T11:36:36Z</time>
      </trkpt>
      <trkpt lat="46.69281" lon="5.54796">
        <ele>251.6</ele>
        <time>2020-03-13T11:36:40Z</time>
      </trkpt>
      <trkpt lat="46.6928" lon="5.54803">
        <ele>251.3</ele>
        <time>2020-03-13T11:36:45Z</time>
      </trkpt>
      <trkpt lat="46.69278" lon="5.5481">
        <ele>251.2</ele>
        <time>2020-03-13T11:36:50Z</time>
      </trkpt>
      <trkpt lat="46.69278" lon="5.54817">
        <ele>250.8</ele>
        <time>2020-03-13T11:36:57Z</time>
      </trkpt>
      <trkpt lat="46.69277" lon="5.54825">
        <ele>250.6</ele>
        <time>2020-03-13T11:37:02Z</time>
      </trkpt>
      <trkpt lat="46.69277" lon="5.54832">
        <ele>250.5</ele>
        <time>2020-03-13T11:37:07Z</time>
      </trkpt>
      <trkpt lat="46.69278" lon="5.5484">
        <ele>250.7</ele>
        <time>2020-03-13T11:37:13Z</time>
      </trkpt>
      <trkpt lat="46.69278" lon="5.54847">
        <ele>251</ele>
        <time>2020-03-13T11:37:18Z</time>
      </trkpt>
      <trkpt lat="46.69278" lon="5.54854">
        <ele>251.2</ele>
        <time>2020-03-13T11:37:22Z</time>
      </trkpt>
      <trkpt lat="46.69277" lon="5.54861">
        <ele>251.5</ele>
        <time>2020-03-13T11:37:27Z</time>
      </trkpt>
      <trkpt lat="46.69277" lon="5.54868">
        <ele>251.8</ele>
        <time>2020-03-13T11:37:33Z</time>
      </trkpt>
      <trkpt lat="46.69277" lon="5.54876">
        <ele>252</ele>
        <time>2020-03-13T11:37:39Z</time>
      </trkpt>
      <trkpt lat="46.69278" lon="5.54883">
        <ele>252</ele>
        <time>2020-03-13T11:37:46Z</time>
      </trkpt>
      <trkpt lat="46.69278" lon="5.5489">
        <ele>252.2</ele>
        <time>2020-03-13T11:37:51Z</time>
      </trkpt>
      <trkpt lat="46.69279" lon="5.54897">
        <ele>252.3</ele>
        <time>2020-03-13T11:37:57Z</time>
      </trkpt>
      <trkpt lat="46.69279" lon="5.54905">
        <ele>252.5</ele>
        <time>2020-03-13T11:38:02Z</time>
      </trkpt>
      <trkpt lat="46.6928" lon="5.54912">
        <ele>252.5</ele>
        <time>2020-03-13T11:38:07Z</time>
      </trkpt>
      <trkpt lat="46.69281" lon="5.54919">
        <ele>252.7</ele>
        <time>2020-03-13T11:38:13Z</time>
      </trkpt>
      <trkpt lat="46.6928" lon="5.54926">
        <ele>253.9</ele>
        <time>2020-03-13T11:38:19Z</time>
      </trkpt>
      <trkpt lat="46.69279" lon="5.54936">
        <ele>254.7</ele>
        <time>2020-03-13T11:38:22Z</time>
      </trkpt>
      <trkpt lat="46.69278" lon="5.54964">
        <ele>257.9</ele>
        <time>2020-03-13T11:38:31Z</time>
      </trkpt>
      <trkpt lat="46.6928" lon="5.54973">
        <ele>258.6</ele>
        <time>2020-03-13T11:38:35Z</time>
      </trkpt>
      <trkpt lat="46.69281" lon="5.5498">
        <ele>259.4</ele>
        <time>2020-03-13T11:38:39Z</time>
      </trkpt>
      <trkpt lat="46.69279" lon="5.54986">
        <ele>260.6</ele>
        <time>2020-03-13T11:38:44Z</time>
      </trkpt>
      <trkpt lat="46.69279" lon="5.54994">
        <ele>261.9</ele>
        <time>2020-03-13T11:38:52Z</time>
      </trkpt>
      <trkpt lat="46.6928" lon="5.55001">
        <ele>263.3</ele>
        <time>2020-03-13T11:39:01Z</time>
      </trkpt>
      <trkpt lat="46.69282" lon="5.55007">
        <ele>263.7</ele>
        <time>2020-03-13T11:39:06Z</time>
      </trkpt>
      <trkpt lat="46.69285" lon="5.55013">
        <ele>263.8</ele>
        <time>2020-03-13T11:39:10Z</time>
      </trkpt>
      <trkpt lat="46.69287" lon="5.5502">
        <ele>263.8</ele>
        <time>2020-03-13T11:39:14Z</time>
      </trkpt>
      <trkpt lat="46.6929" lon="5.55027">
        <ele>263.9</ele>
        <time>2020-03-13T11:39:19Z</time>
      </trkpt>
      <trkpt lat="46.69293" lon="5.55033">
        <ele>264.1</ele>
        <time>2020-03-13T11:39:23Z</time>
      </trkpt>
      <trkpt lat="46.69296" lon="5.5504">
        <ele>264.5</ele>
        <time>2020-03-13T11:39:28Z</time>
      </trkpt>
      <trkpt lat="46.69298" lon="5.55046">
        <ele>265.2</ele>
        <time>2020-03-13T11:39:34Z</time>
      </trkpt>
      <trkpt lat="46.693" lon="5.55053">
        <ele>265.8</ele>
        <time>2020-03-13T11:39:39Z</time>
      </trkpt>
      <trkpt lat="46.69302" lon="5.5506">
        <ele>266.6</ele>
        <time>2020-03-13T11:39:45Z</time>
      </trkpt>
      <trkpt lat="46.69304" lon="5.55067">
        <ele>267</ele>
        <time>2020-03-13T11:39:49Z</time>
      </trkpt>
      <trkpt lat="46.69306" lon="5.55073">
        <ele>267.1</ele>
        <time>2020-03-13T11:39:54Z</time>
      </trkpt>
      <trkpt lat="46.6931" lon="5.55078">
        <ele>266.3</ele>
        <time>2020-03-13T11:40:21Z</time>
      </trkpt>
      <trkpt lat="46.69312" lon="5.55083">
        <ele>265.4</ele>
        <time>2020-03-13T11:40:28Z</time>
      </trkpt>
      <trkpt lat="46.69314" lon="5.5509">
        <ele>265.2</ele>
        <time>2020-03-13T11:40:35Z</time>
      </trkpt>
      <trkpt lat="46.69317" lon="5.55095">
        <ele>265.2</ele>
        <time>2020-03-13T11:40:41Z</time>
      </trkpt>
      <trkpt lat="46.69321" lon="5.55099">
        <ele>265.3</ele>
        <time>2020-03-13T11:40:48Z</time>
      </trkpt>
      <trkpt lat="46.69325" lon="5.55099">
        <ele>265.8</ele>
        <time>2020-03-13T11:40:55Z</time>
      </trkpt>
      <trkpt lat="46.69331" lon="5.551">
        <ele>267.3</ele>
        <time>2020-03-13T11:41:05Z</time>
      </trkpt>
      <trkpt lat="46.69336" lon="5.551">
        <ele>268.5</ele>
        <time>2020-03-13T11:41:13Z</time>
      </trkpt>
      <trkpt lat="46.6934" lon="5.55097">
        <ele>269.3</ele>
        <time>2020-03-13T11:41:20Z</time>
      </trkpt>
      <trkpt lat="46.69345" lon="5.55095">
        <ele>270.9</ele>
        <time>2020-03-13T11:41:30Z</time>
      </trkpt>
      <trkpt lat="46.6935" lon="5.55096">
        <ele>273.7</ele>
        <time>2020-03-13T11:41:43Z</time>
      </trkpt>
      <trkpt lat="46.69354" lon="5.55096">
        <ele>275.8</ele>
        <time>2020-03-13T11:41:51Z</time>
      </trkpt>
      <trkpt lat="46.69359" lon="5.55096">
        <ele>278.5</ele>
        <time>2020-03-13T11:42:01Z</time>
      </trkpt>
      <trkpt lat="46.69364" lon="5.55097">
        <ele>280.5</ele>
        <time>2020-03-13T11:42:16Z</time>
      </trkpt>
      <trkpt lat="46.69368" lon="5.551">
        <ele>280.2</ele>
        <time>2020-03-13T11:42:29Z</time>
      </trkpt>
      <trkpt lat="46.69373" lon="5.55101">
        <ele>280.3</ele>
        <time>2020-03-13T11:42:36Z</time>
      </trkpt>
      <trkpt lat="46.69378" lon="5.55099">
        <ele>280.2</ele>
        <time>2020-03-13T11:42:42Z</time>
      </trkpt>
      <trkpt lat="46.69383" lon="5.55098">
        <ele>279</ele>
        <time>2020-03-13T11:42:50Z</time>
      </trkpt>
      <trkpt lat="46.69388" lon="5.55098">
        <ele>277.4</ele>
        <time>2020-03-13T11:42:58Z</time>
      </trkpt>
      <trkpt lat="46.69392" lon="5.551">
        <ele>276.4</ele>
        <time>2020-03-13T11:43:04Z</time>
      </trkpt>
      <trkpt lat="46.69397" lon="5.55104">
        <ele>275.6</ele>
        <time>2020-03-13T11:43:11Z</time>
      </trkpt>
      <trkpt lat="46.69402" lon="5.55104">
        <ele>275.2</ele>
        <time>2020-03-13T11:43:19Z</time>
      </trkpt>
      <trkpt lat="46.69407" lon="5.55105">
        <ele>275.4</ele>
        <time>2020-03-13T11:43:24Z</time>
      </trkpt>
      <trkpt lat="46.69411" lon="5.55105">
        <ele>275.4</ele>
        <time>2020-03-13T11:43:31Z</time>
      </trkpt>
      <trkpt lat="46.69417" lon="5.55105">
        <ele>275.1</ele>
        <time>2020-03-13T11:43:35Z</time>
      </trkpt>
      <trkpt lat="46.69422" lon="5.55105">
        <ele>274.6</ele>
        <time>2020-03-13T11:43:42Z</time>
      </trkpt>
      <trkpt lat="46.69426" lon="5.55108">
        <ele>274.3</ele>
        <time>2020-03-13T11:43:50Z</time>
      </trkpt>
      <trkpt lat="46.69431" lon="5.55109">
        <ele>273.5</ele>
        <time>2020-03-13T11:44:02Z</time>
      </trkpt>
      <trkpt lat="46.69435" lon="5.55111">
        <ele>273.3</ele>
        <time>2020-03-13T11:44:09Z</time>
      </trkpt>
      <trkpt lat="46.6944" lon="5.55111">
        <ele>273.4</ele>
        <time>2020-03-13T11:44:16Z</time>
      </trkpt>
      <trkpt lat="46.69445" lon="5.5511">
        <ele>273.6</ele>
        <time>2020-03-13T11:44:21Z</time>
      </trkpt>
      <trkpt lat="46.6945" lon="5.5511">
        <ele>273.8</ele>
        <time>2020-03-13T11:44:25Z</time>
      </trkpt>
      <trkpt lat="46.69455" lon="5.5511">
        <ele>274.1</ele>
        <time>2020-03-13T11:44:29Z</time>
      </trkpt>
      <trkpt lat="46.6946" lon="5.5511">
        <ele>274.8</ele>
        <time>2020-03-13T11:44:34Z</time>
      </trkpt>
      <trkpt lat="46.69465" lon="5.55111">
        <ele>275.7</ele>
        <time>2020-03-13T11:44:40Z</time>
      </trkpt>
      <trkpt lat="46.6947" lon="5.55114">
        <ele>276.5</ele>
        <time>2020-03-13T11:44:45Z</time>
      </trkpt>
      <trkpt lat="46.69475" lon="5.55115">
        <ele>277.5</ele>
        <time>2020-03-13T11:44:51Z</time>
      </trkpt>
      <trkpt lat="46.6948" lon="5.55117">
        <ele>278.3</ele>
        <time>2020-03-13T11:44:56Z</time>
      </trkpt>
      <trkpt lat="46.69485" lon="5.55119">
        <ele>279.1</ele>
        <time>2020-03-13T11:45:00Z</time>
      </trkpt>
      <trkpt lat="46.6949" lon="5.55121">
        <ele>279.7</ele>
        <time>2020-03-13T11:45:03Z</time>
      </trkpt>
      <trkpt lat="46.69494" lon="5.55125">
        <ele>280.5</ele>
        <time>2020-03-13T11:45:07Z</time>
      </trkpt>
      <trkpt lat="46.69498" lon="5.55128">
        <ele>281.6</ele>
        <time>2020-03-13T11:45:13Z</time>
      </trkpt>
      <trkpt lat="46.69503" lon="5.55127">
        <ele>283.3</ele>
        <time>2020-03-13T11:45:23Z</time>
      </trkpt>
      <trkpt lat="46.69508" lon="5.55124">
        <ele>284.3</ele>
        <time>2020-03-13T11:45:30Z</time>
      </trkpt>
      <trkpt lat="46.69512" lon="5.55122">
        <ele>285</ele>
        <time>2020-03-13T11:45:38Z</time>
      </trkpt>
      <trkpt lat="46.69518" lon="5.55123">
        <ele>285.3</ele>
        <time>2020-03-13T11:45:42Z</time>
      </trkpt>
      <trkpt lat="46.69523" lon="5.55126">
        <ele>285.5</ele>
        <time>2020-03-13T11:45:48Z</time>
      </trkpt>
      <trkpt lat="46.69525" lon="5.55132">
        <ele>285.8</ele>
        <time>2020-03-13T11:46:00Z</time>
      </trkpt>
      <trkpt lat="46.69527" lon="5.55138">
        <ele>285.8</ele>
        <time>2020-03-13T11:46:06Z</time>
      </trkpt>
      <trkpt lat="46.6953" lon="5.55143">
        <ele>285.8</ele>
        <time>2020-03-13T11:46:11Z</time>
      </trkpt>
      <trkpt lat="46.69535" lon="5.55146">
        <ele>285.9</ele>
        <time>2020-03-13T11:46:17Z</time>
      </trkpt>
      <trkpt lat="46.69539" lon="5.55147">
        <ele>286</ele>
        <time>2020-03-13T11:46:23Z</time>
      </trkpt>
      <trkpt lat="46.69545" lon="5.55148">
        <ele>286</ele>
        <time>2020-03-13T11:46:29Z</time>
      </trkpt>
      <trkpt lat="46.69549" lon="5.55149">
        <ele>286.1</ele>
        <time>2020-03-13T11:46:35Z</time>
      </trkpt>
      <trkpt lat="46.69554" lon="5.5515">
        <ele>286.1</ele>
        <time>2020-03-13T11:46:39Z</time>
      </trkpt>
      <trkpt lat="46.6956" lon="5.55152">
        <ele>286.1</ele>
        <time>2020-03-13T11:46:42Z</time>
      </trkpt>
      <trkpt lat="46.69565" lon="5.55152">
        <ele>286.3</ele>
        <time>2020-03-13T11:46:46Z</time>
      </trkpt>
      <trkpt lat="46.69569" lon="5.55153">
        <ele>286.8</ele>
        <time>2020-03-13T11:46:50Z</time>
      </trkpt>
      <trkpt lat="46.69575" lon="5.55154">
        <ele>290.6</ele>
        <time>2020-03-13T11:47:06Z</time>
      </trkpt>
      <trkpt lat="46.69579" lon="5.55155">
        <ele>292</ele>
        <time>2020-03-13T11:47:11Z</time>
      </trkpt>
      <trkpt lat="46.69584" lon="5.55157">
        <ele>293.6</ele>
        <time>2020-03-13T11:47:17Z</time>
      </trkpt>
      <trkpt lat="46.69589" lon="5.55158">
        <ele>294.7</ele>
        <time>2020-03-13T11:47:23Z</time>
      </trkpt>
      <trkpt lat="46.69594" lon="5.55159">
        <ele>295.7</ele>
        <time>2020-03-13T11:47:31Z</time>
      </trkpt>
      <trkpt lat="46.69598" lon="5.55157">
        <ele>297.4</ele>
        <time>2020-03-13T11:47:50Z</time>
      </trkpt>
      <trkpt lat="46.69603" lon="5.55157">
        <ele>298.3</ele>
        <time>2020-03-13T11:47:56Z</time>
      </trkpt>
      <trkpt lat="46.69609" lon="5.55158">
        <ele>299.2</ele>
        <time>2020-03-13T11:48:02Z</time>
      </trkpt>
      <trkpt lat="46.69614" lon="5.5516">
        <ele>299.9</ele>
        <time>2020-03-13T11:48:07Z</time>
      </trkpt>
      <trkpt lat="46.69619" lon="5.55161">
        <ele>300.7</ele>
        <time>2020-03-13T11:48:13Z</time>
      </trkpt>
      <trkpt lat="46.69624" lon="5.55163">
        <ele>301.4</ele>
        <time>2020-03-13T11:48:18Z</time>
      </trkpt>
      <trkpt lat="46.69629" lon="5.55166">
        <ele>302.1</ele>
        <time>2020-03-13T11:48:23Z</time>
      </trkpt>
      <trkpt lat="46.69633" lon="5.55171">
        <ele>302.5</ele>
        <time>2020-03-13T11:48:29Z</time>
      </trkpt>
      <trkpt lat="46.69637" lon="5.55174">
        <ele>303.2</ele>
        <time>2020-03-13T11:48:35Z</time>
      </trkpt>
      <trkpt lat="46.69642" lon="5.55177">
        <ele>304</ele>
        <time>2020-03-13T11:48:41Z</time>
      </trkpt>
      <trkpt lat="46.69646" lon="5.55181">
        <ele>304.4</ele>
        <time>2020-03-13T11:48:49Z</time>
      </trkpt>
      <trkpt lat="46.6965" lon="5.55184">
        <ele>304.7</ele>
        <time>2020-03-13T11:48:55Z</time>
      </trkpt>
      <trkpt lat="46.69654" lon="5.55189">
        <ele>305.1</ele>
        <time>2020-03-13T11:49:01Z</time>
      </trkpt>
      <trkpt lat="46.69657" lon="5.55193">
        <ele>305.6</ele>
        <time>2020-03-13T11:49:06Z</time>
      </trkpt>
      <trkpt lat="46.69661" lon="5.55198">
        <ele>305.7</ele>
        <time>2020-03-13T11:49:11Z</time>
      </trkpt>
      <trkpt lat="46.69665" lon="5.55203">
        <ele>305.7</ele>
        <time>2020-03-13T11:49:16Z</time>
      </trkpt>
      <trkpt lat="46.69669" lon="5.55208">
        <ele>305.9</ele>
        <time>2020-03-13T11:49:23Z</time>
      </trkpt>
      <trkpt lat="46.69672" lon="5.55213">
        <ele>306.1</ele>
        <time>2020-03-13T11:49:28Z</time>
      </trkpt>
      <trkpt lat="46.69676" lon="5.55218">
        <ele>306</ele>
        <time>2020-03-13T11:49:33Z</time>
      </trkpt>
      <trkpt lat="46.6968" lon="5.5522">
        <ele>305.4</ele>
        <time>2020-03-13T11:49:38Z</time>
      </trkpt>
      <trkpt lat="46.69684" lon="5.55225">
        <ele>304.4</ele>
        <time>2020-03-13T11:49:43Z</time>
      </trkpt>
      <trkpt lat="46.69687" lon="5.55231">
        <ele>303.6</ele>
        <time>2020-03-13T11:49:47Z</time>
      </trkpt>
      <trkpt lat="46.69689" lon="5.55237">
        <ele>302.3</ele>
        <time>2020-03-13T11:49:53Z</time>
      </trkpt>
      <trkpt lat="46.69692" lon="5.55243">
        <ele>300.7</ele>
        <time>2020-03-13T11:50:00Z</time>
      </trkpt>
      <trkpt lat="46.69695" lon="5.55248">
        <ele>299.5</ele>
        <time>2020-03-13T11:50:05Z</time>
      </trkpt>
      <trkpt lat="46.69699" lon="5.55253">
        <ele>298.1</ele>
        <time>2020-03-13T11:50:11Z</time>
      </trkpt>
      <trkpt lat="46.69703" lon="5.55258">
        <ele>297.1</ele>
        <time>2020-03-13T11:50:16Z</time>
      </trkpt>
      <trkpt lat="46.69705" lon="5.55264">
        <ele>295.6</ele>
        <time>2020-03-13T11:50:24Z</time>
      </trkpt>
      <trkpt lat="46.69708" lon="5.55269">
        <ele>294.1</ele>
        <time>2020-03-13T11:50:31Z</time>
      </trkpt>
      <trkpt lat="46.69712" lon="5.55273">
        <ele>292.9</ele>
        <time>2020-03-13T11:50:36Z</time>
      </trkpt>
      <trkpt lat="46.69717" lon="5.55276">
        <ele>291.9</ele>
        <time>2020-03-13T11:50:41Z</time>
      </trkpt>
      <trkpt lat="46.69721" lon="5.55279">
        <ele>291.3</ele>
        <time>2020-03-13T11:50:45Z</time>
      </trkpt>
      <trkpt lat="46.69726" lon="5.55282">
        <ele>290.8</ele>
        <time>2020-03-13T11:50:49Z</time>
      </trkpt>
      <trkpt lat="46.69731" lon="5.55284">
        <ele>290.1</ele>
        <time>2020-03-13T11:50:56Z</time>
      </trkpt>
      <trkpt lat="46.69736" lon="5.55284">
        <ele>289.8</ele>
        <time>2020-03-13T11:51:01Z</time>
      </trkpt>
      <trkpt lat="46.69741" lon="5.55286">
        <ele>289.6</ele>
        <time>2020-03-13T11:51:07Z</time>
      </trkpt>
      <trkpt lat="46.69746" lon="5.55288">
        <ele>289.7</ele>
        <time>2020-03-13T11:51:19Z</time>
      </trkpt>
      <trkpt lat="46.69751" lon="5.5529">
        <ele>289.6</ele>
        <time>2020-03-13T11:51:25Z</time>
      </trkpt>
      <trkpt lat="46.69755" lon="5.55288">
        <ele>289.7</ele>
        <time>2020-03-13T11:51:45Z</time>
      </trkpt>
      <trkpt lat="46.6976" lon="5.5529">
        <ele>289.6</ele>
        <time>2020-03-13T11:51:51Z</time>
      </trkpt>
      <trkpt lat="46.69765" lon="5.55292">
        <ele>289.4</ele>
        <time>2020-03-13T11:51:57Z</time>
      </trkpt>
      <trkpt lat="46.69769" lon="5.55295">
        <ele>289.2</ele>
        <time>2020-03-13T11:52:04Z</time>
      </trkpt>
      <trkpt lat="46.69772" lon="5.55301">
        <ele>288.8</ele>
        <time>2020-03-13T11:52:10Z</time>
      </trkpt>
      <trkpt lat="46.69774" lon="5.55308">
        <ele>288.1</ele>
        <time>2020-03-13T11:52:15Z</time>
      </trkpt>
      <trkpt lat="46.69777" lon="5.55314">
        <ele>287.3</ele>
        <time>2020-03-13T11:52:20Z</time>
      </trkpt>
      <trkpt lat="46.69778" lon="5.55321">
        <ele>285.8</ele>
        <time>2020-03-13T11:52:28Z</time>
      </trkpt>
      <trkpt lat="46.6978" lon="5.55328">
        <ele>284.1</ele>
        <time>2020-03-13T11:52:35Z</time>
      </trkpt>
      <trkpt lat="46.69781" lon="5.55334">
        <ele>282.8</ele>
        <time>2020-03-13T11:52:40Z</time>
      </trkpt>
      <trkpt lat="46.69782" lon="5.55341">
        <ele>281</ele>
        <time>2020-03-13T11:52:47Z</time>
      </trkpt>
      <trkpt lat="46.69783" lon="5.55349">
        <ele>279.5</ele>
        <time>2020-03-13T11:52:52Z</time>
      </trkpt>
      <trkpt lat="46.69786" lon="5.55355">
        <ele>277.3</ele>
        <time>2020-03-13T11:52:59Z</time>
      </trkpt>
      <trkpt lat="46.69787" lon="5.55361">
        <ele>275.5</ele>
        <time>2020-03-13T11:53:06Z</time>
      </trkpt>
      <trkpt lat="46.69788" lon="5.55368">
        <ele>274.4</ele>
        <time>2020-03-13T11:53:12Z</time>
      </trkpt>
      <trkpt lat="46.69788" lon="5.55375">
        <ele>273.8</ele>
        <time>2020-03-13T11:53:16Z</time>
      </trkpt>
      <trkpt lat="46.69788" lon="5.55383">
        <ele>273.2</ele>
        <time>2020-03-13T11:53:21Z</time>
      </trkpt>
      <trkpt lat="46.69787" lon="5.5539">
        <ele>272.4</ele>
        <time>2020-03-13T11:53:27Z</time>
      </trkpt>
      <trkpt lat="46.69789" lon="5.55397">
        <ele>271.3</ele>
        <time>2020-03-13T11:53:32Z</time>
      </trkpt>
      <trkpt lat="46.69789" lon="5.55403">
        <ele>270.1</ele>
        <time>2020-03-13T11:53:38Z</time>
      </trkpt>
      <trkpt lat="46.69791" lon="5.55411">
        <ele>268.9</ele>
        <time>2020-03-13T11:53:44Z</time>
      </trkpt>
      <trkpt lat="46.69793" lon="5.55418">
        <ele>268.2</ele>
        <time>2020-03-13T11:53:49Z</time>
      </trkpt>
      <trkpt lat="46.69795" lon="5.55424">
        <ele>267.8</ele>
        <time>2020-03-13T11:53:54Z</time>
      </trkpt>
      <trkpt lat="46.69796" lon="5.5543">
        <ele>267.8</ele>
        <time>2020-03-13T11:54:01Z</time>
      </trkpt>
      <trkpt lat="46.69799" lon="5.55437">
        <ele>267.4</ele>
        <time>2020-03-13T11:54:07Z</time>
      </trkpt>
      <trkpt lat="46.698" lon="5.55444">
        <ele>266</ele>
        <time>2020-03-13T11:54:14Z</time>
      </trkpt>
      <trkpt lat="46.69802" lon="5.5545">
        <ele>264.5</ele>
        <time>2020-03-13T11:54:21Z</time>
      </trkpt>
      <trkpt lat="46.69804" lon="5.55457">
        <ele>263.8</ele>
        <time>2020-03-13T11:54:28Z</time>
      </trkpt>
      <trkpt lat="46.69805" lon="5.55464">
        <ele>263.5</ele>
        <time>2020-03-13T11:54:34Z</time>
      </trkpt>
      <trkpt lat="46.69807" lon="5.55471">
        <ele>263</ele>
        <time>2020-03-13T11:54:39Z</time>
      </trkpt>
      <trkpt lat="46.69808" lon="5.55479">
        <ele>262.6</ele>
        <time>2020-03-13T11:54:44Z</time>
      </trkpt>
      <trkpt lat="46.69809" lon="5.55486">
        <ele>262.2</ele>
        <time>2020-03-13T11:54:48Z</time>
      </trkpt>
      <trkpt lat="46.6981" lon="5.55493">
        <ele>262.1</ele>
        <time>2020-03-13T11:54:53Z</time>
      </trkpt>
      <trkpt lat="46.69814" lon="5.55497">
        <ele>262.4</ele>
        <time>2020-03-13T11:54:58Z</time>
      </trkpt>
      <trkpt lat="46.69819" lon="5.555">
        <ele>263.2</ele>
        <time>2020-03-13T11:55:04Z</time>
      </trkpt>
      <trkpt lat="46.69823" lon="5.55503">
        <ele>264.2</ele>
        <time>2020-03-13T11:55:09Z</time>
      </trkpt>
      <trkpt lat="46.69828" lon="5.55504">
        <ele>264.9</ele>
        <time>2020-03-13T11:55:13Z</time>
      </trkpt>
      <trkpt lat="46.69833" lon="5.55507">
        <ele>265.4</ele>
        <time>2020-03-13T11:55:17Z</time>
      </trkpt>
      <trkpt lat="46.69838" lon="5.55509">
        <ele>265.7</ele>
        <time>2020-03-13T11:55:22Z</time>
      </trkpt>
      <trkpt lat="46.69843" lon="5.5551">
        <ele>265.7</ele>
        <time>2020-03-13T11:55:27Z</time>
      </trkpt>
      <trkpt lat="46.69847" lon="5.55511">
        <ele>265.8</ele>
        <time>2020-03-13T11:55:33Z</time>
      </trkpt>
      <trkpt lat="46.69852" lon="5.55514">
        <ele>265.7</ele>
        <time>2020-03-13T11:55:37Z</time>
      </trkpt>
      <trkpt lat="46.69857" lon="5.55518">
        <ele>265.5</ele>
        <time>2020-03-13T11:55:42Z</time>
      </trkpt>
      <trkpt lat="46.69861" lon="5.55523">
        <ele>265.3</ele>
        <time>2020-03-13T11:55:46Z</time>
      </trkpt>
      <trkpt lat="46.69865" lon="5.55529">
        <ele>265</ele>
        <time>2020-03-13T11:55:50Z</time>
      </trkpt>
      <trkpt lat="46.69867" lon="5.55534">
        <ele>264.8</ele>
        <time>2020-03-13T11:55:54Z</time>
      </trkpt>
      <trkpt lat="46.69869" lon="5.5554">
        <ele>264.5</ele>
        <time>2020-03-13T11:55:58Z</time>
      </trkpt>
      <trkpt lat="46.69869" lon="5.55548">
        <ele>264.1</ele>
        <time>2020-03-13T11:56:03Z</time>
      </trkpt>
      <trkpt lat="46.69869" lon="5.55555">
        <ele>263.7</ele>
        <time>2020-03-13T11:56:08Z</time>
      </trkpt>
      <trkpt lat="46.69872" lon="5.5556">
        <ele>263.2</ele>
        <time>2020-03-13T11:56:19Z</time>
      </trkpt>
      <trkpt lat="46.69869" lon="5.55566">
        <ele>263.3</ele>
        <time>2020-03-13T11:56:28Z</time>
      </trkpt>
      <trkpt lat="46.69868" lon="5.55573">
        <ele>262.8</ele>
        <time>2020-03-13T11:56:38Z</time>
      </trkpt>
      <trkpt lat="46.69866" lon="5.55582">
        <ele>261.2</ele>
        <time>2020-03-13T11:56:54Z</time>
      </trkpt>
      <trkpt lat="46.69866" lon="5.5559">
        <ele>260.9</ele>
        <time>2020-03-13T11:57:02Z</time>
      </trkpt>
      <trkpt lat="46.69865" lon="5.55597">
        <ele>260.7</ele>
        <time>2020-03-13T11:57:08Z</time>
      </trkpt>
      <trkpt lat="46.69869" lon="5.55603">
        <ele>260.6</ele>
        <time>2020-03-13T11:57:12Z</time>
      </trkpt>
      <trkpt lat="46.69874" lon="5.55604">
        <ele>261</ele>
        <time>2020-03-13T11:57:18Z</time>
      </trkpt>
      <trkpt lat="46.69879" lon="5.55604">
        <ele>261.8</ele>
        <time>2020-03-13T11:57:26Z</time>
      </trkpt>
      <trkpt lat="46.69884" lon="5.55606">
        <ele>262.9</ele>
        <time>2020-03-13T11:57:32Z</time>
      </trkpt>
      <trkpt lat="46.69888" lon="5.55608">
        <ele>264.2</ele>
        <time>2020-03-13T11:57:38Z</time>
      </trkpt>
      <trkpt lat="46.69893" lon="5.55611">
        <ele>265.5</ele>
        <time>2020-03-13T11:57:43Z</time>
      </trkpt>
      <trkpt lat="46.69898" lon="5.55614">
        <ele>267.1</ele>
        <time>2020-03-13T11:57:50Z</time>
      </trkpt>
      <trkpt lat="46.69901" lon="5.55619">
        <ele>268.2</ele>
        <time>2020-03-13T11:57:56Z</time>
      </trkpt>
      <trkpt lat="46.69905" lon="5.55624">
        <ele>268.7</ele>
        <time>2020-03-13T11:58:01Z</time>
      </trkpt>
      <trkpt lat="46.69907" lon="5.55631">
        <ele>269.2</ele>
        <time>2020-03-13T11:58:07Z</time>
      </trkpt>
      <trkpt lat="46.69911" lon="5.55635">
        <ele>269.9</ele>
        <time>2020-03-13T11:58:14Z</time>
      </trkpt>
      <trkpt lat="46.69915" lon="5.5564">
        <ele>270.5</ele>
        <time>2020-03-13T11:58:20Z</time>
      </trkpt>
      <trkpt lat="46.69919" lon="5.55645">
        <ele>271</ele>
        <time>2020-03-13T11:58:26Z</time>
      </trkpt>
      <trkpt lat="46.69926" lon="5.5565">
        <ele>272</ele>
        <time>2020-03-13T11:58:47Z</time>
      </trkpt>
      <trkpt lat="46.6993" lon="5.55651">
        <ele>272.3</ele>
        <time>2020-03-13T11:58:54Z</time>
      </trkpt>
      <trkpt lat="46.69934" lon="5.55655">
        <ele>272.6</ele>
        <time>2020-03-13T11:59:01Z</time>
      </trkpt>
      <trkpt lat="46.69938" lon="5.55677">
        <ele>275</ele>
        <time>2020-03-13T11:59:26Z</time>
      </trkpt>
      <trkpt lat="46.69941" lon="5.55683">
        <ele>275.1</ele>
        <time>2020-03-13T11:59:33Z</time>
      </trkpt>
      <trkpt lat="46.6995" lon="5.55692">
        <ele>275.4</ele>
        <time>2020-03-13T11:59:45Z</time>
      </trkpt>
      <trkpt lat="46.69954" lon="5.55698">
        <ele>275.9</ele>
        <time>2020-03-13T11:59:50Z</time>
      </trkpt>
      <trkpt lat="46.69956" lon="5.55705">
        <ele>276.7</ele>
        <time>2020-03-13T11:59:55Z</time>
      </trkpt>
      <trkpt lat="46.69959" lon="5.55711">
        <ele>277.6</ele>
        <time>2020-03-13T12:00:00Z</time>
      </trkpt>
      <trkpt lat="46.69961" lon="5.55717">
        <ele>279.1</ele>
        <time>2020-03-13T12:00:07Z</time>
      </trkpt>
      <trkpt lat="46.69963" lon="5.55724">
        <ele>280.2</ele>
        <time>2020-03-13T12:00:12Z</time>
      </trkpt>
      <trkpt lat="46.69964" lon="5.55731">
        <ele>281.5</ele>
        <time>2020-03-13T12:00:17Z</time>
      </trkpt>
      <trkpt lat="46.69966" lon="5.55737">
        <ele>282.6</ele>
        <time>2020-03-13T12:00:23Z</time>
      </trkpt>
      <trkpt lat="46.69968" lon="5.55743">
        <ele>284.9</ele>
        <time>2020-03-13T12:00:35Z</time>
      </trkpt>
      <trkpt lat="46.69972" lon="5.55748">
        <ele>285.8</ele>
        <time>2020-03-13T12:00:43Z</time>
      </trkpt>
      <trkpt lat="46.69977" lon="5.55752">
        <ele>286</ele>
        <time>2020-03-13T12:00:50Z</time>
      </trkpt>
      <trkpt lat="46.6998" lon="5.55757">
        <ele>286.2</ele>
        <time>2020-03-13T12:00:57Z</time>
      </trkpt>
      <trkpt lat="46.69982" lon="5.55763">
        <ele>286.2</ele>
        <time>2020-03-13T12:01:06Z</time>
      </trkpt>
      <trkpt lat="46.69986" lon="5.55768">
        <ele>286.2</ele>
        <time>2020-03-13T12:01:13Z</time>
      </trkpt>
      <trkpt lat="46.6999" lon="5.55771">
        <ele>286.2</ele>
        <time>2020-03-13T12:01:18Z</time>
      </trkpt>
      <trkpt lat="46.69994" lon="5.55775">
        <ele>286.4</ele>
        <time>2020-03-13T12:01:23Z</time>
      </trkpt>
      <trkpt lat="46.69997" lon="5.55781">
        <ele>286.6</ele>
        <time>2020-03-13T12:01:29Z</time>
      </trkpt>
      <trkpt lat="46.70001" lon="5.55785">
        <ele>286.8</ele>
        <time>2020-03-13T12:01:35Z</time>
      </trkpt>
      <trkpt lat="46.70005" lon="5.55789">
        <ele>287.2</ele>
        <time>2020-03-13T12:01:46Z</time>
      </trkpt>
      <trkpt lat="46.70009" lon="5.55792">
        <ele>287.8</ele>
        <time>2020-03-13T12:01:54Z</time>
      </trkpt>
      <trkpt lat="46.70014" lon="5.55795">
        <ele>288.1</ele>
        <time>2020-03-13T12:02:00Z</time>
      </trkpt>
      <trkpt lat="46.7002" lon="5.55796">
        <ele>288.6</ele>
        <time>2020-03-13T12:02:05Z</time>
      </trkpt>
      <trkpt lat="46.70025" lon="5.55798">
        <ele>289.3</ele>
        <time>2020-03-13T12:02:10Z</time>
      </trkpt>
      <trkpt lat="46.70029" lon="5.558">
        <ele>289.9</ele>
        <time>2020-03-13T12:02:14Z</time>
      </trkpt>
      <trkpt lat="46.70034" lon="5.55801">
        <ele>290.6</ele>
        <time>2020-03-13T12:02:18Z</time>
      </trkpt>
      <trkpt lat="46.70039" lon="5.55804">
        <ele>291.5</ele>
        <time>2020-03-13T12:02:24Z</time>
      </trkpt>
      <trkpt lat="46.70043" lon="5.55806">
        <ele>292.7</ele>
        <time>2020-03-13T12:02:30Z</time>
      </trkpt>
      <trkpt lat="46.70048" lon="5.55806">
        <ele>294.3</ele>
        <time>2020-03-13T12:02:37Z</time>
      </trkpt>
      <trkpt lat="46.70053" lon="5.55807">
        <ele>295.3</ele>
        <time>2020-03-13T12:02:42Z</time>
      </trkpt>
      <trkpt lat="46.70058" lon="5.55808">
        <ele>296.3</ele>
        <time>2020-03-13T12:02:47Z</time>
      </trkpt>
      <trkpt lat="46.70063" lon="5.55809">
        <ele>297.4</ele>
        <time>2020-03-13T12:02:52Z</time>
      </trkpt>
      <trkpt lat="46.70068" lon="5.55809">
        <ele>298.4</ele>
        <time>2020-03-13T12:02:57Z</time>
      </trkpt>
      <trkpt lat="46.70072" lon="5.55811">
        <ele>299.5</ele>
        <time>2020-03-13T12:03:02Z</time>
      </trkpt>
      <trkpt lat="46.70077" lon="5.55813">
        <ele>300.9</ele>
        <time>2020-03-13T12:03:09Z</time>
      </trkpt>
      <trkpt lat="46.70081" lon="5.55816">
        <ele>301.9</ele>
        <time>2020-03-13T12:03:15Z</time>
      </trkpt>
      <trkpt lat="46.70084" lon="5.5582">
        <ele>303.6</ele>
        <time>2020-03-13T12:03:33Z</time>
      </trkpt>
      <trkpt lat="46.70088" lon="5.55825">
        <ele>303</ele>
        <time>2020-03-13T12:03:52Z</time>
      </trkpt>
      <trkpt lat="46.7009" lon="5.55831">
        <ele>302.5</ele>
        <time>2020-03-13T12:03:59Z</time>
      </trkpt>
      <trkpt lat="46.70092" lon="5.55838">
        <ele>302.5</ele>
        <time>2020-03-13T12:04:05Z</time>
      </trkpt>
      <trkpt lat="46.70092" lon="5.55845">
        <ele>302.5</ele>
        <time>2020-03-13T12:04:10Z</time>
      </trkpt>
      <trkpt lat="46.70091" lon="5.55852">
        <ele>302.7</ele>
        <time>2020-03-13T12:04:16Z</time>
      </trkpt>
      <trkpt lat="46.7009" lon="5.55859">
        <ele>302.9</ele>
        <time>2020-03-13T12:04:22Z</time>
      </trkpt>
      <trkpt lat="46.70091" lon="5.55865">
        <ele>302.9</ele>
        <time>2020-03-13T12:04:27Z</time>
      </trkpt>
      <trkpt lat="46.70091" lon="5.55872">
        <ele>302.9</ele>
        <time>2020-03-13T12:04:32Z</time>
      </trkpt>
      <trkpt lat="46.70091" lon="5.5588">
        <ele>302.7</ele>
        <time>2020-03-13T12:04:37Z</time>
      </trkpt>
      <trkpt lat="46.70092" lon="5.55887">
        <ele>302.1</ele>
        <time>2020-03-13T12:04:44Z</time>
      </trkpt>
      <trkpt lat="46.70093" lon="5.55894">
        <ele>301.5</ele>
        <time>2020-03-13T12:04:51Z</time>
      </trkpt>
      <trkpt lat="46.70094" lon="5.55901">
        <ele>300.2</ele>
        <time>2020-03-13T12:04:59Z</time>
      </trkpt>
      <trkpt lat="46.70094" lon="5.55908">
        <ele>299.3</ele>
        <time>2020-03-13T12:05:06Z</time>
      </trkpt>
      <trkpt lat="46.70095" lon="5.55915">
        <ele>298.5</ele>
        <time>2020-03-13T12:05:15Z</time>
      </trkpt>
      <trkpt lat="46.70096" lon="5.55922">
        <ele>298.3</ele>
        <time>2020-03-13T12:05:22Z</time>
      </trkpt>
      <trkpt lat="46.70098" lon="5.55928">
        <ele>298.4</ele>
        <time>2020-03-13T12:05:28Z</time>
      </trkpt>
      <trkpt lat="46.70098" lon="5.55935">
        <ele>298.4</ele>
        <time>2020-03-13T12:05:34Z</time>
      </trkpt>
      <trkpt lat="46.70098" lon="5.55943">
        <ele>298.5</ele>
        <time>2020-03-13T12:05:40Z</time>
      </trkpt>
      <trkpt lat="46.70098" lon="5.5595">
        <ele>298.6</ele>
        <time>2020-03-13T12:05:45Z</time>
      </trkpt>
      <trkpt lat="46.70098" lon="5.55956">
        <ele>298.6</ele>
        <time>2020-03-13T12:05:49Z</time>
      </trkpt>
      <trkpt lat="46.70098" lon="5.55964">
        <ele>298.7</ele>
        <time>2020-03-13T12:05:54Z</time>
      </trkpt>
      <trkpt lat="46.70097" lon="5.55971">
        <ele>298.7</ele>
        <time>2020-03-13T12:05:59Z</time>
      </trkpt>
      <trkpt lat="46.70096" lon="5.55978">
        <ele>298.7</ele>
        <time>2020-03-13T12:06:03Z</time>
      </trkpt>
      <trkpt lat="46.70096" lon="5.55985">
        <ele>298.7</ele>
        <time>2020-03-13T12:06:07Z</time>
      </trkpt>
      <trkpt lat="46.70095" lon="5.55992">
        <ele>298.8</ele>
        <time>2020-03-13T12:06:12Z</time>
      </trkpt>
      <trkpt lat="46.70095" lon="5.55999">
        <ele>298.9</ele>
        <time>2020-03-13T12:06:17Z</time>
      </trkpt>
      <trkpt lat="46.70094" lon="5.56006">
        <ele>299.2</ele>
        <time>2020-03-13T12:06:23Z</time>
      </trkpt>
      <trkpt lat="46.70094" lon="5.56013">
        <ele>299.5</ele>
        <time>2020-03-13T12:06:29Z</time>
      </trkpt>
      <trkpt lat="46.70093" lon="5.5602">
        <ele>299.6</ele>
        <time>2020-03-13T12:06:33Z</time>
      </trkpt>
      <trkpt lat="46.70093" lon="5.56026">
        <ele>299.8</ele>
        <time>2020-03-13T12:06:37Z</time>
      </trkpt>
      <trkpt lat="46.70093" lon="5.56033">
        <ele>299.9</ele>
        <time>2020-03-13T12:06:41Z</time>
      </trkpt>
      <trkpt lat="46.70092" lon="5.56041">
        <ele>300.1</ele>
        <time>2020-03-13T12:06:46Z</time>
      </trkpt>
      <trkpt lat="46.70091" lon="5.56047">
        <ele>300.3</ele>
        <time>2020-03-13T12:06:51Z</time>
      </trkpt>
      <trkpt lat="46.70091" lon="5.56054">
        <ele>300.6</ele>
        <time>2020-03-13T12:06:56Z</time>
      </trkpt>
      <trkpt lat="46.7009" lon="5.56062">
        <ele>300.9</ele>
        <time>2020-03-13T12:07:02Z</time>
      </trkpt>
      <trkpt lat="46.70089" lon="5.56069">
        <ele>300.8</ele>
        <time>2020-03-13T12:07:07Z</time>
      </trkpt>
      <trkpt lat="46.70088" lon="5.56076">
        <ele>300.7</ele>
        <time>2020-03-13T12:07:11Z</time>
      </trkpt>
      <trkpt lat="46.70087" lon="5.56083">
        <ele>300.6</ele>
        <time>2020-03-13T12:07:15Z</time>
      </trkpt>
      <trkpt lat="46.70088" lon="5.5609">
        <ele>300.5</ele>
        <time>2020-03-13T12:07:19Z</time>
      </trkpt>
      <trkpt lat="46.70087" lon="5.56096">
        <ele>300.6</ele>
        <time>2020-03-13T12:07:24Z</time>
      </trkpt>
      <trkpt lat="46.70087" lon="5.56103">
        <ele>300.7</ele>
        <time>2020-03-13T12:07:29Z</time>
      </trkpt>
      <trkpt lat="46.70086" lon="5.5611">
        <ele>300.9</ele>
        <time>2020-03-13T12:07:33Z</time>
      </trkpt>
      <trkpt lat="46.70085" lon="5.56117">
        <ele>301</ele>
        <time>2020-03-13T12:07:37Z</time>
      </trkpt>
      <trkpt lat="46.70085" lon="5.56124">
        <ele>301.2</ele>
        <time>2020-03-13T12:07:41Z</time>
      </trkpt>
      <trkpt lat="46.70085" lon="5.56131">
        <ele>301.6</ele>
        <time>2020-03-13T12:07:46Z</time>
      </trkpt>
      <trkpt lat="46.70083" lon="5.56139">
        <ele>301.9</ele>
        <time>2020-03-13T12:07:52Z</time>
      </trkpt>
      <trkpt lat="46.70082" lon="5.56146">
        <ele>301.9</ele>
        <time>2020-03-13T12:07:58Z</time>
      </trkpt>
      <trkpt lat="46.70079" lon="5.56152">
        <ele>302.3</ele>
        <time>2020-03-13T12:08:03Z</time>
      </trkpt>
      <trkpt lat="46.70077" lon="5.5616">
        <ele>302.6</ele>
        <time>2020-03-13T12:08:07Z</time>
      </trkpt>
      <trkpt lat="46.70077" lon="5.56167">
        <ele>302.8</ele>
        <time>2020-03-13T12:08:11Z</time>
      </trkpt>
      <trkpt lat="46.70076" lon="5.56174">
        <ele>303</ele>
        <time>2020-03-13T12:08:14Z</time>
      </trkpt>
      <trkpt lat="46.70074" lon="5.56182">
        <ele>302.9</ele>
        <time>2020-03-13T12:08:18Z</time>
      </trkpt>
      <trkpt lat="46.70072" lon="5.56189">
        <ele>302.6</ele>
        <time>2020-03-13T12:08:22Z</time>
      </trkpt>
      <trkpt lat="46.70069" lon="5.56195">
        <ele>301.9</ele>
        <time>2020-03-13T12:08:27Z</time>
      </trkpt>
      <trkpt lat="46.70066" lon="5.56201">
        <ele>301.4</ele>
        <time>2020-03-13T12:08:32Z</time>
      </trkpt>
      <trkpt lat="46.70065" lon="5.56208">
        <ele>301</ele>
        <time>2020-03-13T12:08:38Z</time>
      </trkpt>
      <trkpt lat="46.70063" lon="5.56215">
        <ele>300.8</ele>
        <time>2020-03-13T12:08:43Z</time>
      </trkpt>
      <trkpt lat="46.70062" lon="5.56221">
        <ele>300.5</ele>
        <time>2020-03-13T12:08:49Z</time>
      </trkpt>
      <trkpt lat="46.70059" lon="5.56228">
        <ele>300.5</ele>
        <time>2020-03-13T12:08:55Z</time>
      </trkpt>
      <trkpt lat="46.70054" lon="5.5623">
        <ele>300.8</ele>
        <time>2020-03-13T12:09:01Z</time>
      </trkpt>
      <trkpt lat="46.70049" lon="5.5623">
        <ele>301.1</ele>
        <time>2020-03-13T12:09:06Z</time>
      </trkpt>
      <trkpt lat="46.70045" lon="5.56234">
        <ele>301.1</ele>
        <time>2020-03-13T12:09:12Z</time>
      </trkpt>
      <trkpt lat="46.70042" lon="5.56241">
        <ele>301.3</ele>
        <time>2020-03-13T12:09:18Z</time>
      </trkpt>
      <trkpt lat="46.70039" lon="5.56246">
        <ele>301.8</ele>
        <time>2020-03-13T12:09:26Z</time>
      </trkpt>
      <trkpt lat="46.70037" lon="5.56257">
        <ele>313.1</ele>
        <time>2020-03-13T12:15:25Z</time>
      </trkpt>
      <trkpt lat="46.70038" lon="5.56263">
        <ele>311.7</ele>
        <time>2020-03-13T12:15:54Z</time>
      </trkpt>
      <trkpt lat="46.70038" lon="5.5627">
        <ele>311.6</ele>
        <time>2020-03-13T12:15:57Z</time>
      </trkpt>
      <trkpt lat="46.70039" lon="5.56277">
        <ele>311.7</ele>
        <time>2020-03-13T12:16:02Z</time>
      </trkpt>
      <trkpt lat="46.70041" lon="5.56284">
        <ele>312</ele>
        <time>2020-03-13T12:16:07Z</time>
      </trkpt>
      <trkpt lat="46.70037" lon="5.56288">
        <ele>312.9</ele>
        <time>2020-03-13T12:16:20Z</time>
      </trkpt>
      <trkpt lat="46.70039" lon="5.56294">
        <ele>313.5</ele>
        <time>2020-03-13T12:16:31Z</time>
      </trkpt>
      <trkpt lat="46.70037" lon="5.563">
        <ele>313.6</ele>
        <time>2020-03-13T12:16:54Z</time>
      </trkpt>
      <trkpt lat="46.70035" lon="5.56306">
        <ele>312.4</ele>
        <time>2020-03-13T12:17:17Z</time>
      </trkpt>
      <trkpt lat="46.70035" lon="5.56314">
        <ele>312.4</ele>
        <time>2020-03-13T12:17:22Z</time>
      </trkpt>
      <trkpt lat="46.70035" lon="5.56322">
        <ele>312.3</ele>
        <time>2020-03-13T12:17:27Z</time>
      </trkpt>
      <trkpt lat="46.70034" lon="5.56329">
        <ele>312.2</ele>
        <time>2020-03-13T12:17:31Z</time>
      </trkpt>
      <trkpt lat="46.70033" lon="5.56336">
        <ele>312</ele>
        <time>2020-03-13T12:17:35Z</time>
      </trkpt>
      <trkpt lat="46.70032" lon="5.56344">
        <ele>311.8</ele>
        <time>2020-03-13T12:17:40Z</time>
      </trkpt>
      <trkpt lat="46.70032" lon="5.56351">
        <ele>311.6</ele>
        <time>2020-03-13T12:17:46Z</time>
      </trkpt>
      <trkpt lat="46.70031" lon="5.56358">
        <ele>311.6</ele>
        <time>2020-03-13T12:17:51Z</time>
      </trkpt>
      <trkpt lat="46.7003" lon="5.56367">
        <ele>311.7</ele>
        <time>2020-03-13T12:17:56Z</time>
      </trkpt>
      <trkpt lat="46.70029" lon="5.56374">
        <ele>311.8</ele>
        <time>2020-03-13T12:18:02Z</time>
      </trkpt>
      <trkpt lat="46.70028" lon="5.56381">
        <ele>311.8</ele>
        <time>2020-03-13T12:18:07Z</time>
      </trkpt>
      <trkpt lat="46.70027" lon="5.56388">
        <ele>311.8</ele>
        <time>2020-03-13T12:18:12Z</time>
      </trkpt>
      <trkpt lat="46.70027" lon="5.56395">
        <ele>311.7</ele>
        <time>2020-03-13T12:18:16Z</time>
      </trkpt>
      <trkpt lat="46.70026" lon="5.56402">
        <ele>311.5</ele>
        <time>2020-03-13T12:18:21Z</time>
      </trkpt>
      <trkpt lat="46.70025" lon="5.56409">
        <ele>311.6</ele>
        <time>2020-03-13T12:18:27Z</time>
      </trkpt>
      <trkpt lat="46.70025" lon="5.56416">
        <ele>312.1</ele>
        <time>2020-03-13T12:18:35Z</time>
      </trkpt>
      <trkpt lat="46.70024" lon="5.56424">
        <ele>312.4</ele>
        <time>2020-03-13T12:18:41Z</time>
      </trkpt>
      <trkpt lat="46.70023" lon="5.56432">
        <ele>312.7</ele>
        <time>2020-03-13T12:18:45Z</time>
      </trkpt>
      <trkpt lat="46.70022" lon="5.56439">
        <ele>313</ele>
        <time>2020-03-13T12:18:49Z</time>
      </trkpt>
      <trkpt lat="46.7002" lon="5.56446">
        <ele>313.4</ele>
        <time>2020-03-13T12:18:54Z</time>
      </trkpt>
      <trkpt lat="46.70019" lon="5.56454">
        <ele>313.7</ele>
        <time>2020-03-13T12:18:58Z</time>
      </trkpt>
      <trkpt lat="46.70018" lon="5.5646">
        <ele>313.8</ele>
        <time>2020-03-13T12:19:01Z</time>
      </trkpt>
      <trkpt lat="46.70017" lon="5.56467">
        <ele>313.9</ele>
        <time>2020-03-13T12:19:05Z</time>
      </trkpt>
      <trkpt lat="46.70015" lon="5.56474">
        <ele>314.2</ele>
        <time>2020-03-13T12:19:10Z</time>
      </trkpt>
      <trkpt lat="46.70014" lon="5.56481">
        <ele>314.4</ele>
        <time>2020-03-13T12:19:14Z</time>
      </trkpt>
      <trkpt lat="46.70013" lon="5.56487">
        <ele>314.5</ele>
        <time>2020-03-13T12:19:18Z</time>
      </trkpt>
      <trkpt lat="46.70012" lon="5.56495">
        <ele>314.6</ele>
        <time>2020-03-13T12:19:23Z</time>
      </trkpt>
      <trkpt lat="46.70011" lon="5.56502">
        <ele>314.8</ele>
        <time>2020-03-13T12:19:29Z</time>
      </trkpt>
      <trkpt lat="46.7001" lon="5.56509">
        <ele>314.9</ele>
        <time>2020-03-13T12:19:33Z</time>
      </trkpt>
      <trkpt lat="46.70009" lon="5.56516">
        <ele>314.9</ele>
        <time>2020-03-13T12:19:38Z</time>
      </trkpt>
      <trkpt lat="46.70007" lon="5.56523">
        <ele>314.8</ele>
        <time>2020-03-13T12:19:43Z</time>
      </trkpt>
      <trkpt lat="46.70006" lon="5.5653">
        <ele>314.8</ele>
        <time>2020-03-13T12:19:47Z</time>
      </trkpt>
      <trkpt lat="46.70005" lon="5.56537">
        <ele>314.5</ele>
        <time>2020-03-13T12:19:53Z</time>
      </trkpt>
      <trkpt lat="46.70004" lon="5.56544">
        <ele>314.3</ele>
        <time>2020-03-13T12:19:58Z</time>
      </trkpt>
      <trkpt lat="46.70004" lon="5.56552">
        <ele>314.1</ele>
        <time>2020-03-13T12:20:04Z</time>
      </trkpt>
      <trkpt lat="46.70004" lon="5.56559">
        <ele>314.1</ele>
        <time>2020-03-13T12:20:10Z</time>
      </trkpt>
      <trkpt lat="46.70003" lon="5.56566">
        <ele>314.3</ele>
        <time>2020-03-13T12:20:16Z</time>
      </trkpt>
      <trkpt lat="46.70004" lon="5.56573">
        <ele>314.4</ele>
        <time>2020-03-13T12:20:21Z</time>
      </trkpt>
      <trkpt lat="46.70004" lon="5.56581">
        <ele>314.8</ele>
        <time>2020-03-13T12:20:27Z</time>
      </trkpt>
      <trkpt lat="46.70003" lon="5.56588">
        <ele>315.1</ele>
        <time>2020-03-13T12:20:31Z</time>
      </trkpt>
      <trkpt lat="46.70001" lon="5.56596">
        <ele>315.6</ele>
        <time>2020-03-13T12:20:35Z</time>
      </trkpt>
      <trkpt lat="46.69999" lon="5.56603">
        <ele>316.2</ele>
        <time>2020-03-13T12:20:40Z</time>
      </trkpt>
      <trkpt lat="46.69996" lon="5.5661">
        <ele>316.8</ele>
        <time>2020-03-13T12:20:46Z</time>
      </trkpt>
      <trkpt lat="46.69995" lon="5.56617">
        <ele>317.1</ele>
        <time>2020-03-13T12:20:52Z</time>
      </trkpt>
      <trkpt lat="46.69995" lon="5.56625">
        <ele>316.9</ele>
        <time>2020-03-13T12:20:58Z</time>
      </trkpt>
      <trkpt lat="46.69995" lon="5.56632">
        <ele>316.4</ele>
        <time>2020-03-13T12:21:05Z</time>
      </trkpt>
      <trkpt lat="46.69995" lon="5.56638">
        <ele>316.2</ele>
        <time>2020-03-13T12:21:08Z</time>
      </trkpt>
      <trkpt lat="46.69995" lon="5.56645">
        <ele>316</ele>
        <time>2020-03-13T12:21:11Z</time>
      </trkpt>
      <trkpt lat="46.69994" lon="5.56652">
        <ele>315.9</ele>
        <time>2020-03-13T12:21:15Z</time>
      </trkpt>
      <trkpt lat="46.69993" lon="5.56659">
        <ele>315.8</ele>
        <time>2020-03-13T12:21:20Z</time>
      </trkpt>
      <trkpt lat="46.69992" lon="5.56667">
        <ele>315.6</ele>
        <time>2020-03-13T12:21:25Z</time>
      </trkpt>
      <trkpt lat="46.69993" lon="5.56674">
        <ele>316.1</ele>
        <time>2020-03-13T12:21:36Z</time>
      </trkpt>
      <trkpt lat="46.69994" lon="5.5668">
        <ele>316.7</ele>
        <time>2020-03-13T12:21:40Z</time>
      </trkpt>
      <trkpt lat="46.69995" lon="5.56689">
        <ele>317.4</ele>
        <time>2020-03-13T12:21:44Z</time>
      </trkpt>
      <trkpt lat="46.69996" lon="5.56696">
        <ele>318.2</ele>
        <time>2020-03-13T12:21:48Z</time>
      </trkpt>
      <trkpt lat="46.69997" lon="5.56704">
        <ele>319.3</ele>
        <time>2020-03-13T12:21:53Z</time>
      </trkpt>
      <trkpt lat="46.69999" lon="5.56711">
        <ele>320.3</ele>
        <time>2020-03-13T12:21:58Z</time>
      </trkpt>
      <trkpt lat="46.70001" lon="5.56719">
        <ele>321.1</ele>
        <time>2020-03-13T12:22:02Z</time>
      </trkpt>
      <trkpt lat="46.70002" lon="5.56726">
        <ele>322.1</ele>
        <time>2020-03-13T12:22:07Z</time>
      </trkpt>
      <trkpt lat="46.70005" lon="5.56732">
        <ele>323.2</ele>
        <time>2020-03-13T12:22:12Z</time>
      </trkpt>
      <trkpt lat="46.70008" lon="5.56737">
        <ele>324.1</ele>
        <time>2020-03-13T12:22:17Z</time>
      </trkpt>
      <trkpt lat="46.70012" lon="5.56742">
        <ele>325.2</ele>
        <time>2020-03-13T12:22:24Z</time>
      </trkpt>
      <trkpt lat="46.70015" lon="5.56747">
        <ele>325.7</ele>
        <time>2020-03-13T12:22:28Z</time>
      </trkpt>
      <trkpt lat="46.70018" lon="5.56754">
        <ele>326</ele>
        <time>2020-03-13T12:22:32Z</time>
      </trkpt>
      <trkpt lat="46.70022" lon="5.56758">
        <ele>326</ele>
        <time>2020-03-13T12:22:38Z</time>
      </trkpt>
      <trkpt lat="46.70027" lon="5.5676">
        <ele>326</ele>
        <time>2020-03-13T12:22:43Z</time>
      </trkpt>
      <trkpt lat="46.70031" lon="5.56763">
        <ele>326.1</ele>
        <time>2020-03-13T12:22:48Z</time>
      </trkpt>
      <trkpt lat="46.70036" lon="5.56766">
        <ele>326.4</ele>
        <time>2020-03-13T12:22:52Z</time>
      </trkpt>
      <trkpt lat="46.7004" lon="5.5677">
        <ele>326.7</ele>
        <time>2020-03-13T12:22:59Z</time>
      </trkpt>
      <trkpt lat="46.70045" lon="5.56773">
        <ele>326.3</ele>
        <time>2020-03-13T12:23:05Z</time>
      </trkpt>
      <trkpt lat="46.70049" lon="5.56775">
        <ele>325.9</ele>
        <time>2020-03-13T12:23:09Z</time>
      </trkpt>
      <trkpt lat="46.70055" lon="5.56777">
        <ele>325</ele>
        <time>2020-03-13T12:23:16Z</time>
      </trkpt>
      <trkpt lat="46.70059" lon="5.56778">
        <ele>324.3</ele>
        <time>2020-03-13T12:23:20Z</time>
      </trkpt>
      <trkpt lat="46.70064" lon="5.5678">
        <ele>323.5</ele>
        <time>2020-03-13T12:23:24Z</time>
      </trkpt>
      <trkpt lat="46.70069" lon="5.5678">
        <ele>322.9</ele>
        <time>2020-03-13T12:23:28Z</time>
      </trkpt>
      <trkpt lat="46.70075" lon="5.56779">
        <ele>322.5</ele>
        <time>2020-03-13T12:23:32Z</time>
      </trkpt>
      <trkpt lat="46.7008" lon="5.56778">
        <ele>322.4</ele>
        <time>2020-03-13T12:23:36Z</time>
      </trkpt>
      <trkpt lat="46.70085" lon="5.56778">
        <ele>322.3</ele>
        <time>2020-03-13T12:23:41Z</time>
      </trkpt>
      <trkpt lat="46.7009" lon="5.5678">
        <ele>322.2</ele>
        <time>2020-03-13T12:23:46Z</time>
      </trkpt>
      <trkpt lat="46.70094" lon="5.56781">
        <ele>322.3</ele>
        <time>2020-03-13T12:23:50Z</time>
      </trkpt>
      <trkpt lat="46.70099" lon="5.56784">
        <ele>322.3</ele>
        <time>2020-03-13T12:23:55Z</time>
      </trkpt>
      <trkpt lat="46.70105" lon="5.56786">
        <ele>322.2</ele>
        <time>2020-03-13T12:24:00Z</time>
      </trkpt>
      <trkpt lat="46.70109" lon="5.56788">
        <ele>321.9</ele>
        <time>2020-03-13T12:24:04Z</time>
      </trkpt>
      <trkpt lat="46.70114" lon="5.56789">
        <ele>321.6</ele>
        <time>2020-03-13T12:24:10Z</time>
      </trkpt>
      <trkpt lat="46.7012" lon="5.56789">
        <ele>321.4</ele>
        <time>2020-03-13T12:24:15Z</time>
      </trkpt>
      <trkpt lat="46.70125" lon="5.5679">
        <ele>321.4</ele>
        <time>2020-03-13T12:24:19Z</time>
      </trkpt>
      <trkpt lat="46.70129" lon="5.56791">
        <ele>321.5</ele>
        <time>2020-03-13T12:24:23Z</time>
      </trkpt>
      <trkpt lat="46.70134" lon="5.56793">
        <ele>321.8</ele>
        <time>2020-03-13T12:24:29Z</time>
      </trkpt>
      <trkpt lat="46.70136" lon="5.56799">
        <ele>321.8</ele>
        <time>2020-03-13T12:24:50Z</time>
      </trkpt>
      <trkpt lat="46.7014" lon="5.56798">
        <ele>323.2</ele>
        <time>2020-03-13T12:25:06Z</time>
      </trkpt>
      <trkpt lat="46.70145" lon="5.56799">
        <ele>324.4</ele>
        <time>2020-03-13T12:25:15Z</time>
      </trkpt>
      <trkpt lat="46.7015" lon="5.568">
        <ele>324.9</ele>
        <time>2020-03-13T12:25:20Z</time>
      </trkpt>
      <trkpt lat="46.70155" lon="5.56801">
        <ele>325.5</ele>
        <time>2020-03-13T12:25:27Z</time>
      </trkpt>
      <trkpt lat="46.70159" lon="5.56801">
        <ele>325.9</ele>
        <time>2020-03-13T12:25:32Z</time>
      </trkpt>
      <trkpt lat="46.70164" lon="5.56802">
        <ele>326.3</ele>
        <time>2020-03-13T12:25:37Z</time>
      </trkpt>
      <trkpt lat="46.70169" lon="5.56803">
        <ele>326.6</ele>
        <time>2020-03-13T12:25:43Z</time>
      </trkpt>
      <trkpt lat="46.70174" lon="5.56806">
        <ele>327.1</ele>
        <time>2020-03-13T12:25:48Z</time>
      </trkpt>
      <trkpt lat="46.70179" lon="5.56807">
        <ele>327.7</ele>
        <time>2020-03-13T12:25:53Z</time>
      </trkpt>
      <trkpt lat="46.70184" lon="5.56809">
        <ele>327.7</ele>
        <time>2020-03-13T12:25:59Z</time>
      </trkpt>
      <trkpt lat="46.70189" lon="5.56812">
        <ele>327.2</ele>
        <time>2020-03-13T12:26:07Z</time>
      </trkpt>
      <trkpt lat="46.70194" lon="5.56814">
        <ele>326.7</ele>
        <time>2020-03-13T12:26:11Z</time>
      </trkpt>
      <trkpt lat="46.70198" lon="5.56816">
        <ele>326.1</ele>
        <time>2020-03-13T12:26:16Z</time>
      </trkpt>
      <trkpt lat="46.70203" lon="5.56818">
        <ele>325.5</ele>
        <time>2020-03-13T12:26:22Z</time>
      </trkpt>
      <trkpt lat="46.70207" lon="5.5682">
        <ele>325</ele>
        <time>2020-03-13T12:26:28Z</time>
      </trkpt>
      <trkpt lat="46.70212" lon="5.56823">
        <ele>324.4</ele>
        <time>2020-03-13T12:26:34Z</time>
      </trkpt>
      <trkpt lat="46.70217" lon="5.56825">
        <ele>324</ele>
        <time>2020-03-13T12:26:40Z</time>
      </trkpt>
      <trkpt lat="46.70222" lon="5.56828">
        <ele>323.7</ele>
        <time>2020-03-13T12:26:45Z</time>
      </trkpt>
      <trkpt lat="46.70227" lon="5.56831">
        <ele>323.5</ele>
        <time>2020-03-13T12:26:49Z</time>
      </trkpt>
      <trkpt lat="46.70232" lon="5.56833">
        <ele>323.6</ele>
        <time>2020-03-13T12:26:53Z</time>
      </trkpt>
      <trkpt lat="46.70236" lon="5.56834">
        <ele>323.8</ele>
        <time>2020-03-13T12:26:58Z</time>
      </trkpt>
      <trkpt lat="46.70241" lon="5.56837">
        <ele>324.1</ele>
        <time>2020-03-13T12:27:03Z</time>
      </trkpt>
      <trkpt lat="46.70246" lon="5.5684">
        <ele>324.2</ele>
        <time>2020-03-13T12:27:08Z</time>
      </trkpt>
      <trkpt lat="46.70251" lon="5.56843">
        <ele>324.5</ele>
        <time>2020-03-13T12:27:14Z</time>
      </trkpt>
      <trkpt lat="46.70255" lon="5.56847">
        <ele>324.8</ele>
        <time>2020-03-13T12:27:21Z</time>
      </trkpt>
      <trkpt lat="46.70259" lon="5.5685">
        <ele>325.2</ele>
        <time>2020-03-13T12:27:26Z</time>
      </trkpt>
      <trkpt lat="46.70265" lon="5.56851">
        <ele>325.5</ele>
        <time>2020-03-13T12:27:31Z</time>
      </trkpt>
      <trkpt lat="46.7027" lon="5.56851">
        <ele>325.8</ele>
        <time>2020-03-13T12:27:36Z</time>
      </trkpt>
      <trkpt lat="46.70274" lon="5.56854">
        <ele>326.3</ele>
        <time>2020-03-13T12:27:43Z</time>
      </trkpt>
      <trkpt lat="46.70278" lon="5.56857">
        <ele>326.8</ele>
        <time>2020-03-13T12:27:48Z</time>
      </trkpt>
      <trkpt lat="46.70282" lon="5.56862">
        <ele>327.2</ele>
        <time>2020-03-13T12:27:53Z</time>
      </trkpt>
      <trkpt lat="46.70286" lon="5.56867">
        <ele>327.5</ele>
        <time>2020-03-13T12:27:59Z</time>
      </trkpt>
      <trkpt lat="46.7029" lon="5.56868">
        <ele>327.8</ele>
        <time>2020-03-13T12:28:04Z</time>
      </trkpt>
      <trkpt lat="46.70296" lon="5.5687">
        <ele>328.5</ele>
        <time>2020-03-13T12:28:09Z</time>
      </trkpt>
      <trkpt lat="46.703" lon="5.56873">
        <ele>329.4</ele>
        <time>2020-03-13T12:28:14Z</time>
      </trkpt>
      <trkpt lat="46.70305" lon="5.56877">
        <ele>330.6</ele>
        <time>2020-03-13T12:28:21Z</time>
      </trkpt>
      <trkpt lat="46.70309" lon="5.56881">
        <ele>331.5</ele>
        <time>2020-03-13T12:28:27Z</time>
      </trkpt>
      <trkpt lat="46.70313" lon="5.56884">
        <ele>332.2</ele>
        <time>2020-03-13T12:28:33Z</time>
      </trkpt>
      <trkpt lat="46.70318" lon="5.56885">
        <ele>332.5</ele>
        <time>2020-03-13T12:28:38Z</time>
      </trkpt>
      <trkpt lat="46.70323" lon="5.56884">
        <ele>332.7</ele>
        <time>2020-03-13T12:28:45Z</time>
      </trkpt>
      <trkpt lat="46.70327" lon="5.56881">
        <ele>332.5</ele>
        <time>2020-03-13T12:28:51Z</time>
      </trkpt>
      <trkpt lat="46.70332" lon="5.56876">
        <ele>332.3</ele>
        <time>2020-03-13T12:28:56Z</time>
      </trkpt>
      <trkpt lat="46.70337" lon="5.56873">
        <ele>332</ele>
        <time>2020-03-13T12:29:02Z</time>
      </trkpt>
      <trkpt lat="46.70342" lon="5.5687">
        <ele>331.6</ele>
        <time>2020-03-13T12:29:08Z</time>
      </trkpt>
      <trkpt lat="46.70346" lon="5.56867">
        <ele>331.2</ele>
        <time>2020-03-13T12:29:13Z</time>
      </trkpt>
      <trkpt lat="46.7035" lon="5.56864">
        <ele>331.2</ele>
        <time>2020-03-13T12:29:18Z</time>
      </trkpt>
      <trkpt lat="46.70355" lon="5.56859">
        <ele>331.4</ele>
        <time>2020-03-13T12:29:25Z</time>
      </trkpt>
      <trkpt lat="46.70359" lon="5.56856">
        <ele>331.5</ele>
        <time>2020-03-13T12:29:30Z</time>
      </trkpt>
      <trkpt lat="46.70363" lon="5.56853">
        <ele>332</ele>
        <time>2020-03-13T12:29:36Z</time>
      </trkpt>
      <trkpt lat="46.70368" lon="5.5685">
        <ele>332.7</ele>
        <time>2020-03-13T12:29:42Z</time>
      </trkpt>
      <trkpt lat="46.70372" lon="5.56847">
        <ele>333.1</ele>
        <time>2020-03-13T12:29:46Z</time>
      </trkpt>
      <trkpt lat="46.70377" lon="5.56846">
        <ele>333.4</ele>
        <time>2020-03-13T12:29:50Z</time>
      </trkpt>
      <trkpt lat="46.70382" lon="5.56845">
        <ele>333.6</ele>
        <time>2020-03-13T12:29:55Z</time>
      </trkpt>
      <trkpt lat="46.70385" lon="5.56841">
        <ele>333.2</ele>
        <time>2020-03-13T12:30:02Z</time>
      </trkpt>
      <trkpt lat="46.70389" lon="5.56838">
        <ele>332.7</ele>
        <time>2020-03-13T12:30:08Z</time>
      </trkpt>
      <trkpt lat="46.70394" lon="5.56835">
        <ele>332.4</ele>
        <time>2020-03-13T12:30:14Z</time>
      </trkpt>
      <trkpt lat="46.70398" lon="5.56831">
        <ele>332.2</ele>
        <time>2020-03-13T12:30:21Z</time>
      </trkpt>
      <trkpt lat="46.70403" lon="5.5683">
        <ele>332.2</ele>
        <time>2020-03-13T12:30:27Z</time>
      </trkpt>
      <trkpt lat="46.70408" lon="5.56828">
        <ele>332.2</ele>
        <time>2020-03-13T12:30:32Z</time>
      </trkpt>
      <trkpt lat="46.70413" lon="5.56826">
        <ele>332.3</ele>
        <time>2020-03-13T12:30:37Z</time>
      </trkpt>
      <trkpt lat="46.70417" lon="5.56824">
        <ele>332.4</ele>
        <time>2020-03-13T12:30:42Z</time>
      </trkpt>
      <trkpt lat="46.70422" lon="5.56821">
        <ele>332.5</ele>
        <time>2020-03-13T12:30:46Z</time>
      </trkpt>
      <trkpt lat="46.70427" lon="5.5682">
        <ele>332.4</ele>
        <time>2020-03-13T12:30:51Z</time>
      </trkpt>
      <trkpt lat="46.70432" lon="5.56817">
        <ele>332.5</ele>
        <time>2020-03-13T12:30:56Z</time>
      </trkpt>
      <trkpt lat="46.70436" lon="5.56814">
        <ele>332.7</ele>
        <time>2020-03-13T12:31:02Z</time>
      </trkpt>
      <trkpt lat="46.70441" lon="5.56812">
        <ele>333.1</ele>
        <time>2020-03-13T12:31:10Z</time>
      </trkpt>
      <trkpt lat="46.70445" lon="5.56812">
        <ele>333.4</ele>
        <time>2020-03-13T12:31:27Z</time>
      </trkpt>
      <trkpt lat="46.7045" lon="5.56809">
        <ele>334.5</ele>
        <time>2020-03-13T12:31:37Z</time>
      </trkpt>
      <trkpt lat="46.70454" lon="5.56806">
        <ele>335.9</ele>
        <time>2020-03-13T12:31:44Z</time>
      </trkpt>
      <trkpt lat="46.70459" lon="5.56805">
        <ele>337.5</ele>
        <time>2020-03-13T12:31:51Z</time>
      </trkpt>
      <trkpt lat="46.70463" lon="5.56802">
        <ele>338.4</ele>
        <time>2020-03-13T12:31:55Z</time>
      </trkpt>
      <trkpt lat="46.70468" lon="5.56801">
        <ele>339.7</ele>
        <time>2020-03-13T12:32:09Z</time>
      </trkpt>
      <trkpt lat="46.70473" lon="5.56802">
        <ele>338.7</ele>
        <time>2020-03-13T12:32:17Z</time>
      </trkpt>
      <trkpt lat="46.70478" lon="5.56802">
        <ele>338.1</ele>
        <time>2020-03-13T12:32:21Z</time>
      </trkpt>
      <trkpt lat="46.70484" lon="5.56801">
        <ele>337.5</ele>
        <time>2020-03-13T12:32:25Z</time>
      </trkpt>
      <trkpt lat="46.70489" lon="5.568">
        <ele>337</ele>
        <time>2020-03-13T12:32:29Z</time>
      </trkpt>
      <trkpt lat="46.70494" lon="5.568">
        <ele>336.5</ele>
        <time>2020-03-13T12:32:33Z</time>
      </trkpt>
      <trkpt lat="46.70499" lon="5.56801">
        <ele>335.9</ele>
        <time>2020-03-13T12:32:38Z</time>
      </trkpt>
      <trkpt lat="46.70504" lon="5.56802">
        <ele>335.3</ele>
        <time>2020-03-13T12:32:42Z</time>
      </trkpt>
      <trkpt lat="46.70508" lon="5.56803">
        <ele>334.5</ele>
        <time>2020-03-13T12:32:46Z</time>
      </trkpt>
      <trkpt lat="46.70513" lon="5.56804">
        <ele>333.4</ele>
        <time>2020-03-13T12:32:52Z</time>
      </trkpt>
      <trkpt lat="46.70518" lon="5.56804">
        <ele>332.7</ele>
        <time>2020-03-13T12:32:56Z</time>
      </trkpt>
      <trkpt lat="46.70523" lon="5.56804">
        <ele>332</ele>
        <time>2020-03-13T12:33:01Z</time>
      </trkpt>
      <trkpt lat="46.70528" lon="5.56803">
        <ele>331.7</ele>
        <time>2020-03-13T12:33:06Z</time>
      </trkpt>
      <trkpt lat="46.70533" lon="5.56803">
        <ele>331.5</ele>
        <time>2020-03-13T12:33:10Z</time>
      </trkpt>
      <trkpt lat="46.70539" lon="5.56804">
        <ele>331.1</ele>
        <time>2020-03-13T12:33:15Z</time>
      </trkpt>
      <trkpt lat="46.70544" lon="5.56805">
        <ele>330.7</ele>
        <time>2020-03-13T12:33:21Z</time>
      </trkpt>
      <trkpt lat="46.70549" lon="5.56806">
        <ele>330</ele>
        <time>2020-03-13T12:33:27Z</time>
      </trkpt>
      <trkpt lat="46.70554" lon="5.56807">
        <ele>329.6</ele>
        <time>2020-03-13T12:33:33Z</time>
      </trkpt>
      <trkpt lat="46.70559" lon="5.56805">
        <ele>329.3</ele>
        <time>2020-03-13T12:33:37Z</time>
      </trkpt>
      <trkpt lat="46.70565" lon="5.56805">
        <ele>329.3</ele>
        <time>2020-03-13T12:33:41Z</time>
      </trkpt>
      <trkpt lat="46.70569" lon="5.56806">
        <ele>329.2</ele>
        <time>2020-03-13T12:33:46Z</time>
      </trkpt>
      <trkpt lat="46.70575" lon="5.56806">
        <ele>329.2</ele>
        <time>2020-03-13T12:33:53Z</time>
      </trkpt>
      <trkpt lat="46.7058" lon="5.56809">
        <ele>329.2</ele>
        <time>2020-03-13T12:33:57Z</time>
      </trkpt>
      <trkpt lat="46.70585" lon="5.56813">
        <ele>329.2</ele>
        <time>2020-03-13T12:34:02Z</time>
      </trkpt>
      <trkpt lat="46.70589" lon="5.56816">
        <ele>329.2</ele>
        <time>2020-03-13T12:34:06Z</time>
      </trkpt>
      <trkpt lat="46.70594" lon="5.56819">
        <ele>329.2</ele>
        <time>2020-03-13T12:34:11Z</time>
      </trkpt>
      <trkpt lat="46.70598" lon="5.56823">
        <ele>328.8</ele>
        <time>2020-03-13T12:34:17Z</time>
      </trkpt>
      <trkpt lat="46.70601" lon="5.56828">
        <ele>328.4</ele>
        <time>2020-03-13T12:34:22Z</time>
      </trkpt>
      <trkpt lat="46.70606" lon="5.56832">
        <ele>327.9</ele>
        <time>2020-03-13T12:34:27Z</time>
      </trkpt>
      <trkpt lat="46.7061" lon="5.56834">
        <ele>327.5</ele>
        <time>2020-03-13T12:34:31Z</time>
      </trkpt>
      <trkpt lat="46.70614" lon="5.56838">
        <ele>326.9</ele>
        <time>2020-03-13T12:34:36Z</time>
      </trkpt>
      <trkpt lat="46.70618" lon="5.56842">
        <ele>326.3</ele>
        <time>2020-03-13T12:34:42Z</time>
      </trkpt>
      <trkpt lat="46.70623" lon="5.56845">
        <ele>325.9</ele>
        <time>2020-03-13T12:34:47Z</time>
      </trkpt>
      <trkpt lat="46.70627" lon="5.56848">
        <ele>325.5</ele>
        <time>2020-03-13T12:34:52Z</time>
      </trkpt>
      <trkpt lat="46.70632" lon="5.56851">
        <ele>325</ele>
        <time>2020-03-13T12:34:59Z</time>
      </trkpt>
      <trkpt lat="46.70636" lon="5.56852">
        <ele>324.5</ele>
        <time>2020-03-13T12:35:07Z</time>
      </trkpt>
      <trkpt lat="46.70641" lon="5.56853">
        <ele>324.1</ele>
        <time>2020-03-13T12:35:12Z</time>
      </trkpt>
      <trkpt lat="46.70646" lon="5.56855">
        <ele>323.9</ele>
        <time>2020-03-13T12:35:15Z</time>
      </trkpt>
      <trkpt lat="46.7065" lon="5.56857">
        <ele>323.3</ele>
        <time>2020-03-13T12:35:21Z</time>
      </trkpt>
      <trkpt lat="46.70656" lon="5.56857">
        <ele>323</ele>
        <time>2020-03-13T12:35:27Z</time>
      </trkpt>
      <trkpt lat="46.70661" lon="5.56859">
        <ele>322.7</ele>
        <time>2020-03-13T12:35:32Z</time>
      </trkpt>
      <trkpt lat="46.70666" lon="5.56859">
        <ele>322.4</ele>
        <time>2020-03-13T12:35:38Z</time>
      </trkpt>
      <trkpt lat="46.70671" lon="5.5686">
        <ele>322.1</ele>
        <time>2020-03-13T12:35:42Z</time>
      </trkpt>
      <trkpt lat="46.70677" lon="5.56861">
        <ele>321.8</ele>
        <time>2020-03-13T12:35:47Z</time>
      </trkpt>
      <trkpt lat="46.70682" lon="5.56863">
        <ele>321.7</ele>
        <time>2020-03-13T12:35:51Z</time>
      </trkpt>
      <trkpt lat="46.70687" lon="5.56864">
        <ele>321.7</ele>
        <time>2020-03-13T12:35:55Z</time>
      </trkpt>
      <trkpt lat="46.70692" lon="5.56864">
        <ele>321.9</ele>
        <time>2020-03-13T12:35:59Z</time>
      </trkpt>
      <trkpt lat="46.70697" lon="5.56864">
        <ele>322.1</ele>
        <time>2020-03-13T12:36:03Z</time>
      </trkpt>
      <trkpt lat="46.70701" lon="5.56863">
        <ele>322.4</ele>
        <time>2020-03-13T12:36:07Z</time>
      </trkpt>
      <trkpt lat="46.70707" lon="5.56863">
        <ele>322.5</ele>
        <time>2020-03-13T12:36:11Z</time>
      </trkpt>
      <trkpt lat="46.70712" lon="5.56864">
        <ele>322.9</ele>
        <time>2020-03-13T12:36:16Z</time>
      </trkpt>
      <trkpt lat="46.70717" lon="5.56864">
        <ele>323.7</ele>
        <time>2020-03-13T12:36:22Z</time>
      </trkpt>
      <trkpt lat="46.70722" lon="5.56863">
        <ele>324.1</ele>
        <time>2020-03-13T12:36:27Z</time>
      </trkpt>
      <trkpt lat="46.70726" lon="5.56866">
        <ele>324.4</ele>
        <time>2020-03-13T12:36:33Z</time>
      </trkpt>
      <trkpt lat="46.70731" lon="5.56868">
        <ele>325</ele>
        <time>2020-03-13T12:36:44Z</time>
      </trkpt>
      <trkpt lat="46.70736" lon="5.5687">
        <ele>325.5</ele>
        <time>2020-03-13T12:36:52Z</time>
      </trkpt>
      <trkpt lat="46.7074" lon="5.56871">
        <ele>325.8</ele>
        <time>2020-03-13T12:36:59Z</time>
      </trkpt>
      <trkpt lat="46.70745" lon="5.56873">
        <ele>325.9</ele>
        <time>2020-03-13T12:37:06Z</time>
      </trkpt>
      <trkpt lat="46.70749" lon="5.56876">
        <ele>324.9</ele>
        <time>2020-03-13T12:37:20Z</time>
      </trkpt>
      <trkpt lat="46.70753" lon="5.56877">
        <ele>323.6</ele>
        <time>2020-03-13T12:37:28Z</time>
      </trkpt>
      <trkpt lat="46.70758" lon="5.56879">
        <ele>323.2</ele>
        <time>2020-03-13T12:37:33Z</time>
      </trkpt>
      <trkpt lat="46.70763" lon="5.56881">
        <ele>322.9</ele>
        <time>2020-03-13T12:37:37Z</time>
      </trkpt>
      <trkpt lat="46.70767" lon="5.56884">
        <ele>322.7</ele>
        <time>2020-03-13T12:37:42Z</time>
      </trkpt>
      <trkpt lat="46.7077" lon="5.56891">
        <ele>322.4</ele>
        <time>2020-03-13T12:37:47Z</time>
      </trkpt>
      <trkpt lat="46.70772" lon="5.56897">
        <ele>322.2</ele>
        <time>2020-03-13T12:37:51Z</time>
      </trkpt>
      <trkpt lat="46.70773" lon="5.56904">
        <ele>322</ele>
        <time>2020-03-13T12:37:56Z</time>
      </trkpt>
      <trkpt lat="46.70774" lon="5.56912">
        <ele>321.9</ele>
        <time>2020-03-13T12:38:01Z</time>
      </trkpt>
      <trkpt lat="46.70776" lon="5.56919">
        <ele>321.7</ele>
        <time>2020-03-13T12:38:07Z</time>
      </trkpt>
      <trkpt lat="46.70778" lon="5.56926">
        <ele>321.3</ele>
        <time>2020-03-13T12:38:14Z</time>
      </trkpt>
      <trkpt lat="46.70779" lon="5.56933">
        <ele>321.3</ele>
        <time>2020-03-13T12:38:18Z</time>
      </trkpt>
      <trkpt lat="46.70778" lon="5.5694">
        <ele>321.5</ele>
        <time>2020-03-13T12:38:23Z</time>
      </trkpt>
      <trkpt lat="46.70779" lon="5.56947">
        <ele>321.4</ele>
        <time>2020-03-13T12:38:28Z</time>
      </trkpt>
      <trkpt lat="46.70782" lon="5.56952">
        <ele>321</ele>
        <time>2020-03-13T12:38:33Z</time>
      </trkpt>
      <trkpt lat="46.70784" lon="5.56959">
        <ele>320.5</ele>
        <time>2020-03-13T12:38:39Z</time>
      </trkpt>
      <trkpt lat="46.70786" lon="5.56965">
        <ele>319.8</ele>
        <time>2020-03-13T12:38:44Z</time>
      </trkpt>
      <trkpt lat="46.70787" lon="5.56972">
        <ele>319.1</ele>
        <time>2020-03-13T12:38:50Z</time>
      </trkpt>
      <trkpt lat="46.70788" lon="5.56979">
        <ele>318.8</ele>
        <time>2020-03-13T12:38:54Z</time>
      </trkpt>
      <trkpt lat="46.70789" lon="5.56985">
        <ele>318.2</ele>
        <time>2020-03-13T12:39:00Z</time>
      </trkpt>
      <trkpt lat="46.7079" lon="5.56993">
        <ele>317.4</ele>
        <time>2020-03-13T12:39:07Z</time>
      </trkpt>
      <trkpt lat="46.70793" lon="5.56998">
        <ele>316.6</ele>
        <time>2020-03-13T12:39:14Z</time>
      </trkpt>
      <trkpt lat="46.70795" lon="5.57005">
        <ele>316</ele>
        <time>2020-03-13T12:39:19Z</time>
      </trkpt>
      <trkpt lat="46.70799" lon="5.57021">
        <ele>315.2</ele>
        <time>2020-03-13T12:39:33Z</time>
      </trkpt>
      <trkpt lat="46.70801" lon="5.57027">
        <ele>315.1</ele>
        <time>2020-03-13T12:39:37Z</time>
      </trkpt>
      <trkpt lat="46.70804" lon="5.57033">
        <ele>315</ele>
        <time>2020-03-13T12:39:41Z</time>
      </trkpt>
      <trkpt lat="46.70807" lon="5.57039">
        <ele>315</ele>
        <time>2020-03-13T12:39:47Z</time>
      </trkpt>
      <trkpt lat="46.70811" lon="5.57045">
        <ele>315.2</ele>
        <time>2020-03-13T12:39:51Z</time>
      </trkpt>
      <trkpt lat="46.70814" lon="5.5705">
        <ele>315.6</ele>
        <time>2020-03-13T12:39:56Z</time>
      </trkpt>
      <trkpt lat="46.70816" lon="5.57057">
        <ele>315.8</ele>
        <time>2020-03-13T12:40:01Z</time>
      </trkpt>
      <trkpt lat="46.70817" lon="5.57065">
        <ele>315.9</ele>
        <time>2020-03-13T12:40:05Z</time>
      </trkpt>
      <trkpt lat="46.70817" lon="5.57072">
        <ele>316</ele>
        <time>2020-03-13T12:40:09Z</time>
      </trkpt>
      <trkpt lat="46.70816" lon="5.57078">
        <ele>316.4</ele>
        <time>2020-03-13T12:40:14Z</time>
      </trkpt>
      <trkpt lat="46.70817" lon="5.57085">
        <ele>316.8</ele>
        <time>2020-03-13T12:40:19Z</time>
      </trkpt>
      <trkpt lat="46.70817" lon="5.57093">
        <ele>317.7</ele>
        <time>2020-03-13T12:40:25Z</time>
      </trkpt>
      <trkpt lat="46.70816" lon="5.571">
        <ele>318.4</ele>
        <time>2020-03-13T12:40:30Z</time>
      </trkpt>
      <trkpt lat="46.70815" lon="5.57107">
        <ele>319.1</ele>
        <time>2020-03-13T12:40:35Z</time>
      </trkpt>
      <trkpt lat="46.70814" lon="5.57114">
        <ele>319.8</ele>
        <time>2020-03-13T12:40:41Z</time>
      </trkpt>
      <trkpt lat="46.70815" lon="5.57122">
        <ele>320.2</ele>
        <time>2020-03-13T12:40:46Z</time>
      </trkpt>
      <trkpt lat="46.70817" lon="5.57129">
        <ele>320.7</ele>
        <time>2020-03-13T12:40:51Z</time>
      </trkpt>
      <trkpt lat="46.70819" lon="5.57137">
        <ele>321.1</ele>
        <time>2020-03-13T12:40:58Z</time>
      </trkpt>
      <trkpt lat="46.70822" lon="5.57141">
        <ele>321.5</ele>
        <time>2020-03-13T12:41:03Z</time>
      </trkpt>
      <trkpt lat="46.70826" lon="5.57146">
        <ele>322.2</ele>
        <time>2020-03-13T12:41:12Z</time>
      </trkpt>
      <trkpt lat="46.70827" lon="5.57166">
        <ele>325.1</ele>
        <time>2020-03-13T12:41:27Z</time>
      </trkpt>
      <trkpt lat="46.7083" lon="5.57173">
        <ele>325.7</ele>
        <time>2020-03-13T12:41:30Z</time>
      </trkpt>
      <trkpt lat="46.70832" lon="5.57179">
        <ele>326.7</ele>
        <time>2020-03-13T12:41:35Z</time>
      </trkpt>
      <trkpt lat="46.70833" lon="5.57186">
        <ele>328.1</ele>
        <time>2020-03-13T12:41:41Z</time>
      </trkpt>
      <trkpt lat="46.70834" lon="5.57193">
        <ele>329</ele>
        <time>2020-03-13T12:41:46Z</time>
      </trkpt>
      <trkpt lat="46.70835" lon="5.572">
        <ele>329.9</ele>
        <time>2020-03-13T12:41:51Z</time>
      </trkpt>
      <trkpt lat="46.70836" lon="5.57206">
        <ele>330.9</ele>
        <time>2020-03-13T12:41:56Z</time>
      </trkpt>
      <trkpt lat="46.70836" lon="5.57213">
        <ele>331.9</ele>
        <time>2020-03-13T12:42:01Z</time>
      </trkpt>
      <trkpt lat="46.70835" lon="5.5722">
        <ele>333.1</ele>
        <time>2020-03-13T12:42:09Z</time>
      </trkpt>
      <trkpt lat="46.70834" lon="5.57233">
        <ele>334.2</ele>
        <time>2020-03-13T12:42:31Z</time>
      </trkpt>
      <trkpt lat="46.7083" lon="5.57228">
        <ele>334.7</ele>
        <time>2020-03-13T12:43:02Z</time>
      </trkpt>
      <trkpt lat="46.70827" lon="5.57235">
        <ele>338.4</ele>
        <time>2020-03-13T12:43:54Z</time>
      </trkpt>
      <trkpt lat="46.70823" lon="5.57239">
        <ele>339.9</ele>
        <time>2020-03-13T12:44:00Z</time>
      </trkpt>
      <trkpt lat="46.70818" lon="5.57242">
        <ele>341.5</ele>
        <time>2020-03-13T12:44:06Z</time>
      </trkpt>
      <trkpt lat="46.70814" lon="5.57246">
        <ele>343.9</ele>
        <time>2020-03-13T12:44:13Z</time>
      </trkpt>
      <trkpt lat="46.70811" lon="5.57251">
        <ele>346.8</ele>
        <time>2020-03-13T12:44:20Z</time>
      </trkpt>
      <trkpt lat="46.70807" lon="5.57255">
        <ele>349.3</ele>
        <time>2020-03-13T12:44:26Z</time>
      </trkpt>
      <trkpt lat="46.70804" lon="5.57261">
        <ele>351.8</ele>
        <time>2020-03-13T12:44:32Z</time>
      </trkpt>
      <trkpt lat="46.708" lon="5.57266">
        <ele>353.4</ele>
        <time>2020-03-13T12:44:36Z</time>
      </trkpt>
      <trkpt lat="46.70797" lon="5.57272">
        <ele>355.4</ele>
        <time>2020-03-13T12:44:41Z</time>
      </trkpt>
      <trkpt lat="46.70794" lon="5.57278">
        <ele>357.2</ele>
        <time>2020-03-13T12:44:46Z</time>
      </trkpt>
      <trkpt lat="46.70792" lon="5.57284">
        <ele>358.6</ele>
        <time>2020-03-13T12:44:51Z</time>
      </trkpt>
      <trkpt lat="46.7079" lon="5.57292">
        <ele>359.7</ele>
        <time>2020-03-13T12:44:56Z</time>
      </trkpt>
      <trkpt lat="46.70789" lon="5.57298">
        <ele>360.8</ele>
        <time>2020-03-13T12:45:01Z</time>
      </trkpt>
      <trkpt lat="46.70787" lon="5.57305">
        <ele>361.8</ele>
        <time>2020-03-13T12:45:07Z</time>
      </trkpt>
      <trkpt lat="46.70784" lon="5.5731">
        <ele>362.3</ele>
        <time>2020-03-13T12:45:11Z</time>
      </trkpt>
      <trkpt lat="46.7078" lon="5.57315">
        <ele>362.8</ele>
        <time>2020-03-13T12:45:15Z</time>
      </trkpt>
      <trkpt lat="46.70775" lon="5.57318">
        <ele>363.3</ele>
        <time>2020-03-13T12:45:20Z</time>
      </trkpt>
      <trkpt lat="46.70771" lon="5.5732">
        <ele>363.9</ele>
        <time>2020-03-13T12:45:26Z</time>
      </trkpt>
      <trkpt lat="46.70766" lon="5.57321">
        <ele>364.4</ele>
        <time>2020-03-13T12:45:31Z</time>
      </trkpt>
      <trkpt lat="46.70761" lon="5.57322">
        <ele>364.7</ele>
        <time>2020-03-13T12:45:36Z</time>
      </trkpt>
      <trkpt lat="46.70756" lon="5.57322">
        <ele>364.9</ele>
        <time>2020-03-13T12:45:40Z</time>
      </trkpt>
      <trkpt lat="46.70751" lon="5.57321">
        <ele>364.9</ele>
        <time>2020-03-13T12:45:44Z</time>
      </trkpt>
      <trkpt lat="46.70746" lon="5.57321">
        <ele>364.8</ele>
        <time>2020-03-13T12:45:48Z</time>
      </trkpt>
      <trkpt lat="46.70742" lon="5.57321">
        <ele>364.6</ele>
        <time>2020-03-13T12:45:52Z</time>
      </trkpt>
      <trkpt lat="46.70737" lon="5.57319">
        <ele>364.3</ele>
        <time>2020-03-13T12:45:59Z</time>
      </trkpt>
      <trkpt lat="46.70732" lon="5.57319">
        <ele>364</ele>
        <time>2020-03-13T12:46:05Z</time>
      </trkpt>
      <trkpt lat="46.70727" lon="5.5732">
        <ele>363.7</ele>
        <time>2020-03-13T12:46:11Z</time>
      </trkpt>
      <trkpt lat="46.70721" lon="5.57321">
        <ele>363.2</ele>
        <time>2020-03-13T12:46:17Z</time>
      </trkpt>
      <trkpt lat="46.70716" lon="5.57323">
        <ele>362.8</ele>
        <time>2020-03-13T12:46:22Z</time>
      </trkpt>
      <trkpt lat="46.70712" lon="5.57327">
        <ele>362.5</ele>
        <time>2020-03-13T12:46:25Z</time>
      </trkpt>
      <trkpt lat="46.70707" lon="5.57332">
        <ele>361.9</ele>
        <time>2020-03-13T12:46:28Z</time>
      </trkpt>
      <trkpt lat="46.70703" lon="5.57337">
        <ele>360.6</ele>
        <time>2020-03-13T12:46:32Z</time>
      </trkpt>
      <trkpt lat="46.70698" lon="5.57342">
        <ele>359.4</ele>
        <time>2020-03-13T12:46:35Z</time>
      </trkpt>
      <trkpt lat="46.70693" lon="5.57345">
        <ele>358.3</ele>
        <time>2020-03-13T12:46:38Z</time>
      </trkpt>
      <trkpt lat="46.70689" lon="5.57349">
        <ele>357.1</ele>
        <time>2020-03-13T12:46:41Z</time>
      </trkpt>
      <trkpt lat="46.70684" lon="5.57352">
        <ele>354.9</ele>
        <time>2020-03-13T12:46:47Z</time>
      </trkpt>
      <trkpt lat="46.70679" lon="5.57355">
        <ele>353.3</ele>
        <time>2020-03-13T12:46:52Z</time>
      </trkpt>
      <trkpt lat="46.70675" lon="5.5736">
        <ele>351.9</ele>
        <time>2020-03-13T12:46:56Z</time>
      </trkpt>
      <trkpt lat="46.7067" lon="5.57363">
        <ele>350.5</ele>
        <time>2020-03-13T12:47:00Z</time>
      </trkpt>
      <trkpt lat="46.70665" lon="5.57365">
        <ele>348.9</ele>
        <time>2020-03-13T12:47:04Z</time>
      </trkpt>
      <trkpt lat="46.7066" lon="5.57369">
        <ele>347.1</ele>
        <time>2020-03-13T12:47:08Z</time>
      </trkpt>
      <trkpt lat="46.70655" lon="5.57371">
        <ele>345.5</ele>
        <time>2020-03-13T12:47:12Z</time>
      </trkpt>
      <trkpt lat="46.7065" lon="5.57373">
        <ele>344</ele>
        <time>2020-03-13T12:47:16Z</time>
      </trkpt>
      <trkpt lat="46.70646" lon="5.57374">
        <ele>342</ele>
        <time>2020-03-13T12:47:30Z</time>
      </trkpt>
      <trkpt lat="46.70642" lon="5.57378">
        <ele>342.5</ele>
        <time>2020-03-13T12:47:34Z</time>
      </trkpt>
      <trkpt lat="46.70638" lon="5.57382">
        <ele>343.6</ele>
        <time>2020-03-13T12:47:39Z</time>
      </trkpt>
      <trkpt lat="46.70634" lon="5.57386">
        <ele>345.2</ele>
        <time>2020-03-13T12:47:44Z</time>
      </trkpt>
      <trkpt lat="46.7063" lon="5.57391">
        <ele>348.4</ele>
        <time>2020-03-13T12:47:53Z</time>
      </trkpt>
      <trkpt lat="46.70627" lon="5.57396">
        <ele>350.7</ele>
        <time>2020-03-13T12:48:00Z</time>
      </trkpt>
      <trkpt lat="46.70623" lon="5.57402">
        <ele>352.3</ele>
        <time>2020-03-13T12:48:06Z</time>
      </trkpt>
      <trkpt lat="46.7062" lon="5.57408">
        <ele>353.6</ele>
        <time>2020-03-13T12:48:13Z</time>
      </trkpt>
      <trkpt lat="46.70616" lon="5.57413">
        <ele>354.6</ele>
        <time>2020-03-13T12:48:20Z</time>
      </trkpt>
      <trkpt lat="46.70613" lon="5.57419">
        <ele>355.3</ele>
        <time>2020-03-13T12:48:26Z</time>
      </trkpt>
      <trkpt lat="46.70612" lon="5.57425">
        <ele>355.9</ele>
        <time>2020-03-13T12:48:34Z</time>
      </trkpt>
      <trkpt lat="46.70608" lon="5.57442">
        <ele>354.3</ele>
        <time>2020-03-13T12:48:50Z</time>
      </trkpt>
      <trkpt lat="46.70606" lon="5.57449">
        <ele>354</ele>
        <time>2020-03-13T12:48:53Z</time>
      </trkpt>
      <trkpt lat="46.70605" lon="5.57456">
        <ele>353.6</ele>
        <time>2020-03-13T12:48:56Z</time>
      </trkpt>
      <trkpt lat="46.70603" lon="5.57462">
        <ele>353.2</ele>
        <time>2020-03-13T12:48:59Z</time>
      </trkpt>
      <trkpt lat="46.70602" lon="5.57471">
        <ele>352.8</ele>
        <time>2020-03-13T12:49:03Z</time>
      </trkpt>
      <trkpt lat="46.70601" lon="5.57479">
        <ele>352.4</ele>
        <time>2020-03-13T12:49:07Z</time>
      </trkpt>
      <trkpt lat="46.70601" lon="5.57486">
        <ele>352.3</ele>
        <time>2020-03-13T12:49:10Z</time>
      </trkpt>
      <trkpt lat="46.70601" lon="5.57493">
        <ele>352.2</ele>
        <time>2020-03-13T12:49:13Z</time>
      </trkpt>
      <trkpt lat="46.706" lon="5.57501">
        <ele>352.2</ele>
        <time>2020-03-13T12:49:16Z</time>
      </trkpt>
      <trkpt lat="46.70599" lon="5.5751">
        <ele>352.4</ele>
        <time>2020-03-13T12:49:20Z</time>
      </trkpt>
      <trkpt lat="46.70599" lon="5.57517">
        <ele>352.8</ele>
        <time>2020-03-13T12:49:23Z</time>
      </trkpt>
      <trkpt lat="46.70597" lon="5.57524">
        <ele>353.4</ele>
        <time>2020-03-13T12:49:26Z</time>
      </trkpt>
      <trkpt lat="46.70596" lon="5.57531">
        <ele>354.4</ele>
        <time>2020-03-13T12:49:30Z</time>
      </trkpt>
      <trkpt lat="46.70594" lon="5.57539">
        <ele>355.8</ele>
        <time>2020-03-13T12:49:35Z</time>
      </trkpt>
      <trkpt lat="46.70595" lon="5.57545">
        <ele>357.5</ele>
        <time>2020-03-13T12:49:41Z</time>
      </trkpt>
      <trkpt lat="46.70598" lon="5.57551">
        <ele>358.9</ele>
        <time>2020-03-13T12:49:46Z</time>
      </trkpt>
      <trkpt lat="46.70601" lon="5.57556">
        <ele>360.9</ele>
        <time>2020-03-13T12:49:54Z</time>
      </trkpt>
      <trkpt lat="46.70604" lon="5.57549">
        <ele>366.2</ele>
        <time>2020-03-13T12:50:56Z</time>
      </trkpt>
      <trkpt lat="46.70608" lon="5.57551">
        <ele>366.4</ele>
        <time>2020-03-13T12:51:04Z</time>
      </trkpt>
      <trkpt lat="46.70613" lon="5.57553">
        <ele>366.3</ele>
        <time>2020-03-13T12:51:11Z</time>
      </trkpt>
      <trkpt lat="46.70617" lon="5.57555">
        <ele>365.6</ele>
        <time>2020-03-13T12:51:21Z</time>
      </trkpt>
      <trkpt lat="46.70622" lon="5.57556">
        <ele>364.7</ele>
        <time>2020-03-13T12:51:32Z</time>
      </trkpt>
      <trkpt lat="46.70626" lon="5.57557">
        <ele>363.6</ele>
        <time>2020-03-13T12:51:43Z</time>
      </trkpt>
      <trkpt lat="46.70631" lon="5.57558">
        <ele>362.8</ele>
        <time>2020-03-13T12:51:52Z</time>
      </trkpt>
      <trkpt lat="46.70636" lon="5.57559">
        <ele>361.9</ele>
        <time>2020-03-13T12:52:03Z</time>
      </trkpt>
      <trkpt lat="46.70641" lon="5.57559">
        <ele>361</ele>
        <time>2020-03-13T12:52:11Z</time>
      </trkpt>
      <trkpt lat="46.70647" lon="5.5756">
        <ele>360.6</ele>
        <time>2020-03-13T12:52:17Z</time>
      </trkpt>
      <trkpt lat="46.70651" lon="5.57561">
        <ele>360.3</ele>
        <time>2020-03-13T12:52:22Z</time>
      </trkpt>
      <trkpt lat="46.70656" lon="5.57562">
        <ele>359.4</ele>
        <time>2020-03-13T12:52:31Z</time>
      </trkpt>
      <trkpt lat="46.70661" lon="5.57564">
        <ele>359</ele>
        <time>2020-03-13T12:52:37Z</time>
      </trkpt>
      <trkpt lat="46.70666" lon="5.57565">
        <ele>358.6</ele>
        <time>2020-03-13T12:52:44Z</time>
      </trkpt>
      <trkpt lat="46.7067" lon="5.57569">
        <ele>358.3</ele>
        <time>2020-03-13T12:52:49Z</time>
      </trkpt>
      <trkpt lat="46.70675" lon="5.57571">
        <ele>357.9</ele>
        <time>2020-03-13T12:52:54Z</time>
      </trkpt>
      <trkpt lat="46.7068" lon="5.57574">
        <ele>357.8</ele>
        <time>2020-03-13T12:52:58Z</time>
      </trkpt>
      <trkpt lat="46.70684" lon="5.57577">
        <ele>357.7</ele>
        <time>2020-03-13T12:53:03Z</time>
      </trkpt>
      <trkpt lat="46.70689" lon="5.57579">
        <ele>357.4</ele>
        <time>2020-03-13T12:53:08Z</time>
      </trkpt>
      <trkpt lat="46.70694" lon="5.57579">
        <ele>357</ele>
        <time>2020-03-13T12:53:13Z</time>
      </trkpt>
      <trkpt lat="46.70699" lon="5.57581">
        <ele>356.6</ele>
        <time>2020-03-13T12:53:19Z</time>
      </trkpt>
      <trkpt lat="46.70703" lon="5.57585">
        <ele>355.8</ele>
        <time>2020-03-13T12:53:28Z</time>
      </trkpt>
      <trkpt lat="46.70707" lon="5.57587">
        <ele>354.9</ele>
        <time>2020-03-13T12:53:34Z</time>
      </trkpt>
      <trkpt lat="46.70712" lon="5.57589">
        <ele>353.9</ele>
        <time>2020-03-13T12:53:40Z</time>
      </trkpt>
      <trkpt lat="46.70717" lon="5.57591">
        <ele>352.6</ele>
        <time>2020-03-13T12:53:48Z</time>
      </trkpt>
      <trkpt lat="46.70722" lon="5.57592">
        <ele>351.9</ele>
        <time>2020-03-13T12:53:55Z</time>
      </trkpt>
      <trkpt lat="46.70727" lon="5.57593">
        <ele>351.4</ele>
        <time>2020-03-13T12:54:01Z</time>
      </trkpt>
      <trkpt lat="46.70735" lon="5.57597">
        <ele>351.2</ele>
        <time>2020-03-13T12:54:12Z</time>
      </trkpt>
      <trkpt lat="46.7074" lon="5.57599">
        <ele>351.2</ele>
        <time>2020-03-13T12:54:16Z</time>
      </trkpt>
      <trkpt lat="46.70745" lon="5.576">
        <ele>351.2</ele>
        <time>2020-03-13T12:54:20Z</time>
      </trkpt>
      <trkpt lat="46.70749" lon="5.57601">
        <ele>351.4</ele>
        <time>2020-03-13T12:54:26Z</time>
      </trkpt>
      <trkpt lat="46.70754" lon="5.57603">
        <ele>351.7</ele>
        <time>2020-03-13T12:54:32Z</time>
      </trkpt>
      <trkpt lat="46.70759" lon="5.57606">
        <ele>352.1</ele>
        <time>2020-03-13T12:54:39Z</time>
      </trkpt>
      <trkpt lat="46.70764" lon="5.57609">
        <ele>352.6</ele>
        <time>2020-03-13T12:54:44Z</time>
      </trkpt>
      <trkpt lat="46.70769" lon="5.5761">
        <ele>353.2</ele>
        <time>2020-03-13T12:54:48Z</time>
      </trkpt>
      <trkpt lat="46.70774" lon="5.57612">
        <ele>354</ele>
        <time>2020-03-13T12:54:52Z</time>
      </trkpt>
      <trkpt lat="46.70779" lon="5.57613">
        <ele>354.6</ele>
        <time>2020-03-13T12:54:55Z</time>
      </trkpt>
      <trkpt lat="46.70783" lon="5.57615">
        <ele>355.8</ele>
        <time>2020-03-13T12:55:00Z</time>
      </trkpt>
      <trkpt lat="46.70788" lon="5.57619">
        <ele>356.6</ele>
        <time>2020-03-13T12:55:04Z</time>
      </trkpt>
      <trkpt lat="46.70792" lon="5.57622">
        <ele>358.9</ele>
        <time>2020-03-13T12:55:17Z</time>
      </trkpt>
      <trkpt lat="46.70798" lon="5.57623">
        <ele>360</ele>
        <time>2020-03-13T12:55:23Z</time>
      </trkpt>
      <trkpt lat="46.70802" lon="5.57624">
        <ele>360.3</ele>
        <time>2020-03-13T12:55:27Z</time>
      </trkpt>
      <trkpt lat="46.70807" lon="5.57627">
        <ele>360.6</ele>
        <time>2020-03-13T12:55:33Z</time>
      </trkpt>
      <trkpt lat="46.70812" lon="5.57629">
        <ele>360.7</ele>
        <time>2020-03-13T12:55:38Z</time>
      </trkpt>
      <trkpt lat="46.70817" lon="5.57629">
        <ele>361.5</ele>
        <time>2020-03-13T12:55:48Z</time>
      </trkpt>
      <trkpt lat="46.70821" lon="5.57627">
        <ele>365</ele>
        <time>2020-03-13T12:56:04Z</time>
      </trkpt>
      <trkpt lat="46.70827" lon="5.57625">
        <ele>365.9</ele>
        <time>2020-03-13T12:56:08Z</time>
      </trkpt>
      <trkpt lat="46.70832" lon="5.57623">
        <ele>367.1</ele>
        <time>2020-03-13T12:56:12Z</time>
      </trkpt>
      <trkpt lat="46.70837" lon="5.57625">
        <ele>370</ele>
        <time>2020-03-13T12:56:19Z</time>
      </trkpt>
      <trkpt lat="46.70841" lon="5.57629">
        <ele>371.9</ele>
        <time>2020-03-13T12:56:24Z</time>
      </trkpt>
      <trkpt lat="46.70845" lon="5.57633">
        <ele>374.9</ele>
        <time>2020-03-13T12:56:37Z</time>
      </trkpt>
      <trkpt lat="46.70849" lon="5.57636">
        <ele>375.8</ele>
        <time>2020-03-13T12:56:45Z</time>
      </trkpt>
      <trkpt lat="46.70854" lon="5.5764">
        <ele>376.4</ele>
        <time>2020-03-13T12:56:53Z</time>
      </trkpt>
      <trkpt lat="46.70858" lon="5.57644">
        <ele>376.4</ele>
        <time>2020-03-13T12:56:56Z</time>
      </trkpt>
      <trkpt lat="46.70862" lon="5.57648">
        <ele>375.7</ele>
        <time>2020-03-13T12:57:03Z</time>
      </trkpt>
      <trkpt lat="46.70866" lon="5.57653">
        <ele>374.6</ele>
        <time>2020-03-13T12:57:12Z</time>
      </trkpt>
      <trkpt lat="46.70858" lon="5.57652">
        <ele>380.9</ele>
        <time>2020-03-13T12:58:37Z</time>
      </trkpt>
      <trkpt lat="46.70858" lon="5.57645">
        <ele>382.7</ele>
        <time>2020-03-13T12:58:48Z</time>
      </trkpt>
      <trkpt lat="46.70859" lon="5.57636">
        <ele>381.5</ele>
        <time>2020-03-13T12:59:03Z</time>
      </trkpt>
      <trkpt lat="46.70849" lon="5.57613">
        <ele>378.2</ele>
        <time>2020-03-13T13:00:16Z</time>
      </trkpt>
      <trkpt lat="46.70845" lon="5.57609">
        <ele>378.2</ele>
        <time>2020-03-13T13:00:20Z</time>
      </trkpt>
      <trkpt lat="46.70842" lon="5.57605">
        <ele>378.1</ele>
        <time>2020-03-13T13:00:28Z</time>
      </trkpt>
      <trkpt lat="46.70838" lon="5.57599">
        <ele>378.2</ele>
        <time>2020-03-13T13:00:31Z</time>
      </trkpt>
      <trkpt lat="46.70834" lon="5.57591">
        <ele>378.4</ele>
        <time>2020-03-13T13:00:34Z</time>
      </trkpt>
      <trkpt lat="46.70832" lon="5.57585">
        <ele>378.6</ele>
        <time>2020-03-13T13:00:37Z</time>
      </trkpt>
      <trkpt lat="46.70831" lon="5.57578">
        <ele>378.8</ele>
        <time>2020-03-13T13:00:40Z</time>
      </trkpt>
      <trkpt lat="46.70831" lon="5.57571">
        <ele>378.8</ele>
        <time>2020-03-13T13:00:43Z</time>
      </trkpt>
      <trkpt lat="46.70831" lon="5.57564">
        <ele>378.6</ele>
        <time>2020-03-13T13:00:46Z</time>
      </trkpt>
      <trkpt lat="46.70834" lon="5.57557">
        <ele>378.3</ele>
        <time>2020-03-13T13:00:50Z</time>
      </trkpt>
      <trkpt lat="46.70844" lon="5.57549">
        <ele>376.7</ele>
        <time>2020-03-13T13:00:59Z</time>
      </trkpt>
      <trkpt lat="46.7085" lon="5.57547">
        <ele>376.6</ele>
        <time>2020-03-13T13:01:02Z</time>
      </trkpt>
      <trkpt lat="46.70854" lon="5.57546">
        <ele>376.4</ele>
        <time>2020-03-13T13:01:05Z</time>
      </trkpt>
      <trkpt lat="46.70859" lon="5.57546">
        <ele>375.9</ele>
        <time>2020-03-13T13:01:09Z</time>
      </trkpt>
      <trkpt lat="46.70864" lon="5.57546">
        <ele>375.3</ele>
        <time>2020-03-13T13:01:14Z</time>
      </trkpt>
      <trkpt lat="46.70869" lon="5.57546">
        <ele>374.7</ele>
        <time>2020-03-13T13:01:19Z</time>
      </trkpt>
      <trkpt lat="46.70874" lon="5.57542">
        <ele>374.1</ele>
        <time>2020-03-13T13:01:24Z</time>
      </trkpt>
      <trkpt lat="46.70878" lon="5.57539">
        <ele>373.7</ele>
        <time>2020-03-13T13:01:29Z</time>
      </trkpt>
      <trkpt lat="46.70882" lon="5.57532">
        <ele>373.3</ele>
        <time>2020-03-13T13:01:33Z</time>
      </trkpt>
      <trkpt lat="46.70887" lon="5.5753">
        <ele>373</ele>
        <time>2020-03-13T13:01:37Z</time>
      </trkpt>
      <trkpt lat="46.70892" lon="5.57533">
        <ele>372.7</ele>
        <time>2020-03-13T13:01:41Z</time>
      </trkpt>
      <trkpt lat="46.70896" lon="5.57537">
        <ele>372.3</ele>
        <time>2020-03-13T13:01:46Z</time>
      </trkpt>
      <trkpt lat="46.709" lon="5.5754">
        <ele>372</ele>
        <time>2020-03-13T13:01:51Z</time>
      </trkpt>
      <trkpt lat="46.70904" lon="5.57543">
        <ele>371.7</ele>
        <time>2020-03-13T13:02:00Z</time>
      </trkpt>
      <trkpt lat="46.70909" lon="5.57545">
        <ele>371.4</ele>
        <time>2020-03-13T13:02:07Z</time>
      </trkpt>
      <trkpt lat="46.70914" lon="5.57548">
        <ele>371.1</ele>
        <time>2020-03-13T13:02:13Z</time>
      </trkpt>
      <trkpt lat="46.70917" lon="5.57552">
        <ele>371</ele>
        <time>2020-03-13T13:02:19Z</time>
      </trkpt>
      <trkpt lat="46.70922" lon="5.57554">
        <ele>370.9</ele>
        <time>2020-03-13T13:02:24Z</time>
      </trkpt>
      <trkpt lat="46.70927" lon="5.57557">
        <ele>370.6</ele>
        <time>2020-03-13T13:02:30Z</time>
      </trkpt>
      <trkpt lat="46.70932" lon="5.57559">
        <ele>370.4</ele>
        <time>2020-03-13T13:02:34Z</time>
      </trkpt>
      <trkpt lat="46.70936" lon="5.57562">
        <ele>370.2</ele>
        <time>2020-03-13T13:02:38Z</time>
      </trkpt>
      <trkpt lat="46.70941" lon="5.57563">
        <ele>370</ele>
        <time>2020-03-13T13:02:51Z</time>
      </trkpt>
      <trkpt lat="46.70945" lon="5.57565">
        <ele>370</ele>
        <time>2020-03-13T13:02:57Z</time>
      </trkpt>
      <trkpt lat="46.7095" lon="5.57567">
        <ele>370.4</ele>
        <time>2020-03-13T13:03:04Z</time>
      </trkpt>
      <trkpt lat="46.70954" lon="5.57572">
        <ele>370.6</ele>
        <time>2020-03-13T13:03:11Z</time>
      </trkpt>
      <trkpt lat="46.70958" lon="5.57575">
        <ele>370.6</ele>
        <time>2020-03-13T13:03:15Z</time>
      </trkpt>
      <trkpt lat="46.70962" lon="5.57579">
        <ele>370.2</ele>
        <time>2020-03-13T13:03:24Z</time>
      </trkpt>
      <trkpt lat="46.70967" lon="5.5758">
        <ele>369.8</ele>
        <time>2020-03-13T13:03:40Z</time>
      </trkpt>
      <trkpt lat="46.70971" lon="5.57582">
        <ele>370.1</ele>
        <time>2020-03-13T13:03:47Z</time>
      </trkpt>
      <trkpt lat="46.70976" lon="5.57585">
        <ele>370.2</ele>
        <time>2020-03-13T13:03:53Z</time>
      </trkpt>
      <trkpt lat="46.70981" lon="5.57589">
        <ele>370.1</ele>
        <time>2020-03-13T13:03:57Z</time>
      </trkpt>
      <trkpt lat="46.70986" lon="5.57592">
        <ele>369.8</ele>
        <time>2020-03-13T13:04:01Z</time>
      </trkpt>
      <trkpt lat="46.70989" lon="5.57598">
        <ele>369.6</ele>
        <time>2020-03-13T13:04:07Z</time>
      </trkpt>
      <trkpt lat="46.70992" lon="5.57603">
        <ele>370.1</ele>
        <time>2020-03-13T13:04:15Z</time>
      </trkpt>
      <trkpt lat="46.70997" lon="5.57607">
        <ele>370.3</ele>
        <time>2020-03-13T13:04:20Z</time>
      </trkpt>
      <trkpt lat="46.71002" lon="5.57611">
        <ele>370.8</ele>
        <time>2020-03-13T13:04:25Z</time>
      </trkpt>
      <trkpt lat="46.71006" lon="5.57614">
        <ele>371.4</ele>
        <time>2020-03-13T13:04:32Z</time>
      </trkpt>
      <trkpt lat="46.7101" lon="5.57617">
        <ele>372</ele>
        <time>2020-03-13T13:04:40Z</time>
      </trkpt>
      <trkpt lat="46.71013" lon="5.57623">
        <ele>372.1</ele>
        <time>2020-03-13T13:04:54Z</time>
      </trkpt>
      <trkpt lat="46.71011" lon="5.57617">
        <ele>369.1</ele>
        <time>2020-03-13T13:05:21Z</time>
      </trkpt>
      <trkpt lat="46.71013" lon="5.57623">
        <ele>372</ele>
        <time>2020-03-13T13:05:49Z</time>
      </trkpt>
      <trkpt lat="46.71017" lon="5.57622">
        <ele>372.1</ele>
        <time>2020-03-13T13:06:00Z</time>
      </trkpt>
      <trkpt lat="46.7102" lon="5.57628">
        <ele>372.3</ele>
        <time>2020-03-13T13:06:23Z</time>
      </trkpt>
      <trkpt lat="46.71024" lon="5.57632">
        <ele>372.6</ele>
        <time>2020-03-13T13:06:30Z</time>
      </trkpt>
      <trkpt lat="46.71028" lon="5.57635">
        <ele>372.6</ele>
        <time>2020-03-13T13:06:36Z</time>
      </trkpt>
      <trkpt lat="46.71032" lon="5.57638">
        <ele>372.4</ele>
        <time>2020-03-13T13:06:43Z</time>
      </trkpt>
      <trkpt lat="46.71036" lon="5.57642">
        <ele>372.4</ele>
        <time>2020-03-13T13:06:51Z</time>
      </trkpt>
      <trkpt lat="46.71041" lon="5.57646">
        <ele>372.4</ele>
        <time>2020-03-13T13:06:56Z</time>
      </trkpt>
      <trkpt lat="46.71045" lon="5.57649">
        <ele>372.4</ele>
        <time>2020-03-13T13:07:00Z</time>
      </trkpt>
      <trkpt lat="46.7105" lon="5.57652">
        <ele>372.2</ele>
        <time>2020-03-13T13:07:05Z</time>
      </trkpt>
      <trkpt lat="46.71056" lon="5.57655">
        <ele>372</ele>
        <time>2020-03-13T13:07:09Z</time>
      </trkpt>
      <trkpt lat="46.71059" lon="5.57658">
        <ele>371.8</ele>
        <time>2020-03-13T13:07:13Z</time>
      </trkpt>
      <trkpt lat="46.71064" lon="5.57661">
        <ele>371.5</ele>
        <time>2020-03-13T13:07:18Z</time>
      </trkpt>
      <trkpt lat="46.71068" lon="5.57665">
        <ele>371.3</ele>
        <time>2020-03-13T13:07:22Z</time>
      </trkpt>
      <trkpt lat="46.71072" lon="5.5767">
        <ele>371.1</ele>
        <time>2020-03-13T13:07:27Z</time>
      </trkpt>
      <trkpt lat="46.71076" lon="5.57674">
        <ele>371.1</ele>
        <time>2020-03-13T13:07:32Z</time>
      </trkpt>
      <trkpt lat="46.7108" lon="5.57679">
        <ele>371.3</ele>
        <time>2020-03-13T13:07:37Z</time>
      </trkpt>
      <trkpt lat="46.71084" lon="5.57682">
        <ele>371.5</ele>
        <time>2020-03-13T13:07:41Z</time>
      </trkpt>
      <trkpt lat="46.71088" lon="5.57686">
        <ele>371.8</ele>
        <time>2020-03-13T13:07:48Z</time>
      </trkpt>
      <trkpt lat="46.7109" lon="5.57693">
        <ele>371.3</ele>
        <time>2020-03-13T13:08:00Z</time>
      </trkpt>
      <trkpt lat="46.71086" lon="5.57688">
        <ele>371.1</ele>
        <time>2020-03-13T13:08:22Z</time>
      </trkpt>
      <trkpt lat="46.71083" lon="5.57682">
        <ele>370.9</ele>
        <time>2020-03-13T13:08:26Z</time>
      </trkpt>
      <trkpt lat="46.71079" lon="5.57677">
        <ele>370.8</ele>
        <time>2020-03-13T13:08:31Z</time>
      </trkpt>
      <trkpt lat="46.71082" lon="5.5768">
        <ele>370.5</ele>
        <time>2020-03-13T13:08:55Z</time>
      </trkpt>
      <trkpt lat="46.71085" lon="5.57685">
        <ele>370.4</ele>
        <time>2020-03-13T13:08:58Z</time>
      </trkpt>
      <trkpt lat="46.7109" lon="5.5769">
        <ele>370.1</ele>
        <time>2020-03-13T13:09:04Z</time>
      </trkpt>
      <trkpt lat="46.71093" lon="5.57693">
        <ele>369.9</ele>
        <time>2020-03-13T13:09:09Z</time>
      </trkpt>
      <trkpt lat="46.71098" lon="5.57697">
        <ele>369.7</ele>
        <time>2020-03-13T13:09:15Z</time>
      </trkpt>
      <trkpt lat="46.71102" lon="5.57699">
        <ele>369.7</ele>
        <time>2020-03-13T13:09:20Z</time>
      </trkpt>
      <trkpt lat="46.71107" lon="5.57696">
        <ele>369.7</ele>
        <time>2020-03-13T13:09:51Z</time>
      </trkpt>
      <trkpt lat="46.71112" lon="5.57694">
        <ele>369.7</ele>
        <time>2020-03-13T13:09:58Z</time>
      </trkpt>
      <trkpt lat="46.71116" lon="5.57692">
        <ele>370</ele>
        <time>2020-03-13T13:10:03Z</time>
      </trkpt>
      <trkpt lat="46.71121" lon="5.5769">
        <ele>370.4</ele>
        <time>2020-03-13T13:10:08Z</time>
      </trkpt>
      <trkpt lat="46.71126" lon="5.5769">
        <ele>370.6</ele>
        <time>2020-03-13T13:10:11Z</time>
      </trkpt>
      <trkpt lat="46.71131" lon="5.57691">
        <ele>370.9</ele>
        <time>2020-03-13T13:10:15Z</time>
      </trkpt>
      <trkpt lat="46.71136" lon="5.57689">
        <ele>371.7</ele>
        <time>2020-03-13T13:10:21Z</time>
      </trkpt>
      <trkpt lat="46.7114" lon="5.57688">
        <ele>372.6</ele>
        <time>2020-03-13T13:10:27Z</time>
      </trkpt>
      <trkpt lat="46.71145" lon="5.57689">
        <ele>373.4</ele>
        <time>2020-03-13T13:10:33Z</time>
      </trkpt>
      <trkpt lat="46.71149" lon="5.57691">
        <ele>374.3</ele>
        <time>2020-03-13T13:10:39Z</time>
      </trkpt>
      <trkpt lat="46.71154" lon="5.57696">
        <ele>374.9</ele>
        <time>2020-03-13T13:10:43Z</time>
      </trkpt>
      <trkpt lat="46.71158" lon="5.57699">
        <ele>375.4</ele>
        <time>2020-03-13T13:10:48Z</time>
      </trkpt>
      <trkpt lat="46.71162" lon="5.57704">
        <ele>376.1</ele>
        <time>2020-03-13T13:10:55Z</time>
      </trkpt>
      <trkpt lat="46.71166" lon="5.57708">
        <ele>376.5</ele>
        <time>2020-03-13T13:11:00Z</time>
      </trkpt>
      <trkpt lat="46.71171" lon="5.57711">
        <ele>376.8</ele>
        <time>2020-03-13T13:11:06Z</time>
      </trkpt>
      <trkpt lat="46.71175" lon="5.57714">
        <ele>377.2</ele>
        <time>2020-03-13T13:11:12Z</time>
      </trkpt>
      <trkpt lat="46.71181" lon="5.57716">
        <ele>377.3</ele>
        <time>2020-03-13T13:11:16Z</time>
      </trkpt>
      <trkpt lat="46.71185" lon="5.57718">
        <ele>377.3</ele>
        <time>2020-03-13T13:11:20Z</time>
      </trkpt>
      <trkpt lat="46.7119" lon="5.5772">
        <ele>377.2</ele>
        <time>2020-03-13T13:11:26Z</time>
      </trkpt>
      <trkpt lat="46.71195" lon="5.57722">
        <ele>376.9</ele>
        <time>2020-03-13T13:11:36Z</time>
      </trkpt>
      <trkpt lat="46.712" lon="5.57724">
        <ele>376.9</ele>
        <time>2020-03-13T13:11:42Z</time>
      </trkpt>
      <trkpt lat="46.71203" lon="5.57729">
        <ele>376.6</ele>
        <time>2020-03-13T13:11:48Z</time>
      </trkpt>
      <trkpt lat="46.71208" lon="5.5773">
        <ele>374.8</ele>
        <time>2020-03-13T13:12:02Z</time>
      </trkpt>
      <trkpt lat="46.71213" lon="5.57733">
        <ele>373.9</ele>
        <time>2020-03-13T13:12:07Z</time>
      </trkpt>
      <trkpt lat="46.71222" lon="5.57733">
        <ele>377.4</ele>
        <time>2020-03-13T13:15:48Z</time>
      </trkpt>
      <trkpt lat="46.71226" lon="5.57736">
        <ele>377.1</ele>
        <time>2020-03-13T13:15:54Z</time>
      </trkpt>
      <trkpt lat="46.71231" lon="5.57739">
        <ele>376.8</ele>
        <time>2020-03-13T13:16:00Z</time>
      </trkpt>
      <trkpt lat="46.71236" lon="5.57741">
        <ele>376.6</ele>
        <time>2020-03-13T13:16:06Z</time>
      </trkpt>
      <trkpt lat="46.7124" lon="5.57743">
        <ele>376.4</ele>
        <time>2020-03-13T13:16:11Z</time>
      </trkpt>
      <trkpt lat="46.71244" lon="5.57747">
        <ele>375.9</ele>
        <time>2020-03-13T13:16:18Z</time>
      </trkpt>
      <trkpt lat="46.71249" lon="5.5775">
        <ele>375.4</ele>
        <time>2020-03-13T13:16:23Z</time>
      </trkpt>
      <trkpt lat="46.71254" lon="5.57752">
        <ele>375</ele>
        <time>2020-03-13T13:16:29Z</time>
      </trkpt>
      <trkpt lat="46.71259" lon="5.57756">
        <ele>374.9</ele>
        <time>2020-03-13T13:16:43Z</time>
      </trkpt>
      <trkpt lat="46.71264" lon="5.57758">
        <ele>375.1</ele>
        <time>2020-03-13T13:16:47Z</time>
      </trkpt>
      <trkpt lat="46.71269" lon="5.57759">
        <ele>375.2</ele>
        <time>2020-03-13T13:16:50Z</time>
      </trkpt>
      <trkpt lat="46.71272" lon="5.57763">
        <ele>375.3</ele>
        <time>2020-03-13T13:16:54Z</time>
      </trkpt>
      <trkpt lat="46.71276" lon="5.57768">
        <ele>375.4</ele>
        <time>2020-03-13T13:17:01Z</time>
      </trkpt>
      <trkpt lat="46.71282" lon="5.57769">
        <ele>375.6</ele>
        <time>2020-03-13T13:17:08Z</time>
      </trkpt>
      <trkpt lat="46.71286" lon="5.5777">
        <ele>375.5</ele>
        <time>2020-03-13T13:17:11Z</time>
      </trkpt>
      <trkpt lat="46.71291" lon="5.57771">
        <ele>375.2</ele>
        <time>2020-03-13T13:17:16Z</time>
      </trkpt>
      <trkpt lat="46.71296" lon="5.57773">
        <ele>374.7</ele>
        <time>2020-03-13T13:17:23Z</time>
      </trkpt>
      <trkpt lat="46.71301" lon="5.57775">
        <ele>373.7</ele>
        <time>2020-03-13T13:17:30Z</time>
      </trkpt>
      <trkpt lat="46.71306" lon="5.57777">
        <ele>372.4</ele>
        <time>2020-03-13T13:17:39Z</time>
      </trkpt>
      <trkpt lat="46.7131" lon="5.57778">
        <ele>371.6</ele>
        <time>2020-03-13T13:17:44Z</time>
      </trkpt>
      <trkpt lat="46.71315" lon="5.5778">
        <ele>371</ele>
        <time>2020-03-13T13:17:49Z</time>
      </trkpt>
      <trkpt lat="46.7132" lon="5.5778">
        <ele>370.3</ele>
        <time>2020-03-13T13:17:55Z</time>
      </trkpt>
      <trkpt lat="46.71326" lon="5.57781">
        <ele>369.6</ele>
        <time>2020-03-13T13:17:59Z</time>
      </trkpt>
      <trkpt lat="46.7133" lon="5.57782">
        <ele>369.1</ele>
        <time>2020-03-13T13:18:04Z</time>
      </trkpt>
      <trkpt lat="46.71335" lon="5.57784">
        <ele>368.6</ele>
        <time>2020-03-13T13:18:09Z</time>
      </trkpt>
      <trkpt lat="46.71339" lon="5.57787">
        <ele>368.1</ele>
        <time>2020-03-13T13:18:14Z</time>
      </trkpt>
      <trkpt lat="46.71344" lon="5.57789">
        <ele>367.5</ele>
        <time>2020-03-13T13:18:20Z</time>
      </trkpt>
      <trkpt lat="46.71349" lon="5.57791">
        <ele>366.9</ele>
        <time>2020-03-13T13:18:25Z</time>
      </trkpt>
      <trkpt lat="46.71354" lon="5.57793">
        <ele>365</ele>
        <time>2020-03-13T13:18:39Z</time>
      </trkpt>
      <trkpt lat="46.7136" lon="5.57793">
        <ele>364.5</ele>
        <time>2020-03-13T13:18:42Z</time>
      </trkpt>
      <trkpt lat="46.71365" lon="5.57794">
        <ele>364.1</ele>
        <time>2020-03-13T13:18:46Z</time>
      </trkpt>
      <trkpt lat="46.7137" lon="5.57794">
        <ele>363.6</ele>
        <time>2020-03-13T13:18:51Z</time>
      </trkpt>
      <trkpt lat="46.71376" lon="5.57794">
        <ele>363.4</ele>
        <time>2020-03-13T13:18:56Z</time>
      </trkpt>
      <trkpt lat="46.71381" lon="5.57794">
        <ele>363.5</ele>
        <time>2020-03-13T13:19:01Z</time>
      </trkpt>
      <trkpt lat="46.71386" lon="5.57794">
        <ele>363.9</ele>
        <time>2020-03-13T13:19:08Z</time>
      </trkpt>
      <trkpt lat="46.71391" lon="5.57794">
        <ele>364.7</ele>
        <time>2020-03-13T13:19:14Z</time>
      </trkpt>
      <trkpt lat="46.71395" lon="5.57795">
        <ele>365.2</ele>
        <time>2020-03-13T13:19:19Z</time>
      </trkpt>
      <trkpt lat="46.714" lon="5.57796">
        <ele>365.6</ele>
        <time>2020-03-13T13:19:25Z</time>
      </trkpt>
      <trkpt lat="46.71405" lon="5.57799">
        <ele>366</ele>
        <time>2020-03-13T13:19:32Z</time>
      </trkpt>
      <trkpt lat="46.71411" lon="5.57799">
        <ele>365.9</ele>
        <time>2020-03-13T13:19:37Z</time>
      </trkpt>
      <trkpt lat="46.71416" lon="5.57797">
        <ele>365.8</ele>
        <time>2020-03-13T13:19:41Z</time>
      </trkpt>
      <trkpt lat="46.71421" lon="5.57798">
        <ele>365.7</ele>
        <time>2020-03-13T13:19:46Z</time>
      </trkpt>
      <trkpt lat="46.71425" lon="5.57798">
        <ele>365.5</ele>
        <time>2020-03-13T13:19:49Z</time>
      </trkpt>
      <trkpt lat="46.7143" lon="5.57797">
        <ele>365.1</ele>
        <time>2020-03-13T13:19:52Z</time>
      </trkpt>
      <trkpt lat="46.71435" lon="5.57796">
        <ele>364.6</ele>
        <time>2020-03-13T13:19:56Z</time>
      </trkpt>
      <trkpt lat="46.71441" lon="5.57796">
        <ele>364.2</ele>
        <time>2020-03-13T13:20:00Z</time>
      </trkpt>
      <trkpt lat="46.71445" lon="5.57795">
        <ele>363.9</ele>
        <time>2020-03-13T13:20:04Z</time>
      </trkpt>
      <trkpt lat="46.7145" lon="5.57793">
        <ele>363.8</ele>
        <time>2020-03-13T13:20:09Z</time>
      </trkpt>
      <trkpt lat="46.71455" lon="5.57791">
        <ele>363.9</ele>
        <time>2020-03-13T13:20:14Z</time>
      </trkpt>
      <trkpt lat="46.71459" lon="5.57791">
        <ele>364</ele>
        <time>2020-03-13T13:20:19Z</time>
      </trkpt>
      <trkpt lat="46.71465" lon="5.5779">
        <ele>364.1</ele>
        <time>2020-03-13T13:20:24Z</time>
      </trkpt>
      <trkpt lat="46.71469" lon="5.57787">
        <ele>364.4</ele>
        <time>2020-03-13T13:20:30Z</time>
      </trkpt>
      <trkpt lat="46.71473" lon="5.57784">
        <ele>365</ele>
        <time>2020-03-13T13:20:37Z</time>
      </trkpt>
      <trkpt lat="46.71478" lon="5.57783">
        <ele>366</ele>
        <time>2020-03-13T13:20:43Z</time>
      </trkpt>
      <trkpt lat="46.71482" lon="5.57779">
        <ele>367</ele>
        <time>2020-03-13T13:20:50Z</time>
      </trkpt>
      <trkpt lat="46.71486" lon="5.57775">
        <ele>367.6</ele>
        <time>2020-03-13T13:20:56Z</time>
      </trkpt>
      <trkpt lat="46.71489" lon="5.5777">
        <ele>367.8</ele>
        <time>2020-03-13T13:21:03Z</time>
      </trkpt>
      <trkpt lat="46.71492" lon="5.57765">
        <ele>367.9</ele>
        <time>2020-03-13T13:21:09Z</time>
      </trkpt>
      <trkpt lat="46.71496" lon="5.57763">
        <ele>368</ele>
        <time>2020-03-13T13:21:13Z</time>
      </trkpt>
      <trkpt lat="46.71501" lon="5.5776">
        <ele>368.1</ele>
        <time>2020-03-13T13:21:17Z</time>
      </trkpt>
      <trkpt lat="46.71506" lon="5.57757">
        <ele>368.1</ele>
        <time>2020-03-13T13:21:22Z</time>
      </trkpt>
      <trkpt lat="46.7151" lon="5.57756">
        <ele>368.2</ele>
        <time>2020-03-13T13:21:26Z</time>
      </trkpt>
      <trkpt lat="46.71511" lon="5.57749">
        <ele>368.4</ele>
        <time>2020-03-13T13:21:48Z</time>
      </trkpt>
      <trkpt lat="46.71513" lon="5.57742">
        <ele>368.3</ele>
        <time>2020-03-13T13:21:53Z</time>
      </trkpt>
      <trkpt lat="46.71515" lon="5.57737">
        <ele>368.2</ele>
        <time>2020-03-13T13:21:59Z</time>
      </trkpt>
      <trkpt lat="46.7152" lon="5.57734">
        <ele>367.8</ele>
        <time>2020-03-13T13:22:06Z</time>
      </trkpt>
      <trkpt lat="46.71526" lon="5.57734">
        <ele>367.7</ele>
        <time>2020-03-13T13:22:11Z</time>
      </trkpt>
      <trkpt lat="46.71531" lon="5.57733">
        <ele>367.7</ele>
        <time>2020-03-13T13:22:15Z</time>
      </trkpt>
      <trkpt lat="46.71536" lon="5.57732">
        <ele>367.7</ele>
        <time>2020-03-13T13:22:22Z</time>
      </trkpt>
      <trkpt lat="46.71539" lon="5.57728">
        <ele>367.5</ele>
        <time>2020-03-13T13:22:29Z</time>
      </trkpt>
      <trkpt lat="46.71544" lon="5.57725">
        <ele>367.2</ele>
        <time>2020-03-13T13:22:36Z</time>
      </trkpt>
      <trkpt lat="46.71548" lon="5.57723">
        <ele>366.7</ele>
        <time>2020-03-13T13:22:43Z</time>
      </trkpt>
      <trkpt lat="46.71553" lon="5.57723">
        <ele>366.2</ele>
        <time>2020-03-13T13:22:50Z</time>
      </trkpt>
      <trkpt lat="46.71558" lon="5.57726">
        <ele>366.2</ele>
        <time>2020-03-13T13:22:59Z</time>
      </trkpt>
      <trkpt lat="46.71562" lon="5.57728">
        <ele>366.2</ele>
        <time>2020-03-13T13:23:06Z</time>
      </trkpt>
      <trkpt lat="46.71567" lon="5.57728">
        <ele>366.1</ele>
        <time>2020-03-13T13:23:17Z</time>
      </trkpt>
      <trkpt lat="46.71571" lon="5.57731">
        <ele>365.6</ele>
        <time>2020-03-13T13:23:28Z</time>
      </trkpt>
      <trkpt lat="46.71576" lon="5.57734">
        <ele>365.8</ele>
        <time>2020-03-13T13:23:36Z</time>
      </trkpt>
      <trkpt lat="46.71581" lon="5.57737">
        <ele>365.7</ele>
        <time>2020-03-13T13:23:43Z</time>
      </trkpt>
      <trkpt lat="46.71585" lon="5.57739">
        <ele>365.6</ele>
        <time>2020-03-13T13:23:50Z</time>
      </trkpt>
      <trkpt lat="46.71589" lon="5.5774">
        <ele>365.2</ele>
        <time>2020-03-13T13:23:56Z</time>
      </trkpt>
      <trkpt lat="46.71595" lon="5.57741">
        <ele>365.1</ele>
        <time>2020-03-13T13:23:59Z</time>
      </trkpt>
      <trkpt lat="46.71599" lon="5.57742">
        <ele>364.9</ele>
        <time>2020-03-13T13:24:03Z</time>
      </trkpt>
      <trkpt lat="46.71604" lon="5.57744">
        <ele>364.9</ele>
        <time>2020-03-13T13:24:07Z</time>
      </trkpt>
      <trkpt lat="46.71609" lon="5.57743">
        <ele>364.5</ele>
        <time>2020-03-13T13:24:14Z</time>
      </trkpt>
      <trkpt lat="46.71614" lon="5.57746">
        <ele>364.2</ele>
        <time>2020-03-13T13:24:19Z</time>
      </trkpt>
      <trkpt lat="46.71618" lon="5.57748">
        <ele>363.8</ele>
        <time>2020-03-13T13:24:23Z</time>
      </trkpt>
      <trkpt lat="46.71624" lon="5.57749">
        <ele>363.1</ele>
        <time>2020-03-13T13:24:29Z</time>
      </trkpt>
      <trkpt lat="46.71628" lon="5.57752">
        <ele>362.6</ele>
        <time>2020-03-13T13:24:33Z</time>
      </trkpt>
      <trkpt lat="46.71634" lon="5.57753">
        <ele>362</ele>
        <time>2020-03-13T13:24:38Z</time>
      </trkpt>
      <trkpt lat="46.71639" lon="5.57753">
        <ele>361.8</ele>
        <time>2020-03-13T13:24:43Z</time>
      </trkpt>
      <trkpt lat="46.71645" lon="5.57754">
        <ele>361.6</ele>
        <time>2020-03-13T13:24:47Z</time>
      </trkpt>
      <trkpt lat="46.71649" lon="5.57755">
        <ele>361.6</ele>
        <time>2020-03-13T13:24:51Z</time>
      </trkpt>
      <trkpt lat="46.71654" lon="5.57758">
        <ele>361.7</ele>
        <time>2020-03-13T13:24:58Z</time>
      </trkpt>
      <trkpt lat="46.71658" lon="5.5776">
        <ele>361.5</ele>
        <time>2020-03-13T13:25:03Z</time>
      </trkpt>
      <trkpt lat="46.71663" lon="5.57761">
        <ele>361.3</ele>
        <time>2020-03-13T13:25:07Z</time>
      </trkpt>
      <trkpt lat="46.71668" lon="5.57764">
        <ele>361.1</ele>
        <time>2020-03-13T13:25:11Z</time>
      </trkpt>
      <trkpt lat="46.71673" lon="5.57765">
        <ele>360.7</ele>
        <time>2020-03-13T13:25:17Z</time>
      </trkpt>
      <trkpt lat="46.71677" lon="5.57767">
        <ele>360.4</ele>
        <time>2020-03-13T13:25:26Z</time>
      </trkpt>
      <trkpt lat="46.71683" lon="5.57768">
        <ele>360.3</ele>
        <time>2020-03-13T13:25:32Z</time>
      </trkpt>
      <trkpt lat="46.71688" lon="5.57768">
        <ele>360.3</ele>
        <time>2020-03-13T13:25:36Z</time>
      </trkpt>
      <trkpt lat="46.71693" lon="5.57769">
        <ele>360</ele>
        <time>2020-03-13T13:25:40Z</time>
      </trkpt>
      <trkpt lat="46.71698" lon="5.57771">
        <ele>359.8</ele>
        <time>2020-03-13T13:25:44Z</time>
      </trkpt>
      <trkpt lat="46.71703" lon="5.57773">
        <ele>359.7</ele>
        <time>2020-03-13T13:25:48Z</time>
      </trkpt>
      <trkpt lat="46.71709" lon="5.57774">
        <ele>359.7</ele>
        <time>2020-03-13T13:25:53Z</time>
      </trkpt>
      <trkpt lat="46.71713" lon="5.57774">
        <ele>359.7</ele>
        <time>2020-03-13T13:25:59Z</time>
      </trkpt>
      <trkpt lat="46.71718" lon="5.57776">
        <ele>359.5</ele>
        <time>2020-03-13T13:26:07Z</time>
      </trkpt>
      <trkpt lat="46.71723" lon="5.57777">
        <ele>359.4</ele>
        <time>2020-03-13T13:26:12Z</time>
      </trkpt>
      <trkpt lat="46.71728" lon="5.57779">
        <ele>359.5</ele>
        <time>2020-03-13T13:26:16Z</time>
      </trkpt>
      <trkpt lat="46.71733" lon="5.57782">
        <ele>359.5</ele>
        <time>2020-03-13T13:26:21Z</time>
      </trkpt>
      <trkpt lat="46.71737" lon="5.57784">
        <ele>359.5</ele>
        <time>2020-03-13T13:26:26Z</time>
      </trkpt>
      <trkpt lat="46.71742" lon="5.57788">
        <ele>359.7</ele>
        <time>2020-03-13T13:26:32Z</time>
      </trkpt>
      <trkpt lat="46.71747" lon="5.5779">
        <ele>359.7</ele>
        <time>2020-03-13T13:26:37Z</time>
      </trkpt>
      <trkpt lat="46.71752" lon="5.57794">
        <ele>359.7</ele>
        <time>2020-03-13T13:26:42Z</time>
      </trkpt>
      <trkpt lat="46.71756" lon="5.57798">
        <ele>359.8</ele>
        <time>2020-03-13T13:26:47Z</time>
      </trkpt>
      <trkpt lat="46.7176" lon="5.57802">
        <ele>360</ele>
        <time>2020-03-13T13:26:53Z</time>
      </trkpt>
      <trkpt lat="46.71764" lon="5.57806">
        <ele>360.1</ele>
        <time>2020-03-13T13:27:00Z</time>
      </trkpt>
      <trkpt lat="46.71768" lon="5.57809">
        <ele>360.2</ele>
        <time>2020-03-13T13:27:05Z</time>
      </trkpt>
      <trkpt lat="46.71773" lon="5.57811">
        <ele>360.1</ele>
        <time>2020-03-13T13:27:09Z</time>
      </trkpt>
      <trkpt lat="46.71778" lon="5.57813">
        <ele>360</ele>
        <time>2020-03-13T13:27:13Z</time>
      </trkpt>
      <trkpt lat="46.71783" lon="5.57815">
        <ele>359.8</ele>
        <time>2020-03-13T13:27:18Z</time>
      </trkpt>
      <trkpt lat="46.71788" lon="5.57816">
        <ele>359.4</ele>
        <time>2020-03-13T13:27:23Z</time>
      </trkpt>
      <trkpt lat="46.71793" lon="5.57817">
        <ele>359.1</ele>
        <time>2020-03-13T13:27:26Z</time>
      </trkpt>
      <trkpt lat="46.71798" lon="5.57817">
        <ele>358.8</ele>
        <time>2020-03-13T13:27:29Z</time>
      </trkpt>
      <trkpt lat="46.71803" lon="5.57818">
        <ele>358.4</ele>
        <time>2020-03-13T13:27:33Z</time>
      </trkpt>
      <trkpt lat="46.71808" lon="5.57819">
        <ele>357.9</ele>
        <time>2020-03-13T13:27:38Z</time>
      </trkpt>
      <trkpt lat="46.71812" lon="5.57821">
        <ele>357.4</ele>
        <time>2020-03-13T13:27:45Z</time>
      </trkpt>
      <trkpt lat="46.71817" lon="5.57823">
        <ele>357.3</ele>
        <time>2020-03-13T13:27:50Z</time>
      </trkpt>
      <trkpt lat="46.71822" lon="5.57824">
        <ele>357</ele>
        <time>2020-03-13T13:27:56Z</time>
      </trkpt>
      <trkpt lat="46.71828" lon="5.57825">
        <ele>356.9</ele>
        <time>2020-03-13T13:28:01Z</time>
      </trkpt>
      <trkpt lat="46.71832" lon="5.57826">
        <ele>356.8</ele>
        <time>2020-03-13T13:28:06Z</time>
      </trkpt>
      <trkpt lat="46.71837" lon="5.57828">
        <ele>356.6</ele>
        <time>2020-03-13T13:28:10Z</time>
      </trkpt>
      <trkpt lat="46.71841" lon="5.57829">
        <ele>356.4</ele>
        <time>2020-03-13T13:28:16Z</time>
      </trkpt>
      <trkpt lat="46.71847" lon="5.57827">
        <ele>356.3</ele>
        <time>2020-03-13T13:28:20Z</time>
      </trkpt>
      <trkpt lat="46.71852" lon="5.57827">
        <ele>357</ele>
        <time>2020-03-13T13:28:30Z</time>
      </trkpt>
      <trkpt lat="46.71856" lon="5.57832">
        <ele>357.6</ele>
        <time>2020-03-13T13:28:38Z</time>
      </trkpt>
      <trkpt lat="46.71861" lon="5.57836">
        <ele>357.8</ele>
        <time>2020-03-13T13:28:42Z</time>
      </trkpt>
      <trkpt lat="46.71864" lon="5.57841">
        <ele>357.6</ele>
        <time>2020-03-13T13:28:47Z</time>
      </trkpt>
      <trkpt lat="46.71867" lon="5.57847">
        <ele>357.2</ele>
        <time>2020-03-13T13:28:53Z</time>
      </trkpt>
      <trkpt lat="46.71871" lon="5.57851">
        <ele>357</ele>
        <time>2020-03-13T13:28:57Z</time>
      </trkpt>
      <trkpt lat="46.71876" lon="5.57854">
        <ele>356.5</ele>
        <time>2020-03-13T13:29:03Z</time>
      </trkpt>
      <trkpt lat="46.7188" lon="5.57858">
        <ele>356.2</ele>
        <time>2020-03-13T13:29:08Z</time>
      </trkpt>
      <trkpt lat="46.71884" lon="5.57863">
        <ele>355.9</ele>
        <time>2020-03-13T13:29:14Z</time>
      </trkpt>
      <trkpt lat="46.71888" lon="5.57867">
        <ele>355.7</ele>
        <time>2020-03-13T13:29:19Z</time>
      </trkpt>
      <trkpt lat="46.71892" lon="5.57871">
        <ele>355.3</ele>
        <time>2020-03-13T13:29:25Z</time>
      </trkpt>
      <trkpt lat="46.71896" lon="5.57875">
        <ele>355.1</ele>
        <time>2020-03-13T13:29:31Z</time>
      </trkpt>
      <trkpt lat="46.719" lon="5.57879">
        <ele>354.7</ele>
        <time>2020-03-13T13:29:36Z</time>
      </trkpt>
      <trkpt lat="46.71904" lon="5.57884">
        <ele>353.9</ele>
        <time>2020-03-13T13:29:43Z</time>
      </trkpt>
      <trkpt lat="46.71908" lon="5.57888">
        <ele>353.4</ele>
        <time>2020-03-13T13:29:51Z</time>
      </trkpt>
      <trkpt lat="46.71913" lon="5.57892">
        <ele>353.1</ele>
        <time>2020-03-13T13:29:56Z</time>
      </trkpt>
      <trkpt lat="46.71918" lon="5.57896">
        <ele>352.7</ele>
        <time>2020-03-13T13:30:00Z</time>
      </trkpt>
      <trkpt lat="46.71922" lon="5.57901">
        <ele>352.2</ele>
        <time>2020-03-13T13:30:05Z</time>
      </trkpt>
      <trkpt lat="46.71926" lon="5.57905">
        <ele>351.6</ele>
        <time>2020-03-13T13:30:11Z</time>
      </trkpt>
      <trkpt lat="46.7193" lon="5.5791">
        <ele>351.2</ele>
        <time>2020-03-13T13:30:17Z</time>
      </trkpt>
      <trkpt lat="46.71933" lon="5.57914">
        <ele>350.8</ele>
        <time>2020-03-13T13:30:22Z</time>
      </trkpt>
      <trkpt lat="46.71938" lon="5.57919">
        <ele>350.4</ele>
        <time>2020-03-13T13:30:27Z</time>
      </trkpt>
      <trkpt lat="46.71941" lon="5.57923">
        <ele>349.9</ele>
        <time>2020-03-13T13:30:32Z</time>
      </trkpt>
      <trkpt lat="46.71946" lon="5.57926">
        <ele>349.4</ele>
        <time>2020-03-13T13:30:37Z</time>
      </trkpt>
      <trkpt lat="46.7195" lon="5.57929">
        <ele>349</ele>
        <time>2020-03-13T13:30:43Z</time>
      </trkpt>
      <trkpt lat="46.71955" lon="5.5793">
        <ele>348.7</ele>
        <time>2020-03-13T13:30:48Z</time>
      </trkpt>
      <trkpt lat="46.7196" lon="5.5793">
        <ele>348.2</ele>
        <time>2020-03-13T13:30:54Z</time>
      </trkpt>
      <trkpt lat="46.71965" lon="5.57927">
        <ele>347.7</ele>
        <time>2020-03-13T13:30:58Z</time>
      </trkpt>
      <trkpt lat="46.71969" lon="5.57925">
        <ele>346</ele>
        <time>2020-03-13T13:31:06Z</time>
      </trkpt>
      <trkpt lat="46.71974" lon="5.57923">
        <ele>345</ele>
        <time>2020-03-13T13:31:12Z</time>
      </trkpt>
      <trkpt lat="46.71979" lon="5.5792">
        <ele>344.1</ele>
        <time>2020-03-13T13:31:19Z</time>
      </trkpt>
      <trkpt lat="46.71983" lon="5.57916">
        <ele>343.7</ele>
        <time>2020-03-13T13:31:25Z</time>
      </trkpt>
      <trkpt lat="46.71987" lon="5.57914">
        <ele>343.5</ele>
        <time>2020-03-13T13:31:30Z</time>
      </trkpt>
      <trkpt lat="46.71992" lon="5.57914">
        <ele>343</ele>
        <time>2020-03-13T13:31:36Z</time>
      </trkpt>
      <trkpt lat="46.71997" lon="5.57915">
        <ele>342.7</ele>
        <time>2020-03-13T13:31:46Z</time>
      </trkpt>
      <trkpt lat="46.72002" lon="5.57915">
        <ele>342.4</ele>
        <time>2020-03-13T13:31:51Z</time>
      </trkpt>
      <trkpt lat="46.72006" lon="5.57912">
        <ele>341.6</ele>
        <time>2020-03-13T13:32:01Z</time>
      </trkpt>
      <trkpt lat="46.72009" lon="5.57907">
        <ele>341.2</ele>
        <time>2020-03-13T13:32:07Z</time>
      </trkpt>
      <trkpt lat="46.72013" lon="5.57905">
        <ele>340.3</ele>
        <time>2020-03-13T13:32:17Z</time>
      </trkpt>
      <trkpt lat="46.72017" lon="5.57903">
        <ele>340.4</ele>
        <time>2020-03-13T13:32:23Z</time>
      </trkpt>
      <trkpt lat="46.7202" lon="5.57898">
        <ele>340.5</ele>
        <time>2020-03-13T13:32:28Z</time>
      </trkpt>
      <trkpt lat="46.72023" lon="5.57891">
        <ele>340.5</ele>
        <time>2020-03-13T13:32:34Z</time>
      </trkpt>
      <trkpt lat="46.72026" lon="5.57886">
        <ele>340.9</ele>
        <time>2020-03-13T13:32:40Z</time>
      </trkpt>
      <trkpt lat="46.7203" lon="5.57882">
        <ele>341.3</ele>
        <time>2020-03-13T13:32:45Z</time>
      </trkpt>
      <trkpt lat="46.72034" lon="5.57879">
        <ele>341.7</ele>
        <time>2020-03-13T13:32:50Z</time>
      </trkpt>
      <trkpt lat="46.72038" lon="5.57876">
        <ele>342</ele>
        <time>2020-03-13T13:32:55Z</time>
      </trkpt>
      <trkpt lat="46.72042" lon="5.57871">
        <ele>342.3</ele>
        <time>2020-03-13T13:33:00Z</time>
      </trkpt>
      <trkpt lat="46.72046" lon="5.57869">
        <ele>342.5</ele>
        <time>2020-03-13T13:33:07Z</time>
      </trkpt>
      <trkpt lat="46.72051" lon="5.57865">
        <ele>342.9</ele>
        <time>2020-03-13T13:33:12Z</time>
      </trkpt>
      <trkpt lat="46.72054" lon="5.57861">
        <ele>343.6</ele>
        <time>2020-03-13T13:33:24Z</time>
      </trkpt>
      <trkpt lat="46.72057" lon="5.57855">
        <ele>343.6</ele>
        <time>2020-03-13T13:33:32Z</time>
      </trkpt>
      <trkpt lat="46.7206" lon="5.57849">
        <ele>343.4</ele>
        <time>2020-03-13T13:33:39Z</time>
      </trkpt>
      <trkpt lat="46.72061" lon="5.57842">
        <ele>342.6</ele>
        <time>2020-03-13T13:33:47Z</time>
      </trkpt>
      <trkpt lat="46.72062" lon="5.57835">
        <ele>342</ele>
        <time>2020-03-13T13:33:53Z</time>
      </trkpt>
      <trkpt lat="46.72063" lon="5.57829">
        <ele>341.7</ele>
        <time>2020-03-13T13:33:57Z</time>
      </trkpt>
      <trkpt lat="46.72064" lon="5.57822">
        <ele>341.4</ele>
        <time>2020-03-13T13:34:03Z</time>
      </trkpt>
      <trkpt lat="46.72062" lon="5.57816">
        <ele>341.3</ele>
        <time>2020-03-13T13:34:07Z</time>
      </trkpt>
      <trkpt lat="46.7206" lon="5.57809">
        <ele>341.4</ele>
        <time>2020-03-13T13:34:14Z</time>
      </trkpt>
      <trkpt lat="46.72061" lon="5.57802">
        <ele>341.9</ele>
        <time>2020-03-13T13:34:21Z</time>
      </trkpt>
      <trkpt lat="46.72063" lon="5.57794">
        <ele>342</ele>
        <time>2020-03-13T13:34:25Z</time>
      </trkpt>
      <trkpt lat="46.72064" lon="5.57788">
        <ele>342.1</ele>
        <time>2020-03-13T13:34:29Z</time>
      </trkpt>
      <trkpt lat="46.72067" lon="5.57781">
        <ele>342.3</ele>
        <time>2020-03-13T13:34:35Z</time>
      </trkpt>
      <trkpt lat="46.72069" lon="5.57776">
        <ele>342.7</ele>
        <time>2020-03-13T13:34:40Z</time>
      </trkpt>
      <trkpt lat="46.7207" lon="5.57769">
        <ele>342.9</ele>
        <time>2020-03-13T13:34:45Z</time>
      </trkpt>
      <trkpt lat="46.72072" lon="5.57762">
        <ele>343.1</ele>
        <time>2020-03-13T13:34:49Z</time>
      </trkpt>
      <trkpt lat="46.72074" lon="5.57756">
        <ele>343.2</ele>
        <time>2020-03-13T13:34:54Z</time>
      </trkpt>
      <trkpt lat="46.72077" lon="5.5775">
        <ele>343.4</ele>
        <time>2020-03-13T13:35:00Z</time>
      </trkpt>
      <trkpt lat="46.72079" lon="5.57744">
        <ele>343.6</ele>
        <time>2020-03-13T13:35:05Z</time>
      </trkpt>
      <trkpt lat="46.72083" lon="5.57739">
        <ele>343.3</ele>
        <time>2020-03-13T13:35:23Z</time>
      </trkpt>
      <trkpt lat="46.72085" lon="5.57733">
        <ele>342.7</ele>
        <time>2020-03-13T13:35:29Z</time>
      </trkpt>
      <trkpt lat="46.72087" lon="5.57725">
        <ele>342.3</ele>
        <time>2020-03-13T13:35:35Z</time>
      </trkpt>
      <trkpt lat="46.72089" lon="5.57719">
        <ele>342.1</ele>
        <time>2020-03-13T13:35:39Z</time>
      </trkpt>
      <trkpt lat="46.72091" lon="5.57712">
        <ele>342</ele>
        <time>2020-03-13T13:35:44Z</time>
      </trkpt>
      <trkpt lat="46.7209" lon="5.57705">
        <ele>341.5</ele>
        <time>2020-03-13T13:35:50Z</time>
      </trkpt>
      <trkpt lat="46.72089" lon="5.57697">
        <ele>340.7</ele>
        <time>2020-03-13T13:35:56Z</time>
      </trkpt>
      <trkpt lat="46.72091" lon="5.57691">
        <ele>339.7</ele>
        <time>2020-03-13T13:36:02Z</time>
      </trkpt>
      <trkpt lat="46.72092" lon="5.57684">
        <ele>338.9</ele>
        <time>2020-03-13T13:36:08Z</time>
      </trkpt>
      <trkpt lat="46.72095" lon="5.57679">
        <ele>338.2</ele>
        <time>2020-03-13T13:36:15Z</time>
      </trkpt>
      <trkpt lat="46.721" lon="5.57676">
        <ele>337.3</ele>
        <time>2020-03-13T13:36:22Z</time>
      </trkpt>
      <trkpt lat="46.72105" lon="5.57676">
        <ele>336.4</ele>
        <time>2020-03-13T13:36:28Z</time>
      </trkpt>
      <trkpt lat="46.7211" lon="5.57675">
        <ele>335.7</ele>
        <time>2020-03-13T13:36:34Z</time>
      </trkpt>
      <trkpt lat="46.72114" lon="5.57673">
        <ele>335.4</ele>
        <time>2020-03-13T13:36:39Z</time>
      </trkpt>
      <trkpt lat="46.72119" lon="5.57672">
        <ele>335.3</ele>
        <time>2020-03-13T13:36:43Z</time>
      </trkpt>
      <trkpt lat="46.72124" lon="5.5767">
        <ele>335.3</ele>
        <time>2020-03-13T13:36:48Z</time>
      </trkpt>
      <trkpt lat="46.72129" lon="5.57668">
        <ele>335.3</ele>
        <time>2020-03-13T13:36:52Z</time>
      </trkpt>
      <trkpt lat="46.72133" lon="5.57665">
        <ele>335.2</ele>
        <time>2020-03-13T13:36:57Z</time>
      </trkpt>
      <trkpt lat="46.72138" lon="5.5767">
        <ele>335</ele>
        <time>2020-03-13T13:37:04Z</time>
      </trkpt>
      <trkpt lat="46.72141" lon="5.57674">
        <ele>334.9</ele>
        <time>2020-03-13T13:37:08Z</time>
      </trkpt>
      <trkpt lat="46.72144" lon="5.57679">
        <ele>334.6</ele>
        <time>2020-03-13T13:37:12Z</time>
      </trkpt>
      <trkpt lat="46.72146" lon="5.57685">
        <ele>333.9</ele>
        <time>2020-03-13T13:37:23Z</time>
      </trkpt>
      <trkpt lat="46.72148" lon="5.57692">
        <ele>333.8</ele>
        <time>2020-03-13T13:37:34Z</time>
      </trkpt>
      <trkpt lat="46.72145" lon="5.57697">
        <ele>334</ele>
        <time>2020-03-13T13:37:41Z</time>
      </trkpt>
      <trkpt lat="46.72145" lon="5.5769">
        <ele>335.6</ele>
        <time>2020-03-13T13:38:25Z</time>
      </trkpt>
      <trkpt lat="46.72146" lon="5.57697">
        <ele>333.2</ele>
        <time>2020-03-13T13:38:47Z</time>
      </trkpt>
      <trkpt lat="46.72152" lon="5.5772">
        <ele>323.1</ele>
        <time>2020-03-13T13:39:35Z</time>
      </trkpt>
      <trkpt lat="46.72155" lon="5.57714">
        <ele>323.6</ele>
        <time>2020-03-13T13:39:40Z</time>
      </trkpt>
      <trkpt lat="46.72156" lon="5.57706">
        <ele>324.3</ele>
        <time>2020-03-13T13:39:47Z</time>
      </trkpt>
      <trkpt lat="46.72154" lon="5.577">
        <ele>324.5</ele>
        <time>2020-03-13T13:39:50Z</time>
      </trkpt>
      <trkpt lat="46.7215" lon="5.57687">
        <ele>324.5</ele>
        <time>2020-03-13T13:40:07Z</time>
      </trkpt>
      <trkpt lat="46.72148" lon="5.57681">
        <ele>324.9</ele>
        <time>2020-03-13T13:40:14Z</time>
      </trkpt>
      <trkpt lat="46.72145" lon="5.57676">
        <ele>325.3</ele>
        <time>2020-03-13T13:40:20Z</time>
      </trkpt>
      <trkpt lat="46.72143" lon="5.5767">
        <ele>325.9</ele>
        <time>2020-03-13T13:40:25Z</time>
      </trkpt>
      <trkpt lat="46.72142" lon="5.57663">
        <ele>326.6</ele>
        <time>2020-03-13T13:40:31Z</time>
      </trkpt>
      <trkpt lat="46.72143" lon="5.57656">
        <ele>327.2</ele>
        <time>2020-03-13T13:40:38Z</time>
      </trkpt>
      <trkpt lat="46.72145" lon="5.5765">
        <ele>327.7</ele>
        <time>2020-03-13T13:40:44Z</time>
      </trkpt>
      <trkpt lat="46.72148" lon="5.57644">
        <ele>328.2</ele>
        <time>2020-03-13T13:40:50Z</time>
      </trkpt>
      <trkpt lat="46.7215" lon="5.57637">
        <ele>328.7</ele>
        <time>2020-03-13T13:40:55Z</time>
      </trkpt>
      <trkpt lat="46.72151" lon="5.57631">
        <ele>329.1</ele>
        <time>2020-03-13T13:41:01Z</time>
      </trkpt>
      <trkpt lat="46.72153" lon="5.57624">
        <ele>329.2</ele>
        <time>2020-03-13T13:41:06Z</time>
      </trkpt>
      <trkpt lat="46.72155" lon="5.57618">
        <ele>329</ele>
        <time>2020-03-13T13:41:12Z</time>
      </trkpt>
      <trkpt lat="46.72157" lon="5.57612">
        <ele>329</ele>
        <time>2020-03-13T13:41:17Z</time>
      </trkpt>
      <trkpt lat="46.72158" lon="5.57604">
        <ele>328.9</ele>
        <time>2020-03-13T13:41:22Z</time>
      </trkpt>
      <trkpt lat="46.7216" lon="5.57596">
        <ele>328.7</ele>
        <time>2020-03-13T13:41:27Z</time>
      </trkpt>
      <trkpt lat="46.72161" lon="5.57589">
        <ele>328.5</ele>
        <time>2020-03-13T13:41:31Z</time>
      </trkpt>
      <trkpt lat="46.72161" lon="5.57582">
        <ele>328.3</ele>
        <time>2020-03-13T13:41:35Z</time>
      </trkpt>
      <trkpt lat="46.72162" lon="5.57574">
        <ele>328</ele>
        <time>2020-03-13T13:41:41Z</time>
      </trkpt>
      <trkpt lat="46.72161" lon="5.57567">
        <ele>327.6</ele>
        <time>2020-03-13T13:41:47Z</time>
      </trkpt>
      <trkpt lat="46.72159" lon="5.5756">
        <ele>327.3</ele>
        <time>2020-03-13T13:41:52Z</time>
      </trkpt>
      <trkpt lat="46.72156" lon="5.57554">
        <ele>327.2</ele>
        <time>2020-03-13T13:41:57Z</time>
      </trkpt>
      <trkpt lat="46.72153" lon="5.5755">
        <ele>327.2</ele>
        <time>2020-03-13T13:42:01Z</time>
      </trkpt>
      <trkpt lat="46.72149" lon="5.57545">
        <ele>327.3</ele>
        <time>2020-03-13T13:42:05Z</time>
      </trkpt>
      <trkpt lat="46.72146" lon="5.57539">
        <ele>327.3</ele>
        <time>2020-03-13T13:42:10Z</time>
      </trkpt>
      <trkpt lat="46.72142" lon="5.57533">
        <ele>327.5</ele>
        <time>2020-03-13T13:42:15Z</time>
      </trkpt>
      <trkpt lat="46.72138" lon="5.57528">
        <ele>327.4</ele>
        <time>2020-03-13T13:42:20Z</time>
      </trkpt>
      <trkpt lat="46.72134" lon="5.57524">
        <ele>327.4</ele>
        <time>2020-03-13T13:42:25Z</time>
      </trkpt>
      <trkpt lat="46.7213" lon="5.57519">
        <ele>327.4</ele>
        <time>2020-03-13T13:42:31Z</time>
      </trkpt>
      <trkpt lat="46.72126" lon="5.57514">
        <ele>327.3</ele>
        <time>2020-03-13T13:42:37Z</time>
      </trkpt>
      <trkpt lat="46.72123" lon="5.57509">
        <ele>327.3</ele>
        <time>2020-03-13T13:42:41Z</time>
      </trkpt>
      <trkpt lat="46.7212" lon="5.57504">
        <ele>327.2</ele>
        <time>2020-03-13T13:42:45Z</time>
      </trkpt>
      <trkpt lat="46.72117" lon="5.57499">
        <ele>327.1</ele>
        <time>2020-03-13T13:42:50Z</time>
      </trkpt>
      <trkpt lat="46.72113" lon="5.57493">
        <ele>327</ele>
        <time>2020-03-13T13:42:55Z</time>
      </trkpt>
      <trkpt lat="46.72109" lon="5.57488">
        <ele>327</ele>
        <time>2020-03-13T13:43:00Z</time>
      </trkpt>
      <trkpt lat="46.72106" lon="5.57482">
        <ele>327</ele>
        <time>2020-03-13T13:43:04Z</time>
      </trkpt>
      <trkpt lat="46.72104" lon="5.57476">
        <ele>326.8</ele>
        <time>2020-03-13T13:43:10Z</time>
      </trkpt>
      <trkpt lat="46.721" lon="5.5747">
        <ele>326.8</ele>
        <time>2020-03-13T13:43:15Z</time>
      </trkpt>
      <trkpt lat="46.72098" lon="5.57465">
        <ele>326.8</ele>
        <time>2020-03-13T13:43:20Z</time>
      </trkpt>
      <trkpt lat="46.72094" lon="5.5746">
        <ele>326.9</ele>
        <time>2020-03-13T13:43:25Z</time>
      </trkpt>
      <trkpt lat="46.7209" lon="5.57456">
        <ele>327</ele>
        <time>2020-03-13T13:43:32Z</time>
      </trkpt>
      <trkpt lat="46.72086" lon="5.57451">
        <ele>327.3</ele>
        <time>2020-03-13T13:43:38Z</time>
      </trkpt>
      <trkpt lat="46.72083" lon="5.57447">
        <ele>327.6</ele>
        <time>2020-03-13T13:43:44Z</time>
      </trkpt>
      <trkpt lat="46.72079" lon="5.57443">
        <ele>327.8</ele>
        <time>2020-03-13T13:43:48Z</time>
      </trkpt>
      <trkpt lat="46.72076" lon="5.57437">
        <ele>327.9</ele>
        <time>2020-03-13T13:43:53Z</time>
      </trkpt>
      <trkpt lat="46.72073" lon="5.57431">
        <ele>327.9</ele>
        <time>2020-03-13T13:43:59Z</time>
      </trkpt>
      <trkpt lat="46.72072" lon="5.57424">
        <ele>327.9</ele>
        <time>2020-03-13T13:44:05Z</time>
      </trkpt>
      <trkpt lat="46.72074" lon="5.57416">
        <ele>327.7</ele>
        <time>2020-03-13T13:44:11Z</time>
      </trkpt>
      <trkpt lat="46.72076" lon="5.5741">
        <ele>327.6</ele>
        <time>2020-03-13T13:44:15Z</time>
      </trkpt>
      <trkpt lat="46.72078" lon="5.57404">
        <ele>327.6</ele>
        <time>2020-03-13T13:44:19Z</time>
      </trkpt>
      <trkpt lat="46.72081" lon="5.57398">
        <ele>327.4</ele>
        <time>2020-03-13T13:44:23Z</time>
      </trkpt>
      <trkpt lat="46.72084" lon="5.57393">
        <ele>327.3</ele>
        <time>2020-03-13T13:44:28Z</time>
      </trkpt>
      <trkpt lat="46.72086" lon="5.57387">
        <ele>327.5</ele>
        <time>2020-03-13T13:44:33Z</time>
      </trkpt>
      <trkpt lat="46.7209" lon="5.57382">
        <ele>327.6</ele>
        <time>2020-03-13T13:44:39Z</time>
      </trkpt>
      <trkpt lat="46.72094" lon="5.57377">
        <ele>327.5</ele>
        <time>2020-03-13T13:44:45Z</time>
      </trkpt>
      <trkpt lat="46.72098" lon="5.57372">
        <ele>327.5</ele>
        <time>2020-03-13T13:44:52Z</time>
      </trkpt>
      <trkpt lat="46.72102" lon="5.57368">
        <ele>327.2</ele>
        <time>2020-03-13T13:44:59Z</time>
      </trkpt>
      <trkpt lat="46.72106" lon="5.57366">
        <ele>326.9</ele>
        <time>2020-03-13T13:45:03Z</time>
      </trkpt>
      <trkpt lat="46.72111" lon="5.57364">
        <ele>326.7</ele>
        <time>2020-03-13T13:45:06Z</time>
      </trkpt>
      <trkpt lat="46.72116" lon="5.57362">
        <ele>326.4</ele>
        <time>2020-03-13T13:45:10Z</time>
      </trkpt>
      <trkpt lat="46.72121" lon="5.57361">
        <ele>325.9</ele>
        <time>2020-03-13T13:45:14Z</time>
      </trkpt>
      <trkpt lat="46.72126" lon="5.57361">
        <ele>325.3</ele>
        <time>2020-03-13T13:45:18Z</time>
      </trkpt>
      <trkpt lat="46.72131" lon="5.57361">
        <ele>324.8</ele>
        <time>2020-03-13T13:45:22Z</time>
      </trkpt>
      <trkpt lat="46.72136" lon="5.57361">
        <ele>324.5</ele>
        <time>2020-03-13T13:45:28Z</time>
      </trkpt>
      <trkpt lat="46.72141" lon="5.57363">
        <ele>324.1</ele>
        <time>2020-03-13T13:45:34Z</time>
      </trkpt>
      <trkpt lat="46.72146" lon="5.57365">
        <ele>323.8</ele>
        <time>2020-03-13T13:45:38Z</time>
      </trkpt>
      <trkpt lat="46.72151" lon="5.57367">
        <ele>323.5</ele>
        <time>2020-03-13T13:45:41Z</time>
      </trkpt>
      <trkpt lat="46.72156" lon="5.5737">
        <ele>322.9</ele>
        <time>2020-03-13T13:45:46Z</time>
      </trkpt>
      <trkpt lat="46.7216" lon="5.57373">
        <ele>322.4</ele>
        <time>2020-03-13T13:45:50Z</time>
      </trkpt>
      <trkpt lat="46.72165" lon="5.57375">
        <ele>322.2</ele>
        <time>2020-03-13T13:45:54Z</time>
      </trkpt>
      <trkpt lat="46.7217" lon="5.57377">
        <ele>322</ele>
        <time>2020-03-13T13:45:59Z</time>
      </trkpt>
      <trkpt lat="46.72175" lon="5.57377">
        <ele>322</ele>
        <time>2020-03-13T13:46:03Z</time>
      </trkpt>
      <trkpt lat="46.7218" lon="5.57376">
        <ele>322.2</ele>
        <time>2020-03-13T13:46:07Z</time>
      </trkpt>
      <trkpt lat="46.72185" lon="5.57374">
        <ele>322.3</ele>
        <time>2020-03-13T13:46:14Z</time>
      </trkpt>
      <trkpt lat="46.7219" lon="5.57373">
        <ele>322.1</ele>
        <time>2020-03-13T13:46:20Z</time>
      </trkpt>
      <trkpt lat="46.72195" lon="5.57371">
        <ele>321.8</ele>
        <time>2020-03-13T13:46:24Z</time>
      </trkpt>
      <trkpt lat="46.72199" lon="5.57369">
        <ele>321.2</ele>
        <time>2020-03-13T13:46:29Z</time>
      </trkpt>
      <trkpt lat="46.72204" lon="5.57367">
        <ele>320.5</ele>
        <time>2020-03-13T13:46:33Z</time>
      </trkpt>
      <trkpt lat="46.72209" lon="5.57364">
        <ele>319.6</ele>
        <time>2020-03-13T13:46:39Z</time>
      </trkpt>
      <trkpt lat="46.72214" lon="5.57362">
        <ele>319.1</ele>
        <time>2020-03-13T13:46:44Z</time>
      </trkpt>
      <trkpt lat="46.72219" lon="5.57362">
        <ele>318.8</ele>
        <time>2020-03-13T13:46:49Z</time>
      </trkpt>
      <trkpt lat="46.72224" lon="5.57359">
        <ele>318.8</ele>
        <time>2020-03-13T13:46:54Z</time>
      </trkpt>
      <trkpt lat="46.72229" lon="5.57357">
        <ele>318.8</ele>
        <time>2020-03-13T13:46:58Z</time>
      </trkpt>
      <trkpt lat="46.72234" lon="5.57355">
        <ele>318.7</ele>
        <time>2020-03-13T13:47:02Z</time>
      </trkpt>
      <trkpt lat="46.72239" lon="5.57354">
        <ele>318.5</ele>
        <time>2020-03-13T13:47:07Z</time>
      </trkpt>
      <trkpt lat="46.72243" lon="5.57351">
        <ele>318.2</ele>
        <time>2020-03-13T13:47:13Z</time>
      </trkpt>
      <trkpt lat="46.72248" lon="5.57349">
        <ele>317.9</ele>
        <time>2020-03-13T13:47:18Z</time>
      </trkpt>
      <trkpt lat="46.72253" lon="5.57346">
        <ele>317.7</ele>
        <time>2020-03-13T13:47:22Z</time>
      </trkpt>
      <trkpt lat="46.72257" lon="5.57342">
        <ele>317.5</ele>
        <time>2020-03-13T13:47:26Z</time>
      </trkpt>
      <trkpt lat="46.72262" lon="5.5734">
        <ele>317.3</ele>
        <time>2020-03-13T13:47:31Z</time>
      </trkpt>
      <trkpt lat="46.72267" lon="5.57337">
        <ele>317.2</ele>
        <time>2020-03-13T13:47:36Z</time>
      </trkpt>
      <trkpt lat="46.72272" lon="5.57335">
        <ele>317.2</ele>
        <time>2020-03-13T13:47:41Z</time>
      </trkpt>
      <trkpt lat="46.72277" lon="5.57333">
        <ele>317.3</ele>
        <time>2020-03-13T13:47:47Z</time>
      </trkpt>
      <trkpt lat="46.72282" lon="5.57332">
        <ele>317.5</ele>
        <time>2020-03-13T13:47:51Z</time>
      </trkpt>
      <trkpt lat="46.72288" lon="5.57331">
        <ele>317.5</ele>
        <time>2020-03-13T13:47:55Z</time>
      </trkpt>
      <trkpt lat="46.72293" lon="5.5733">
        <ele>317.4</ele>
        <time>2020-03-13T13:47:59Z</time>
      </trkpt>
      <trkpt lat="46.72298" lon="5.57329">
        <ele>317.2</ele>
        <time>2020-03-13T13:48:05Z</time>
      </trkpt>
      <trkpt lat="46.72302" lon="5.57327">
        <ele>317.2</ele>
        <time>2020-03-13T13:48:10Z</time>
      </trkpt>
      <trkpt lat="46.72307" lon="5.57326">
        <ele>317.1</ele>
        <time>2020-03-13T13:48:15Z</time>
      </trkpt>
      <trkpt lat="46.72312" lon="5.57328">
        <ele>317.1</ele>
        <time>2020-03-13T13:48:20Z</time>
      </trkpt>
      <trkpt lat="46.72316" lon="5.5733">
        <ele>317.2</ele>
        <time>2020-03-13T13:48:25Z</time>
      </trkpt>
      <trkpt lat="46.72321" lon="5.57332">
        <ele>317.4</ele>
        <time>2020-03-13T13:48:29Z</time>
      </trkpt>
      <trkpt lat="46.72326" lon="5.57333">
        <ele>317.6</ele>
        <time>2020-03-13T13:48:34Z</time>
      </trkpt>
      <trkpt lat="46.72332" lon="5.57334">
        <ele>317.9</ele>
        <time>2020-03-13T13:48:38Z</time>
      </trkpt>
      <trkpt lat="46.72338" lon="5.57336">
        <ele>318.2</ele>
        <time>2020-03-13T13:48:42Z</time>
      </trkpt>
      <trkpt lat="46.72342" lon="5.57338">
        <ele>318.5</ele>
        <time>2020-03-13T13:48:47Z</time>
      </trkpt>
      <trkpt lat="46.72347" lon="5.57339">
        <ele>318.7</ele>
        <time>2020-03-13T13:48:53Z</time>
      </trkpt>
      <trkpt lat="46.72352" lon="5.5734">
        <ele>318.8</ele>
        <time>2020-03-13T13:48:58Z</time>
      </trkpt>
      <trkpt lat="46.72357" lon="5.57339">
        <ele>319</ele>
        <time>2020-03-13T13:49:03Z</time>
      </trkpt>
      <trkpt lat="46.72362" lon="5.57339">
        <ele>319.2</ele>
        <time>2020-03-13T13:49:08Z</time>
      </trkpt>
      <trkpt lat="46.72367" lon="5.57339">
        <ele>319.2</ele>
        <time>2020-03-13T13:49:13Z</time>
      </trkpt>
      <trkpt lat="46.72371" lon="5.57336">
        <ele>318.9</ele>
        <time>2020-03-13T13:49:19Z</time>
      </trkpt>
      <trkpt lat="46.72375" lon="5.57332">
        <ele>318.5</ele>
        <time>2020-03-13T13:49:24Z</time>
      </trkpt>
      <trkpt lat="46.7238" lon="5.57328">
        <ele>318.1</ele>
        <time>2020-03-13T13:49:29Z</time>
      </trkpt>
      <trkpt lat="46.72384" lon="5.57325">
        <ele>317.8</ele>
        <time>2020-03-13T13:49:33Z</time>
      </trkpt>
      <trkpt lat="46.72389" lon="5.57321">
        <ele>317.5</ele>
        <time>2020-03-13T13:49:37Z</time>
      </trkpt>
      <trkpt lat="46.72393" lon="5.57318">
        <ele>317.1</ele>
        <time>2020-03-13T13:49:42Z</time>
      </trkpt>
      <trkpt lat="46.72397" lon="5.57315">
        <ele>316.7</ele>
        <time>2020-03-13T13:49:48Z</time>
      </trkpt>
      <trkpt lat="46.72402" lon="5.57312">
        <ele>316.3</ele>
        <time>2020-03-13T13:49:54Z</time>
      </trkpt>
      <trkpt lat="46.72406" lon="5.57308">
        <ele>316.2</ele>
        <time>2020-03-13T13:49:58Z</time>
      </trkpt>
      <trkpt lat="46.7241" lon="5.57304">
        <ele>316</ele>
        <time>2020-03-13T13:50:02Z</time>
      </trkpt>
      <trkpt lat="46.72414" lon="5.57299">
        <ele>315.8</ele>
        <time>2020-03-13T13:50:07Z</time>
      </trkpt>
      <trkpt lat="46.72418" lon="5.57293">
        <ele>315.6</ele>
        <time>2020-03-13T13:50:11Z</time>
      </trkpt>
      <trkpt lat="46.72422" lon="5.57288">
        <ele>315.3</ele>
        <time>2020-03-13T13:50:15Z</time>
      </trkpt>
      <trkpt lat="46.72425" lon="5.57283">
        <ele>315.1</ele>
        <time>2020-03-13T13:50:20Z</time>
      </trkpt>
      <trkpt lat="46.72428" lon="5.57278">
        <ele>315</ele>
        <time>2020-03-13T13:50:24Z</time>
      </trkpt>
      <trkpt lat="46.72431" lon="5.57271">
        <ele>314.8</ele>
        <time>2020-03-13T13:50:29Z</time>
      </trkpt>
      <trkpt lat="46.72432" lon="5.57265">
        <ele>314.6</ele>
        <time>2020-03-13T13:50:34Z</time>
      </trkpt>
      <trkpt lat="46.72435" lon="5.57258">
        <ele>314.4</ele>
        <time>2020-03-13T13:50:39Z</time>
      </trkpt>
      <trkpt lat="46.72436" lon="5.57252">
        <ele>314.3</ele>
        <time>2020-03-13T13:50:43Z</time>
      </trkpt>
      <trkpt lat="46.72438" lon="5.57246">
        <ele>314.1</ele>
        <time>2020-03-13T13:50:47Z</time>
      </trkpt>
      <trkpt lat="46.7244" lon="5.57239">
        <ele>314</ele>
        <time>2020-03-13T13:50:51Z</time>
      </trkpt>
      <trkpt lat="46.72441" lon="5.57232">
        <ele>313.9</ele>
        <time>2020-03-13T13:50:56Z</time>
      </trkpt>
      <trkpt lat="46.72442" lon="5.57225">
        <ele>313.9</ele>
        <time>2020-03-13T13:51:01Z</time>
      </trkpt>
      <trkpt lat="46.72444" lon="5.57218">
        <ele>313.9</ele>
        <time>2020-03-13T13:51:06Z</time>
      </trkpt>
      <trkpt lat="46.72444" lon="5.57211">
        <ele>313.7</ele>
        <time>2020-03-13T13:51:11Z</time>
      </trkpt>
      <trkpt lat="46.72446" lon="5.57204">
        <ele>313.6</ele>
        <time>2020-03-13T13:51:15Z</time>
      </trkpt>
      <trkpt lat="46.72448" lon="5.57197">
        <ele>313.3</ele>
        <time>2020-03-13T13:51:19Z</time>
      </trkpt>
      <trkpt lat="46.7245" lon="5.5719">
        <ele>313</ele>
        <time>2020-03-13T13:51:24Z</time>
      </trkpt>
      <trkpt lat="46.72452" lon="5.57183">
        <ele>312.6</ele>
        <time>2020-03-13T13:51:29Z</time>
      </trkpt>
      <trkpt lat="46.72453" lon="5.57176">
        <ele>312.2</ele>
        <time>2020-03-13T13:51:33Z</time>
      </trkpt>
      <trkpt lat="46.72454" lon="5.57169">
        <ele>311.7</ele>
        <time>2020-03-13T13:51:38Z</time>
      </trkpt>
      <trkpt lat="46.72457" lon="5.57162">
        <ele>311.4</ele>
        <time>2020-03-13T13:51:43Z</time>
      </trkpt>
      <trkpt lat="46.7246" lon="5.57156">
        <ele>311.2</ele>
        <time>2020-03-13T13:51:48Z</time>
      </trkpt>
      <trkpt lat="46.72462" lon="5.5715">
        <ele>311.3</ele>
        <time>2020-03-13T13:51:53Z</time>
      </trkpt>
      <trkpt lat="46.72464" lon="5.57142">
        <ele>311.3</ele>
        <time>2020-03-13T13:51:57Z</time>
      </trkpt>
      <trkpt lat="46.72466" lon="5.57137">
        <ele>311.2</ele>
        <time>2020-03-13T13:52:01Z</time>
      </trkpt>
      <trkpt lat="46.72469" lon="5.57131">
        <ele>311.1</ele>
        <time>2020-03-13T13:52:05Z</time>
      </trkpt>
      <trkpt lat="46.72472" lon="5.57125">
        <ele>310.8</ele>
        <time>2020-03-13T13:52:11Z</time>
      </trkpt>
      <trkpt lat="46.72476" lon="5.57119">
        <ele>310.3</ele>
        <time>2020-03-13T13:52:17Z</time>
      </trkpt>
      <trkpt lat="46.72479" lon="5.57113">
        <ele>309.8</ele>
        <time>2020-03-13T13:52:24Z</time>
      </trkpt>
      <trkpt lat="46.72482" lon="5.57107">
        <ele>309.4</ele>
        <time>2020-03-13T13:52:29Z</time>
      </trkpt>
      <trkpt lat="46.72485" lon="5.57101">
        <ele>309.2</ele>
        <time>2020-03-13T13:52:33Z</time>
      </trkpt>
      <trkpt lat="46.72487" lon="5.57095">
        <ele>309.1</ele>
        <time>2020-03-13T13:52:38Z</time>
      </trkpt>
      <trkpt lat="46.72489" lon="5.57089">
        <ele>309.1</ele>
        <time>2020-03-13T13:52:45Z</time>
      </trkpt>
      <trkpt lat="46.72492" lon="5.57082">
        <ele>309.2</ele>
        <time>2020-03-13T13:52:50Z</time>
      </trkpt>
      <trkpt lat="46.72495" lon="5.57076">
        <ele>309.3</ele>
        <time>2020-03-13T13:52:54Z</time>
      </trkpt>
      <trkpt lat="46.72498" lon="5.57071">
        <ele>309.3</ele>
        <time>2020-03-13T13:52:59Z</time>
      </trkpt>
      <trkpt lat="46.725" lon="5.57064">
        <ele>309.2</ele>
        <time>2020-03-13T13:53:05Z</time>
      </trkpt>
      <trkpt lat="46.72503" lon="5.57058">
        <ele>309.2</ele>
        <time>2020-03-13T13:53:10Z</time>
      </trkpt>
      <trkpt lat="46.72506" lon="5.57052">
        <ele>309.2</ele>
        <time>2020-03-13T13:53:15Z</time>
      </trkpt>
      <trkpt lat="46.7251" lon="5.57047">
        <ele>308.9</ele>
        <time>2020-03-13T13:53:20Z</time>
      </trkpt>
      <trkpt lat="46.72514" lon="5.57043">
        <ele>308.6</ele>
        <time>2020-03-13T13:53:25Z</time>
      </trkpt>
      <trkpt lat="46.72517" lon="5.57038">
        <ele>308.2</ele>
        <time>2020-03-13T13:53:30Z</time>
      </trkpt>
      <trkpt lat="46.72518" lon="5.57032">
        <ele>307.6</ele>
        <time>2020-03-13T13:53:36Z</time>
      </trkpt>
      <trkpt lat="46.72521" lon="5.57027">
        <ele>307.1</ele>
        <time>2020-03-13T13:53:42Z</time>
      </trkpt>
      <trkpt lat="46.72524" lon="5.57022">
        <ele>307.5</ele>
        <time>2020-03-13T13:53:58Z</time>
      </trkpt>
      <trkpt lat="46.72521" lon="5.57027">
        <ele>308.2</ele>
        <time>2020-03-13T13:54:14Z</time>
      </trkpt>
      <trkpt lat="46.72526" lon="5.57023">
        <ele>307.5</ele>
        <time>2020-03-13T13:54:38Z</time>
      </trkpt>
      <trkpt lat="46.72529" lon="5.57017">
        <ele>307.3</ele>
        <time>2020-03-13T13:54:41Z</time>
      </trkpt>
      <trkpt lat="46.72533" lon="5.57012">
        <ele>307.1</ele>
        <time>2020-03-13T13:54:45Z</time>
      </trkpt>
      <trkpt lat="46.72537" lon="5.57007">
        <ele>306.9</ele>
        <time>2020-03-13T13:54:49Z</time>
      </trkpt>
      <trkpt lat="46.7254" lon="5.57002">
        <ele>306.6</ele>
        <time>2020-03-13T13:54:53Z</time>
      </trkpt>
      <trkpt lat="46.72544" lon="5.56997">
        <ele>306.4</ele>
        <time>2020-03-13T13:54:57Z</time>
      </trkpt>
      <trkpt lat="46.72547" lon="5.56992">
        <ele>306.3</ele>
        <time>2020-03-13T13:55:01Z</time>
      </trkpt>
      <trkpt lat="46.72551" lon="5.56986">
        <ele>306.2</ele>
        <time>2020-03-13T13:55:06Z</time>
      </trkpt>
      <trkpt lat="46.72554" lon="5.56981">
        <ele>306</ele>
        <time>2020-03-13T13:55:11Z</time>
      </trkpt>
      <trkpt lat="46.72558" lon="5.56975">
        <ele>305.9</ele>
        <time>2020-03-13T13:55:15Z</time>
      </trkpt>
      <trkpt lat="46.72562" lon="5.5697">
        <ele>305.7</ele>
        <time>2020-03-13T13:55:19Z</time>
      </trkpt>
      <trkpt lat="46.72565" lon="5.56965">
        <ele>305.4</ele>
        <time>2020-03-13T13:55:23Z</time>
      </trkpt>
      <trkpt lat="46.72568" lon="5.5696">
        <ele>304.9</ele>
        <time>2020-03-13T13:55:29Z</time>
      </trkpt>
      <trkpt lat="46.72572" lon="5.56954">
        <ele>304.7</ele>
        <time>2020-03-13T13:55:35Z</time>
      </trkpt>
      <trkpt lat="46.72574" lon="5.56948">
        <ele>304.5</ele>
        <time>2020-03-13T13:55:41Z</time>
      </trkpt>
      <trkpt lat="46.72578" lon="5.56944">
        <ele>304.2</ele>
        <time>2020-03-13T13:55:47Z</time>
      </trkpt>
      <trkpt lat="46.72582" lon="5.5694">
        <ele>303.8</ele>
        <time>2020-03-13T13:55:51Z</time>
      </trkpt>
      <trkpt lat="46.72587" lon="5.56936">
        <ele>303.4</ele>
        <time>2020-03-13T13:55:55Z</time>
      </trkpt>
      <trkpt lat="46.7259" lon="5.56932">
        <ele>302.7</ele>
        <time>2020-03-13T13:56:01Z</time>
      </trkpt>
      <trkpt lat="46.72594" lon="5.56928">
        <ele>301.5</ele>
        <time>2020-03-13T13:56:11Z</time>
      </trkpt>
      <trkpt lat="46.72597" lon="5.56923">
        <ele>301</ele>
        <time>2020-03-13T13:56:16Z</time>
      </trkpt>
      <trkpt lat="46.726" lon="5.56917">
        <ele>300.7</ele>
        <time>2020-03-13T13:56:21Z</time>
      </trkpt>
      <trkpt lat="46.72601" lon="5.56911">
        <ele>300.6</ele>
        <time>2020-03-13T13:56:25Z</time>
      </trkpt>
      <trkpt lat="46.72602" lon="5.56904">
        <ele>300.7</ele>
        <time>2020-03-13T13:56:31Z</time>
      </trkpt>
      <trkpt lat="46.72605" lon="5.56897">
        <ele>300.8</ele>
        <time>2020-03-13T13:56:36Z</time>
      </trkpt>
      <trkpt lat="46.72608" lon="5.5689">
        <ele>300.8</ele>
        <time>2020-03-13T13:56:42Z</time>
      </trkpt>
      <trkpt lat="46.72611" lon="5.56883">
        <ele>300.8</ele>
        <time>2020-03-13T13:56:46Z</time>
      </trkpt>
      <trkpt lat="46.72614" lon="5.56878">
        <ele>300.8</ele>
        <time>2020-03-13T13:56:50Z</time>
      </trkpt>
      <trkpt lat="46.72617" lon="5.56871">
        <ele>301</ele>
        <time>2020-03-13T13:56:55Z</time>
      </trkpt>
      <trkpt lat="46.7262" lon="5.56865">
        <ele>301.3</ele>
        <time>2020-03-13T13:57:00Z</time>
      </trkpt>
      <trkpt lat="46.72623" lon="5.5686">
        <ele>301.4</ele>
        <time>2020-03-13T13:57:05Z</time>
      </trkpt>
      <trkpt lat="46.72627" lon="5.56854">
        <ele>301.4</ele>
        <time>2020-03-13T13:57:10Z</time>
      </trkpt>
      <trkpt lat="46.7263" lon="5.56849">
        <ele>301.3</ele>
        <time>2020-03-13T13:57:15Z</time>
      </trkpt>
      <trkpt lat="46.72634" lon="5.56845">
        <ele>301</ele>
        <time>2020-03-13T13:57:20Z</time>
      </trkpt>
      <trkpt lat="46.72637" lon="5.56841">
        <ele>300.5</ele>
        <time>2020-03-13T13:57:25Z</time>
      </trkpt>
      <trkpt lat="46.7264" lon="5.56836">
        <ele>300</ele>
        <time>2020-03-13T13:57:31Z</time>
      </trkpt>
      <trkpt lat="46.72645" lon="5.56831">
        <ele>299.6</ele>
        <time>2020-03-13T13:57:36Z</time>
      </trkpt>
      <trkpt lat="46.72649" lon="5.56827">
        <ele>299.2</ele>
        <time>2020-03-13T13:57:40Z</time>
      </trkpt>
      <trkpt lat="46.72652" lon="5.56822">
        <ele>298.7</ele>
        <time>2020-03-13T13:57:45Z</time>
      </trkpt>
      <trkpt lat="46.72657" lon="5.56817">
        <ele>298.3</ele>
        <time>2020-03-13T13:57:51Z</time>
      </trkpt>
      <trkpt lat="46.7266" lon="5.56813">
        <ele>298</ele>
        <time>2020-03-13T13:57:55Z</time>
      </trkpt>
      <trkpt lat="46.72664" lon="5.56808">
        <ele>297.7</ele>
        <time>2020-03-13T13:57:59Z</time>
      </trkpt>
      <trkpt lat="46.72667" lon="5.56803">
        <ele>297.5</ele>
        <time>2020-03-13T13:58:03Z</time>
      </trkpt>
      <trkpt lat="46.72671" lon="5.56798">
        <ele>297.2</ele>
        <time>2020-03-13T13:58:08Z</time>
      </trkpt>
      <trkpt lat="46.72673" lon="5.56793">
        <ele>296.9</ele>
        <time>2020-03-13T13:58:13Z</time>
      </trkpt>
      <trkpt lat="46.72677" lon="5.56786">
        <ele>296.9</ele>
        <time>2020-03-13T13:58:19Z</time>
      </trkpt>
      <trkpt lat="46.72679" lon="5.5678">
        <ele>296.9</ele>
        <time>2020-03-13T13:58:24Z</time>
      </trkpt>
      <trkpt lat="46.72681" lon="5.56774">
        <ele>296.9</ele>
        <time>2020-03-13T13:58:28Z</time>
      </trkpt>
      <trkpt lat="46.72683" lon="5.56768">
        <ele>296.8</ele>
        <time>2020-03-13T13:58:32Z</time>
      </trkpt>
      <trkpt lat="46.72685" lon="5.5676">
        <ele>296.8</ele>
        <time>2020-03-13T13:58:36Z</time>
      </trkpt>
      <trkpt lat="46.72688" lon="5.56753">
        <ele>296.8</ele>
        <time>2020-03-13T13:58:41Z</time>
      </trkpt>
      <trkpt lat="46.72691" lon="5.56747">
        <ele>297</ele>
        <time>2020-03-13T13:58:46Z</time>
      </trkpt>
      <trkpt lat="46.72693" lon="5.5674">
        <ele>297.1</ele>
        <time>2020-03-13T13:58:50Z</time>
      </trkpt>
      <trkpt lat="46.72694" lon="5.56733">
        <ele>297.4</ele>
        <time>2020-03-13T13:58:55Z</time>
      </trkpt>
      <trkpt lat="46.72696" lon="5.56727">
        <ele>297.7</ele>
        <time>2020-03-13T13:58:59Z</time>
      </trkpt>
      <trkpt lat="46.72698" lon="5.5672">
        <ele>298.1</ele>
        <time>2020-03-13T13:59:03Z</time>
      </trkpt>
      <trkpt lat="46.727" lon="5.56713">
        <ele>298.5</ele>
        <time>2020-03-13T13:59:07Z</time>
      </trkpt>
      <trkpt lat="46.72702" lon="5.56706">
        <ele>298.9</ele>
        <time>2020-03-13T13:59:11Z</time>
      </trkpt>
      <trkpt lat="46.72703" lon="5.567">
        <ele>299.2</ele>
        <time>2020-03-13T13:59:16Z</time>
      </trkpt>
      <trkpt lat="46.72704" lon="5.56692">
        <ele>299.7</ele>
        <time>2020-03-13T13:59:22Z</time>
      </trkpt>
      <trkpt lat="46.72705" lon="5.56686">
        <ele>299.9</ele>
        <time>2020-03-13T13:59:27Z</time>
      </trkpt>
      <trkpt lat="46.72707" lon="5.56679">
        <ele>299.8</ele>
        <time>2020-03-13T13:59:32Z</time>
      </trkpt>
      <trkpt lat="46.72708" lon="5.56673">
        <ele>299.6</ele>
        <time>2020-03-13T13:59:36Z</time>
      </trkpt>
      <trkpt lat="46.72709" lon="5.56666">
        <ele>299.4</ele>
        <time>2020-03-13T13:59:40Z</time>
      </trkpt>
      <trkpt lat="46.7271" lon="5.56658">
        <ele>299</ele>
        <time>2020-03-13T13:59:45Z</time>
      </trkpt>
      <trkpt lat="46.72711" lon="5.56651">
        <ele>298.9</ele>
        <time>2020-03-13T13:59:49Z</time>
      </trkpt>
      <trkpt lat="46.72711" lon="5.56644">
        <ele>298.9</ele>
        <time>2020-03-13T13:59:53Z</time>
      </trkpt>
      <trkpt lat="46.72712" lon="5.56637">
        <ele>299</ele>
        <time>2020-03-13T13:59:58Z</time>
      </trkpt>
      <trkpt lat="46.72713" lon="5.56629">
        <ele>299.2</ele>
        <time>2020-03-13T14:00:03Z</time>
      </trkpt>
      <trkpt lat="46.72713" lon="5.56622">
        <ele>299.4</ele>
        <time>2020-03-13T14:00:07Z</time>
      </trkpt>
      <trkpt lat="46.72714" lon="5.56615">
        <ele>299.6</ele>
        <time>2020-03-13T14:00:11Z</time>
      </trkpt>
      <trkpt lat="46.72715" lon="5.56607">
        <ele>299.7</ele>
        <time>2020-03-13T14:00:16Z</time>
      </trkpt>
      <trkpt lat="46.72715" lon="5.566">
        <ele>299.8</ele>
        <time>2020-03-13T14:00:21Z</time>
      </trkpt>
      <trkpt lat="46.72714" lon="5.56594">
        <ele>299.9</ele>
        <time>2020-03-13T14:00:26Z</time>
      </trkpt>
      <trkpt lat="46.72715" lon="5.56586">
        <ele>299.9</ele>
        <time>2020-03-13T14:00:30Z</time>
      </trkpt>
      <trkpt lat="46.72716" lon="5.56579">
        <ele>300.1</ele>
        <time>2020-03-13T14:00:36Z</time>
      </trkpt>
      <trkpt lat="46.72716" lon="5.56572">
        <ele>300.3</ele>
        <time>2020-03-13T14:00:41Z</time>
      </trkpt>
      <trkpt lat="46.72717" lon="5.56565">
        <ele>300.3</ele>
        <time>2020-03-13T14:00:46Z</time>
      </trkpt>
      <trkpt lat="46.72718" lon="5.56558">
        <ele>300.4</ele>
        <time>2020-03-13T14:00:52Z</time>
      </trkpt>
      <trkpt lat="46.72717" lon="5.5655">
        <ele>300.4</ele>
        <time>2020-03-13T14:00:57Z</time>
      </trkpt>
      <trkpt lat="46.72716" lon="5.56543">
        <ele>300.2</ele>
        <time>2020-03-13T14:01:01Z</time>
      </trkpt>
      <trkpt lat="46.72715" lon="5.56536">
        <ele>300.1</ele>
        <time>2020-03-13T14:01:05Z</time>
      </trkpt>
      <trkpt lat="46.72715" lon="5.56529">
        <ele>300.1</ele>
        <time>2020-03-13T14:01:09Z</time>
      </trkpt>
      <trkpt lat="46.72715" lon="5.56522">
        <ele>300.3</ele>
        <time>2020-03-13T14:01:14Z</time>
      </trkpt>
      <trkpt lat="46.72714" lon="5.56515">
        <ele>300.5</ele>
        <time>2020-03-13T14:01:18Z</time>
      </trkpt>
      <trkpt lat="46.72714" lon="5.56507">
        <ele>300.7</ele>
        <time>2020-03-13T14:01:23Z</time>
      </trkpt>
      <trkpt lat="46.72714" lon="5.56501">
        <ele>300.9</ele>
        <time>2020-03-13T14:01:27Z</time>
      </trkpt>
      <trkpt lat="46.72714" lon="5.56493">
        <ele>301.1</ele>
        <time>2020-03-13T14:01:32Z</time>
      </trkpt>
      <trkpt lat="46.72714" lon="5.56485">
        <ele>301.2</ele>
        <time>2020-03-13T14:01:37Z</time>
      </trkpt>
      <trkpt lat="46.72714" lon="5.56478">
        <ele>301.3</ele>
        <time>2020-03-13T14:01:43Z</time>
      </trkpt>
      <trkpt lat="46.72712" lon="5.56471">
        <ele>301.3</ele>
        <time>2020-03-13T14:01:47Z</time>
      </trkpt>
      <trkpt lat="46.72711" lon="5.56464">
        <ele>301.4</ele>
        <time>2020-03-13T14:01:51Z</time>
      </trkpt>
      <trkpt lat="46.7271" lon="5.56456">
        <ele>301.5</ele>
        <time>2020-03-13T14:01:55Z</time>
      </trkpt>
      <trkpt lat="46.72709" lon="5.5645">
        <ele>301.8</ele>
        <time>2020-03-13T14:01:59Z</time>
      </trkpt>
      <trkpt lat="46.72709" lon="5.56442">
        <ele>301.9</ele>
        <time>2020-03-13T14:02:03Z</time>
      </trkpt>
      <trkpt lat="46.72708" lon="5.56435">
        <ele>301.9</ele>
        <time>2020-03-13T14:02:07Z</time>
      </trkpt>
      <trkpt lat="46.72708" lon="5.56428">
        <ele>301.7</ele>
        <time>2020-03-13T14:02:12Z</time>
      </trkpt>
      <trkpt lat="46.72708" lon="5.56422">
        <ele>301.7</ele>
        <time>2020-03-13T14:02:16Z</time>
      </trkpt>
      <trkpt lat="46.72708" lon="5.56414">
        <ele>301.9</ele>
        <time>2020-03-13T14:02:22Z</time>
      </trkpt>
      <trkpt lat="46.72708" lon="5.56407">
        <ele>302.1</ele>
        <time>2020-03-13T14:02:26Z</time>
      </trkpt>
      <trkpt lat="46.72707" lon="5.564">
        <ele>302.1</ele>
        <time>2020-03-13T14:02:30Z</time>
      </trkpt>
      <trkpt lat="46.72707" lon="5.56392">
        <ele>302.1</ele>
        <time>2020-03-13T14:02:34Z</time>
      </trkpt>
      <trkpt lat="46.72708" lon="5.56385">
        <ele>302.2</ele>
        <time>2020-03-13T14:02:40Z</time>
      </trkpt>
      <trkpt lat="46.72708" lon="5.56377">
        <ele>302.3</ele>
        <time>2020-03-13T14:02:46Z</time>
      </trkpt>
      <trkpt lat="46.72708" lon="5.5637">
        <ele>302.1</ele>
        <time>2020-03-13T14:02:53Z</time>
      </trkpt>
      <trkpt lat="46.72709" lon="5.56362">
        <ele>301.8</ele>
        <time>2020-03-13T14:02:58Z</time>
      </trkpt>
      <trkpt lat="46.72709" lon="5.56355">
        <ele>301.8</ele>
        <time>2020-03-13T14:03:03Z</time>
      </trkpt>
      <trkpt lat="46.7271" lon="5.56348">
        <ele>301.9</ele>
        <time>2020-03-13T14:03:07Z</time>
      </trkpt>
      <trkpt lat="46.7271" lon="5.56341">
        <ele>302</ele>
        <time>2020-03-13T14:03:11Z</time>
      </trkpt>
      <trkpt lat="46.72711" lon="5.56333">
        <ele>302</ele>
        <time>2020-03-13T14:03:16Z</time>
      </trkpt>
      <trkpt lat="46.72712" lon="5.56324">
        <ele>301.9</ele>
        <time>2020-03-13T14:03:21Z</time>
      </trkpt>
      <trkpt lat="46.72713" lon="5.56318">
        <ele>301.7</ele>
        <time>2020-03-13T14:03:25Z</time>
      </trkpt>
      <trkpt lat="46.72713" lon="5.56311">
        <ele>301.6</ele>
        <time>2020-03-13T14:03:30Z</time>
      </trkpt>
      <trkpt lat="46.72715" lon="5.56304">
        <ele>301.4</ele>
        <time>2020-03-13T14:03:35Z</time>
      </trkpt>
      <trkpt lat="46.72717" lon="5.56298">
        <ele>301.1</ele>
        <time>2020-03-13T14:03:40Z</time>
      </trkpt>
      <trkpt lat="46.7272" lon="5.56292">
        <ele>300.9</ele>
        <time>2020-03-13T14:03:46Z</time>
      </trkpt>
      <trkpt lat="46.72722" lon="5.56285">
        <ele>300.7</ele>
        <time>2020-03-13T14:03:52Z</time>
      </trkpt>
      <trkpt lat="46.72722" lon="5.56277">
        <ele>300.3</ele>
        <time>2020-03-13T14:03:58Z</time>
      </trkpt>
      <trkpt lat="46.72721" lon="5.5627">
        <ele>299.6</ele>
        <time>2020-03-13T14:04:03Z</time>
      </trkpt>
      <trkpt lat="46.72722" lon="5.56262">
        <ele>298.9</ele>
        <time>2020-03-13T14:04:07Z</time>
      </trkpt>
      <trkpt lat="46.72723" lon="5.56255">
        <ele>298.2</ele>
        <time>2020-03-13T14:04:11Z</time>
      </trkpt>
      <trkpt lat="46.72723" lon="5.56248">
        <ele>297.4</ele>
        <time>2020-03-13T14:04:16Z</time>
      </trkpt>
      <trkpt lat="46.72725" lon="5.56241">
        <ele>296.8</ele>
        <time>2020-03-13T14:04:22Z</time>
      </trkpt>
      <trkpt lat="46.72726" lon="5.56234">
        <ele>296.3</ele>
        <time>2020-03-13T14:04:27Z</time>
      </trkpt>
      <trkpt lat="46.72727" lon="5.56227">
        <ele>296</ele>
        <time>2020-03-13T14:04:32Z</time>
      </trkpt>
      <trkpt lat="46.72728" lon="5.5622">
        <ele>295.6</ele>
        <time>2020-03-13T14:04:38Z</time>
      </trkpt>
      <trkpt lat="46.7273" lon="5.56213">
        <ele>295.3</ele>
        <time>2020-03-13T14:04:42Z</time>
      </trkpt>
      <trkpt lat="46.72731" lon="5.56206">
        <ele>294.8</ele>
        <time>2020-03-13T14:04:47Z</time>
      </trkpt>
      <trkpt lat="46.72732" lon="5.562">
        <ele>294.3</ele>
        <time>2020-03-13T14:04:52Z</time>
      </trkpt>
      <trkpt lat="46.72733" lon="5.56192">
        <ele>293.6</ele>
        <time>2020-03-13T14:04:57Z</time>
      </trkpt>
      <trkpt lat="46.72733" lon="5.56184">
        <ele>292.8</ele>
        <time>2020-03-13T14:05:02Z</time>
      </trkpt>
      <trkpt lat="46.72734" lon="5.56178">
        <ele>292.2</ele>
        <time>2020-03-13T14:05:06Z</time>
      </trkpt>
      <trkpt lat="46.72734" lon="5.5617">
        <ele>291.6</ele>
        <time>2020-03-13T14:05:11Z</time>
      </trkpt>
      <trkpt lat="46.72735" lon="5.56163">
        <ele>291.3</ele>
        <time>2020-03-13T14:05:18Z</time>
      </trkpt>
      <trkpt lat="46.72736" lon="5.56156">
        <ele>291.2</ele>
        <time>2020-03-13T14:05:22Z</time>
      </trkpt>
      <trkpt lat="46.72737" lon="5.56149">
        <ele>291.1</ele>
        <time>2020-03-13T14:05:25Z</time>
      </trkpt>
      <trkpt lat="46.72739" lon="5.56143">
        <ele>290.8</ele>
        <time>2020-03-13T14:05:28Z</time>
      </trkpt>
      <trkpt lat="46.7274" lon="5.56136">
        <ele>290.6</ele>
        <time>2020-03-13T14:05:32Z</time>
      </trkpt>
      <trkpt lat="46.72741" lon="5.56129">
        <ele>290.1</ele>
        <time>2020-03-13T14:05:37Z</time>
      </trkpt>
      <trkpt lat="46.72743" lon="5.56123">
        <ele>289.6</ele>
        <time>2020-03-13T14:05:42Z</time>
      </trkpt>
      <trkpt lat="46.72745" lon="5.56117">
        <ele>289.2</ele>
        <time>2020-03-13T14:05:47Z</time>
      </trkpt>
      <trkpt lat="46.72746" lon="5.56109">
        <ele>288.9</ele>
        <time>2020-03-13T14:05:52Z</time>
      </trkpt>
      <trkpt lat="46.72746" lon="5.56103">
        <ele>288.6</ele>
        <time>2020-03-13T14:05:56Z</time>
      </trkpt>
      <trkpt lat="46.72747" lon="5.56095">
        <ele>288</ele>
        <time>2020-03-13T14:06:01Z</time>
      </trkpt>
      <trkpt lat="46.72749" lon="5.56089">
        <ele>287.3</ele>
        <time>2020-03-13T14:06:07Z</time>
      </trkpt>
      <trkpt lat="46.72752" lon="5.56082">
        <ele>286.9</ele>
        <time>2020-03-13T14:06:12Z</time>
      </trkpt>
      <trkpt lat="46.72754" lon="5.56076">
        <ele>286.6</ele>
        <time>2020-03-13T14:06:17Z</time>
      </trkpt>
      <trkpt lat="46.72757" lon="5.5607">
        <ele>286.3</ele>
        <time>2020-03-13T14:06:23Z</time>
      </trkpt>
      <trkpt lat="46.72759" lon="5.56062">
        <ele>286.3</ele>
        <time>2020-03-13T14:06:27Z</time>
      </trkpt>
      <trkpt lat="46.7276" lon="5.56056">
        <ele>286.3</ele>
        <time>2020-03-13T14:06:32Z</time>
      </trkpt>
      <trkpt lat="46.72761" lon="5.56049">
        <ele>286.3</ele>
        <time>2020-03-13T14:06:37Z</time>
      </trkpt>
      <trkpt lat="46.72762" lon="5.56041">
        <ele>286.2</ele>
        <time>2020-03-13T14:06:42Z</time>
      </trkpt>
      <trkpt lat="46.72764" lon="5.56034">
        <ele>286</ele>
        <time>2020-03-13T14:06:47Z</time>
      </trkpt>
      <trkpt lat="46.72766" lon="5.56028">
        <ele>285.5</ele>
        <time>2020-03-13T14:06:53Z</time>
      </trkpt>
      <trkpt lat="46.72769" lon="5.56022">
        <ele>285.3</ele>
        <time>2020-03-13T14:06:58Z</time>
      </trkpt>
      <trkpt lat="46.72772" lon="5.56014">
        <ele>285.2</ele>
        <time>2020-03-13T14:07:04Z</time>
      </trkpt>
      <trkpt lat="46.72772" lon="5.56006">
        <ele>285.3</ele>
        <time>2020-03-13T14:07:09Z</time>
      </trkpt>
      <trkpt lat="46.72773" lon="5.55998">
        <ele>285.2</ele>
        <time>2020-03-13T14:07:14Z</time>
      </trkpt>
      <trkpt lat="46.72774" lon="5.55991">
        <ele>284.8</ele>
        <time>2020-03-13T14:07:19Z</time>
      </trkpt>
      <trkpt lat="46.72775" lon="5.55984">
        <ele>284.2</ele>
        <time>2020-03-13T14:07:23Z</time>
      </trkpt>
      <trkpt lat="46.72775" lon="5.55977">
        <ele>283.8</ele>
        <time>2020-03-13T14:07:27Z</time>
      </trkpt>
      <trkpt lat="46.72776" lon="5.55969">
        <ele>283.6</ele>
        <time>2020-03-13T14:07:31Z</time>
      </trkpt>
      <trkpt lat="46.72778" lon="5.55963">
        <ele>283.3</ele>
        <time>2020-03-13T14:07:35Z</time>
      </trkpt>
      <trkpt lat="46.72781" lon="5.55956">
        <ele>282.9</ele>
        <time>2020-03-13T14:07:40Z</time>
      </trkpt>
      <trkpt lat="46.72785" lon="5.55951">
        <ele>282.2</ele>
        <time>2020-03-13T14:07:45Z</time>
      </trkpt>
      <trkpt lat="46.72788" lon="5.55945">
        <ele>281.4</ele>
        <time>2020-03-13T14:07:51Z</time>
      </trkpt>
      <trkpt lat="46.72792" lon="5.55941">
        <ele>281</ele>
        <time>2020-03-13T14:07:55Z</time>
      </trkpt>
      <trkpt lat="46.72796" lon="5.55938">
        <ele>280.5</ele>
        <time>2020-03-13T14:07:59Z</time>
      </trkpt>
      <trkpt lat="46.728" lon="5.55934">
        <ele>279.9</ele>
        <time>2020-03-13T14:08:04Z</time>
      </trkpt>
      <trkpt lat="46.72804" lon="5.55931">
        <ele>279.3</ele>
        <time>2020-03-13T14:08:09Z</time>
      </trkpt>
      <trkpt lat="46.72809" lon="5.55928">
        <ele>278.9</ele>
        <time>2020-03-13T14:08:13Z</time>
      </trkpt>
      <trkpt lat="46.72815" lon="5.55925">
        <ele>278.6</ele>
        <time>2020-03-13T14:08:17Z</time>
      </trkpt>
      <trkpt lat="46.7282" lon="5.55923">
        <ele>278.6</ele>
        <time>2020-03-13T14:08:21Z</time>
      </trkpt>
      <trkpt lat="46.72825" lon="5.55922">
        <ele>278.6</ele>
        <time>2020-03-13T14:08:26Z</time>
      </trkpt>
      <trkpt lat="46.72829" lon="5.5592">
        <ele>278.8</ele>
        <time>2020-03-13T14:08:31Z</time>
      </trkpt>
      <trkpt lat="46.72834" lon="5.55917">
        <ele>278.7</ele>
        <time>2020-03-13T14:08:36Z</time>
      </trkpt>
      <trkpt lat="46.72838" lon="5.55914">
        <ele>278.6</ele>
        <time>2020-03-13T14:08:41Z</time>
      </trkpt>
      <trkpt lat="46.72842" lon="5.5591">
        <ele>278.3</ele>
        <time>2020-03-13T14:08:45Z</time>
      </trkpt>
      <trkpt lat="46.72847" lon="5.55905">
        <ele>278</ele>
        <time>2020-03-13T14:08:50Z</time>
      </trkpt>
      <trkpt lat="46.72851" lon="5.55901">
        <ele>277.5</ele>
        <time>2020-03-13T14:08:56Z</time>
      </trkpt>
      <trkpt lat="46.72855" lon="5.55898">
        <ele>277.1</ele>
        <time>2020-03-13T14:09:02Z</time>
      </trkpt>
      <trkpt lat="46.72859" lon="5.55893">
        <ele>276.9</ele>
        <time>2020-03-13T14:09:08Z</time>
      </trkpt>
      <trkpt lat="46.72863" lon="5.55889">
        <ele>276.8</ele>
        <time>2020-03-13T14:09:13Z</time>
      </trkpt>
      <trkpt lat="46.72868" lon="5.55885">
        <ele>276.8</ele>
        <time>2020-03-13T14:09:17Z</time>
      </trkpt>
      <trkpt lat="46.72872" lon="5.5588">
        <ele>277.1</ele>
        <time>2020-03-13T14:09:22Z</time>
      </trkpt>
      <trkpt lat="46.72876" lon="5.55875">
        <ele>277.4</ele>
        <time>2020-03-13T14:09:27Z</time>
      </trkpt>
      <trkpt lat="46.7288" lon="5.55871">
        <ele>277.9</ele>
        <time>2020-03-13T14:09:32Z</time>
      </trkpt>
      <trkpt lat="46.72884" lon="5.55866">
        <ele>278.8</ele>
        <time>2020-03-13T14:09:38Z</time>
      </trkpt>
      <trkpt lat="46.72886" lon="5.5586">
        <ele>279.5</ele>
        <time>2020-03-13T14:09:44Z</time>
      </trkpt>
      <trkpt lat="46.72886" lon="5.55852">
        <ele>279.8</ele>
        <time>2020-03-13T14:09:49Z</time>
      </trkpt>
      <trkpt lat="46.72888" lon="5.55846">
        <ele>280</ele>
        <time>2020-03-13T14:09:53Z</time>
      </trkpt>
      <trkpt lat="46.72889" lon="5.55839">
        <ele>280.1</ele>
        <time>2020-03-13T14:09:58Z</time>
      </trkpt>
      <trkpt lat="46.7289" lon="5.55831">
        <ele>280</ele>
        <time>2020-03-13T14:10:04Z</time>
      </trkpt>
      <trkpt lat="46.72891" lon="5.55823">
        <ele>279.7</ele>
        <time>2020-03-13T14:10:10Z</time>
      </trkpt>
      <trkpt lat="46.72891" lon="5.55816">
        <ele>279.1</ele>
        <time>2020-03-13T14:10:15Z</time>
      </trkpt>
      <trkpt lat="46.72897" lon="5.55793">
        <ele>277.5</ele>
        <time>2020-03-13T14:10:33Z</time>
      </trkpt>
      <trkpt lat="46.72898" lon="5.55786">
        <ele>278.1</ele>
        <time>2020-03-13T14:10:36Z</time>
      </trkpt>
      <trkpt lat="46.72897" lon="5.55779">
        <ele>278.9</ele>
        <time>2020-03-13T14:10:40Z</time>
      </trkpt>
      <trkpt lat="46.72897" lon="5.55771">
        <ele>279.9</ele>
        <time>2020-03-13T14:10:46Z</time>
      </trkpt>
      <trkpt lat="46.72898" lon="5.55765">
        <ele>280.2</ele>
        <time>2020-03-13T14:10:50Z</time>
      </trkpt>
      <trkpt lat="46.729" lon="5.55757">
        <ele>280.2</ele>
        <time>2020-03-13T14:10:55Z</time>
      </trkpt>
      <trkpt lat="46.72901" lon="5.5575">
        <ele>279.9</ele>
        <time>2020-03-13T14:11:01Z</time>
      </trkpt>
      <trkpt lat="46.72902" lon="5.55743">
        <ele>279.9</ele>
        <time>2020-03-13T14:11:06Z</time>
      </trkpt>
      <trkpt lat="46.72904" lon="5.55736">
        <ele>280</ele>
        <time>2020-03-13T14:11:11Z</time>
      </trkpt>
      <trkpt lat="46.72905" lon="5.55729">
        <ele>280.2</ele>
        <time>2020-03-13T14:11:15Z</time>
      </trkpt>
      <trkpt lat="46.72905" lon="5.55722">
        <ele>280.5</ele>
        <time>2020-03-13T14:11:21Z</time>
      </trkpt>
      <trkpt lat="46.72908" lon="5.55716">
        <ele>280.9</ele>
        <time>2020-03-13T14:11:25Z</time>
      </trkpt>
      <trkpt lat="46.72909" lon="5.55708">
        <ele>281.1</ele>
        <time>2020-03-13T14:11:30Z</time>
      </trkpt>
      <trkpt lat="46.72908" lon="5.55701">
        <ele>281.1</ele>
        <time>2020-03-13T14:11:35Z</time>
      </trkpt>
      <trkpt lat="46.72909" lon="5.55693">
        <ele>280.8</ele>
        <time>2020-03-13T14:11:41Z</time>
      </trkpt>
      <trkpt lat="46.72909" lon="5.55686">
        <ele>280.5</ele>
        <time>2020-03-13T14:11:46Z</time>
      </trkpt>
      <trkpt lat="46.7291" lon="5.55679">
        <ele>280.3</ele>
        <time>2020-03-13T14:11:51Z</time>
      </trkpt>
      <trkpt lat="46.72912" lon="5.55672">
        <ele>279.9</ele>
        <time>2020-03-13T14:11:57Z</time>
      </trkpt>
      <trkpt lat="46.72912" lon="5.55665">
        <ele>279.8</ele>
        <time>2020-03-13T14:12:03Z</time>
      </trkpt>
      <trkpt lat="46.72912" lon="5.55659">
        <ele>279.9</ele>
        <time>2020-03-13T14:12:07Z</time>
      </trkpt>
      <trkpt lat="46.72913" lon="5.55651">
        <ele>280.1</ele>
        <time>2020-03-13T14:12:11Z</time>
      </trkpt>
      <trkpt lat="46.72915" lon="5.55644">
        <ele>280.7</ele>
        <time>2020-03-13T14:12:16Z</time>
      </trkpt>
      <trkpt lat="46.72916" lon="5.55636">
        <ele>281</ele>
        <time>2020-03-13T14:12:20Z</time>
      </trkpt>
      <trkpt lat="46.72916" lon="5.5563">
        <ele>281.3</ele>
        <time>2020-03-13T14:12:24Z</time>
      </trkpt>
      <trkpt lat="46.72917" lon="5.55623">
        <ele>281.8</ele>
        <time>2020-03-13T14:12:29Z</time>
      </trkpt>
      <trkpt lat="46.72917" lon="5.55616">
        <ele>282.4</ele>
        <time>2020-03-13T14:12:34Z</time>
      </trkpt>
      <trkpt lat="46.72919" lon="5.55609">
        <ele>282.8</ele>
        <time>2020-03-13T14:12:38Z</time>
      </trkpt>
      <trkpt lat="46.72919" lon="5.55602">
        <ele>283.4</ele>
        <time>2020-03-13T14:12:42Z</time>
      </trkpt>
      <trkpt lat="46.72919" lon="5.55595">
        <ele>284.3</ele>
        <time>2020-03-13T14:12:48Z</time>
      </trkpt>
      <trkpt lat="46.72919" lon="5.55588">
        <ele>285.5</ele>
        <time>2020-03-13T14:12:55Z</time>
      </trkpt>
      <trkpt lat="46.7292" lon="5.5558">
        <ele>286.6</ele>
        <time>2020-03-13T14:13:02Z</time>
      </trkpt>
      <trkpt lat="46.72922" lon="5.55574">
        <ele>287</ele>
        <time>2020-03-13T14:13:05Z</time>
      </trkpt>
      <trkpt lat="46.72925" lon="5.55568">
        <ele>287.6</ele>
        <time>2020-03-13T14:13:10Z</time>
      </trkpt>
      <trkpt lat="46.72927" lon="5.55562">
        <ele>288</ele>
        <time>2020-03-13T14:13:17Z</time>
      </trkpt>
      <trkpt lat="46.72928" lon="5.55555">
        <ele>287.9</ele>
        <time>2020-03-13T14:13:22Z</time>
      </trkpt>
      <trkpt lat="46.72928" lon="5.55548">
        <ele>287.8</ele>
        <time>2020-03-13T14:13:26Z</time>
      </trkpt>
      <trkpt lat="46.72929" lon="5.55542">
        <ele>287.8</ele>
        <time>2020-03-13T14:13:31Z</time>
      </trkpt>
      <trkpt lat="46.72929" lon="5.55534">
        <ele>287.8</ele>
        <time>2020-03-13T14:13:36Z</time>
      </trkpt>
      <trkpt lat="46.72927" lon="5.55527">
        <ele>287.8</ele>
        <time>2020-03-13T14:13:40Z</time>
      </trkpt>
      <trkpt lat="46.7293" lon="5.5552">
        <ele>287.8</ele>
        <time>2020-03-13T14:13:49Z</time>
      </trkpt>
      <trkpt lat="46.72934" lon="5.55518">
        <ele>288.1</ele>
        <time>2020-03-13T14:13:58Z</time>
      </trkpt>
      <trkpt lat="46.72938" lon="5.55521">
        <ele>289.1</ele>
        <time>2020-03-13T14:14:16Z</time>
      </trkpt>
      <trkpt lat="46.72943" lon="5.5552">
        <ele>290.5</ele>
        <time>2020-03-13T14:14:39Z</time>
      </trkpt>
      <trkpt lat="46.7295" lon="5.55519">
        <ele>290.4</ele>
        <time>2020-03-13T14:14:44Z</time>
      </trkpt>
      <trkpt lat="46.72955" lon="5.55519">
        <ele>290.3</ele>
        <time>2020-03-13T14:14:48Z</time>
      </trkpt>
      <trkpt lat="46.7296" lon="5.55517">
        <ele>290.5</ele>
        <time>2020-03-13T14:14:53Z</time>
      </trkpt>
      <trkpt lat="46.72964" lon="5.55517">
        <ele>291.1</ele>
        <time>2020-03-13T14:14:58Z</time>
      </trkpt>
      <trkpt lat="46.72969" lon="5.55517">
        <ele>291.6</ele>
        <time>2020-03-13T14:15:03Z</time>
      </trkpt>
      <trkpt lat="46.72973" lon="5.55516">
        <ele>292.3</ele>
        <time>2020-03-13T14:15:10Z</time>
      </trkpt>
      <trkpt lat="46.72978" lon="5.55516">
        <ele>292.8</ele>
        <time>2020-03-13T14:15:18Z</time>
      </trkpt>
      <trkpt lat="46.72983" lon="5.55517">
        <ele>292.8</ele>
        <time>2020-03-13T14:15:22Z</time>
      </trkpt>
      <trkpt lat="46.72996" lon="5.55517">
        <ele>292.5</ele>
        <time>2020-03-13T14:15:34Z</time>
      </trkpt>
      <trkpt lat="46.73" lon="5.55514">
        <ele>292.1</ele>
        <time>2020-03-13T14:15:39Z</time>
      </trkpt>
      <trkpt lat="46.73004" lon="5.55511">
        <ele>291.6</ele>
        <time>2020-03-13T14:15:45Z</time>
      </trkpt>
      <trkpt lat="46.7301" lon="5.55512">
        <ele>290.9</ele>
        <time>2020-03-13T14:15:50Z</time>
      </trkpt>
      <trkpt lat="46.73019" lon="5.55514">
        <ele>288.9</ele>
        <time>2020-03-13T14:16:00Z</time>
      </trkpt>
      <trkpt lat="46.73024" lon="5.55516">
        <ele>288</ele>
        <time>2020-03-13T14:16:07Z</time>
      </trkpt>
      <trkpt lat="46.73029" lon="5.55513">
        <ele>287.5</ele>
        <time>2020-03-13T14:16:13Z</time>
      </trkpt>
      <trkpt lat="46.73033" lon="5.5551">
        <ele>287</ele>
        <time>2020-03-13T14:16:19Z</time>
      </trkpt>
      <trkpt lat="46.73038" lon="5.55512">
        <ele>286.3</ele>
        <time>2020-03-13T14:16:25Z</time>
      </trkpt>
      <trkpt lat="46.73043" lon="5.55512">
        <ele>285.9</ele>
        <time>2020-03-13T14:16:30Z</time>
      </trkpt>
      <trkpt lat="46.73048" lon="5.55513">
        <ele>285.9</ele>
        <time>2020-03-13T14:16:36Z</time>
      </trkpt>
      <trkpt lat="46.73053" lon="5.55514">
        <ele>286.3</ele>
        <time>2020-03-13T14:16:40Z</time>
      </trkpt>
      <trkpt lat="46.73057" lon="5.55514">
        <ele>287.1</ele>
        <time>2020-03-13T14:16:46Z</time>
      </trkpt>
      <trkpt lat="46.73062" lon="5.55514">
        <ele>287.8</ele>
        <time>2020-03-13T14:16:50Z</time>
      </trkpt>
      <trkpt lat="46.73067" lon="5.55511">
        <ele>288.2</ele>
        <time>2020-03-13T14:16:53Z</time>
      </trkpt>
      <trkpt lat="46.73071" lon="5.55507">
        <ele>288.9</ele>
        <time>2020-03-13T14:17:02Z</time>
      </trkpt>
      <trkpt lat="46.73076" lon="5.55504">
        <ele>289.2</ele>
        <time>2020-03-13T14:17:09Z</time>
      </trkpt>
      <trkpt lat="46.7308" lon="5.55502">
        <ele>289.3</ele>
        <time>2020-03-13T14:17:13Z</time>
      </trkpt>
      <trkpt lat="46.73085" lon="5.55501">
        <ele>289.9</ele>
        <time>2020-03-13T14:17:28Z</time>
      </trkpt>
      <trkpt lat="46.73089" lon="5.55498">
        <ele>290.1</ele>
        <time>2020-03-13T14:17:34Z</time>
      </trkpt>
      <trkpt lat="46.73093" lon="5.55494">
        <ele>290.2</ele>
        <time>2020-03-13T14:17:42Z</time>
      </trkpt>
      <trkpt lat="46.73097" lon="5.55496">
        <ele>290.6</ele>
        <time>2020-03-13T14:17:54Z</time>
      </trkpt>
    </trkseg>
  </trk>
</gpx>